# Wetter Temperatur Luftdruck Luftfeuchtigkeit Sichtweite Windgeschwindigkeit Windrichtung Zeit
1 Rain 14 1014 91 0 0.89 141 07:58 14.07.2020
2 Rain 15 1014 90 0 0.89 141 07:38 14.07.2020
3 Rain 15 1014 90 0 0.45 139 07:18 14.07.2020
4 Rain 15 1014 88 0 0.45 141 06:41 14.07.2020
5 Clouds 14 1015 87 0 2.73 244 06:21 14.07.2020
6 Clouds 14 1015 83 0 0.45 140 05:33 14.07.2020
7 Clouds 14 1015 83 0 0.45 140 04:37 14.07.2020
8 Clouds 14 1016 83 0 0.45 140 03:36 14.07.2020
9 Clouds 14 1016 85 0 0.45 338 02:49 14.07.2020
10 Clouds 14 1016 86 0 0.45 338 02:25 14.07.2020
11 Clouds 14 1017 87 0 0.89 139 01:36 14.07.2020
12 Clouds 14 1017 87 0 2.01 170 00:55 14.07.2020
13 Clouds 14 1017 87 0 2.01 170 00:36 14.07.2020
14 Clouds 14 1017 86 0 1.16 134 00:18 14.07.2020
15 Clouds 14 1017 84 0 1.16 134 23:37 13.07.2020
16 Clouds 14 1018 82 0 1.55 83 23:19 13.07.2020
17 Clouds 15 1018 78 0 1.55 83 22:42 13.07.2020
18 Clouds 16 1019 75 0 1.79 56 22:22 13.07.2020
19 Clouds 17 1019 72 0 1.79 56 21:57 13.07.2020
20 Clouds 19 1018 69 0 0.45 347 21:39 13.07.2020
21 Clouds 19 1018 68 0 1.89 20 21:20 13.07.2020
22 Clouds 20 1018 67 0 0.45 347 20:58 13.07.2020
23 Clouds 20 1019 65 0 0.45 347 20:40 13.07.2020
24 Clouds 21 1019 64 0 0.89 347 20:21 13.07.2020
25 Clouds 21 1019 62 0 0.45 347 19:57 13.07.2020
26 Clouds 21 1019 60 0 1.34 349 19:38 13.07.2020
27 Clouds 22 1019 57 0 1.34 333 19:19 13.07.2020
28 Clouds 22 1019 51 0 1.34 5 18:42 13.07.2020
29 Clouds 23 1019 50 0 1.79 4 18:24 13.07.2020
30 Clouds 23 1020 53 0 0.89 8 17:58 13.07.2020
31 Clouds 21 1019 62 0 0.45 264 17:40 13.07.2020
32 Clouds 22 1023 50 0 1.91 250 17:21 13.07.2020
33 Clouds 22 1020 49 0 1.34 278 16:58 13.07.2020
34 Clouds 22 1020 59 0 0.45 209 16:40 13.07.2020
35 Clouds 22 1020 51 0 1.34 237 16:20 13.07.2020
36 Clouds 23 1021 47 0 1.34 218 15:57 13.07.2020
37 Clouds 22 1021 50 0 1.79 338 15:38 13.07.2020
38 Clear 22 1021 50 0 2.68 201 15:19 13.07.2020
39 Clear 22 1021 48 0 2.24 205 14:56 13.07.2020
40 Clear 22 1022 54 0 1.34 179 14:38 13.07.2020
41 Clouds 21 1022 54 0 1.34 220 14:19 13.07.2020
42 Clouds 21 1022 52 0 2.24 230 13:43 13.07.2020
43 Clouds 21 1021 54 0 2.67 255 13:22 13.07.2020
44 Clouds 21 1023 57 0 1.79 196 12:57 13.07.2020
45 Clouds 20 1023 53 0 2.24 195 12:39 13.07.2020
46 Clear 20 1023 49 0 2.24 245 12:20 13.07.2020
47 Clear 19 1023 53 0 1.79 235 11:42 13.07.2020
48 Clouds 19 1023 55 0 1.34 338 11:24 13.07.2020
49 Clouds 19 1023 60 0 1.34 207 10:54 13.07.2020
50 Clouds 18 1024 66 0 0.89 259 10:36 13.07.2020
51 Clouds 18 1024 68 0 0.89 235 10:18 13.07.2020
52 Clouds 18 1024 75 0 0.89 247 09:41 13.07.2020
53 Clouds 15 1024 79 0 0.89 214 09:22 13.07.2020
54 Clear 14 1025 87 0 1.34 143 08:50 13.07.2020
55 Clear 14 1025 91 0 0.89 338 08:32 13.07.2020
56 Clouds 12 1025 93 0 2.25 226 07:34 13.07.2020
57 Clouds 11 1025 93 0 2.22 226 06:55 13.07.2020
58 Clouds 10 1025 92 0 2.22 226 06:37 13.07.2020
59 Clouds 10 1025 92 0 2.33 229 06:19 13.07.2020
60 Clouds 9 1025 91 0 2.48 224 04:34 13.07.2020
61 Clouds 10 1026 90 0 1.49 217 01:53 13.07.2020
62 Clouds 10 1026 89 0 1.46 218 01:26 13.07.2020
63 Clouds 11 1026 88 0 1.46 218 00:57 13.07.2020
64 Clouds 11 1027 87 0 1.06 243 00:25 13.07.2020
65 Clouds 11 1027 86 0 1.06 243 23:58 12.07.2020
66 Clouds 12 1027 85 0 1.06 243 23:39 12.07.2020
67 Clouds 12 1027 84 0 1.26 282 23:21 12.07.2020
68 Clouds 13 1027 80 0 1.26 282 22:39 12.07.2020
69 Clouds 14 1027 79 0 1.31 306 22:20 12.07.2020
70 Clouds 14 1027 76 0 1.31 306 21:59 12.07.2020
71 Clouds 15 1027 75 0 1.31 306 21:40 12.07.2020
72 Clouds 16 1027 74 0 0.45 338 21:20 12.07.2020
73 Clouds 16 1027 74 0 0.45 338 21:20 12.07.2020
74 Clouds 16 1027 73 0 0.45 0 20:58 12.07.2020
75 Clouds 16 1027 71 0 0.45 0 20:40 12.07.2020
76 Clear 17 1027 69 0 0.89 318 20:20 12.07.2020
77 Clear 17 1027 68 0 1.34 328 19:55 12.07.2020
78 Clear 18 1027 64 0 1.34 322 19:37 12.07.2020
79 Clear 18 1027 60 0 1.34 353 19:18 12.07.2020
80 Clear 19 1025 64 0 0.45 306 18:42 12.07.2020
81 Clear 19 1025 62 0 0.45 282 18:20 12.07.2020
82 Clear 19 1025 63 0 3.61 324 17:58 12.07.2020
83 Clear 19 1025 62 0 3.61 324 17:37 12.07.2020
84 Clear 19 1025 64 0 0.45 279 17:19 12.07.2020
85 Clear 19 1026 62 0 0.45 6 16:45 12.07.2020
86 Clear 20 1026 64 0 0.45 311 16:21 12.07.2020
87 Clear 20 1028 57 0 2.24 338 15:45 12.07.2020
88 Clear 19 1026 67 0 0.45 328 15:26 12.07.2020
89 Clear 18 1026 66 0 0.45 290 14:57 12.07.2020
90 Clear 19 1028 61 0 2.68 338 14:38 12.07.2020
91 Clouds 18 1028 55 4900 3.1 290 14:18 12.07.2020
92 Clouds 18 1028 59 5000 4.1 330 13:39 12.07.2020
93 Clouds 19 1028 65 0 1.34 284 13:20 12.07.2020
94 Clouds 19 1028 65 0 1.79 338 12:55 12.07.2020
95 Clouds 19 1028 66 0 1.79 338 12:36 12.07.2020
96 Clouds 19 1028 66 0 2.24 316 12:18 12.07.2020
97 Clouds 19 1028 66 0 2.24 316 12:18 12.07.2020
98 Clouds 18 1028 67 0 2.68 295 11:44 12.07.2020
99 Clouds 18 1028 71 0 2.24 338 11:20 12.07.2020
100 Clouds 17 1027 74 0 1.34 274 10:43 12.07.2020
101 Clouds 17 1028 75 0 1.34 297 10:23 12.07.2020
102 Clouds 17 1028 76 0 1.79 256 09:58 12.07.2020
103 Clouds 16 1027 78 0 1.79 338 09:40 12.07.2020
104 Clouds 15 1027 72 6000 2.6 260 09:20 12.07.2020
105 Clouds 15 1027 83 0 1.34 253 08:54 12.07.2020
106 Clouds 15 1027 87 0 1.34 338 08:36 12.07.2020
107 Clouds 14 1027 90 0 1.34 287 08:18 12.07.2020
108 Clouds 13 1027 92 0 0.89 224 07:42 12.07.2020
109 Clouds 13 1027 92 0 0.89 224 07:42 12.07.2020
110 Clouds 11 1027 93 0 0.89 338 07:21 12.07.2020
111 Clouds 11 1027 93 0 2.28 278 06:51 12.07.2020
112 Clouds 10 1027 93 0 0.45 293 06:21 12.07.2020
113 Clouds 10 1027 92 0 0.45 293 05:42 12.07.2020
114 Clear 10 1026 92 0 2.19 294 04:56 12.07.2020
115 Clear 9 1026 91 0 2.22 299 04:26 12.07.2020
116 Clear 9 1026 91 0 2.22 299 03:34 12.07.2020
117 Clear 11 1026 90 0 2.02 307 02:52 12.07.2020
118 Clear 10 1026 89 0 1.79 303 01:44 12.07.2020
119 Clear 10 1026 88 0 1.66 298 00:52 12.07.2020
120 Clear 11 1026 88 0 1.71 291 00:23 12.07.2020
121 Clear 11 1026 87 0 1.71 291 23:58 11.07.2020
122 Clear 12 1026 87 0 1.71 291 23:39 11.07.2020
123 Clear 12 1026 87 0 1.75 281 23:20 11.07.2020
124 Clear 12 1026 85 0 1.75 281 22:55 11.07.2020
125 Clear 12 1026 84 0 1.75 281 22:37 11.07.2020
126 Clear 12 1026 84 0 1.75 281 22:37 11.07.2020
127 Clear 13 1026 82 0 1.85 281 22:18 11.07.2020
128 Clear 14 1025 80 0 1.85 281 21:42 11.07.2020
129 Clear 15 1025 78 0 0.45 291 21:23 11.07.2020
130 Clear 16 1025 76 0 0.45 292 20:59 11.07.2020
131 Clear 17 1025 75 0 0.89 291 20:40 11.07.2020
132 Clear 16 1025 73 0 1.34 291 20:21 11.07.2020
133 Clear 17 1025 71 0 0.89 324 19:58 11.07.2020
134 Clear 17 1025 68 0 1.79 266 19:40 11.07.2020
135 Clear 17 1025 67 0 2.24 349 19:22 11.07.2020
136 Clear 18 1024 61 0 1.79 338 18:56 11.07.2020
137 Clear 18 1024 60 0 1.79 338 18:37 11.07.2020
138 Clear 18 1024 60 0 2.24 302 18:19 11.07.2020
139 Clear 17 1024 58 0 2.24 283 17:48 11.07.2020
140 Clouds 17 1024 60 0 2.68 301 17:22 11.07.2020
141 Clouds 17 1024 59 0 2.24 310 16:59 11.07.2020
142 Clouds 17 1024 62 0 2.68 0 16:40 11.07.2020
143 Clouds 17 1024 61 0 2.24 251 16:21 11.07.2020
144 Clouds 16 1024 69 0 3.13 283 15:57 11.07.2020
145 Clouds 17 1024 67 0 2.68 283 15:39 11.07.2020
146 Clouds 16 1024 76 0 2.68 338 15:20 11.07.2020
147 Clouds 17 1023 74 0 2.24 242 14:56 11.07.2020
148 Rain 17 1023 80 0 2.24 303 14:36 11.07.2020
149 Rain 17 1023 80 0 2.24 303 14:36 11.07.2020
150 Rain 17 1023 81 0 2.24 338 14:18 11.07.2020
151 Rain 17 1023 89 0 0.45 338 13:42 11.07.2020
152 Rain 16 1023 88 0 0.45 338 13:22 11.07.2020
153 Rain 16 1023 84 0 1.34 338 12:56 11.07.2020
154 Rain 17 1023 85 0 0.89 261 12:37 11.07.2020
155 Rain 15 1023 87 0 0.89 223 12:19 11.07.2020
156 Rain 17 1022 77 0 2.24 220 11:41 11.07.2020
157 Rain 16 1022 80 0 2.68 243 11:21 11.07.2020
158 Rain 16 1022 85 0 0.89 287 10:57 11.07.2020
159 Rain 16 1022 81 0 2.24 255 10:39 11.07.2020
160 Rain 17 1022 75 0 2.68 289 10:21 11.07.2020
161 Rain 16 1021 80 0 1.79 259 09:43 11.07.2020
162 Rain 15 1022 83 0 2.24 231 09:20 11.07.2020
163 Rain 13 1022 88 0 1.34 304 08:49 11.07.2020
164 Rain 14 1021 87 0 2.24 215 08:31 11.07.2020
165 Rain 14 1021 90 0 1.79 276 07:59 11.07.2020
166 Rain 13 1021 91 0 2.24 217 07:40 11.07.2020
167 Rain 12 1021 92 0 1.34 208 07:19 11.07.2020
168 Rain 11 1021 93 0 1.34 253 06:51 11.07.2020
169 Rain 11 1021 92 0 1.34 251 06:20 11.07.2020
170 Rain 10 1020 91 0 0.45 222 05:20 11.07.2020
171 Rain 10 1020 91 0 0.89 338 04:55 11.07.2020
172 Rain 10 1020 90 0 0.89 219 04:31 11.07.2020
173 Clear 10 1020 89 0 1.34 244 02:59 11.07.2020
174 Clear 10 1019 88 0 1.34 246 02:36 11.07.2020
175 Clear 11 1019 87 0 1.34 254 01:32 11.07.2020
176 Clear 11 1019 87 0 0.45 338 00:59 11.07.2020
177 Clear 11 1018 87 0 0.89 268 00:40 11.07.2020
178 Clear 11 1018 87 0 0.89 283 00:21 11.07.2020
179 Clear 11 1018 86 0 0.45 284 23:57 10.07.2020
180 Clear 11 1018 85 0 0.89 282 23:39 10.07.2020
181 Clear 12 1018 84 0 0.89 282 23:18 10.07.2020
182 Clear 12 1018 83 0 0.89 283 22:43 10.07.2020
183 Clear 12 1017 82 0 0.45 284 22:20 10.07.2020
184 Clear 13 1017 81 0 1.34 338 21:55 10.07.2020
185 Clear 13 1017 79 0 1.34 338 21:36 10.07.2020
186 Clear 14 1017 77 0 1.34 287 21:18 10.07.2020
187 Clear 15 1017 74 0 1.79 279 20:41 10.07.2020
188 Clouds 15 1017 73 0 1.79 293 20:23 10.07.2020
189 Clouds 16 1017 70 0 2.24 287 19:57 10.07.2020
190 Clouds 16 1017 69 0 2.24 293 19:39 10.07.2020
191 Clouds 16 1016 64 0 2.68 338 19:20 10.07.2020
192 Clouds 16 1016 61 0 3.58 338 18:42 10.07.2020
193 Clouds 17 1016 67 0 2.68 304 18:22 10.07.2020
194 Clouds 17 1016 63 0 3.58 338 17:59 10.07.2020
195 Clouds 17 1015 70 0 3.13 291 17:40 10.07.2020
196 Clouds 16 1015 70 0 2.68 338 17:21 10.07.2020
197 Clouds 16 1015 67 0 2.68 338 16:44 10.07.2020
198 Clouds 16 1014 73 0 3.13 338 16:21 10.07.2020
199 Clouds 16 1014 73 0 2.68 328 15:57 10.07.2020
200 Clouds 16 1014 75 0 2.24 286 15:39 10.07.2020
201 Clouds 15 1013 80 0 2.24 282 15:18 10.07.2020
202 Clouds 15 1013 82 0 2.24 285 14:41 10.07.2020
203 Clouds 15 1013 81 0 2.24 1 14:22 10.07.2020
204 Clouds 15 1012 84 0 2.24 338 13:58 10.07.2020
205 Clouds 14 1012 86 0 2.68 351 13:40 10.07.2020
206 Rain 14 1012 87 0 2.24 347 13:22 10.07.2020
207 Rain 14 1011 89 0 2.24 343 12:58 10.07.2020
208 Rain 14 1011 90 0 2.24 305 12:40 10.07.2020
209 Rain 14 1011 91 0 2.68 300 12:21 10.07.2020
210 Rain 13 1010 94 0 1.79 338 11:43 10.07.2020
211 Rain 13 1010 94 0 2.68 6 11:22 10.07.2020
212 Rain 13 1009 94 0 2.68 358 10:59 10.07.2020
213 Rain 13 1009 94 0 2.68 358 10:59 10.07.2020
214 Rain 13 1009 94 0 3.13 9 10:41 10.07.2020
215 Rain 13 1009 95 0 3.13 351 10:21 10.07.2020
216 Rain 13 1008 95 0 3.13 27 09:55 10.07.2020
217 Rain 13 1008 96 0 2.68 5 09:36 10.07.2020
218 Rain 13 1008 96 0 2.24 10 09:18 10.07.2020
219 Rain 12 1008 96 0 2.24 4 08:54 10.07.2020
220 Rain 12 1008 95 0 2.24 8 08:36 10.07.2020
221 Rain 12 1007 95 0 2.24 350 08:18 10.07.2020
222 Rain 12 1007 95 0 1.79 355 07:41 10.07.2020
223 Rain 12 1007 95 0 1.79 1 07:20 10.07.2020
224 Rain 11 1007 95 0 1.79 70 06:45 10.07.2020
225 Rain 12 1007 95 0 2.68 2 05:54 10.07.2020
226 Rain 12 1007 95 0 3.13 1 04:31 10.07.2020
227 Rain 12 1008 95 0 2.24 13 03:31 10.07.2020
228 Rain 12 1008 95 0 1.34 51 02:49 10.07.2020
229 Clouds 13 1009 95 0 1.79 0 01:47 10.07.2020
230 Clouds 13 1010 94 0 1.34 43 00:45 10.07.2020
231 Clouds 13 1010 94 0 1.79 26 00:18 10.07.2020
232 Clouds 13 1010 94 0 1.34 65 23:45 09.07.2020
233 Clouds 13 1010 94 0 1.34 21 23:21 09.07.2020
234 Clouds 13 1010 94 0 0.89 10 22:58 09.07.2020
235 Clouds 13 1010 94 0 1.79 76 22:40 09.07.2020
236 Clouds 13 1011 94 0 1.34 40 22:21 09.07.2020
237 Clouds 13 1011 94 0 1.34 8 21:56 09.07.2020
238 Clouds 13 1010 94 0 1.34 34 21:38 09.07.2020
239 Rain 13 1011 93 0 0.89 24 21:19 09.07.2020
240 Rain 13 1010 94 0 1.34 31 20:44 09.07.2020
241 Rain 14 1011 93 0 0.89 43 20:25 09.07.2020
242 Rain 14 1011 94 0 0.89 51 19:58 09.07.2020
243 Rain 14 1011 94 0 0.45 20 19:40 09.07.2020
244 Rain 14 1011 93 0 1.34 24 19:20 09.07.2020
245 Rain 14 1011 93 0 1.34 13 18:42 09.07.2020
246 Rain 14 1011 93 0 0.89 29 18:22 09.07.2020
247 Rain 14 1011 93 0 0.89 29 18:22 09.07.2020
248 Rain 14 1011 93 0 0.89 20 17:56 09.07.2020
249 Rain 14 1011 93 0 0.89 18 17:38 09.07.2020
250 Rain 14 1011 93 0 0.89 65 17:19 09.07.2020
251 Rain 14 1011 93 0 1.34 26 16:55 09.07.2020
252 Rain 14 1011 93 0 1.34 44 16:37 09.07.2020
253 Rain 14 1011 93 0 1.34 17 16:19 09.07.2020
254 Rain 14 1011 94 0 1.34 22 15:55 09.07.2020
255 Rain 14 1011 94 0 1.34 53 15:36 09.07.2020
256 Rain 14 1011 94 0 1.34 85 15:18 09.07.2020
257 Rain 14 1011 94 0 1.34 45 14:57 09.07.2020
258 Rain 14 1011 94 0 1.79 47 14:39 09.07.2020
259 Rain 14 1011 94 0 1.79 19 14:19 09.07.2020
260 Rain 14 1011 94 0 1.79 43 13:55 09.07.2020
261 Rain 14 1011 94 0 1.79 61 13:36 09.07.2020
262 Rain 13 1011 94 0 2.24 62 13:18 09.07.2020
263 Rain 13 1011 94 0 2.68 25 12:40 09.07.2020
264 Rain 13 1011 94 0 2.24 57 12:21 09.07.2020
265 Rain 13 1011 94 0 2.68 25 11:56 09.07.2020
266 Rain 13 1011 94 0 1.79 10 11:37 09.07.2020
267 Rain 12 1011 94 0 1.79 39 11:18 09.07.2020
268 Rain 12 1011 93 0 1.34 19 10:55 09.07.2020
269 Rain 12 1011 93 0 1.79 35 10:37 09.07.2020
270 Rain 12 1011 93 0 1.34 45 10:18 09.07.2020
271 Rain 12 1011 93 0 1.34 33 09:41 09.07.2020
272 Rain 12 1011 93 0 1.79 82 09:22 09.07.2020
273 Rain 12 1011 92 0 1.34 338 08:49 09.07.2020
274 Rain 12 1012 92 0 1.34 32 08:26 09.07.2020
275 Rain 12 1012 91 0 1.34 70 07:50 09.07.2020
276 Rain 12 1013 90 0 1.34 54 07:30 09.07.2020
277 Rain 12 1013 89 0 0.89 91 06:58 09.07.2020
278 Rain 12 1013 88 0 0.89 106 06:20 09.07.2020
279 Rain 12 1013 86 0 1.34 89 05:47 09.07.2020
280 Rain 12 1014 84 0 0.89 86 04:28 09.07.2020
281 Clouds 12 1015 81 0 1.34 49 02:45 09.07.2020
282 Clouds 12 1015 80 0 1.34 22 01:54 09.07.2020
283 Clouds 12 1015 80 0 0.89 92 00:56 09.07.2020
284 Clouds 13 1015 80 0 1.34 16 00:38 09.07.2020
285 Clouds 13 1015 80 0 1.34 45 00:19 09.07.2020
286 Clouds 13 1015 80 0 1.34 22 23:43 08.07.2020
287 Clouds 13 1015 80 0 1.34 22 23:24 08.07.2020
288 Clouds 13 1015 79 0 0.89 2 22:55 08.07.2020
289 Clouds 13 1015 79 0 0.89 6 22:36 08.07.2020
290 Clouds 14 1015 77 0 1.34 1 22:18 08.07.2020
291 Clouds 14 1015 76 0 1.34 20 21:55 08.07.2020
292 Clouds 14 1015 75 0 0.89 12 21:36 08.07.2020
293 Clouds 15 1015 74 0 1.79 355 21:18 08.07.2020
294 Clouds 15 1015 73 0 2.24 347 20:41 08.07.2020
295 Clouds 16 1015 74 0 1.79 4 20:23 08.07.2020
296 Clouds 16 1015 74 0 1.79 7 19:55 08.07.2020
297 Clouds 16 1015 74 0 1.34 4 19:37 08.07.2020
298 Clouds 16 1015 75 0 1.34 2 19:18 08.07.2020
299 Clouds 16 1015 74 0 1.79 343 18:41 08.07.2020
300 Clouds 16 1015 73 0 1.34 359 18:21 08.07.2020
301 Clouds 16 1015 74 0 1.79 347 17:57 08.07.2020
302 Clouds 16 1015 76 0 1.34 18 17:39 08.07.2020
303 Clouds 16 1015 80 0 1.34 0 17:20 08.07.2020
304 Clouds 17 1015 80 0 1.79 2 16:58 08.07.2020
305 Clouds 17 1015 80 0 0.89 333 16:38 08.07.2020
306 Clouds 16 1015 81 0 0.89 316 16:19 08.07.2020
307 Clouds 16 1015 80 0 0.45 313 15:58 08.07.2020
308 Clouds 17 1015 78 0 0.45 0 15:38 08.07.2020
309 Clouds 16 1015 77 0 0.45 172 15:19 08.07.2020
310 Clouds 16 1015 72 0 0.89 177 14:44 08.07.2020
311 Clouds 14 1015 72 10000 2.1 280 14:25 08.07.2020
312 Clouds 15 1013 72 0 1.16 242 13:58 08.07.2020
313 Clouds 16 1015 74 0 0.89 245 13:40 08.07.2020
314 Rain 16 1015 75 0 0.45 176 13:18 08.07.2020
315 Rain 15 1015 74 0 0.89 164 12:41 08.07.2020
316 Rain 14 1015 74 0 0.89 176 12:20 08.07.2020
317 Rain 14 1015 72 0 0.89 207 11:56 08.07.2020
318 Rain 14 1015 72 0 1.34 338 11:38 08.07.2020
319 Rain 14 1015 73 0 0.45 184 11:19 08.07.2020
320 Rain 15 1015 81 0 1.79 197 10:43 08.07.2020
321 Rain 15 1015 83 0 1.34 199 10:24 08.07.2020
322 Rain 14 1014 85 0 0.89 178 09:46 08.07.2020
323 Clouds 14 1014 88 0 0.45 195 09:25 08.07.2020
324 Clouds 14 1014 88 0 1.34 199 08:57 08.07.2020
325 Clouds 14 1014 89 0 0.89 200 08:38 08.07.2020
326 Clouds 13 1014 89 0 1.34 199 08:19 08.07.2020
327 Clouds 13 1014 90 0 1.79 205 07:43 08.07.2020
328 Clouds 12 1014 91 0 0.89 208 07:22 08.07.2020
329 Clouds 11 1014 91 0 0.45 209 06:46 08.07.2020
330 Clouds 11 1014 91 0 0.89 208 06:27 08.07.2020
331 Clouds 11 1014 90 0 0.89 210 05:49 08.07.2020
332 Clouds 11 1014 89 0 1.34 207 04:50 08.07.2020
333 Clouds 11 1014 88 0 1.34 202 04:20 08.07.2020
334 Clouds 11 1015 90 0 0.89 234 02:20 08.07.2020
335 Clouds 11 1015 88 0 0.89 220 01:39 08.07.2020
336 Clouds 11 1015 88 0 1.34 224 01:39 08.07.2020
337 Rain 11 1015 87 0 1.34 222 00:59 08.07.2020
338 Rain 11 1015 85 0 1.34 215 00:22 08.07.2020
339 Rain 11 1016 85 0 1.34 208 23:44 07.07.2020
340 Rain 11 1016 85 0 1.79 216 23:24 07.07.2020
341 Rain 12 1016 84 0 1.79 228 22:58 07.07.2020
342 Rain 12 1016 84 0 1.34 238 22:40 07.07.2020
343 Clouds 12 1016 83 0 1.79 228 22:20 07.07.2020
344 Clouds 13 1017 84 0 2.24 252 21:58 07.07.2020
345 Clouds 13 1016 85 0 1.34 262 21:38 07.07.2020
346 Clouds 14 1016 83 0 1.34 237 21:19 07.07.2020
347 Clouds 14 1016 81 0 1.79 246 20:56 07.07.2020
348 Clouds 14 1016 77 0 1.79 338 20:37 07.07.2020
349 Rain 14 1017 76 0 2.24 253 20:19 07.07.2020
350 Rain 15 1017 74 0 2.24 263 19:40 07.07.2020
351 Rain 15 1017 74 0 3.13 252 19:21 07.07.2020
352 Rain 15 1017 74 0 3.13 252 19:21 07.07.2020
353 Rain 15 1017 74 0 2.24 266 18:56 07.07.2020
354 Rain 15 1017 73 0 3.13 282 18:38 07.07.2020
355 Rain 15 1017 73 0 3.13 282 18:38 07.07.2020
356 Rain 15 1017 73 0 3.13 282 18:38 07.07.2020
357 Clouds 16 1017 72 0 3.13 338 18:20 07.07.2020
358 Clouds 16 1017 72 0 2.68 255 17:58 07.07.2020
359 Clouds 16 1017 71 0 3.13 244 17:38 07.07.2020
360 Clouds 16 1017 70 0 3.13 338 17:20 07.07.2020
361 Clouds 16 1017 70 0 3.13 338 17:20 07.07.2020
362 Clouds 16 1017 67 0 4.47 257 16:43 07.07.2020
363 Clouds 16 1017 67 0 3.58 338 16:24 07.07.2020
364 Clouds 16 1017 66 0 3.13 255 15:58 07.07.2020
365 Clouds 16 1017 65 0 4.02 249 15:39 07.07.2020
366 Rain 16 1017 68 0 3.58 245 15:20 07.07.2020
367 Rain 16 1017 71 0 3.58 266 14:47 07.07.2020
368 Rain 16 1017 71 0 4.92 239 14:27 07.07.2020
369 Rain 15 1017 81 0 3.13 237 13:59 07.07.2020
370 Rain 15 1017 89 0 1.79 338 13:38 07.07.2020
371 Rain 15 1017 89 0 2.24 255 13:38 07.07.2020
372 Rain 15 1017 90 0 1.79 338 13:18 07.07.2020
373 Rain 15 1017 83 0 2.68 264 12:40 07.07.2020
374 Rain 16 1017 71 0 3.13 288 12:22 07.07.2020
375 Rain 17 1016 71 0 3.58 199 11:56 07.07.2020
376 Rain 17 1016 72 0 4.02 338 11:38 07.07.2020
377 Rain 17 1017 73 0 4.02 228 11:20 07.07.2020
378 Rain 17 1017 75 0 3.13 229 10:55 07.07.2020
379 Rain 16 1017 78 0 3.58 194 10:37 07.07.2020
380 Clear 15 1017 79 0 2.68 187 10:18 07.07.2020
381 Clear 15 1018 82 0 2.68 229 09:40 07.07.2020
382 Clear 14 1018 84 0 2.24 220 09:20 07.07.2020
383 Clouds 14 1018 85 0 1.79 338 08:42 07.07.2020
384 Clear 14 1018 85 0 1.79 338 08:23 07.07.2020
385 Clear 14 1018 85 0 1.34 213 07:47 07.07.2020
386 Clear 13 1019 86 0 1.79 338 07:24 07.07.2020
387 Clear 11 1019 88 0 1.79 212 06:49 07.07.2020
388 Clear 10 1019 88 0 1.34 236 06:31 07.07.2020
389 Clouds 10 1019 87 0 1.34 235 05:54 07.07.2020
390 Clouds 10 1019 87 0 1.34 237 05:23 07.07.2020
391 Clouds 11 1019 86 0 1.34 237 04:42 07.07.2020
392 Clouds 11 1019 86 0 1.79 228 03:41 07.07.2020
393 Clear 11 1019 86 0 1.34 233 02:28 07.07.2020
394 Clouds 12 1019 84 0 1.79 228 01:25 07.07.2020
395 Clouds 12 1019 84 0 1.79 259 00:54 07.07.2020
396 Clouds 12 1019 84 0 1.34 225 00:36 07.07.2020
397 Clouds 12 1019 83 0 1.79 227 00:18 07.07.2020
398 Clouds 12 1018 82 0 1.79 338 23:41 06.07.2020
399 Clear 12 1018 81 0 1.34 253 23:22 06.07.2020
400 Clear 13 1018 81 0 1.34 251 22:55 06.07.2020
401 Clear 13 1018 80 0 1.34 255 22:37 06.07.2020
402 Clear 13 1018 79 0 1.34 274 22:18 06.07.2020
403 Clear 14 1018 78 0 1.34 284 21:55 06.07.2020
404 Clear 14 1017 78 0 1.79 252 21:36 06.07.2020
405 Clear 14 1017 78 0 2.24 256 21:18 06.07.2020
406 Clear 14 1016 80 0 2.24 274 20:40 06.07.2020
407 Clouds 14 1016 83 0 2.24 291 20:20 06.07.2020
408 Clouds 14 1016 81 0 2.24 272 19:58 06.07.2020
409 Clouds 14 1016 81 0 2.24 272 19:58 06.07.2020
410 Clouds 15 1016 76 0 2.24 315 19:39 06.07.2020
411 Rain 15 1016 77 0 3.13 264 19:21 06.07.2020
412 Rain 15 1015 79 0 3.58 305 18:57 06.07.2020
413 Rain 16 1015 79 0 3.58 280 18:39 06.07.2020
414 Rain 16 1015 76 0 4.02 311 18:21 06.07.2020
415 Rain 16 1015 79 0 4.02 307 17:44 06.07.2020
416 Rain 17 1014 69 0 4.92 250 17:24 06.07.2020
417 Rain 16 1014 67 0 4.02 293 16:59 06.07.2020
418 Rain 16 1014 68 0 5.36 281 16:41 06.07.2020
419 Rain 16 1013 70 0 5.81 276 16:21 06.07.2020
420 Rain 16 1013 81 0 2.68 292 15:43 06.07.2020
421 Rain 15 1013 82 0 3.13 295 15:25 06.07.2020
422 Rain 16 1012 80 0 4.02 284 14:57 06.07.2020
423 Rain 16 1012 79 0 4.02 270 14:38 06.07.2020
424 Rain 15 1012 88 0 3.58 259 14:20 06.07.2020
425 Rain 15 1012 88 0 3.58 198 13:56 06.07.2020
426 Rain 16 1012 85 0 3.58 252 13:38 06.07.2020
427 Rain 16 1011 84 0 4.02 286 13:19 06.07.2020
428 Rain 15 1010 80 0 4.92 269 12:43 06.07.2020
429 Rain 16 1010 69 0 4.92 323 12:19 06.07.2020
430 Rain 16 1009 72 0 4.47 273 11:58 06.07.2020
431 Rain 16 1009 69 0 6.26 274 11:39 06.07.2020
432 Rain 16 1009 67 0 4.92 239 11:20 06.07.2020
433 Rain 16 1009 71 0 5.36 256 10:56 06.07.2020
434 Rain 16 1009 70 0 4.47 278 10:38 06.07.2020
435 Rain 16 1008 71 0 5.36 253 10:18 06.07.2020
436 Rain 16 1008 75 0 4.92 274 09:42 06.07.2020
437 Rain 15 1008 74 0 4.02 338 09:22 06.07.2020
438 Rain 15 1008 81 0 4.47 154 08:58 06.07.2020
439 Rain 14 1008 82 0 4.92 211 08:38 06.07.2020
440 Rain 15 1008 84 0 4.02 259 08:20 06.07.2020
441 Rain 13 1007 83 0 4.47 207 07:47 06.07.2020
442 Rain 13 1007 83 0 4.02 208 07:28 06.07.2020
443 Rain 12 1007 85 0 3.13 226 06:45 06.07.2020
444 Rain 12 1006 83 0 4.02 231 06:27 06.07.2020
445 Rain 12 1006 82 0 2.68 338 05:44 06.07.2020
446 Clear 12 1006 83 0 2.24 207 05:22 06.07.2020
447 Clear 12 1006 84 0 3.58 226 03:52 06.07.2020
448 Rain 12 1006 87 0 2.68 226 02:25 06.07.2020
449 Rain 14 1006 88 0 1.79 224 01:44 06.07.2020
450 Rain 14 1006 84 0 1.34 198 00:44 06.07.2020
451 Rain 14 1006 82 0 1.79 173 00:22 06.07.2020
452 Rain 15 1006 80 0 1.79 170 23:54 05.07.2020
453 Rain 15 1006 80 0 1.79 203 23:36 05.07.2020
454 Clouds 15 1006 80 0 1.34 203 23:18 05.07.2020
455 Clouds 15 1007 79 0 1.34 211 22:41 05.07.2020
456 Clouds 16 1007 77 0 1.34 212 22:20 05.07.2020
457 Clouds 16 1007 75 0 1.79 338 21:58 05.07.2020
458 Clouds 16 1007 73 0 1.34 196 21:40 05.07.2020
459 Clouds 16 1007 72 0 2.24 272 21:19 05.07.2020
460 Clouds 17 1007 70 0 2.68 264 20:58 05.07.2020
461 Clouds 17 1007 68 0 2.68 338 20:40 05.07.2020
462 Clouds 17 1007 66 0 3.58 264 20:21 05.07.2020
463 Clouds 18 1007 68 0 3.13 297 19:57 05.07.2020
464 Clouds 18 1007 69 0 2.68 271 19:38 05.07.2020
465 Clouds 19 1007 69 0 3.58 267 19:19 05.07.2020
466 Clouds 19 1007 71 0 2.68 266 18:42 05.07.2020
467 Clouds 19 1007 71 0 3.13 255 18:22 05.07.2020
468 Clouds 19 1007 76 0 2.24 243 17:57 05.07.2020
469 Clouds 19 1007 76 0 1.79 338 17:38 05.07.2020
470 Clouds 19 1007 78 0 2.24 293 17:19 05.07.2020
471 Clouds 20 1006 74 0 4.47 262 16:44 05.07.2020
472 Rain 20 1006 73 0 4.47 274 16:25 05.07.2020
473 Rain 21 1006 71 0 4.02 297 15:58 05.07.2020
474 Rain 20 1006 72 0 4.02 338 15:38 05.07.2020
475 Rain 20 1006 69 0 5.36 338 15:19 05.07.2020
476 Rain 20 1006 73 0 4.92 338 14:42 05.07.2020
477 Rain 21 1006 72 0 5.36 223 14:23 05.07.2020
478 Rain 21 1006 72 0 5.36 223 14:23 05.07.2020
479 Rain 20 1005 78 0 5.81 210 13:55 05.07.2020
480 Rain 20 1005 77 0 4.92 243 13:37 05.07.2020
481 Rain 20 1006 77 0 6.26 207 13:19 05.07.2020
482 Rain 19 1005 85 0 5.36 251 12:39 05.07.2020
483 Rain 19 1005 85 0 5.81 239 12:20 05.07.2020
484 Rain 18 1005 89 0 4.92 247 11:55 05.07.2020
485 Rain 18 1005 93 0 4.92 229 11:36 05.07.2020
486 Clouds 17 1005 94 0 4.02 338 11:18 05.07.2020
487 Clouds 17 1005 94 0 4.92 210 10:42 05.07.2020
488 Clouds 17 1005 94 0 4.92 213 10:20 05.07.2020
489 Clouds 17 1005 94 0 4.92 213 10:20 05.07.2020
490 Clouds 17 1005 94 0 5.36 217 09:59 05.07.2020
491 Clouds 16 1005 94 0 4.02 338 09:41 05.07.2020
492 Clouds 16 1005 94 0 4.47 201 09:20 05.07.2020
493 Clouds 16 1005 93 0 4.02 235 08:55 05.07.2020
494 Clouds 16 1005 93 0 4.47 215 08:36 05.07.2020
495 Rain 17 1004 92 0 5.36 233 07:56 05.07.2020
496 Rain 16 1004 92 0 5.36 338 07:30 05.07.2020
497 Clouds 17 1004 93 0 4.92 224 06:55 05.07.2020
498 Clouds 17 1005 93 0 4.47 203 06:25 05.07.2020
499 Clouds 17 1005 95 0 4.02 225 03:57 05.07.2020
500 Rain 17 1006 95 0 3.13 191 02:59 05.07.2020
501 Rain 17 1006 94 0 3.13 220 02:36 05.07.2020
502 Rain 17 1007 94 0 2.68 217 01:44 05.07.2020
503 Rain 17 1007 94 0 2.24 212 01:26 05.07.2020
504 Rain 17 1007 94 0 2.68 212 00:51 05.07.2020
505 Rain 17 1007 94 0 3.13 210 00:30 05.07.2020
506 Rain 17 1007 94 0 2.68 233 23:57 04.07.2020
507 Rain 17 1007 94 0 3.13 338 23:33 04.07.2020
508 Rain 17 1008 94 0 3.13 187 22:59 04.07.2020
509 Rain 17 1008 94 0 2.68 212 22:41 04.07.2020
510 Rain 17 1008 94 0 2.68 210 22:23 04.07.2020
511 Rain 17 1008 94 0 2.68 338 21:58 04.07.2020
512 Rain 17 1008 94 0 2.68 210 21:40 04.07.2020
513 Clouds 17 1008 94 0 2.68 238 21:22 04.07.2020
514 Clouds 17 1008 93 0 3.13 338 20:43 04.07.2020
515 Clouds 17 1009 93 0 3.13 198 20:22 04.07.2020
516 Clouds 17 1009 93 0 3.13 215 20:00 04.07.2020
517 Clouds 17 1009 93 0 3.58 259 19:41 04.07.2020
518 Rain 17 1009 93 0 3.13 234 19:21 04.07.2020
519 Rain 17 1009 93 0 3.13 234 19:21 04.07.2020
520 Rain 17 1009 92 0 3.58 238 18:55 04.07.2020
521 Rain 17 1009 93 0 4.02 194 18:36 04.07.2020
522 Rain 17 1009 93 0 3.13 224 18:18 04.07.2020
523 Rain 17 1009 94 0 3.13 338 17:42 04.07.2020
524 Rain 17 1010 94 0 3.13 338 17:22 04.07.2020
525 Rain 17 1010 93 0 3.58 195 16:56 04.07.2020
526 Rain 17 1010 93 0 3.58 224 16:37 04.07.2020
527 Rain 17 1010 93 0 3.58 203 16:18 04.07.2020
528 Rain 17 1009 92 0 3.58 206 15:45 04.07.2020
529 Rain 17 1010 92 0 4.02 185 15:26 04.07.2020
530 Rain 17 1010 91 0 3.58 194 14:58 04.07.2020
531 Rain 17 1009 91 0 4.47 338 14:37 04.07.2020
532 Rain 17 1009 90 0 3.58 220 14:19 04.07.2020
533 Rain 17 1009 89 0 4.47 240 13:56 04.07.2020
534 Rain 17 1010 89 0 4.02 180 13:37 04.07.2020
535 Rain 17 1010 89 0 4.92 222 13:18 04.07.2020
536 Rain 17 1010 88 0 4.92 214 12:41 04.07.2020
537 Rain 17 1009 87 0 4.47 338 12:20 04.07.2020
538 Rain 17 1009 87 0 4.47 236 11:46 04.07.2020
539 Clouds 17 1009 87 0 3.58 232 11:25 04.07.2020
540 Clouds 16 1010 88 0 4.02 287 11:00 04.07.2020
541 Clouds 16 1010 87 0 4.02 222 10:41 04.07.2020
542 Clouds 16 1010 86 0 4.47 213 10:21 04.07.2020
543 Clouds 16 1010 88 0 3.58 188 09:57 04.07.2020
544 Clouds 15 1010 89 0 4.02 207 09:37 04.07.2020
545 Rain 15 1010 90 0 4.02 191 09:18 04.07.2020
546 Rain 14 1010 90 0 4.02 232 08:46 04.07.2020
547 Rain 14 1010 91 0 3.58 215 08:27 04.07.2020
548 Rain 14 1010 92 0 3.58 178 07:46 04.07.2020
549 Clouds 14 1010 93 0 4.02 338 07:28 04.07.2020
550 Clouds 14 1011 93 0 3.58 180 06:55 04.07.2020
551 Rain 14 1010 92 0 3.58 338 06:22 04.07.2020
552 Rain 14 1011 91 0 4.47 210 05:35 04.07.2020
553 Rain 15 1011 91 0 4.02 226 04:44 04.07.2020
554 Clouds 16 1011 81 0 3.13 218 03:18 04.07.2020
555 Clouds 16 1011 79 0 3.58 228 02:26 04.07.2020
556 Clouds 16 1011 76 0 3.13 243 01:32 04.07.2020
557 Clouds 16 1012 75 0 2.68 231 00:44 04.07.2020
558 Clouds 16 1012 75 0 3.13 338 00:25 04.07.2020
559 Clouds 17 1012 73 0 2.68 215 23:41 03.07.2020
560 Clouds 17 1012 72 0 3.58 212 23:19 03.07.2020
561 Clouds 17 1013 72 0 3.13 232 22:59 03.07.2020
562 Clouds 17 1013 70 0 3.58 215 22:39 03.07.2020
563 Clouds 17 1013 69 0 3.13 244 22:21 03.07.2020
564 Clouds 17 1013 67 0 3.58 240 21:54 03.07.2020
565 Clouds 17 1013 66 0 3.13 227 21:36 03.07.2020
566 Clouds 17 1013 64 0 4.02 230 21:18 03.07.2020
567 Clouds 18 1013 64 0 4.92 222 20:42 03.07.2020
568 Clouds 18 1013 65 0 3.58 338 20:23 03.07.2020
569 Clouds 18 1013 66 0 3.58 203 19:42 03.07.2020
570 Clouds 19 1013 66 0 3.58 247 19:21 03.07.2020
571 Clouds 19 1013 65 0 4.02 212 18:58 03.07.2020
572 Clouds 19 1013 65 0 4.02 248 18:40 03.07.2020
573 Clouds 19 1013 62 0 3.58 338 18:22 03.07.2020
574 Clouds 20 1013 61 0 5.36 212 17:45 03.07.2020
575 Rain 20 1013 63 0 4.47 338 17:23 03.07.2020
576 Rain 20 1013 65 0 3.58 338 16:58 03.07.2020
577 Rain 21 1013 68 0 3.58 236 16:39 03.07.2020
578 Rain 21 1013 67 0 4.47 338 16:20 03.07.2020
579 Rain 20 1013 68 0 3.58 206 15:42 03.07.2020
580 Rain 20 1013 68 0 4.02 204 15:22 03.07.2020
581 Rain 20 1013 68 0 4.02 204 15:22 03.07.2020
582 Rain 20 1013 66 0 4.02 203 14:55 03.07.2020
583 Rain 20 1013 66 0 3.58 206 14:37 03.07.2020
584 Rain 20 1014 68 0 3.58 222 14:18 03.07.2020
585 Rain 20 1014 70 0 3.13 220 13:41 03.07.2020
586 Rain 20 1014 70 0 3.13 210 13:23 03.07.2020
587 Rain 20 1014 70 0 4.02 224 12:45 03.07.2020
588 Clouds 19 1014 72 0 3.58 222 12:23 03.07.2020
589 Clouds 19 1014 74 0 2.24 250 11:57 03.07.2020
590 Clouds 19 1014 74 0 2.68 182 11:39 03.07.2020
591 Rain 19 1014 76 0 2.24 232 11:19 03.07.2020
592 Rain 18 1014 77 0 2.68 215 10:55 03.07.2020
593 Rain 18 1014 79 0 2.24 338 10:36 03.07.2020
594 Clouds 18 1014 79 0 2.68 238 10:18 03.07.2020
595 Clouds 17 1014 82 0 1.79 212 09:40 03.07.2020
596 Clouds 16 1014 82 10000 3.1 210 09:22 03.07.2020
597 Clouds 16 1014 86 0 1.34 246 08:59 03.07.2020
598 Clouds 16 1013 89 0 1.79 216 08:39 03.07.2020
599 Clouds 15 1014 92 0 1.79 227 08:18 03.07.2020
600 Clouds 14 1014 94 0 0.89 338 07:47 03.07.2020
601 Clouds 14 1013 94 0 0.89 178 07:24 03.07.2020
602 Clouds 13 1013 93 0 0.45 231 06:47 03.07.2020
603 Clear 13 1013 93 0 0.45 232 05:57 03.07.2020
604 Clear 12 1013 91 0 2.53 242 04:40 03.07.2020
605 Clear 13 1013 91 0 0.45 230 02:58 03.07.2020
606 Clear 13 1013 91 0 0.89 233 02:39 03.07.2020
607 Clouds 13 1012 90 0 0.45 231 02:18 03.07.2020
608 Clouds 13 1012 89 0 0.89 338 01:27 03.07.2020
609 Clouds 14 1012 89 0 1.34 338 00:44 03.07.2020
610 Clouds 14 1012 88 0 1.34 230 00:26 03.07.2020
611 Clouds 14 1011 86 0 1.34 338 23:44 02.07.2020
612 Clouds 14 1012 86 0 1.79 190 23:20 02.07.2020
613 Clouds 15 1012 84 0 1.34 232 22:57 02.07.2020
614 Clouds 15 1012 84 0 1.79 249 22:39 02.07.2020
615 Rain 15 1011 83 0 1.34 203 22:20 02.07.2020
616 Rain 16 1011 82 0 2.24 229 21:54 02.07.2020
617 Rain 16 1011 81 0 1.79 263 21:36 02.07.2020
618 Rain 16 1011 80 0 2.24 260 21:18 02.07.2020
619 Rain 17 1011 81 0 1.79 282 20:57 02.07.2020
620 Rain 17 1010 81 0 2.24 249 20:39 02.07.2020
621 Rain 18 1010 78 0 2.24 289 20:18 02.07.2020
622 Rain 18 1010 74 0 2.68 338 19:41 02.07.2020
623 Rain 19 1010 73 0 3.13 246 19:22 02.07.2020
624 Rain 19 1009 71 0 3.13 338 18:57 02.07.2020
625 Rain 20 1009 71 0 2.68 338 18:39 02.07.2020
626 Rain 20 1009 70 0 2.68 274 18:21 02.07.2020
627 Rain 20 1009 70 0 2.68 274 18:21 02.07.2020
628 Rain 20 1009 72 0 3.58 338 17:54 02.07.2020
629 Rain 20 1009 69 0 3.13 347 17:36 02.07.2020
630 Rain 20 1009 69 0 3.13 347 17:36 02.07.2020
631 Rain 20 1009 63 0 3.13 262 17:18 02.07.2020
632 Rain 19 1009 75 0 2.24 267 16:40 02.07.2020
633 Rain 18 1009 79 0 2.24 251 16:20 02.07.2020
634 Rain 19 1009 79 0 2.68 238 15:55 02.07.2020
635 Rain 18 1009 85 0 1.79 297 15:36 02.07.2020
636 Rain 18 1008 86 0 1.34 264 15:18 02.07.2020
637 Rain 17 1008 86 0 2.24 214 14:44 02.07.2020
638 Rain 17 1008 86 0 2.24 214 14:44 02.07.2020
639 Rain 17 1008 88 0 2.24 338 14:22 02.07.2020
640 Rain 17 1008 91 0 2.24 214 13:57 02.07.2020
641 Rain 17 1008 91 0 2.68 203 13:38 02.07.2020
642 Rain 17 1008 90 0 2.24 218 13:18 02.07.2020
643 Rain 18 1008 85 0 2.24 150 12:41 02.07.2020
644 Rain 18 1008 85 0 2.68 250 12:22 02.07.2020
645 Rain 19 1008 86 0 2.24 214 11:59 02.07.2020
646 Rain 19 1008 87 0 1.34 222 11:40 02.07.2020
647 Rain 19 1008 89 0 0.89 210 11:22 02.07.2020
648 Rain 18 1008 91 0 1.34 184 10:43 02.07.2020
649 Rain 18 1008 93 0 0.89 184 10:25 02.07.2020
650 Rain 18 1008 93 0 0.89 158 09:56 02.07.2020
651 Rain 17 1008 93 0 1.34 143 09:37 02.07.2020
652 Rain 17 1008 94 0 0.89 202 09:18 02.07.2020
653 Rain 17 1007 94 0 0.89 204 08:42 02.07.2020
654 Clouds 16 1007 94 0 0.89 204 08:22 02.07.2020
655 Clouds 16 1007 94 0 0.45 205 07:43 02.07.2020
656 Clouds 16 1007 94 0 0.45 205 07:25 02.07.2020
657 Clouds 15 1007 94 0 0.89 205 06:58 02.07.2020
658 Clouds 15 1006 94 0 0.45 204 06:39 02.07.2020
659 Clear 15 1006 94 0 2.87 227 06:19 02.07.2020
660 Clear 15 1006 93 0 0.45 338 05:42 02.07.2020
661 Clear 15 1006 92 0 0.89 223 03:35 02.07.2020
662 Clouds 15 1006 90 0 1.34 216 02:38 02.07.2020
663 Clouds 16 1006 85 0 0.89 227 00:47 02.07.2020
664 Clouds 16 1006 84 0 1.34 228 00:23 02.07.2020
665 Clouds 16 1006 83 0 1.34 250 23:46 01.07.2020
666 Clouds 16 1006 83 0 1.79 228 23:27 01.07.2020
667 Clouds 16 1006 81 0 1.79 243 22:57 01.07.2020
668 Clouds 16 1005 78 0 2.24 226 22:38 01.07.2020
669 Clouds 17 1005 76 0 2.24 224 22:19 01.07.2020
670 Clouds 17 1005 75 0 2.24 227 21:58 01.07.2020
671 Clouds 17 1005 75 0 2.24 227 21:58 01.07.2020
672 Clouds 17 1005 74 0 2.68 241 21:40 01.07.2020
673 Clouds 17 1005 74 0 2.68 202 21:22 01.07.2020
674 Clouds 17 1005 74 0 2.68 283 20:57 01.07.2020
675 Clouds 17 1005 72 0 3.13 338 20:39 01.07.2020
676 Clouds 18 1004 74 0 3.13 264 20:20 01.07.2020
677 Clouds 18 1004 74 0 3.13 218 19:54 01.07.2020
678 Clouds 18 1004 73 0 3.13 338 19:36 01.07.2020
679 Clouds 18 1004 71 0 3.58 244 19:18 01.07.2020
680 Clouds 19 1004 73 0 3.13 338 18:42 01.07.2020
681 Clouds 20 1004 73 0 3.58 236 18:21 01.07.2020
682 Clouds 20 1003 71 0 3.13 236 17:58 01.07.2020
683 Clouds 21 1003 67 0 3.58 258 17:38 01.07.2020
684 Rain 21 1003 66 0 3.58 213 17:19 01.07.2020
685 Rain 21 1003 66 0 3.58 213 17:19 01.07.2020
686 Rain 22 1003 64 0 4.02 241 16:46 01.07.2020
687 Rain 21 1003 61 0 4.02 338 16:27 01.07.2020
688 Rain 22 1003 57 0 4.92 163 15:56 01.07.2020
689 Rain 21 1002 58 0 5.81 203 15:38 01.07.2020
690 Clouds 22 1002 58 0 4.92 234 15:20 01.07.2020
691 Clouds 23 1002 63 0 4.02 338 14:44 01.07.2020
692 Rain 23 1002 64 0 3.58 222 14:22 01.07.2020
693 Rain 23 1002 64 0 3.58 228 13:58 01.07.2020
694 Rain 22 1003 64 0 4.02 143 13:39 01.07.2020
695 Rain 22 1003 65 0 3.13 224 13:20 01.07.2020
696 Rain 21 1003 72 0 4.47 219 12:57 01.07.2020
697 Rain 21 1003 75 0 4.02 212 12:38 01.07.2020
698 Rain 20 1003 77 0 3.58 234 12:20 01.07.2020
699 Rain 20 1003 80 0 2.68 338 11:44 01.07.2020
700 Rain 20 1003 80 0 2.68 338 11:44 01.07.2020
701 Rain 20 1003 80 0 2.68 338 11:44 01.07.2020
702 Rain 20 1003 80 0 2.68 338 11:44 01.07.2020
703 Rain 19 1003 87 0 2.68 177 11:24 01.07.2020
704 Rain 18 1003 88 0 2.24 195 10:59 01.07.2020
705 Rain 18 1003 90 0 2.24 173 10:41 01.07.2020
706 Rain 18 1003 92 0 2.24 160 10:22 01.07.2020
707 Rain 18 1003 93 0 1.79 180 09:58 01.07.2020
708 Rain 17 1004 94 0 1.79 338 09:37 01.07.2020
709 Rain 17 1004 95 0 1.79 146 09:18 01.07.2020
710 Rain 16 1004 96 0 1.79 174 08:41 01.07.2020
711 Rain 16 1004 96 0 1.34 338 08:23 01.07.2020
712 Rain 15 1004 96 0 1.34 170 07:58 01.07.2020
713 Rain 15 1004 96 0 1.34 172 07:39 01.07.2020
714 Rain 14 1004 96 0 1.34 172 07:20 01.07.2020
715 Rain 14 1004 95 0 0.89 156 06:50 01.07.2020
716 Rain 13 1004 95 0 0.89 174 06:28 01.07.2020
717 Clouds 12 1004 94 0 0.45 193 04:56 01.07.2020
718 Clouds 13 1005 94 0 3.16 220 03:48 01.07.2020
719 Clouds 13 1005 94 0 0.89 338 03:27 01.07.2020
720 Clouds 13 1005 94 0 0.89 195 02:41 01.07.2020
721 Clouds 12 1005 94 0 0.45 195 01:49 01.07.2020
722 Clouds 13 1005 93 0 0.45 195 00:45 01.07.2020
723 Rain 13 1005 93 0 0.89 194 00:25 01.07.2020
724 Rain 13 1005 93 0 0.89 338 23:42 30.06.2020
725 Rain 13 1005 93 0 0.89 338 23:23 30.06.2020
726 Rain 13 1005 93 0 1.34 338 22:59 30.06.2020
727 Rain 13 1005 93 0 0.89 338 22:41 30.06.2020
728 Rain 13 1005 92 0 1.34 253 22:18 30.06.2020
729 Rain 14 1005 93 0 1.79 245 21:41 30.06.2020
730 Clouds 14 1005 93 0 1.79 214 21:19 30.06.2020
731 Clouds 14 1005 93 0 1.79 214 21:19 30.06.2020
732 Clouds 14 1004 91 0 4.68 240 20:57 30.06.2020
733 Clouds 14 1005 92 0 1.79 233 20:39 30.06.2020
734 Clouds 14 1005 91 0 1.79 176 20:20 30.06.2020
735 Clouds 15 1005 86 0 2.24 338 19:42 30.06.2020
736 Clouds 15 1005 84 0 2.68 197 19:20 30.06.2020
737 Clouds 16 1006 82 0 3.13 237 18:54 30.06.2020
738 Clouds 16 1006 81 0 2.24 228 18:36 30.06.2020
739 Clouds 17 1006 78 0 4.02 197 18:18 30.06.2020
740 Clouds 16 1006 79 0 2.24 228 17:38 30.06.2020
741 Clouds 16 1006 78 0 3.13 209 17:20 30.06.2020
742 Clouds 16 1006 77 0 4.02 212 16:55 30.06.2020
743 Clouds 17 1006 77 0 4.47 230 16:36 30.06.2020
744 Rain 17 1006 78 0 3.58 338 16:18 30.06.2020
745 Rain 16 1006 79 0 3.58 246 15:42 30.06.2020
746 Clouds 16 1006 79 0 4.47 174 15:22 30.06.2020
747 Clouds 16 1006 82 0 4.92 250 14:58 30.06.2020
748 Clouds 16 1006 86 0 3.58 237 14:40 30.06.2020
749 Clouds 15 1006 88 0 3.58 210 14:21 30.06.2020
750 Clouds 15 1005 91 0 3.13 338 13:42 30.06.2020
751 Clouds 15 1005 89 0 4.02 338 13:21 30.06.2020
752 Clouds 15 1005 90 0 3.58 205 12:59 30.06.2020
753 Clouds 15 1005 89 0 3.13 216 12:41 30.06.2020
754 Rain 14 1005 90 0 3.58 233 12:23 30.06.2020
755 Rain 15 1005 91 0 3.13 338 11:59 30.06.2020
756 Rain 15 1005 91 0 3.13 228 11:39 30.06.2020
757 Rain 14 1005 92 0 2.68 209 11:20 30.06.2020
758 Rain 14 1005 92 0 2.68 209 11:20 30.06.2020
759 Rain 14 1005 92 0 2.68 202 10:59 30.06.2020
760 Rain 21 1010 53 0 4.47 160 16:45 28.06.2020
761 Rain 21 1010 50 0 4.92 218 16:27 28.06.2020
762 Rain 21 1010 48 0 4.92 267 15:59 28.06.2020
763 Rain 21 1010 50 0 4.92 231 15:39 28.06.2020
764 Clouds 20 1010 49 0 5.36 253 15:20 28.06.2020
765 Clouds 21 1010 52 0 4.02 205 14:55 28.06.2020
766 Clouds 21 1010 53 0 4.02 338 14:37 28.06.2020
767 Clouds 20 1010 57 0 4.02 270 14:19 28.06.2020
768 Clouds 20 1010 59 0 3.58 338 13:39 28.06.2020
769 Rain 20 1010 66 0 3.58 338 13:21 28.06.2020
770 Rain 20 1010 66 0 4.47 228 12:57 28.06.2020
771 Rain 19 1010 76 0 3.58 204 12:38 28.06.2020
772 Rain 18 1010 74 0 4.02 338 12:19 28.06.2020
773 Rain 18 1010 79 0 2.68 338 11:58 28.06.2020
774 Rain 18 1010 83 0 2.68 264 11:39 28.06.2020
775 Clouds 18 1010 79 0 4.02 237 11:20 28.06.2020
776 Clouds 19 1009 72 0 4.02 224 10:57 28.06.2020
777 Clouds 18 1009 75 0 3.58 239 10:39 28.06.2020
778 Clouds 18 1009 75 0 3.13 338 10:21 28.06.2020
779 Clouds 18 1008 77 0 3.58 195 09:40 28.06.2020
780 Clouds 18 1008 78 0 3.58 210 09:21 28.06.2020
781 Clouds 17 1008 80 0 3.13 338 08:53 28.06.2020
782 Clouds 17 1008 79 0 3.58 246 08:34 28.06.2020
783 Clouds 16 1008 84 0 2.68 218 07:53 28.06.2020
784 Clouds 17 1008 85 0 1.79 218 07:31 28.06.2020
785 Clouds 17 1007 85 0 2.24 181 06:55 28.06.2020
786 Clouds 16 1007 87 0 2.68 203 06:32 28.06.2020
787 Clouds 16 1007 90 0 2.24 182 05:45 28.06.2020
788 Clouds 16 1007 92 0 1.79 187 04:24 28.06.2020
789 Clouds 16 1008 91 0 1.34 338 02:56 28.06.2020
790 Clouds 16 1008 91 0 0.45 177 02:19 28.06.2020
791 Clouds 17 1008 89 0 4.4 198 01:27 28.06.2020
792 Clouds 18 1008 85 0 2.24 224 00:55 28.06.2020
793 Clouds 18 1008 82 0 3.58 209 00:29 28.06.2020
794 Clouds 18 1007 91 0 1.34 252 23:58 27.06.2020
795 Clouds 18 1007 92 0 1.34 164 23:38 27.06.2020
796 Clouds 18 1007 92 0 1.34 160 23:19 27.06.2020
797 Clouds 18 1007 92 0 0.89 150 22:42 27.06.2020
798 Clear 19 1007 92 0 0.89 338 22:23 27.06.2020
799 Clear 19 1007 91 0 3.56 210 21:59 27.06.2020
800 Clear 19 1007 90 0 3.56 210 21:40 27.06.2020
801 Rain 19 1007 91 0 3.63 217 21:20 27.06.2020
802 Rain 19 1007 91 0 1.59 201 20:55 27.06.2020
803 Rain 20 1007 91 0 1.59 201 20:37 27.06.2020
804 Rain 20 1006 90 0 0.45 93 20:18 27.06.2020
805 Rain 20 1006 89 0 0.89 27 19:38 27.06.2020
806 Rain 20 1006 88 0 0.89 7 19:19 27.06.2020
807 Rain 20 1006 91 0 0.89 348 18:57 27.06.2020
808 Rain 20 1007 89 0 0.45 347 18:37 27.06.2020
809 Rain 21 1007 87 0 0.89 311 18:19 27.06.2020
810 Rain 23 1006 84 0 1.34 295 17:41 27.06.2020
811 Rain 24 1006 81 0 1.34 338 17:20 27.06.2020
812 Rain 24 1006 76 0 1.79 338 16:57 27.06.2020
813 Rain 23 1006 75 0 2.24 338 16:39 27.06.2020
814 Rain 21 1006 79 0 1.34 338 16:20 27.06.2020
815 Rain 22 1007 85 0 0.89 338 15:45 27.06.2020
816 Rain 25 1007 79 0 3.13 322 15:24 27.06.2020
817 Rain 26 1007 54 5000 3.6 260 14:58 27.06.2020
818 Rain 26 1008 65 4900 3.6 220 14:39 27.06.2020
819 Rain 25 1006 70 0 1.34 183 14:20 27.06.2020
820 Rain 25 1007 74 0 1.34 226 13:54 27.06.2020
821 Rain 25 1007 75 0 1.34 189 13:36 27.06.2020
822 Rain 24 1007 79 0 0.89 221 13:18 27.06.2020
823 Rain 24 1007 78 0 1.79 220 12:41 27.06.2020
824 Rain 24 1007 86 0 1.79 180 12:22 27.06.2020
825 Rain 24 1007 87 0 0.89 172 11:59 27.06.2020
826 Rain 24 1007 87 0 0.89 172 11:59 27.06.2020
827 Rain 24 1007 87 0 0.89 172 11:59 27.06.2020
828 Rain 24 1007 78 0 3.13 176 11:40 27.06.2020
829 Rain 25 1007 72 0 3.13 189 11:22 27.06.2020
830 Rain 25 1007 72 0 3.13 189 11:22 27.06.2020
831 Rain 24 1006 72 0 2.68 338 10:42 27.06.2020
832 Rain 24 1007 78 0 1.79 172 10:20 27.06.2020
833 Rain 22 1007 81 0 1.79 104 09:59 27.06.2020
834 Rain 21 1007 83 0 0.89 158 09:39 27.06.2020
835 Rain 20 1007 83 0 0.45 191 09:21 27.06.2020
836 Rain 20 1008 83 0 2 170 08:44 27.06.2020
837 Rain 21 1008 83 0 2.23 204 08:23 27.06.2020
838 Rain 21 1007 82 0 2.23 204 07:48 27.06.2020
839 Rain 20 1007 82 0 2.93 165 07:27 27.06.2020
840 Rain 20 1007 81 0 2.93 165 06:55 27.06.2020
841 Rain 18 1008 82 0 2.93 165 06:34 27.06.2020
842 Clouds 17 1007 83 0 3.32 124 05:31 27.06.2020
843 Clouds 18 1007 79 0 2.55 146 04:19 27.06.2020
844 Clouds 18 1007 77 0 2.55 146 03:51 27.06.2020
845 Clouds 19 1008 72 0 3.01 130 02:45 27.06.2020
846 Clouds 19 1008 72 0 0.45 193 02:26 27.06.2020
847 Clouds 19 1008 71 0 0.45 108 01:39 27.06.2020
848 Clouds 20 1008 69 0 0.45 110 00:52 27.06.2020
849 Clouds 21 1008 64 0 0.45 107 23:58 26.06.2020
850 Clouds 21 1008 63 0 0.45 108 23:40 26.06.2020
851 Clear 21 1008 61 0 0.89 109 23:21 26.06.2020
852 Clear 21 1009 84 0 3.86 117 22:55 26.06.2020
853 Clear 22 1008 67 0 3.86 117 22:36 26.06.2020
854 Clear 23 1008 65 0 4.11 117 22:18 26.06.2020
855 Clear 24 1010 44 5000 1 170 21:56 26.06.2020
856 Clear 25 1010 35 5000 2.6 170 21:36 26.06.2020
857 Clear 26 1010 35 5000 2.6 170 21:18 26.06.2020
858 Clear 27 1010 35 5000 2.6 170 20:42 26.06.2020
859 Clouds 28 1010 30 10000 3.1 170 20:19 26.06.2020
860 Clouds 29 1010 30 10000 3.1 170 19:42 26.06.2020
861 Clouds 29 1010 28 10000 4.1 150 19:23 26.06.2020
862 Clouds 30 1010 28 10000 4.1 150 18:54 26.06.2020
863 Clear 30 1010 35 10000 3.6 130 18:36 26.06.2020
864 Clouds 29 1011 28 10000 4.6 180 18:18 26.06.2020
865 Clouds 30 1011 28 10000 4.6 180 17:43 26.06.2020
866 Clouds 29 1012 27 10000 4.6 160 17:23 26.06.2020
867 Clouds 30 1012 27 10000 4.6 160 16:47 26.06.2020
868 Clouds 29 1012 30 10000 6.2 140 16:25 26.06.2020
869 Clouds 29 1012 30 10000 6.2 140 15:54 26.06.2020
870 Clear 29 1011 37 10000 4.1 130 15:36 26.06.2020
871 Clouds 29 1012 28 10000 6.2 140 15:18 26.06.2020
872 Clouds 29 1012 28 10000 6.2 140 14:55 26.06.2020
873 Clouds 28 1013 32 10000 6.2 130 14:37 26.06.2020
874 Clouds 28 1013 32 10000 6.2 130 14:19 26.06.2020
875 Clouds 28 1013 32 10000 6.2 130 13:43 26.06.2020
876 Clear 28 1011 44 0 0.45 113 13:18 26.06.2020
877 Clear 28 1014 36 10000 6.2 150 12:41 26.06.2020
878 Clear 27 1014 36 10000 6.2 150 12:23 26.06.2020
879 Clear 27 1014 36 10000 6.2 150 11:59 26.06.2020
880 Clear 26 1013 47 10000 4.6 110 11:40 26.06.2020
881 Clear 26 1014 44 10000 4.1 130 11:22 26.06.2020
882 Clear 25 1014 44 10000 4.1 130 10:58 26.06.2020
883 Clear 25 1014 44 10000 4.1 130 10:58 26.06.2020
884 Clear 25 1014 44 10000 4.1 130 10:58 26.06.2020
885 Clear 25 1015 50 10000 4.6 140 10:39 26.06.2020
886 Clear 25 1013 62 0 2.68 159 10:19 26.06.2020
887 Clear 24 1013 63 0 2.24 76 09:54 26.06.2020
888 Clear 24 1013 65 0 1.79 124 09:36 26.06.2020
889 Clear 22 1015 56 10000 4.1 110 09:18 26.06.2020
890 Clear 21 1015 56 10000 4.1 110 08:43 26.06.2020
891 Clouds 21 1015 68 10000 3.6 110 08:25 26.06.2020
892 Clear 19 1014 73 0 1.79 81 07:45 26.06.2020
893 Clear 19 1014 76 0 0.89 107 07:23 26.06.2020
894 Clear 18 1014 79 0 1.34 93 06:48 26.06.2020
895 Clear 17 1015 80 0 0.89 83 06:29 26.06.2020
896 Clear 17 1015 80 0 0.89 100 05:51 26.06.2020
897 Clear 18 1015 77 0 1.34 125 04:55 26.06.2020
898 Clouds 19 1015 77 0 0.89 108 02:29 26.06.2020
899 Clouds 19 1016 77 0 4.24 112 01:26 26.06.2020
900 Clouds 19 1014 82 0 4.24 112 00:46 26.06.2020
901 Clouds 20 1016 74 0 0.45 112 00:27 26.06.2020
902 Clouds 21 1016 72 0 1.79 97 23:47 25.06.2020
903 Clouds 21 1016 71 0 0.89 81 23:22 25.06.2020
904 Clouds 21 1016 71 0 0.89 81 23:22 25.06.2020
905 Clouds 22 1016 70 0 4.09 104 22:58 25.06.2020
906 Clouds 23 1016 68 0 4.09 104 22:39 25.06.2020
907 Clouds 23 1016 67 0 0.45 87 22:20 25.06.2020
908 Clouds 24 1015 68 0 3.75 92 21:57 25.06.2020
909 Clouds 25 1017 47 5000 3.6 120 21:39 25.06.2020
910 Clouds 25 1016 62 0 1.79 113 21:20 25.06.2020
911 Rain 25 1016 60 0 1.79 83 20:57 25.06.2020
912 Clouds 26 1018 47 10000 5.1 100 20:39 25.06.2020
913 Rain 26 1016 58 0 2.24 2 20:21 25.06.2020
914 Clouds 27 1018 47 10000 5.1 100 19:54 25.06.2020
915 Rain 28 1016 58 0 1.34 52 19:36 25.06.2020
916 Rain 27 1016 58 0 1.79 77 19:18 25.06.2020
917 Rain 27 1017 63 0 2.24 49 18:40 25.06.2020
918 Clear 28 1017 57 0 2.24 68 18:21 25.06.2020
919 Clear 28 1017 54 0 1.34 89 17:46 25.06.2020
920 Clear 28 1017 56 0 0.89 45 17:21 25.06.2020
921 Clear 28 1017 55 0 0.45 352 16:59 25.06.2020
922 Clear 28 1017 56 0 0.89 351 16:40 25.06.2020
923 Clouds 28 1020 42 10000 5.1 80 16:20 25.06.2020
924 Clear 28 1024 48 0 4.88 70 15:45 25.06.2020
925 Clouds 28 1020 42 10000 4.6 120 15:27 25.06.2020
926 Clouds 28 1020 42 10000 4.6 120 14:57 25.06.2020
927 Clear 27 1020 44 10000 4.1 80 14:39 25.06.2020
928 Clouds 28 1021 42 10000 5.7 110 14:21 25.06.2020
929 Clouds 27 1025 50 0 4.41 82 13:55 25.06.2020
930 -273 0 0 0 0 0 13:36 25.06.2020
931 Clouds 27 1018 50 0 0.45 105 13:18 25.06.2020
932 Clouds 27 1019 52 0 1.34 66 12:43 25.06.2020
933 Clouds 25 1022 57 10000 3.6 60 12:20 25.06.2020
934 Clouds 25 1022 57 10000 3.6 60 11:44 25.06.2020
935 Clouds 24 1022 56 10000 3.6 80 11:25 25.06.2020
936 Clouds 24 1022 56 10000 3.6 80 10:58 25.06.2020
937 Clouds 24 1021 66 0 1.79 83 10:40 25.06.2020
938 Clouds 24 1021 69 0 1.34 91 10:21 25.06.2020
939 Clouds 23 1021 73 0 1.34 88 09:41 25.06.2020
940 Clouds 22 1023 64 10000 4.1 90 09:23 25.06.2020
941 Clouds 21 1021 78 0 1.34 71 08:47 25.06.2020
942 Clouds 21 1022 79 0 0.89 77 08:20 25.06.2020
943 Clouds 19 1022 81 0 0.45 106 07:46 25.06.2020
944 Clouds 19 1022 80 0 1.79 106 07:28 25.06.2020
945 Clouds 18 1022 82 0 0.89 136 06:54 25.06.2020
946 Clouds 17 1022 82 0 0.45 112 06:27 25.06.2020
947 Clouds 16 1022 81 0 1.79 116 05:53 25.06.2020
948 Clouds 16 1022 81 0 0.45 64 04:56 25.06.2020
949 Clouds 17 1023 79 0 0.89 70 03:35 25.06.2020
950 Clouds 17 1023 79 0 0.89 73 02:44 25.06.2020
951 Clouds 17 1023 80 0 0.89 69 02:19 25.06.2020
952 Clouds 17 1023 80 0 0.45 41 01:34 25.06.2020
953 Clouds 18 1023 79 0 4.01 93 00:47 25.06.2020
954 Clouds 18 1023 77 0 0.45 45 00:22 25.06.2020
955 Clouds 18 1023 76 0 0.89 23 23:58 24.06.2020
956 Clouds 19 1022 76 0 1.34 33 23:37 24.06.2020
957 Clear 19 1023 75 0 1.34 9 23:19 24.06.2020
958 Clear 19 1023 72 0 1.34 6 22:41 24.06.2020
959 Clear 20 1022 70 0 1.34 50 22:21 24.06.2020
960 Clear 21 1022 68 0 1.34 33 21:57 24.06.2020
961 Clear 22 1022 64 0 1.79 8 21:37 24.06.2020
962 Clear 22 1022 62 0 1.79 23 21:19 24.06.2020
963 Clear 23 1022 57 0 2.24 61 20:58 24.06.2020
964 Clear 23 1022 54 0 1.79 349 20:39 24.06.2020
965 Clear 23 1022 51 0 1.79 6 20:21 24.06.2020
966 Clouds 23 1023 49 10000 6.2 50 19:58 24.06.2020
967 Clouds 25 1024 38 10000 6.2 50 19:38 24.06.2020
968 Clouds 25 1024 38 10000 6.2 50 19:20 24.06.2020
969 Clouds 26 1024 38 10000 6.2 50 18:58 24.06.2020
970 Clear 27 1022 39 10000 4.6 80 18:39 24.06.2020
971 Clouds 26 1024 31 10000 5.7 80 18:20 24.06.2020
972 Clouds 26 1024 31 10000 5.7 80 17:56 24.06.2020
973 Clear 27 1023 42 10000 5.1 90 17:37 24.06.2020
974 Clouds 27 1024 31 10000 5.7 60 17:18 24.06.2020
975 Clouds 27 1024 31 10000 5.7 60 16:55 24.06.2020
976 Clouds 27 1024 31 10000 5.7 60 16:55 24.06.2020
977 Clear 26 1023 42 10000 4.1 80 16:37 24.06.2020
978 Clouds 26 1024 38 10000 5.1 70 16:19 24.06.2020
979 Clouds 26 1024 38 10000 5.1 70 15:55 24.06.2020
980 Clear 26 1023 44 10000 4.1 80 15:37 24.06.2020
981 Clouds 26 1024 41 10000 3.6 110 15:18 24.06.2020
982 Clouds 26 1023 56 0 0.89 134 14:42 24.06.2020
983 Clouds 26 1025 38 10000 4.6 110 14:22 24.06.2020
984 Clear 26 1023 47 0 2.68 14 13:43 24.06.2020
985 Clear 26 1023 55 0 1.79 124 13:22 24.06.2020
986 Clear 26 1024 47 0 2.24 12 12:55 24.06.2020
987 Clouds 24 1025 43 10000 4.6 100 12:36 24.06.2020
988 Clouds 23 1025 43 10000 4.6 100 12:18 24.06.2020
989 Clouds 24 1025 43 10000 4.6 100 11:54 24.06.2020
990 Clouds 24 1025 43 10000 4.6 120 11:36 24.06.2020
991 Clear 24 1023 50 0 1.34 113 11:18 24.06.2020
992 Clear 23 1024 65 0 0.89 109 10:41 24.06.2020
993 Clear 23 1024 65 0 0.89 104 10:18 24.06.2020
994 Clear 22 1024 66 0 0.45 69 09:42 24.06.2020
995 Clouds 20 1025 56 10000 2.1 130 09:21 24.06.2020
996 Clouds 19 1025 56 10000 2.1 130 08:43 24.06.2020
997 Clear 17 1025 82 0 1.34 60 08:21 24.06.2020
998 Clear 17 1025 86 0 0.45 45 07:51 24.06.2020
999 Clear 17 1025 89 0 0.45 46 07:31 24.06.2020
1000 Clear 15 1025 90 0 2.06 93 06:51 24.06.2020
1001 Clear 14 1025 90 0 0.45 58 06:26 24.06.2020
1002 Clear 13 1025 90 0 2.14 98 05:57 24.06.2020
1003 Clear 13 1025 89 0 2.16 97 05:20 24.06.2020
1004 Clear 13 1025 88 0 2.16 97 04:35 24.06.2020
1005 Clear 13 1025 87 0 2.23 94 03:35 24.06.2020
1006 Clear 14 1025 85 0 2.47 93 02:51 24.06.2020
1007 Clear 14 1025 84 0 2.5 95 01:45 24.06.2020
1008 Clear 15 1025 81 0 0.45 56 00:48 24.06.2020
1009 Clear 15 1025 80 0 2.62 96 00:29 24.06.2020
1010 Clear 16 1025 76 0 2.64 93 23:46 23.06.2020
1011 Clear 16 1025 74 0 0.45 54 23:20 23.06.2020
1012 Clear 17 1025 72 0 0.89 67 22:57 23.06.2020
1013 Clear 17 1025 71 0 0.89 52 22:38 23.06.2020
1014 Clear 18 1025 69 0 0.89 41 22:18 23.06.2020
1015 Clear 19 1025 68 0 0.89 13 21:42 23.06.2020
1016 Clear 20 1025 66 0 1.34 7 21:20 23.06.2020
1017 Clear 21 1025 64 0 2.24 32 20:56 23.06.2020
1018 Clear 21 1025 64 0 2.68 7 20:38 23.06.2020
1019 Clear 22 1025 65 0 1.34 5 20:19 23.06.2020
1020 Clear 22 1025 64 0 3.13 358 19:57 23.06.2020
1021 Clear 24 1025 60 0 3.13 13 19:38 23.06.2020
1022 Clear 24 1025 61 0 3.13 22 19:20 23.06.2020
1023 Clouds 23 1025 49 10000 4.1 20 18:38 23.06.2020
1024 Clear 24 1024 55 0 2.68 343 18:18 23.06.2020
1025 Clear 24 1025 54 0 2.24 39 17:41 23.06.2020
1026 Clear 25 1025 56 0 2.68 343 17:22 23.06.2020
1027 Clear 25 1025 57 0 2.68 0 16:57 23.06.2020
1028 Clear 25 1025 58 0 2.68 347 16:38 23.06.2020
1029 Clear 25 1025 59 0 2.68 19 16:20 23.06.2020
1030 Clear 25 1025 59 0 2.68 19 16:20 23.06.2020
1031 Clear 24 1025 60 0 2.68 5 15:57 23.06.2020
1032 Clear 25 1025 58 0 2.68 357 15:38 23.06.2020
1033 Clear 24 1025 55 0 1.79 7 15:18 23.06.2020
1034 Clear 24 1025 57 0 1.34 27 14:42 23.06.2020
1035 Clear 24 1025 58 0 2.24 16 14:19 23.06.2020
1036 Clear 24 1025 57 0 0.89 74 13:57 23.06.2020
1037 Clear 24 1025 51 0 1.79 255 13:39 23.06.2020
1038 Clear 23 1024 51 0 1.45 262 13:20 23.06.2020
1039 Clear 23 1025 55 0 1.79 316 12:44 23.06.2020
1040 Clouds 22 1026 49 10000 2.1 270 12:23 23.06.2020
1041 Clear 22 1025 58 0 0.89 338 11:58 23.06.2020
1042 Clear 22 1025 60 0 1.79 189 11:40 23.06.2020
1043 Clear 21 1025 60 0 1.79 260 11:19 23.06.2020
1044 Clear 21 1025 61 0 2.24 217 10:57 23.06.2020
1045 Clear 22 1025 63 0 1.79 226 10:39 23.06.2020
1046 Clear 21 1025 66 0 1.79 198 10:21 23.06.2020
1047 Clear 20 1025 71 0 1.34 216 09:42 23.06.2020
1048 Clouds 18 1026 72 10000 2.1 170 09:21 23.06.2020
1049 Clouds 17 1025 79 0 0.89 185 08:59 23.06.2020
1050 Clouds 17 1025 82 0 1.34 214 08:41 23.06.2020
1051 Clouds 16 1025 86 0 0.45 185 08:21 23.06.2020
1052 Clouds 16 1026 90 0 1.34 180 07:41 23.06.2020
1053 Clouds 15 1026 91 0 0.89 142 07:22 23.06.2020
1054 Clouds 12 1026 92 0 0.45 338 06:50 23.06.2020
1055 Clouds 12 1026 91 0 0.45 145 06:31 23.06.2020
1056 Clear 11 1026 91 0 0.89 140 05:46 23.06.2020
1057 Clouds 11 1025 91 0 0.89 146 04:39 23.06.2020
1058 Clouds 11 1025 90 0 1.44 196 03:19 23.06.2020
1059 Clouds 11 1025 89 0 1.44 196 02:46 23.06.2020
1060 Clouds 11 1025 89 0 1 197 02:26 23.06.2020
1061 Clear 12 1025 88 0 1.29 209 01:44 23.06.2020
1062 Clear 12 1025 88 0 0.97 220 01:20 23.06.2020
1063 Clear 12 1025 86 0 0.37 237 00:25 23.06.2020
1064 Clear 13 1025 84 0 0.37 237 23:59 22.06.2020
1065 Clear 13 1025 84 0 0.37 237 23:39 22.06.2020
1066 Clear 14 1025 82 0 0.67 336 23:19 22.06.2020
1067 Clear 14 1025 80 0 0.67 336 22:58 22.06.2020
1068 Clear 15 1025 78 0 0.67 336 22:40 22.06.2020
1069 Clear 15 1025 78 0 0.67 336 22:40 22.06.2020
1070 Clear 15 1025 75 0 1.15 336 22:20 22.06.2020
1071 Clear 16 1025 74 0 1.15 336 21:58 22.06.2020
1072 Clear 17 1025 73 0 0.45 328 21:40 22.06.2020
1073 Clear 17 1025 71 0 0.89 338 21:21 22.06.2020
1074 Clear 18 1025 69 0 0.89 347 20:55 22.06.2020
1075 Clear 19 1025 64 0 1.79 322 20:36 22.06.2020
1076 Clouds 19 1025 64 0 2.24 338 20:18 22.06.2020
1077 Clouds 20 1025 62 0 2.24 343 19:43 22.06.2020
1078 Clouds 21 1024 58 0 2.24 301 19:19 22.06.2020
1079 Clouds 21 1024 49 10000 4.1 330 18:56 22.06.2020
1080 Clouds 21 1025 46 10000 4.6 350 18:36 22.06.2020
1081 Clouds 22 1022 58 0 0.45 323 18:18 22.06.2020
1082 Clouds 22 1022 58 0 1.34 275 17:55 22.06.2020
1083 Clouds 21 1023 56 0 1.34 249 17:36 22.06.2020
1084 Clouds 22 1023 58 0 0.45 312 17:18 22.06.2020
1085 Clouds 22 1025 59 0 2.68 338 16:41 22.06.2020
1086 Clouds 22 1025 58 0 3.13 275 16:18 22.06.2020
1087 Clouds 22 1023 64 0 0.45 315 15:57 22.06.2020
1088 Clouds 22 1023 61 0 1.79 323 15:39 22.06.2020
1089 Clear 23 1024 57 0 2.68 248 15:21 22.06.2020
1090 Clear 22 1024 62 0 2.68 347 14:39 22.06.2020
1091 Clear 23 1024 63 0 1.79 315 14:20 22.06.2020
1092 Clear 23 1024 63 0 1.79 348 13:56 22.06.2020
1093 Clear 23 1024 62 0 1.79 287 13:37 22.06.2020
1094 Clear 22 1023 62 0 1.79 248 13:19 22.06.2020
1095 Clear 22 1023 63 0 1.79 247 12:42 22.06.2020
1096 Clear 22 1023 63 0 1.79 247 12:42 22.06.2020
1097 Clear 22 1023 65 0 1.79 287 12:23 22.06.2020
1098 Clear 21 1023 70 0 1.34 283 11:58 22.06.2020
1099 Clear 21 1023 73 0 1.79 243 11:37 22.06.2020
1100 Clear 20 1023 70 0 1.34 338 11:18 22.06.2020
1101 Clear 21 1022 71 0 1.79 248 10:54 22.06.2020
1102 Clear 21 1022 71 0 1.79 248 10:54 22.06.2020
1103 Clear 20 1022 72 0 1.79 338 10:36 22.06.2020
1104 Clear 20 1022 72 0 1.79 338 10:36 22.06.2020
1105 Clear 21 1022 73 0 1.79 289 10:18 22.06.2020
1106 Clear 20 1022 76 0 1.34 338 09:42 22.06.2020
1107 Clouds 17 1022 77 10000 2.6 290 09:22 22.06.2020
1108 Clouds 17 1022 77 10000 2.6 290 08:59 22.06.2020
1109 Clear 17 1022 89 0 1.34 257 08:39 22.06.2020
1110 Clear 17 1022 92 0 1.79 242 08:20 22.06.2020
1111 Clear 17 1022 92 0 1.79 242 08:20 22.06.2020
1112 Clear 16 1021 93 0 1.34 338 07:53 22.06.2020
1113 Clear 17 1021 93 0 1.34 266 07:33 22.06.2020
1114 Clouds 14 1021 93 0 0.89 263 06:47 22.06.2020
1115 Clouds 14 1021 93 0 0.89 248 06:27 22.06.2020
1116 Clouds 14 1020 92 0 0.89 233 05:58 22.06.2020
1117 Clouds 14 1020 91 0 0.89 234 05:33 22.06.2020
1118 Clouds 14 1019 91 0 0.89 224 02:58 22.06.2020
1119 Clouds 15 1019 92 0 0.89 338 01:38 22.06.2020
1120 Clouds 15 1019 92 0 2.98 240 00:41 22.06.2020
1121 Clouds 15 1019 91 0 2.45 250 00:19 22.06.2020
1122 Clouds 16 1019 91 0 2.45 250 23:55 21.06.2020
1123 Clouds 16 1019 91 0 0.45 230 23:36 21.06.2020
1124 Rain 16 1019 90 0 2.18 273 23:18 21.06.2020
1125 Rain 17 1019 90 0 2.18 273 22:54 21.06.2020
1126 Rain 17 1018 89 0 2.18 273 22:36 21.06.2020
1127 Rain 17 1018 89 0 2.18 273 22:36 21.06.2020
1128 Rain 17 1018 89 0 0.45 338 22:18 21.06.2020
1129 Rain 17 1018 88 0 0.89 259 21:54 21.06.2020
1130 Rain 18 1018 86 0 0.45 257 21:36 21.06.2020
1131 Clouds 18 1018 84 0 0.89 338 21:18 21.06.2020
1132 Clouds 19 1018 80 0 2.68 290 20:40 21.06.2020
1133 Rain 20 1017 79 0 2.24 262 20:20 21.06.2020
1134 Rain 20 1017 79 0 2.24 282 19:59 21.06.2020
1135 Rain 21 1017 77 0 2.24 323 19:40 21.06.2020
1136 Rain 21 1017 74 0 2.24 302 19:20 21.06.2020
1137 Rain 22 1016 64 0 0.45 338 18:55 21.06.2020
1138 Rain 23 1016 63 0 0.89 165 18:37 21.06.2020
1139 Rain 23 1016 63 0 0.89 166 18:19 21.06.2020
1140 Rain 24 1016 61 0 1.79 338 17:41 21.06.2020
1141 Clouds 24 1016 59 0 1.79 338 17:21 21.06.2020
1142 Clouds 24 1017 57 0 2.24 169 16:57 21.06.2020
1143 Clouds 24 1017 57 0 1.79 140 16:39 21.06.2020
1144 Rain 24 1017 55 0 1.79 338 16:21 21.06.2020
1145 Rain 24 1017 51 0 3.13 182 15:41 21.06.2020
1146 Rain 24 1018 43 8000 3.6 210 15:23 21.06.2020
1147 Rain 24 1018 43 8000 3.6 210 14:59 21.06.2020
1148 Rain 24 1019 46 8000 3.1 210 14:37 21.06.2020
1149 Clouds 23 1019 46 8000 3.1 210 14:19 21.06.2020
1150 Clouds 23 1018 54 0 2.68 164 13:55 21.06.2020
1151 Clouds 24 1018 56 0 3.13 149 13:37 21.06.2020
1152 Clouds 24 1018 59 0 2.24 184 13:18 21.06.2020
1153 Clouds 24 1018 56 0 2.24 165 12:43 21.06.2020
1154 Clear 22 1019 52 10000 3.1 220 12:24 21.06.2020
1155 Clear 22 1019 52 10000 3.1 220 11:54 21.06.2020
1156 Clear 22 1018 63 0 2.68 131 11:36 21.06.2020
1157 Clear 21 1019 60 10000 3.6 190 11:18 21.06.2020
1158 Clear 20 1019 60 10000 3.6 190 10:54 21.06.2020
1159 Clear 21 1018 72 0 2.24 191 10:36 21.06.2020
1160 Clear 21 1018 74 0 2.24 338 10:18 21.06.2020
1161 Clear 21 1018 76 0 1.79 151 09:40 21.06.2020
1162 Clear 17 1020 72 10000 2.1 180 09:19 21.06.2020
1163 Clear 17 1019 82 0 2.24 178 08:56 21.06.2020
1164 Clear 16 1019 85 0 2.68 116 08:37 21.06.2020
1165 Clear 15 1019 85 0 2.24 178 08:19 21.06.2020
1166 Clear 16 1019 85 0 1.79 186 07:41 21.06.2020
1167 Clear 14 1019 86 0 2.24 182 07:22 21.06.2020
1168 Clear 12 1019 90 0 0.45 147 06:49 21.06.2020
1169 Clouds 11 1019 91 0 0.89 158 05:59 21.06.2020
1170 Clouds 11 1020 91 0 0.89 130 05:31 21.06.2020
1171 Clouds 11 1020 90 0 0.89 126 03:40 21.06.2020
1172 Clouds 11 1020 89 0 0.45 126 03:18 21.06.2020
1173 Clouds 11 1020 89 0 0.89 128 02:20 21.06.2020
1174 Clouds 12 1020 88 0 0.45 333 01:32 21.06.2020
1175 Clouds 12 1021 87 0 0.51 179 00:57 21.06.2020
1176 Clouds 12 1021 86 0 0.51 179 00:38 21.06.2020
1177 Clouds 12 1021 85 0 0.44 289 00:19 21.06.2020
1178 Clouds 13 1021 84 0 0.44 289 23:45 20.06.2020
1179 Clouds 13 1020 83 0 1.17 287 23:22 20.06.2020
1180 Clouds 14 1020 80 0 1.17 287 22:56 20.06.2020
1181 Clouds 14 1021 77 0 1.17 287 22:38 20.06.2020
1182 Clouds 15 1020 76 0 0.45 333 22:19 20.06.2020
1183 Clouds 16 1020 74 0 0.45 333 21:56 20.06.2020
1184 Clouds 16 1020 73 0 0.45 338 21:38 20.06.2020
1185 Clouds 17 1020 72 0 0.89 338 21:20 20.06.2020
1186 Clouds 18 1020 70 0 1.34 353 20:57 20.06.2020
1187 Clouds 19 1020 67 0 1.34 343 20:39 20.06.2020
1188 Clear 19 1020 66 0 1.79 355 20:20 20.06.2020
1189 Clear 19 1020 57 0 2.24 280 19:44 20.06.2020
1190 Clear 20 1020 58 0 2.24 277 19:25 20.06.2020
1191 Clear 20 1020 55 7000 5.1 330 18:59 20.06.2020
1192 Clear 20 1020 55 7000 4.6 330 18:40 20.06.2020
1193 Clear 21 1018 62 0 1.34 353 18:20 20.06.2020
1194 Clear 21 1018 59 0 0.45 316 17:57 20.06.2020
1195 Clear 21 1018 61 0 0.45 330 17:39 20.06.2020
1196 Clear 21 1018 63 0 0.45 304 17:20 20.06.2020
1197 Clear 21 1018 65 0 0.45 340 16:42 20.06.2020
1198 Clear 21 1018 68 0 0.45 312 16:19 20.06.2020
1199 Clear 21 1020 61 0 2.24 347 15:57 20.06.2020
1200 Clear 21 1018 66 0 0.45 328 15:39 20.06.2020
1201 Rain 21 1020 66 0 2.24 253 15:18 20.06.2020
1202 Rain 20 1020 67 0 2.24 299 14:42 20.06.2020
1203 Rain 20 1020 63 0 2.68 318 14:21 20.06.2020
1204 Rain 21 1020 68 0 2.24 307 13:42 20.06.2020
1205 Clouds 20 1020 70 0 2.24 310 13:23 20.06.2020
1206 Clouds 20 1020 71 0 2.24 333 12:57 20.06.2020
1207 Clouds 20 1020 75 0 2.24 338 12:38 20.06.2020
1208 Clouds 20 1019 78 0 2.24 297 12:19 20.06.2020
1209 Clouds 20 1019 79 0 2.24 317 11:55 20.06.2020
1210 Clouds 20 1019 78 0 2.24 276 11:36 20.06.2020
1211 Clouds 20 1019 74 0 2.24 338 11:18 20.06.2020
1212 Clouds 19 1019 80 0 1.79 248 10:42 20.06.2020
1213 Clouds 19 1019 82 0 1.79 257 10:20 20.06.2020
1214 Clouds 17 1019 85 0 1.34 338 09:54 20.06.2020
1215 Clouds 18 1019 86 0 1.34 275 09:36 20.06.2020
1216 Clouds 17 1019 86 0 1.79 245 09:18 20.06.2020
1217 Clouds 16 1018 89 0 1.79 232 08:44 20.06.2020
1218 Clouds 15 1018 90 0 2.24 220 08:26 20.06.2020
1219 Clouds 15 1018 91 0 1.34 230 07:51 20.06.2020
1220 Clouds 14 1018 91 0 1.34 205 07:27 20.06.2020
1221 Clouds 13 1018 92 0 0.45 229 06:54 20.06.2020
1222 Clouds 13 1018 91 0 0.45 228 06:23 20.06.2020
1223 Clouds 13 1018 91 0 0.89 230 05:52 20.06.2020
1224 Clouds 13 1018 89 0 0.89 234 04:52 20.06.2020
1225 Clouds 14 1017 87 0 1.34 338 02:27 20.06.2020
1226 Clouds 14 1018 90 0 0.89 244 01:48 20.06.2020
1227 Clouds 14 1017 89 0 0.45 296 00:55 20.06.2020
1228 Clouds 14 1017 88 0 2.68 261 00:21 20.06.2020
1229 Clouds 15 1017 86 0 2.68 261 23:56 19.06.2020
1230 Clouds 15 1017 85 0 2.68 261 23:37 19.06.2020
1231 Clouds 15 1017 84 0 2.28 271 23:18 19.06.2020
1232 Clouds 16 1016 81 0 0.45 295 22:41 19.06.2020
1233 Clouds 16 1016 80 0 1.84 285 22:22 19.06.2020
1234 Clouds 17 1016 78 0 0.45 338 21:59 19.06.2020
1235 Clouds 17 1016 77 0 0.45 296 21:38 19.06.2020
1236 Clouds 18 1016 75 0 0.45 309 21:18 19.06.2020
1237 Clouds 18 1016 74 0 0.89 300 20:59 19.06.2020
1238 Clouds 18 1015 71 0 0.89 328 20:40 19.06.2020
1239 Clouds 19 1015 69 0 1.79 297 20:21 19.06.2020
1240 Clouds 19 1015 69 0 1.79 297 20:21 19.06.2020
1241 Clouds 19 1015 69 0 1.34 338 19:57 19.06.2020
1242 Clouds 19 1015 71 0 0.89 304 19:39 19.06.2020
1243 Clouds 19 1015 71 0 0.89 297 19:21 19.06.2020
1244 Clouds 20 1015 69 0 1.34 338 18:56 19.06.2020
1245 Clouds 21 1015 70 0 1.34 338 18:38 19.06.2020
1246 Clouds 21 1015 67 0 2.24 357 18:20 19.06.2020
1247 Clouds 22 1018 68 0 0.45 1 17:41 19.06.2020
1248 Clouds 22 1014 73 0 2.24 336 17:23 19.06.2020
1249 Clouds 22 1013 75 0 4.02 0 16:57 19.06.2020
1250 Clouds 22 1014 72 0 2.24 15 16:38 19.06.2020
1251 Clouds 22 1015 64 10000 4.6 360 16:20 19.06.2020
1252 Clouds 22 1014 75 0 1.79 356 15:44 19.06.2020
1253 Clouds 22 1014 76 0 1.79 6 15:25 19.06.2020
1254 Clouds 21 1014 76 0 2.24 338 14:57 19.06.2020
1255 Clouds 22 1014 69 0 2.68 12 14:39 19.06.2020
1256 Clouds 22 1014 66 0 2.68 14 14:20 19.06.2020
1257 Clouds 22 1014 67 0 2.68 347 13:57 19.06.2020
1258 Clouds 22 1014 72 0 2.24 356 13:39 19.06.2020
1259 Clouds 22 1014 71 0 0.89 30 13:19 19.06.2020
1260 Clouds 22 1014 78 0 0.89 13 12:43 19.06.2020
1261 Clouds 21 1014 79 0 0.89 357 12:20 19.06.2020
1262 Clouds 21 1013 78 0 2.95 321 11:41 19.06.2020
1263 Clouds 20 1013 78 0 1.34 289 11:19 19.06.2020
1264 Clouds 20 1013 80 0 0.89 237 10:59 19.06.2020
1265 Clouds 20 1013 81 0 0.89 255 10:41 19.06.2020
1266 Clouds 19 1013 83 0 0.89 289 10:21 19.06.2020
1267 Clouds 19 1014 82 0 0.89 274 09:54 19.06.2020
1268 Clouds 18 1013 85 0 0.45 280 09:36 19.06.2020
1269 Clouds 17 1014 88 0 0.45 279 09:18 19.06.2020
1270 Clouds 17 1014 93 0 2.27 279 08:39 19.06.2020
1271 Clouds 16 1014 94 0 1.97 275 08:20 19.06.2020
1272 Clouds 16 1013 95 0 1.97 275 07:41 19.06.2020
1273 Clouds 15 1013 95 0 1.51 273 07:22 19.06.2020
1274 Clouds 14 1013 94 0 1.51 273 06:50 19.06.2020
1275 Clouds 14 1013 94 0 1.3 283 06:22 19.06.2020
1276 Clouds 14 1013 94 0 1.3 283 05:32 19.06.2020
1277 Clouds 14 1013 94 0 1.26 310 03:50 19.06.2020
1278 Clouds 15 1013 94 0 1.59 292 02:22 19.06.2020
1279 Clouds 15 1013 93 0 1.47 295 00:45 19.06.2020
1280 Clouds 15 1013 93 0 1.96 295 00:22 19.06.2020
1281 Clouds 15 1013 93 0 1.96 295 00:22 19.06.2020
1282 Clouds 16 1012 93 0 1.96 295 23:58 18.06.2020
1283 Clouds 16 1012 93 0 1.96 295 23:39 18.06.2020
1284 Rain 16 1013 93 0 2.11 303 23:21 18.06.2020
1285 Rain 16 1012 93 0 0.45 314 22:41 18.06.2020
1286 Rain 16 1012 93 0 0.45 314 22:21 18.06.2020
1287 Rain 16 1012 93 0 2.16 316 21:58 18.06.2020
1288 Rain 16 1012 93 0 2.16 316 21:58 18.06.2020
1289 Rain 16 1012 92 0 1.73 357 21:38 18.06.2020
1290 Rain 17 1012 92 0 0.45 314 21:19 18.06.2020
1291 Rain 17 1011 92 0 0.45 314 20:44 18.06.2020
1292 Rain 17 1011 92 0 0.89 309 20:22 18.06.2020
1293 Rain 17 1011 91 0 1.34 328 19:58 18.06.2020
1294 Rain 17 1011 91 0 0.45 338 19:40 18.06.2020
1295 Rain 17 1011 91 0 0.45 338 19:20 18.06.2020
1296 Rain 17 1011 91 0 0.45 230 18:56 18.06.2020
1297 Rain 18 1011 91 0 0.45 229 18:36 18.06.2020
1298 Rain 17 1011 90 0 0.45 228 18:18 18.06.2020
1299 Rain 18 1011 91 0 0.45 220 17:43 18.06.2020
1300 Rain 18 1011 91 0 2.4 290 17:24 18.06.2020
1301 Rain 18 1011 91 0 0.89 218 16:55 18.06.2020
1302 Rain 18 1011 91 0 1.34 228 16:37 18.06.2020
1303 Rain 18 1011 91 0 1.34 224 16:18 18.06.2020
1304 Rain 18 1011 92 0 1.34 233 15:40 18.06.2020
1305 Rain 18 1011 92 0 1.34 223 15:21 18.06.2020
1306 Rain 18 1011 92 0 1.34 223 15:21 18.06.2020
1307 Rain 18 1011 92 0 1.34 250 14:58 18.06.2020
1308 Rain 18 1011 92 0 1.34 250 14:58 18.06.2020
1309 Rain 18 1011 90 0 1.79 204 14:40 18.06.2020
1310 Rain 18 1011 88 0 2.68 258 14:21 18.06.2020
1311 Rain 18 1011 87 0 1.34 184 13:56 18.06.2020
1312 Rain 19 1010 87 0 1.34 176 13:38 18.06.2020
1313 Rain 19 1010 87 0 1.79 224 13:18 18.06.2020
1314 Rain 19 1010 89 0 1.34 225 12:55 18.06.2020
1315 Rain 19 1010 89 0 0.89 219 12:36 18.06.2020
1316 Rain 19 1010 90 0 1.34 205 12:18 18.06.2020
1317 Rain 19 1010 89 0 0.89 221 11:44 18.06.2020
1318 Rain 18 1010 88 0 0.45 176 11:21 18.06.2020
1319 Rain 18 1010 85 0 1.34 188 10:41 18.06.2020
1320 Rain 18 1010 84 0 1.34 159 10:20 18.06.2020
1321 Rain 18 1010 84 0 0.45 136 09:58 18.06.2020
1322 Rain 19 1010 83 0 0.45 135 09:40 18.06.2020
1323 Rain 18 1009 83 0 0.89 135 09:21 18.06.2020
1324 Clouds 18 1009 85 0 0.45 113 08:41 18.06.2020
1325 Clouds 18 1009 85 0 0.89 338 08:22 18.06.2020
1326 Clouds 18 1009 85 0 0.89 117 07:58 18.06.2020
1327 Clouds 18 1009 86 0 0.45 82 07:40 18.06.2020
1328 Clouds 18 1009 87 0 2.96 87 07:21 18.06.2020
1329 Clouds 17 1009 86 0 0.45 44 06:22 18.06.2020
1330 Clouds 16 1009 85 0 0.89 99 04:26 18.06.2020
1331 Clouds 17 1009 85 0 0.89 22 03:18 18.06.2020
1332 Rain 17 1010 86 0 0.89 31 01:39 18.06.2020
1333 Rain 17 1010 86 0 1.34 8 01:18 18.06.2020
1334 Rain 16 1010 86 0 1.34 25 00:48 18.06.2020
1335 Clouds 17 1010 84 0 1.79 22 00:23 18.06.2020
1336 Clouds 17 1010 82 0 1.79 10 23:46 17.06.2020
1337 Clouds 17 1011 81 0 1.79 10 23:22 17.06.2020
1338 Clouds 17 1011 79 0 2.24 5 22:59 17.06.2020
1339 Clouds 18 1011 78 0 2.24 12 22:40 17.06.2020
1340 Clouds 18 1011 77 0 2.24 19 22:21 17.06.2020
1341 Clouds 18 1011 74 0 2.24 0 21:58 17.06.2020
1342 Clouds 18 1011 74 0 2.24 11 21:39 17.06.2020
1343 Clouds 19 1010 73 0 2.24 1 21:20 17.06.2020
1344 Clouds 19 1010 73 0 2.24 6 20:55 17.06.2020
1345 Clouds 20 1010 71 0 3.13 338 20:36 17.06.2020
1346 Clouds 21 1010 69 0 3.13 343 20:18 17.06.2020
1347 Clouds 22 1010 70 0 2.24 10 19:41 17.06.2020
1348 Clouds 23 1010 69 0 2.24 29 19:19 17.06.2020
1349 Clouds 24 1010 67 0 4.02 343 18:46 17.06.2020
1350 Rain 24 1010 67 0 3.58 355 18:28 17.06.2020
1351 Rain 24 1011 70 0 3.13 333 17:47 17.06.2020
1352 Rain 24 1011 70 0 3.58 16 17:23 17.06.2020
1353 Rain 24 1011 72 0 3.58 355 16:59 17.06.2020
1354 Rain 24 1011 75 0 3.58 343 16:41 17.06.2020
1355 Rain 24 1011 76 0 3.13 3 16:21 17.06.2020
1356 Rain 24 1012 75 0 2.68 347 15:59 17.06.2020
1357 Rain 23 1012 74 0 2.68 338 15:39 17.06.2020
1358 Clouds 23 1012 73 0 3.13 315 15:21 17.06.2020
1359 Clouds 24 1012 71 0 2.24 333 14:58 17.06.2020
1360 Clouds 24 1012 68 0 2.24 0 14:40 17.06.2020
1361 Clouds 24 1012 73 0 1.79 3 14:19 17.06.2020
1362 Clouds 23 1012 75 0 1.79 0 13:58 17.06.2020
1363 Clouds 23 1012 74 0 1.34 338 13:40 17.06.2020
1364 Clouds 22 1012 77 0 1.79 338 13:21 17.06.2020
1365 Clouds 22 1012 80 0 1.79 349 12:55 17.06.2020
1366 Clouds 21 1013 80 0 1.79 347 12:36 17.06.2020
1367 Clouds 21 1013 81 0 1.34 338 12:18 17.06.2020
1368 Clouds 20 1013 84 0 1.79 347 11:44 17.06.2020
1369 Clouds 20 1013 84 0 1.79 349 11:24 17.06.2020
1370 Clouds 19 1013 86 0 1.79 352 10:39 17.06.2020
1371 Clouds 19 1013 85 0 1.79 351 10:20 17.06.2020
1372 Clouds 18 1013 86 0 1.79 338 09:59 17.06.2020
1373 Clouds 18 1013 86 0 2.24 20 09:41 17.06.2020
1374 Clouds 17 1013 87 0 1.79 3 09:21 17.06.2020
1375 Clouds 17 1013 87 0 1.79 358 08:57 17.06.2020
1376 Clouds 16 1013 89 0 1.34 25 08:39 17.06.2020
1377 Clouds 16 1013 90 0 1.34 309 08:19 17.06.2020
1378 Clouds 15 1013 91 0 1.34 348 07:43 17.06.2020
1379 Clouds 15 1013 93 0 1.34 351 07:21 17.06.2020
1380 Clouds 14 1013 93 0 0.45 338 06:56 17.06.2020
1381 Clouds 14 1013 93 0 0.45 309 06:38 17.06.2020
1382 Clouds 14 1013 92 0 0.45 309 06:20 17.06.2020
1383 Clouds 14 1013 92 0 1.6 356 05:29 17.06.2020
1384 Clouds 14 1014 91 0 0.45 318 03:28 17.06.2020
1385 Clouds 14 1014 91 0 1.07 16 01:54 17.06.2020
1386 Clouds 14 1014 90 0 0.45 318 00:47 17.06.2020
1387 Clouds 14 1014 90 0 0.45 338 00:25 17.06.2020
1388 Clouds 14 1014 90 0 0.89 338 23:57 16.06.2020
1389 Clouds 14 1014 89 0 0.45 347 23:38 16.06.2020
1390 Clouds 14 1014 89 0 1.98 16 23:20 16.06.2020
1391 Clouds 15 1014 89 0 0.45 347 22:56 16.06.2020
1392 Clouds 15 1014 88 0 1.98 16 22:37 16.06.2020
1393 Clouds 16 1014 88 0 0.45 347 22:19 16.06.2020
1394 Clouds 16 1014 87 0 0.89 343 21:54 16.06.2020
1395 Clouds 16 1014 86 0 1.79 0 21:36 16.06.2020
1396 Clouds 17 1013 85 0 1.79 322 21:18 16.06.2020
1397 Clouds 18 1014 84 0 1.34 343 20:42 16.06.2020
1398 Clouds 19 1014 83 0 1.79 343 20:19 16.06.2020
1399 Clouds 19 1014 83 0 1.79 343 20:19 16.06.2020
1400 Clouds 19 1014 81 0 1.79 343 19:58 16.06.2020
1401 Clouds 19 1014 81 0 1.79 343 19:58 16.06.2020
1402 Clouds 20 1014 80 0 1.34 308 19:39 16.06.2020
1403 Clouds 20 1014 78 0 1.34 297 19:21 16.06.2020
1404 Clouds 21 1014 77 0 1.79 338 18:56 16.06.2020
1405 Clouds 21 1013 77 0 1.79 314 18:38 16.06.2020
1406 Clouds 21 1013 78 0 1.79 338 18:20 16.06.2020
1407 Clouds 22 1013 75 0 1.79 305 17:56 16.06.2020
1408 Clouds 22 1013 76 0 1.34 264 17:37 16.06.2020
1409 Clouds 22 1014 75 0 1.79 290 17:19 16.06.2020
1410 Clouds 22 1014 76 0 1.34 311 16:55 16.06.2020
1411 Clouds 22 1014 72 0 1.79 333 16:37 16.06.2020
1412 Clouds 23 1014 73 0 1.34 302 16:18 16.06.2020
1413 Clouds 22 1014 75 0 1.34 312 15:56 16.06.2020
1414 Clouds 22 1014 74 0 1.34 303 15:37 16.06.2020
1415 Clouds 22 1014 75 0 1.34 256 15:19 16.06.2020
1416 Clouds 22 1014 77 0 1.34 338 14:43 16.06.2020
1417 Clouds 22 1014 77 0 1.34 299 14:25 16.06.2020
1418 Clouds 22 1014 80 0 1.34 320 13:55 16.06.2020
1419 Clouds 22 1014 80 0 1.34 353 13:37 16.06.2020
1420 Clouds 22 1014 83 0 1.34 338 13:18 16.06.2020
1421 Clouds 22 1015 82 0 0.89 21 12:41 16.06.2020
1422 Clouds 21 1014 84 0 1.34 17 12:21 16.06.2020
1423 Clouds 21 1014 84 0 1.34 12 11:56 16.06.2020
1424 Clouds 21 1014 82 0 1.79 10 11:38 16.06.2020
1425 Clouds 21 1014 82 0 0.89 0 11:19 16.06.2020
1426 Clouds 21 1015 83 0 0.89 301 10:55 16.06.2020
1427 Clouds 20 1015 85 0 0.89 301 10:37 16.06.2020
1428 Clouds 20 1015 87 0 0.89 338 10:18 16.06.2020
1429 Clouds 20 1015 89 0 1.34 333 09:42 16.06.2020
1430 Clouds 19 1015 91 0 1.34 333 09:22 16.06.2020
1431 Clouds 18 1015 92 0 1.34 338 08:48 16.06.2020
1432 Clouds 18 1015 93 0 1.34 289 08:30 16.06.2020
1433 Clouds 17 1015 93 0 1.09 248 07:51 16.06.2020
1434 Clouds 17 1015 94 0 1.11 256 07:28 16.06.2020
1435 Clouds 17 1015 94 0 1.11 256 06:56 16.06.2020
1436 Clouds 16 1015 93 0 1.11 256 06:29 16.06.2020
1437 Clouds 16 1015 93 0 1.3 256 05:47 16.06.2020
1438 Clouds 16 1015 93 0 1.25 259 04:42 16.06.2020
1439 Clouds 16 1015 93 0 1.4 259 03:53 16.06.2020
1440 Clouds 15 1015 92 0 1.27 267 02:28 16.06.2020
1441 Clouds 16 1016 92 0 1.41 279 01:32 16.06.2020
1442 Clouds 15 1016 92 0 1.46 287 00:52 16.06.2020
1443 Clouds 16 1016 92 0 1.56 286 00:22 16.06.2020
1444 Clouds 16 1016 91 0 1.56 286 23:43 15.06.2020
1445 Clouds 16 1016 91 0 1.46 293 23:24 15.06.2020
1446 Clouds 17 1016 90 0 1.46 293 23:00 15.06.2020
1447 Clouds 17 1016 90 0 1.46 293 22:41 15.06.2020
1448 Clouds 17 1016 90 0 1.46 293 22:41 15.06.2020
1449 Clouds 17 1016 90 0 1.36 299 22:22 15.06.2020
1450 Clouds 17 1016 89 0 1.36 299 21:58 15.06.2020
1451 Clouds 17 1016 89 0 1.36 299 21:58 15.06.2020
1452 Clouds 17 1015 88 0 1.36 299 21:38 15.06.2020
1453 Clouds 17 1015 89 0 1.9 317 21:20 15.06.2020
1454 Clouds 17 1015 89 0 1.9 317 20:57 15.06.2020
1455 Clouds 18 1015 89 0 1.9 317 20:38 15.06.2020
1456 Clouds 18 1015 89 0 0.45 285 20:19 15.06.2020
1457 Clouds 18 1016 88 0 0.45 338 19:57 15.06.2020
1458 Clouds 18 1015 88 0 0.45 285 19:39 15.06.2020
1459 Clouds 18 1015 87 0 0.45 284 19:20 15.06.2020
1460 Clouds 18 1015 87 0 0.89 285 18:56 15.06.2020
1461 Clouds 18 1015 87 0 0.45 281 18:38 15.06.2020
1462 Clouds 18 1015 87 0 0.89 262 18:19 15.06.2020
1463 Clouds 19 1015 87 0 0.45 260 17:56 15.06.2020
1464 Clouds 18 1015 88 0 2.3 314 17:37 15.06.2020
1465 Clouds 18 1015 87 0 2.53 302 17:18 15.06.2020
1466 Clouds 17 1015 88 0 2.53 302 16:41 15.06.2020
1467 Clouds 18 1015 88 0 0.45 260 16:19 15.06.2020
1468 Clouds 18 1015 89 0 0.45 338 15:57 15.06.2020
1469 Clouds 17 1015 89 0 0.89 262 15:39 15.06.2020
1470 Rain 17 1015 89 0 0.45 260 15:19 15.06.2020
1471 Rain 17 1015 89 0 0.45 258 14:55 15.06.2020
1472 Rain 16 1015 91 0 1.34 338 14:37 15.06.2020
1473 Clouds 17 1015 91 0 1.34 338 14:18 15.06.2020
1474 Clouds 17 1016 93 0 1.34 264 13:42 15.06.2020
1475 Clouds 17 1016 93 0 1.34 266 13:24 15.06.2020
1476 Clouds 17 1016 93 0 1.34 266 13:24 15.06.2020
1477 Clouds 17 1015 94 0 1.34 274 12:59 15.06.2020
1478 Clouds 17 1015 94 0 0.89 338 12:40 15.06.2020
1479 Rain 17 1016 94 0 0.89 283 12:21 15.06.2020
1480 Rain 17 1015 95 0 0.89 283 11:46 15.06.2020
1481 Rain 17 1015 95 0 0.45 286 11:26 15.06.2020
1482 Rain 16 1015 95 0 1.34 268 10:57 15.06.2020
1483 Rain 16 1015 95 0 0.89 269 10:38 15.06.2020
1484 Rain 16 1015 95 0 0.45 269 10:19 15.06.2020
1485 Rain 16 1015 95 0 0.45 270 09:43 15.06.2020
1486 Rain 16 1015 94 0 0.89 338 09:23 15.06.2020
1487 Clouds 16 1015 94 0 0.89 269 08:46 15.06.2020
1488 Rain 16 1014 94 0 1.34 270 08:26 15.06.2020
1489 Rain 15 1014 94 0 0.45 271 07:53 15.06.2020
1490 Rain 16 1014 95 0 0.45 338 07:34 15.06.2020
1491 Rain 16 1014 94 0 0.45 338 06:58 15.06.2020
1492 Rain 15 1014 94 0 0.45 269 06:27 15.06.2020
1493 Rain 15 1014 94 0 1.34 338 05:51 15.06.2020
1494 Rain 16 1014 94 0 1.34 256 05:29 15.06.2020
1495 Rain 16 1014 94 0 0.45 265 04:22 15.06.2020
1496 Rain 16 1014 93 0 0.89 247 03:48 15.06.2020
1497 Rain 16 1014 93 0 0.45 338 02:57 15.06.2020
1498 Rain 16 1014 93 0 0.45 338 02:29 15.06.2020
1499 Rain 17 1014 92 0 0.45 338 01:47 15.06.2020
1500 Rain 17 1014 92 0 0.45 329 01:27 15.06.2020
1501 Rain 17 1014 92 0 0.45 333 00:45 15.06.2020
1502 Rain 17 1014 92 0 0.45 338 00:23 15.06.2020
1503 Rain 17 1014 92 0 0.45 23 23:59 14.06.2020
1504 Rain 17 1014 92 0 0.45 22 23:41 14.06.2020
1505 Rain 17 1014 91 0 0.45 23 23:23 14.06.2020
1506 Rain 17 1013 90 0 0.89 23 22:57 14.06.2020
1507 Rain 18 1014 90 0 0.89 41 22:38 14.06.2020
1508 Rain 18 1014 90 0 0.45 39 22:18 14.06.2020
1509 Rain 18 1014 89 0 0.45 41 21:56 14.06.2020
1510 Rain 18 1014 88 0 0.45 40 21:38 14.06.2020
1511 Rain 18 1014 89 0 2.53 19 21:19 14.06.2020
1512 Rain 18 1014 89 0 2.53 19 21:19 14.06.2020
1513 Rain 18 1013 89 0 2.53 19 20:57 14.06.2020
1514 Rain 18 1014 88 0 0.45 54 20:38 14.06.2020
1515 Rain 19 1014 88 0 0.45 55 20:19 14.06.2020
1516 Rain 19 1013 87 0 2.41 29 19:56 14.06.2020
1517 Rain 19 1013 87 0 0.45 60 19:37 14.06.2020
1518 Rain 19 1013 86 0 0.45 61 19:19 14.06.2020
1519 Rain 19 1013 85 0 0.89 58 18:56 14.06.2020
1520 Rain 19 1013 85 0 0.45 86 18:37 14.06.2020
1521 Rain 19 1013 85 0 0.45 88 18:19 14.06.2020
1522 Rain 19 1013 85 0 0.45 88 17:56 14.06.2020
1523 Rain 20 1013 85 0 0.45 87 17:38 14.06.2020
1524 Rain 20 1013 85 0 0.89 87 17:19 14.06.2020
1525 Rain 21 1013 83 0 0.89 85 16:40 14.06.2020
1526 Rain 21 1013 84 0 1.34 54 16:20 14.06.2020
1527 Rain 20 1013 84 0 1.34 21 15:58 14.06.2020
1528 Rain 20 1013 85 0 1.79 9 15:40 14.06.2020
1529 Rain 20 1013 86 0 1.34 31 15:18 14.06.2020
1530 Rain 19 1013 86 0 1.79 81 14:58 14.06.2020
1531 Rain 19 1013 86 0 1.79 39 14:40 14.06.2020
1532 Rain 19 1013 87 0 1.34 53 14:19 14.06.2020
1533 Rain 19 1013 86 0 1.34 87 13:55 14.06.2020
1534 Rain 19 1013 87 0 1.34 34 13:37 14.06.2020
1535 Rain 19 1012 87 0 1.34 18 13:19 14.06.2020
1536 Rain 20 1012 87 0 1.34 15 12:55 14.06.2020
1537 Rain 20 1012 87 0 1.34 355 12:37 14.06.2020
1538 Clouds 20 1012 86 0 1.34 7 12:18 14.06.2020
1539 Clouds 20 1012 86 0 0.89 9 11:55 14.06.2020
1540 Clouds 21 1012 84 0 0.89 12 11:37 14.06.2020
1541 Clouds 21 1012 86 0 0.45 171 11:18 14.06.2020
1542 Clouds 20 1011 86 0 0.45 171 10:41 14.06.2020
1543 Clouds 20 1010 89 0 3.35 93 10:19 14.06.2020
1544 Clouds 19 1012 92 0 0.89 135 09:45 14.06.2020
1545 Clouds 19 1012 94 0 0.45 163 09:25 14.06.2020
1546 Clouds 19 1012 94 0 0.45 338 08:54 14.06.2020
1547 Clouds 18 1012 94 0 0.89 154 08:36 14.06.2020
1548 Clouds 18 1012 94 0 0.45 124 08:18 14.06.2020
1549 Clouds 17 1013 94 0 0.89 52 07:44 14.06.2020
1550 Clouds 17 1012 94 0 1.79 79 07:26 14.06.2020
1551 Clouds 17 1012 94 0 0.45 66 06:26 14.06.2020
1552 Clouds 17 1012 94 0 0.45 110 05:40 14.06.2020
1553 Clouds 17 1012 94 0 4.04 74 04:53 14.06.2020
1554 Clouds 17 1012 93 0 3.99 62 04:28 14.06.2020
1555 Clouds 17 1012 93 0 3.34 56 02:56 14.06.2020
1556 Rain 18 1012 93 0 0.45 77 02:27 14.06.2020
1557 Rain 18 1011 93 0 2.8 83 01:36 14.06.2020
1558 Rain 18 1011 92 0 1.34 248 00:56 14.06.2020
1559 Rain 18 1011 92 0 0.45 214 00:37 14.06.2020
1560 Clouds 18 1011 92 0 1.79 214 00:18 14.06.2020
1561 Clouds 18 1011 93 0 0.89 181 23:42 13.06.2020
1562 Clouds 19 1011 92 0 4.62 80 23:23 13.06.2020
1563 Clouds 19 1011 92 0 1.34 338 22:56 13.06.2020
1564 Clouds 19 1011 93 0 0.45 148 22:37 13.06.2020
1565 Clouds 19 1011 93 0 4.54 72 22:18 13.06.2020
1566 Clouds 19 1010 92 0 0.89 137 21:55 13.06.2020
1567 Clouds 19 1008 94 0 4.54 72 21:36 13.06.2020
1568 Clouds 20 1010 93 0 0.45 226 21:18 13.06.2020
1569 Clouds 20 1011 92 0 0.45 347 20:42 13.06.2020
1570 Rain 20 1011 90 0 3.96 39 20:19 13.06.2020
1571 Rain 20 1011 90 0 0.45 343 19:54 13.06.2020
1572 Rain 20 1011 89 0 0.89 347 19:36 13.06.2020
1573 Rain 21 1011 88 0 1.34 8 19:18 13.06.2020
1574 Rain 22 1010 84 0 2.68 12 18:41 13.06.2020
1575 Rain 23 1010 83 0 1.79 10 18:21 13.06.2020
1576 Rain 24 1010 78 0 2.68 315 18:00 13.06.2020
1577 Rain 25 1010 77 0 2.68 356 17:41 13.06.2020
1578 Clouds 26 1010 75 0 3.13 4 17:23 13.06.2020
1579 Clouds 26 1010 76 0 3.13 2 16:58 13.06.2020
1580 Clouds 26 1010 75 0 2.68 357 16:39 13.06.2020
1581 Rain 26 1010 72 0 2.68 354 16:19 13.06.2020
1582 Rain 27 1010 69 0 1.34 39 15:54 13.06.2020
1583 Rain 26 1010 71 0 1.34 355 15:36 13.06.2020
1584 Clouds 25 1011 69 10000 4.1 80 15:18 13.06.2020
1585 Clouds 26 1011 69 10000 4.1 80 14:43 13.06.2020
1586 Clouds 25 1011 69 10000 5.7 90 14:21 13.06.2020
1587 Clouds 24 1011 69 10000 5.7 90 13:45 13.06.2020
1588 Clouds 23 1011 78 10000 4.6 120 13:26 13.06.2020
1589 Clouds 23 1011 78 10000 4.6 120 12:57 13.06.2020
1590 Clouds 21 1012 82 7000 4.1 110 12:37 13.06.2020
1591 Clouds 22 1012 82 7000 4.1 110 12:19 13.06.2020
1592 Clouds 22 1012 82 7000 4.1 110 12:19 13.06.2020
1593 Clouds 21 1011 88 7000 5.1 100 11:40 13.06.2020
1594 Clouds 21 1011 88 7000 5.1 100 11:19 13.06.2020
1595 Clouds 19 1011 88 7000 5.1 100 10:58 13.06.2020
1596 Clouds 20 1010 84 0 3.13 62 10:40 13.06.2020
1597 Clouds 20 1010 84 0 2.24 84 10:22 13.06.2020
1598 Clouds 20 1010 85 0 2.68 88 09:54 13.06.2020
1599 Clouds 19 1010 85 0 2.24 72 09:36 13.06.2020
1600 Clouds 19 1010 86 0 1.34 78 09:18 13.06.2020
1601 Clouds 18 1010 87 0 1.79 52 08:42 13.06.2020
1602 Clouds 18 1010 87 0 1.34 40 08:24 13.06.2020
1603 Clouds 17 1010 89 0 1.34 64 07:43 13.06.2020
1604 Clouds 17 1010 90 0 0.89 78 07:25 13.06.2020
1605 Clouds 16 1010 90 0 0.45 338 06:44 13.06.2020
1606 Clouds 16 1010 90 0 0.45 158 06:25 13.06.2020
1607 Rain 16 1010 89 0 0.89 83 05:28 13.06.2020
1608 Rain 17 1009 89 0 2.24 68 04:38 13.06.2020
1609 Rain 17 1009 89 0 2.68 91 03:43 13.06.2020
1610 Clouds 17 1009 89 0 1.79 63 02:45 13.06.2020
1611 Clouds 18 1009 88 0 1.34 36 01:50 13.06.2020
1612 Clouds 18 1009 88 0 1.34 53 01:24 13.06.2020
1613 Clouds 18 1009 87 0 0.89 28 00:54 13.06.2020
1614 Clouds 18 1009 85 0 1.34 37 00:29 13.06.2020
1615 Clouds 19 1009 83 0 1.34 18 23:59 12.06.2020
1616 Clouds 19 1009 80 0 0.89 32 23:38 12.06.2020
1617 Rain 19 1009 79 0 0.89 34 23:18 12.06.2020
1618 Rain 19 1009 79 0 1.34 86 22:54 12.06.2020
1619 Rain 19 1009 79 0 1.34 45 22:36 12.06.2020
1620 Clouds 20 1008 79 0 0.89 65 22:18 12.06.2020
1621 Clouds 21 1008 76 0 1.34 78 21:42 12.06.2020
1622 Clouds 21 1008 75 0 1.79 69 21:23 12.06.2020
1623 Clouds 22 1008 74 0 1.79 83 20:57 12.06.2020
1624 Clouds 22 1008 72 0 1.79 76 20:37 12.06.2020
1625 Rain 23 1008 71 0 2.24 96 20:19 12.06.2020
1626 Rain 23 1008 70 0 2.24 84 19:42 12.06.2020
1627 Clear 23 1008 69 0 2.68 100 19:21 12.06.2020
1628 Clear 24 1008 67 0 1.79 70 18:58 12.06.2020
1629 Clear 25 1008 63 0 1.34 128 18:37 12.06.2020
1630 Clear 24 1008 65 0 2.24 74 18:18 12.06.2020
1631 Clear 24 1008 64 0 2.68 73 17:43 12.06.2020
1632 Rain 25 1008 66 0 2.24 95 17:25 12.06.2020
1633 Rain 25 1008 65 0 2.24 85 16:47 12.06.2020
1634 Rain 24 1008 66 0 2.24 52 16:23 12.06.2020
1635 Rain 24 1008 70 0 2.24 58 15:56 12.06.2020
1636 Rain 24 1008 70 0 1.79 181 15:37 12.06.2020
1637 Rain 24 1006 68 0 1.34 89 15:18 12.06.2020
1638 Rain 24 1008 72 0 3.13 69 14:41 12.06.2020
1639 Clouds 23 1007 69 0 1.34 279 14:22 12.06.2020
1640 Clouds 22 1007 72 0 1.79 91 13:57 12.06.2020
1641 Clouds 22 1008 75 0 2.68 143 13:39 12.06.2020
1642 Clouds 21 1008 78 0 3.13 4 13:18 12.06.2020
1643 Clouds 19 1009 82 0 2.68 93 12:40 12.06.2020
1644 Clouds 20 1009 83 0 2.68 21 12:19 12.06.2020
1645 Clouds 19 1010 87 0 2.24 68 11:49 12.06.2020
1646 Clouds 19 1010 90 0 1.79 52 11:23 12.06.2020
1647 Clouds 18 1010 91 0 0.89 53 10:58 12.06.2020
1648 Clouds 18 1010 91 0 1.34 70 10:40 12.06.2020
1649 Clouds 18 1010 92 0 0.89 64 10:21 12.06.2020
1650 Clouds 17 1010 92 0 0.89 64 09:44 12.06.2020
1651 Clouds 17 1010 92 0 1.34 120 09:21 12.06.2020
1652 Clouds 16 1010 93 0 1.34 70 08:43 12.06.2020
1653 Clouds 16 1010 93 0 1.79 128 08:24 12.06.2020
1654 Clouds 15 1010 93 0 0.89 53 07:44 12.06.2020
1655 Clouds 15 1010 93 0 0.89 33 07:25 12.06.2020
1656 Clouds 15 1010 93 0 1.79 49 06:55 12.06.2020
1657 Clouds 15 1010 93 0 0.89 33 06:25 12.06.2020
1658 Clouds 15 1010 93 0 0.89 60 05:50 12.06.2020
1659 Clouds 15 1010 92 0 1.34 31 05:28 12.06.2020
1660 Clouds 15 1011 92 0 0.89 50 04:50 12.06.2020
1661 Clouds 16 1011 92 0 1.34 68 02:55 12.06.2020
1662 Clouds 16 1011 92 0 0.89 73 01:52 12.06.2020
1663 Clouds 15 1011 92 0 0.89 21 01:26 12.06.2020
1664 Clouds 16 1012 92 0 0.89 56 00:43 12.06.2020
1665 Clouds 16 1012 92 0 0.89 21 00:24 12.06.2020
1666 Clouds 16 1012 92 0 0.89 27 23:59 11.06.2020
1667 Clouds 16 1012 92 0 1.34 21 23:41 11.06.2020
1668 Clouds 16 1012 92 0 1.34 16 23:21 11.06.2020
1669 Clouds 15 1012 92 0 0.89 11 22:59 11.06.2020
1670 Clouds 16 1012 93 0 1.34 33 22:39 11.06.2020
1671 Clouds 16 1012 93 0 0.89 41 22:20 11.06.2020
1672 Clouds 16 1012 92 0 1.34 14 21:56 11.06.2020
1673 Clouds 15 1012 92 0 0.45 18 21:38 11.06.2020
1674 Clouds 16 1012 92 0 0.89 58 21:20 11.06.2020
1675 Clouds 16 1012 92 0 0.89 38 20:45 11.06.2020
1676 Clouds 16 1012 92 0 1.79 81 20:22 11.06.2020
1677 Clouds 16 1012 92 0 1.79 68 19:58 11.06.2020
1678 Clouds 16 1012 92 0 1.34 92 19:40 11.06.2020
1679 Clouds 16 1012 93 0 1.34 18 19:21 11.06.2020
1680 Clouds 16 1012 92 0 1.34 93 18:42 11.06.2020
1681 Clouds 16 1011 92 0 1.79 52 18:24 11.06.2020
1682 Clouds 16 1012 92 0 1.34 58 17:57 11.06.2020
1683 Clouds 16 1011 92 0 1.34 76 17:38 11.06.2020
1684 Clouds 16 1011 92 0 1.34 93 17:20 11.06.2020
1685 Clouds 16 1011 92 0 0.89 338 16:57 11.06.2020
1686 Clouds 16 1011 92 0 0.89 23 16:38 11.06.2020
1687 Rain 16 1011 92 0 0.89 27 16:20 11.06.2020
1688 Rain 16 1011 92 0 0.89 62 15:55 11.06.2020
1689 Rain 16 1011 92 0 0.89 89 15:37 11.06.2020
1690 Rain 16 1011 92 0 1.34 75 15:18 11.06.2020
1691 Rain 16 1011 92 0 1.34 28 14:42 11.06.2020
1692 Rain 15 1011 92 0 0.89 60 14:20 11.06.2020
1693 Rain 15 1012 92 0 0.89 60 13:56 11.06.2020
1694 Rain 15 1012 91 0 1.34 79 13:37 11.06.2020
1695 Rain 15 1012 92 0 1.34 75 13:19 11.06.2020
1696 Rain 15 1011 91 0 1.34 34 12:55 11.06.2020
1697 Rain 15 1012 91 0 0.89 18 12:37 11.06.2020
1698 Rain 15 1012 91 0 0.89 60 12:18 11.06.2020
1699 Rain 15 1012 91 0 0.89 96 11:56 11.06.2020
1700 Rain 15 1012 90 0 1.34 26 11:37 11.06.2020
1701 Rain 15 1012 89 0 1.79 38 11:19 11.06.2020
1702 Rain 15 1012 90 0 0.89 24 10:54 11.06.2020
1703 Rain 15 1012 91 0 1.79 47 10:36 11.06.2020
1704 Rain 15 1012 91 0 1.34 359 10:18 11.06.2020
1705 Rain 15 1012 92 0 1.79 11 09:40 11.06.2020
1706 Clouds 15 1012 92 0 1.79 32 09:22 11.06.2020
1707 Clouds 14 1012 92 0 1.34 12 08:43 11.06.2020
1708 Clouds 14 1013 92 0 2.68 0 08:19 11.06.2020
1709 Clouds 14 1013 92 0 2.68 347 07:42 11.06.2020
1710 Clouds 13 1013 92 0 3.13 31 07:24 11.06.2020
1711 Clouds 13 1013 91 0 2.68 347 06:40 11.06.2020
1712 Clouds 13 1013 91 0 3.13 22 06:22 11.06.2020
1713 Rain 13 1013 91 0 2.24 20 05:29 11.06.2020
1714 Rain 14 1014 87 0 1.79 343 03:30 11.06.2020
1715 Clouds 14 1014 89 0 0.89 50 02:52 11.06.2020
1716 Rain 14 1014 90 0 1.34 43 02:32 11.06.2020
1717 Clouds 14 1014 90 0 0.45 7 01:47 11.06.2020
1718 Clouds 13 1015 90 0 0.45 8 01:24 11.06.2020
1719 Clouds 13 1015 89 0 1.34 7 00:50 11.06.2020
1720 Clouds 13 1015 89 0 1.79 357 00:27 11.06.2020
1721 Clouds 13 1015 88 0 1.34 8 23:47 10.06.2020
1722 Clouds 13 1015 88 0 1.79 357 23:27 10.06.2020
1723 Clouds 13 1015 87 0 1.34 6 22:57 10.06.2020
1724 Clouds 13 1015 86 0 2.24 8 22:38 10.06.2020
1725 Clouds 14 1015 85 0 2.68 347 22:19 10.06.2020
1726 Clouds 14 1015 84 0 2.68 0 21:58 10.06.2020
1727 Clouds 14 1015 83 0 3.58 10 21:39 10.06.2020
1728 Clouds 14 1015 83 0 2.68 354 21:18 10.06.2020
1729 Clouds 15 1015 83 0 2.24 359 20:57 10.06.2020
1730 Clouds 15 1015 82 0 2.24 2 20:39 10.06.2020
1731 Clouds 15 1015 82 0 2.24 12 20:20 10.06.2020
1732 Clouds 16 1015 82 0 2.68 10 19:41 10.06.2020
1733 Clouds 16 1015 82 0 2.68 16 19:20 10.06.2020
1734 Clouds 16 1015 82 0 2.24 353 18:59 10.06.2020
1735 Clouds 16 1015 83 0 2.24 350 18:41 10.06.2020
1736 Rain 16 1015 82 0 1.79 10 18:20 10.06.2020
1737 Rain 16 1016 82 0 2.24 15 17:56 10.06.2020
1738 Rain 16 1016 81 0 2.24 7 17:37 10.06.2020
1739 Rain 16 1016 80 0 2.24 13 17:19 10.06.2020
1740 Rain 17 1016 79 0 2.24 355 16:57 10.06.2020
1741 Rain 17 1016 79 0 2.24 0 16:39 10.06.2020
1742 Rain 16 1016 79 0 2.68 353 16:20 10.06.2020
1743 Rain 16 1016 76 0 2.68 338 15:55 10.06.2020
1744 Rain 16 1016 74 0 2.24 13 15:36 10.06.2020
1745 Rain 16 1016 73 0 2.24 351 15:18 10.06.2020
1746 Rain 16 1016 73 0 2.24 351 15:18 10.06.2020
1747 Rain 17 1016 67 0 1.34 359 14:40 10.06.2020
1748 Clouds 17 1016 67 0 2.24 0 14:21 10.06.2020
1749 Clouds 17 1016 67 0 2.68 354 13:43 10.06.2020
1750 Clouds 17 1016 65 0 2.24 15 13:22 10.06.2020
1751 Clouds 17 1016 66 0 1.79 4 12:58 10.06.2020
1752 Clouds 16 1017 66 0 2.24 350 12:39 10.06.2020
1753 Clouds 16 1015 80 0 0.45 71 12:18 10.06.2020
1754 Clouds 16 1016 79 0 0.45 68 11:44 10.06.2020
1755 Clouds 16 1017 69 0 1.34 26 11:20 10.06.2020
1756 Clouds 15 1017 71 0 1.79 69 10:58 10.06.2020
1757 Clouds 15 1017 74 0 1.79 70 10:40 10.06.2020
1758 Clouds 14 1017 75 0 1.34 31 10:21 10.06.2020
1759 Clouds 15 1017 75 0 1.34 37 09:44 10.06.2020
1760 Clouds 14 1018 75 0 1.34 44 09:25 10.06.2020
1761 Clouds 13 1018 77 0 0.89 27 08:59 10.06.2020
1762 Clouds 13 1018 78 0 1.34 45 08:41 10.06.2020
1763 Clouds 13 1018 79 0 0.89 22 08:22 10.06.2020
1764 Clouds 13 1018 81 0 1.34 8 07:42 10.06.2020
1765 Clouds 12 1018 81 0 0.89 22 07:23 10.06.2020
1766 Clouds 12 1018 84 0 0.45 25 06:52 10.06.2020
1767 Clouds 11 1018 83 0 0.45 25 06:33 10.06.2020
1768 Clouds 11 1018 82 0 2.31 21 05:59 10.06.2020
1769 Clouds 11 1018 80 0 0.89 40 05:31 10.06.2020
1770 Clouds 11 1018 80 0 0.89 63 04:48 10.06.2020
1771 Clouds 11 1018 79 0 0.89 34 04:28 10.06.2020
1772 Clouds 9 1019 81 0 0.45 29 02:24 10.06.2020
1773 Clouds 9 1019 80 0 0.45 23 01:41 10.06.2020
1774 Clouds 9 1019 77 0 0.89 22 00:55 10.06.2020
1775 Clouds 9 1019 78 0 0.45 9 00:36 10.06.2020
1776 Clouds 9 1019 79 0 0.89 12 00:18 10.06.2020
1777 Clouds 10 1019 76 0 0.89 13 23:41 09.06.2020
1778 Clouds 10 1019 75 0 0.45 11 23:23 09.06.2020
1779 Clouds 10 1019 74 0 0.89 7 22:57 09.06.2020
1780 Clouds 11 1019 72 0 1.34 8 22:39 09.06.2020
1781 Clouds 11 1019 71 0 1.34 0 22:20 09.06.2020
1782 Clouds 12 1019 70 0 1.34 9 21:57 09.06.2020
1783 Clouds 12 1019 69 0 1.34 343 21:39 09.06.2020
1784 Clear 13 1019 68 0 1.79 355 21:21 09.06.2020
1785 Clear 13 1019 67 0 2.24 1 20:58 09.06.2020
1786 Clear 14 1019 66 0 1.79 16 20:39 09.06.2020
1787 Clouds 14 1019 65 0 2.24 15 20:21 09.06.2020
1788 Clouds 15 1018 63 0 2.24 0 19:59 09.06.2020
1789 Clouds 15 1019 63 0 1.79 6 19:39 09.06.2020
1790 Clouds 16 1019 61 0 2.24 9 19:20 09.06.2020
1791 Clouds 16 1018 60 0 2.24 358 18:59 09.06.2020
1792 Clouds 16 1018 58 0 2.24 347 18:41 09.06.2020
1793 Clouds 16 1016 64 0 0.45 331 18:23 09.06.2020
1794 Clouds 16 1016 63 0 3.64 4 17:56 09.06.2020
1795 Clouds 16 1017 62 0 0.45 324 17:38 09.06.2020
1796 Clouds 16 1017 63 0 0.45 283 17:20 09.06.2020
1797 Clouds 16 1017 62 0 0.45 28 16:43 09.06.2020
1798 Clouds 16 1019 58 0 2.24 356 16:25 09.06.2020
1799 Clouds 16 1017 59 0 3.94 355 15:59 09.06.2020
1800 Clouds 16 1017 62 0 0.45 320 15:39 09.06.2020
1801 Clouds 15 1019 58 10000 3.1 360 15:21 09.06.2020
1802 Clouds 16 1019 62 0 1.79 6 14:57 09.06.2020
1803 Clouds 16 1019 61 0 1.79 316 14:37 09.06.2020
1804 Clouds 16 1017 64 0 3.34 350 14:18 09.06.2020
1805 Clouds 16 1017 64 0 3.34 350 13:43 09.06.2020
1806 Clouds 16 1020 57 0 2.24 343 13:21 09.06.2020
1807 Clouds 16 1019 57 0 1.79 333 12:59 09.06.2020
1808 Clouds 15 1019 61 0 1.34 15 12:41 09.06.2020
1809 Clouds 15 1019 61 0 1.34 6 12:19 09.06.2020
1810 Clouds 15 1019 61 0 1.79 357 11:56 09.06.2020
1811 Clouds 15 1019 61 0 1.79 357 11:56 09.06.2020
1812 Clouds 15 1019 63 0 1.79 5 11:37 09.06.2020
1813 Clouds 15 1019 61 0 1.34 0 11:19 09.06.2020
1814 Clouds 15 1019 63 0 0.89 356 10:45 09.06.2020
1815 Clouds 14 1019 68 0 1.79 333 10:27 09.06.2020
1816 Clouds 13 1019 67 0 1.79 9 09:59 09.06.2020
1817 Clouds 13 1019 70 0 1.79 12 09:39 09.06.2020
1818 Clouds 13 1019 70 0 1.34 317 09:19 09.06.2020
1819 Clouds 12 1019 72 0 1.34 7 08:40 09.06.2020
1820 Clouds 12 1019 74 0 1.34 356 08:21 09.06.2020
1821 Clouds 12 1019 78 0 0.89 19 07:44 09.06.2020
1822 Clouds 11 1018 78 0 2.08 7 07:23 09.06.2020
1823 Clouds 11 1018 78 0 2.08 7 06:56 09.06.2020
1824 Clouds 10 1018 77 0 0.45 313 06:37 09.06.2020
1825 Clouds 9 1018 79 0 0.89 2 05:53 09.06.2020
1826 Clouds 10 1018 77 0 0.89 0 04:35 09.06.2020
1827 Clouds 10 1018 77 0 1.79 350 02:50 09.06.2020
1828 Clouds 9 1018 78 0 0.89 350 01:39 09.06.2020
1829 Clouds 9 1018 77 0 0.89 350 01:19 09.06.2020
1830 Clouds 10 1018 78 0 1.34 353 00:44 09.06.2020
1831 Clouds 10 1018 80 0 1.34 351 00:20 09.06.2020
1832 Clouds 10 1018 81 0 0.89 343 23:54 08.06.2020
1833 Clouds 10 1018 80 0 1.34 326 23:36 08.06.2020
1834 Clouds 11 1017 79 0 1.34 338 23:18 08.06.2020
1835 Clouds 11 1017 78 0 2.24 6 22:39 08.06.2020
1836 Clouds 11 1017 78 0 2.24 343 22:20 08.06.2020
1837 Clouds 12 1017 78 0 2.24 351 21:57 08.06.2020
1838 Clouds 12 1017 77 0 3.13 5 21:38 08.06.2020
1839 Clear 13 1017 77 0 2.68 2 21:20 08.06.2020
1840 Clear 13 1017 76 0 4.02 8 20:55 08.06.2020
1841 Clear 14 1016 76 0 3.58 357 20:37 08.06.2020
1842 Clouds 14 1016 75 0 3.58 27 20:19 08.06.2020
1843 Clouds 15 1016 73 0 3.58 354 19:44 08.06.2020
1844 Clouds 15 1016 73 0 3.58 1 19:22 08.06.2020
1845 Clouds 16 1015 72 0 3.13 8 18:58 08.06.2020
1846 Clouds 16 1015 72 0 3.13 8 18:58 08.06.2020
1847 Clouds 16 1015 68 0 3.58 4 18:39 08.06.2020
1848 Clouds 16 1015 69 0 4.02 352 18:18 08.06.2020
1849 Clouds 17 1015 70 0 3.13 8 17:54 08.06.2020
1850 Clouds 17 1015 69 0 3.13 2 17:36 08.06.2020
1851 Clouds 18 1015 65 0 2.68 343 17:18 08.06.2020
1852 Clouds 18 1015 69 0 3.58 5 16:42 08.06.2020
1853 Clouds 18 1014 66 0 2.68 29 16:23 08.06.2020
1854 Clouds 18 1014 69 0 4.02 16 15:45 08.06.2020
1855 Clouds 18 1014 69 0 4.02 0 15:22 08.06.2020
1856 Clouds 17 1012 71 0 0.45 68 14:59 08.06.2020
1857 Clouds 17 1012 74 0 0.45 295 14:41 08.06.2020
1858 Clouds 17 1014 61 0 2.68 0 14:21 08.06.2020
1859 Clouds 17 1014 62 0 3.13 343 13:44 08.06.2020
1860 Rain 17 1014 63 0 3.13 328 13:26 08.06.2020
1861 Rain 17 1013 68 0 2.68 353 12:58 08.06.2020
1862 Rain 17 1013 73 0 3.13 4 12:40 08.06.2020
1863 Rain 16 1013 74 0 3.58 355 12:19 08.06.2020
1864 Rain 16 1013 76 0 2.24 16 11:42 08.06.2020
1865 Rain 16 1013 77 0 1.79 41 11:24 08.06.2020
1866 Rain 16 1013 73 0 2.24 14 10:59 08.06.2020
1867 Rain 15 1013 81 0 0.45 323 10:40 08.06.2020
1868 Rain 15 1013 82 0 0.45 320 10:21 08.06.2020
1869 Rain 15 1013 81 0 0.89 320 09:59 08.06.2020
1870 Rain 15 1012 82 0 0.45 191 09:41 08.06.2020
1871 Clouds 13 1012 87 10000 2.1 220 09:23 08.06.2020
1872 Clouds 13 1012 88 0 0.45 212 08:49 08.06.2020
1873 Clouds 13 1012 88 0 0.45 212 08:49 08.06.2020
1874 Clouds 13 1012 91 0 0.92 224 08:23 08.06.2020
1875 Clouds 13 1012 92 0 0.92 224 07:48 08.06.2020
1876 Clouds 13 1012 92 0 0.92 224 07:48 08.06.2020
1877 Clouds 12 1012 92 0 0.45 190 07:28 08.06.2020
1878 Clouds 12 1011 92 0 1.34 338 06:58 08.06.2020
1879 Clouds 11 1011 92 0 1.03 191 06:36 08.06.2020
1880 Clouds 11 1011 92 0 0.45 162 05:54 08.06.2020
1881 Clouds 11 1010 91 0 0.45 338 04:36 08.06.2020
1882 Clouds 11 1010 91 0 0.45 338 04:36 08.06.2020
1883 Clouds 11 1010 90 0 0.45 223 02:56 08.06.2020
1884 Clouds 11 1010 90 0 0.45 222 02:25 08.06.2020
1885 Clouds 11 1010 89 0 0.25 96 01:40 08.06.2020
1886 Clouds 11 1010 89 0 0.53 253 00:45 08.06.2020
1887 Clouds 11 1010 89 0 0.91 255 00:23 08.06.2020
1888 Clouds 11 1010 87 0 0.91 255 23:38 07.06.2020
1889 Clear 12 1008 82 0 1.02 270 23:18 07.06.2020
1890 Clear 12 1009 93 0 0.89 217 22:56 07.06.2020
1891 Clear 12 1009 90 0 1.02 270 22:36 07.06.2020
1892 Clear 12 1008 81 0 1.49 300 22:18 07.06.2020
1893 Clear 12 1009 83 0 1.49 300 21:57 07.06.2020
1894 Clear 13 1009 81 0 1.34 220 21:36 07.06.2020
1895 Clear 13 1009 80 0 0.89 219 21:18 07.06.2020
1896 Clear 14 1008 79 0 2.24 239 20:39 07.06.2020
1897 Clouds 14 1008 81 0 2.68 257 20:20 07.06.2020
1898 Clouds 14 1008 80 0 3.13 338 19:57 07.06.2020
1899 Clouds 14 1008 78 0 3.13 338 19:38 07.06.2020
1900 Clouds 15 1008 74 0 3.13 206 19:20 07.06.2020
1901 Clouds 16 1007 66 0 3.13 338 18:59 07.06.2020
1902 Clouds 16 1007 65 0 2.68 254 18:38 07.06.2020
1903 Clouds 17 1007 66 0 2.24 259 18:20 07.06.2020
1904 Clouds 16 1007 71 0 1.79 290 17:57 07.06.2020
1905 Clouds 16 1007 69 0 2.24 338 17:38 07.06.2020
1906 Clouds 15 1006 72 0 2.24 276 17:20 07.06.2020
1907 Clouds 15 1006 73 0 2.68 261 16:43 07.06.2020
1908 Rain 15 1006 72 0 2.68 248 16:21 07.06.2020
1909 Rain 16 1006 69 0 3.58 338 15:44 07.06.2020
1910 Rain 16 1006 69 0 3.58 338 15:44 07.06.2020
1911 Rain 15 1005 69 0 4.02 324 15:22 07.06.2020
1912 Rain 14 1005 76 0 4.02 238 14:41 07.06.2020
1913 Rain 14 1005 81 0 3.13 259 14:23 07.06.2020
1914 Rain 14 1005 81 0 3.13 259 14:23 07.06.2020
1915 Rain 14 1005 81 0 3.13 259 14:23 07.06.2020
1916 Rain 14 1005 81 0 3.13 259 14:23 07.06.2020
1917 Rain 14 1004 81 0 3.58 253 13:55 07.06.2020
1918 Rain 14 1004 89 0 4.47 252 13:24 07.06.2020
1919 Rain 13 1003 89 0 3.58 252 12:59 07.06.2020
1920 Rain 12 1003 91 0 3.13 247 12:41 07.06.2020
1921 Rain 12 1002 89 0 4.92 338 12:22 07.06.2020
1922 Rain 13 1002 89 0 4.47 249 11:55 07.06.2020
1923 Rain 13 1001 73 0 1.34 278 11:37 07.06.2020
1924 Rain 13 1001 88 0 4.02 338 11:19 07.06.2020
1925 Rain 13 1001 82 0 5.81 223 10:54 07.06.2020
1926 Rain 13 1000 82 0 5.81 189 10:36 07.06.2020
1927 Rain 13 1000 81 0 5.36 338 10:18 07.06.2020
1928 Rain 12 1000 84 0 4.02 338 09:41 07.06.2020
1929 Rain 12 1000 83 0 3.13 189 09:21 07.06.2020
1930 Rain 12 1000 80 0 4.02 338 08:59 07.06.2020
1931 Rain 12 1000 79 0 4.47 251 08:41 07.06.2020
1932 Clouds 12 1000 81 0 4.02 338 08:22 07.06.2020
1933 Clouds 12 999 82 0 3.58 164 07:41 07.06.2020
1934 Clouds 11 999 80 0 3.58 193 06:56 07.06.2020
1935 Clouds 11 999 82 0 2.68 338 06:22 07.06.2020
1936 Clear 10 999 80 0 2.24 177 04:49 07.06.2020
1937 Clouds 10 999 79 0 2.68 161 04:18 07.06.2020
1938 Clouds 10 999 76 0 2.24 139 02:26 07.06.2020
1939 Clouds 11 999 75 0 2.68 175 01:40 07.06.2020
1940 Clouds 11 999 74 0 2.24 172 01:22 07.06.2020
1941 Clouds 11 999 71 0 3.13 172 00:40 07.06.2020
1942 Clouds 11 999 69 0 3.58 224 00:18 07.06.2020
1943 Clouds 11 999 70 0 2.68 195 23:55 06.06.2020
1944 Clouds 12 999 71 0 2.24 178 23:36 06.06.2020
1945 Clouds 12 999 71 0 2.24 149 23:18 06.06.2020
1946 Clouds 12 999 72 0 2.24 182 22:55 06.06.2020
1947 Clouds 12 999 72 0 1.34 178 22:36 06.06.2020
1948 Clouds 12 999 70 0 2.24 194 22:18 06.06.2020
1949 Clouds 12 999 68 0 2.24 178 21:42 06.06.2020
1950 Clouds 13 999 67 0 2.24 181 21:20 06.06.2020
1951 Clouds 13 999 65 0 2.24 213 20:41 06.06.2020
1952 Clouds 13 999 63 0 3.58 241 20:21 06.06.2020
1953 Clouds 13 998 62 0 3.58 198 19:59 06.06.2020
1954 Clouds 13 999 62 0 3.58 187 19:41 06.06.2020
1955 Clouds 13 999 63 0 3.13 192 19:22 06.06.2020
1956 Clouds 13 998 62 0 3.58 194 18:59 06.06.2020
1957 Clouds 14 998 60 0 4.47 255 18:41 06.06.2020
1958 Clouds 14 998 64 0 3.58 338 18:22 06.06.2020
1959 Clouds 14 998 60 0 2.68 235 17:44 06.06.2020
1960 Clouds 15 998 56 0 4.47 185 17:21 06.06.2020
1961 Clouds 15 998 56 0 4.02 209 16:58 06.06.2020
1962 Clouds 14 998 62 0 2.68 201 16:39 06.06.2020
1963 Clouds 14 998 58 0 3.13 338 16:21 06.06.2020
1964 Clouds 15 997 53 0 4.47 205 15:55 06.06.2020
1965 Clouds 15 997 51 0 4.02 338 15:36 06.06.2020
1966 Rain 14 997 56 0 3.13 216 15:18 06.06.2020
1967 Rain 14 997 61 0 4.92 214 14:39 06.06.2020
1968 Rain 14 997 64 0 4.47 196 14:20 06.06.2020
1969 Rain 15 997 66 0 4.47 220 13:55 06.06.2020
1970 Rain 14 996 73 0 3.13 215 13:37 06.06.2020
1971 Rain 13 997 81 0 2.24 185 13:18 06.06.2020
1972 Rain 12 995 79 0 0.45 259 12:42 06.06.2020
1973 Rain 13 996 64 0 4.47 338 12:23 06.06.2020
1974 Rain 14 996 70 0 4.02 160 11:58 06.06.2020
1975 Rain 13 996 71 0 4.47 230 11:38 06.06.2020
1976 Rain 13 995 75 0 4.47 216 11:20 06.06.2020
1977 Rain 13 995 73 0 4.47 338 10:57 06.06.2020
1978 Rain 13 995 75 0 4.02 338 10:39 06.06.2020
1979 Clouds 12 995 73 0 4.02 180 10:20 06.06.2020
1980 Clouds 12 995 76 0 4.02 222 09:45 06.06.2020
1981 Clear 12 994 79 0 4.02 188 09:27 06.06.2020
1982 Clear 11 994 81 0 4.02 237 08:58 06.06.2020
1983 Clear 11 994 83 0 4.02 220 08:40 06.06.2020
1984 Clouds 10 994 85 0 4.02 199 08:19 06.06.2020
1985 Clouds 8 994 90 0 3.13 203 07:45 06.06.2020
1986 Clouds 8 994 92 0 2.24 338 07:22 06.06.2020
1987 Clouds 8 994 92 0 1.79 193 06:47 06.06.2020
1988 Clouds 8 994 92 0 2.24 168 06:29 06.06.2020
1989 Clouds 7 994 92 0 2.24 189 05:54 06.06.2020
1990 Clear 7 994 92 0 2.24 216 05:28 06.06.2020
1991 Clear 7 994 92 0 1.79 178 04:43 06.06.2020
1992 Clear 7 994 89 0 1.79 338 02:52 06.06.2020
1993 Clouds 7 994 87 0 1.79 338 01:56 06.06.2020
1994 Clouds 7 993 86 0 2.24 232 01:19 06.06.2020
1995 Clouds 8 993 86 0 1.79 212 00:45 06.06.2020
1996 Clouds 8 993 86 0 2.24 219 00:27 06.06.2020
1997 Clouds 8 993 86 0 2.24 219 00:27 06.06.2020
1998 Clouds 8 993 85 0 2.68 223 23:56 05.06.2020
1999 Clouds 8 993 85 0 2.24 213 23:37 05.06.2020
2000 Clouds 9 993 84 0 2.24 215 23:18 05.06.2020
2001 Clouds 9 992 83 0 2.68 338 22:55 05.06.2020
2002 Clouds 9 992 82 0 3.13 338 22:37 05.06.2020
2003 Clouds 9 992 81 0 4.47 228 22:18 05.06.2020
2004 Clouds 9 992 81 0 4.47 228 22:18 05.06.2020
2005 Clouds 9 991 82 0 2.68 252 21:41 05.06.2020
2006 Clouds 10 991 81 0 3.58 338 21:22 05.06.2020
2007 Clouds 10 991 87 0 1.79 255 20:58 05.06.2020
2008 Clouds 10 991 86 0 2.24 265 20:39 05.06.2020
2009 Rain 10 990 82 0 3.13 284 20:20 05.06.2020
2010 Rain 10 990 82 0 3.58 338 19:42 05.06.2020
2011 Rain 10 990 83 0 3.58 338 19:23 05.06.2020
2012 Rain 9 989 84 0 4.47 296 18:57 05.06.2020
2013 Rain 10 989 89 0 2.68 338 18:38 05.06.2020
2014 Rain 10 988 88 0 3.58 281 18:19 05.06.2020
2015 Rain 10 988 91 0 4.02 252 17:57 05.06.2020
2016 Rain 10 987 90 0 3.13 227 17:39 05.06.2020
2017 Rain 11 987 91 0 2.24 338 17:19 05.06.2020
2018 Rain 10 987 85 0 4.02 338 16:39 05.06.2020
2019 Rain 11 987 90 0 2.24 214 16:21 05.06.2020
2020 Rain 10 987 91 0 1.79 198 15:56 05.06.2020
2021 Rain 10 988 92 0 0.89 338 15:37 05.06.2020
2022 Rain 10 988 92 0 1.34 145 15:19 05.06.2020
2023 Rain 10 988 91 0 1.34 140 14:55 05.06.2020
2024 Rain 11 989 90 0 3.13 204 14:37 05.06.2020
2025 Rain 11 989 91 0 1.79 139 14:19 05.06.2020
2026 Rain 12 989 89 0 2.68 150 13:42 05.06.2020
2027 Rain 12 989 87 0 2.24 138 13:23 05.06.2020
2028 Rain 13 990 84 0 1.34 180 12:43 05.06.2020
2029 Rain 13 991 80 0 3.13 338 12:20 05.06.2020
2030 Rain 14 991 74 0 3.58 166 11:57 05.06.2020
2031 Rain 14 991 72 0 3.58 338 11:39 05.06.2020
2032 Rain 14 991 72 0 3.58 165 11:20 05.06.2020
2033 Rain 14 991 70 0 3.13 167 10:55 05.06.2020
2034 Rain 14 991 71 0 3.13 338 10:36 05.06.2020
2035 Rain 13 991 72 0 4.02 179 10:18 05.06.2020
2036 Rain 13 992 75 0 2.68 158 09:55 05.06.2020
2037 Rain 13 992 74 0 2.68 198 09:36 05.06.2020
2038 Clouds 12 992 78 0 2.68 212 09:18 05.06.2020
2039 Clouds 12 992 78 0 2.68 212 09:18 05.06.2020
2040 Clouds 12 993 83 0 2.68 195 08:54 05.06.2020
2041 Clouds 11 993 83 0 3.13 219 08:36 05.06.2020
2042 Clouds 11 993 87 0 1.79 208 08:18 05.06.2020
2043 Clouds 10 993 89 0 2.24 217 07:43 05.06.2020
2044 Clouds 9 993 91 0 1.79 207 07:20 05.06.2020
2045 Clouds 8 994 90 0 2.24 205 06:20 05.06.2020
2046 Rain 8 993 89 0 2.24 222 05:21 05.06.2020
2047 Rain 8 994 87 0 2.24 213 04:26 05.06.2020
2048 Rain 9 994 88 0 1.79 223 03:19 05.06.2020
2049 Rain 10 994 87 0 2.24 257 02:25 05.06.2020
2050 Rain 10 994 88 0 1.79 338 01:56 05.06.2020
2051 Rain 10 994 87 0 2.24 338 01:30 05.06.2020
2052 Clouds 10 994 83 0 2.24 238 00:42 05.06.2020
2053 Clouds 10 994 81 0 1.34 253 00:21 05.06.2020
2054 Clouds 10 994 82 0 1.34 249 23:47 04.06.2020
2055 Clouds 10 994 81 0 0.89 258 23:28 04.06.2020
2056 Clouds 11 994 81 0 1.34 278 22:56 04.06.2020
2057 Clouds 11 994 83 0 1.79 338 22:37 04.06.2020
2058 Clouds 11 994 84 0 1.79 272 22:18 04.06.2020
2059 Clouds 11 994 85 0 1.79 295 21:56 04.06.2020
2060 Clouds 11 994 86 0 1.79 285 21:38 04.06.2020
2061 Clouds 11 994 86 0 1.79 285 21:38 04.06.2020
2062 Rain 11 994 85 0 2.68 271 21:19 04.06.2020
2063 Rain 11 994 83 0 2.24 303 20:55 04.06.2020
2064 Rain 12 994 83 0 3.13 326 20:37 04.06.2020
2065 Rain 12 994 85 0 2.68 297 20:18 04.06.2020
2066 Rain 12 994 85 0 3.58 343 19:40 04.06.2020
2067 Rain 13 994 85 0 3.58 308 19:21 04.06.2020
2068 Rain 13 993 86 0 3.13 288 18:56 04.06.2020
2069 Rain 13 993 88 0 2.68 317 18:38 04.06.2020
2070 Rain 13 993 88 0 3.13 268 18:20 04.06.2020
2071 Rain 13 994 88 0 2.24 338 17:43 04.06.2020
2072 Rain 13 994 89 0 1.79 338 17:22 04.06.2020
2073 Rain 13 994 87 0 1.34 338 16:57 04.06.2020
2074 Rain 13 994 88 0 2.24 294 16:39 04.06.2020
2075 Rain 13 994 87 0 1.34 303 16:19 04.06.2020
2076 Rain 13 994 83 0 2.68 276 15:43 04.06.2020
2077 Rain 13 994 83 0 2.68 351 15:25 04.06.2020
2078 Rain 12 994 87 0 2.24 286 14:42 04.06.2020
2079 Rain 12 994 85 0 2.68 301 14:22 04.06.2020
2080 Rain 13 994 87 0 2.24 310 13:58 04.06.2020
2081 Rain 13 994 87 0 2.68 315 13:40 04.06.2020
2082 Rain 13 994 88 0 2.24 281 13:20 04.06.2020
2083 Rain 13 994 89 0 1.79 322 12:59 04.06.2020
2084 Rain 13 995 89 0 2.24 338 12:40 04.06.2020
2085 Rain 14 994 89 0 3.13 287 12:22 04.06.2020
2086 Rain 14 994 88 0 3.13 290 11:55 04.06.2020
2087 Rain 15 994 88 0 2.68 338 11:37 04.06.2020
2088 Rain 15 994 88 0 3.13 299 11:19 04.06.2020
2089 Rain 15 994 88 0 2.24 313 10:41 04.06.2020
2090 Rain 15 994 87 0 2.24 301 10:23 04.06.2020
2091 Rain 15 994 87 0 2.68 317 09:58 04.06.2020
2092 Rain 16 995 86 0 1.79 293 09:40 04.06.2020
2093 Clouds 16 995 86 0 1.79 313 09:21 04.06.2020
2094 Clouds 16 995 86 0 3.13 347 08:44 04.06.2020
2095 Clouds 15 995 87 0 3.13 5 08:25 04.06.2020
2096 Clouds 15 995 87 0 3.13 5 08:25 04.06.2020
2097 Clouds 15 995 88 0 1.79 355 07:47 04.06.2020
2098 Clouds 15 995 89 0 1.79 314 07:26 04.06.2020
2099 Clouds 14 996 89 0 3.13 12 06:43 04.06.2020
2100 Clouds 14 996 89 0 3.13 347 06:24 04.06.2020
2101 Clouds 14 996 89 0 3.13 347 05:35 04.06.2020
2102 Clouds 14 997 89 0 2.68 16 04:33 04.06.2020
2103 Rain 14 997 87 0 2.68 11 03:24 04.06.2020
2104 Rain 14 996 88 0 1.22 69 01:56 04.06.2020
2105 Rain 15 998 86 0 3.58 348 01:19 04.06.2020
2106 Rain 15 999 86 0 1.79 10 00:40 04.06.2020
2107 Rain 16 999 83 0 1.34 347 23:44 03.06.2020
2108 Rain 16 999 82 0 0.89 357 23:21 03.06.2020
2109 Rain 16 1000 80 0 0.45 358 22:59 03.06.2020
2110 Rain 16 1000 79 0 1.34 3 22:39 03.06.2020
2111 Clouds 16 1000 78 0 1.79 0 22:19 03.06.2020
2112 Clouds 16 1000 77 0 1.79 9 21:57 03.06.2020
2113 Clouds 17 1001 76 0 2.68 62 21:39 03.06.2020
2114 Rain 17 1001 74 0 3.58 0 21:21 03.06.2020
2115 Clouds 18 1001 71 0 3.58 17 20:56 03.06.2020
2116 Clouds 18 1001 71 0 3.13 4 20:38 03.06.2020
2117 Rain 18 1001 71 0 3.58 356 20:19 03.06.2020
2118 Rain 18 1001 70 0 4.02 359 19:56 03.06.2020
2119 Rain 18 1001 70 0 4.92 14 19:37 03.06.2020
2120 Rain 19 1001 68 0 4.02 16 19:19 03.06.2020
2121 Rain 19 1001 69 0 4.02 12 18:54 03.06.2020
2122 Rain 20 1001 70 0 4.02 18 18:36 03.06.2020
2123 Rain 21 1001 69 0 4.02 3 18:18 03.06.2020
2124 Rain 21 1001 65 0 4.02 26 17:41 03.06.2020
2125 Rain 22 1001 65 0 3.13 356 17:21 03.06.2020
2126 Rain 22 1001 62 0 3.13 20 16:55 03.06.2020
2127 Rain 23 1001 66 0 3.13 14 16:37 03.06.2020
2128 Rain 23 1001 65 0 3.58 343 16:37 03.06.2020
2129 Thunderstorm 22 1002 82 10000 7.7 360 16:18 03.06.2020
2130 Rain 23 1001 69 0 3.58 343 15:41 03.06.2020
2131 Thunderstorm 22 1002 82 10000 7.7 360 15:21 03.06.2020
2132 Thunderstorm 21 1003 60 10000 7.7 330 14:57 03.06.2020
2133 Clouds 23 1003 41 10000 3.6 110 14:38 03.06.2020
2134 Clouds 23 1003 41 10000 3.6 110 14:20 03.06.2020
2135 Rain 23 1002 70 0 2.24 347 13:38 03.06.2020
2136 Clouds 23 1004 41 10000 4.1 120 13:19 03.06.2020
2137 Clouds 24 1004 41 10000 4.1 120 12:43 03.06.2020
2138 Clouds 22 1004 44 10000 3.6 110 12:22 03.06.2020
2139 Clouds 22 1004 44 10000 3.6 110 11:57 03.06.2020
2140 Clouds 22 1005 56 10000 3.1 100 11:39 03.06.2020
2141 Clouds 23 1005 56 10000 3.1 100 11:21 03.06.2020
2142 Rain 22 1004 73 0 0.45 85 10:42 03.06.2020
2143 Clouds 21 1004 74 0 1.34 97 10:24 03.06.2020
2144 Clouds 20 1004 75 0 0.89 60 09:45 03.06.2020
2145 Rain 19 1004 74 0 1.34 117 09:22 03.06.2020
2146 Rain 19 1005 75 0 0.45 83 08:59 03.06.2020
2147 Rain 19 1004 75 0 0.89 123 08:40 03.06.2020
2148 Rain 18 1005 77 0 0.45 64 08:20 03.06.2020
2149 Rain 17 1005 81 0 0.45 68 07:43 03.06.2020
2150 Rain 16 1005 81 0 0.45 70 07:22 03.06.2020
2151 Rain 16 1005 82 0 0.89 86 06:54 03.06.2020
2152 Rain 15 1005 83 0 0.45 40 06:33 03.06.2020
2153 Rain 15 1005 83 0 0.45 40 06:33 03.06.2020
2154 Rain 15 1006 83 0 0.89 21 05:48 03.06.2020
2155 Rain 14 1006 83 0 0.89 24 05:21 03.06.2020
2156 Rain 14 1007 80 0 0.45 18 03:52 03.06.2020
2157 Clouds 15 1007 79 0 0.89 18 03:23 03.06.2020
2158 Rain 15 1008 76 0 0.45 18 02:24 03.06.2020
2159 Rain 16 1009 72 0 0.89 24 00:56 03.06.2020
2160 Rain 16 1009 70 0 0.89 20 00:37 03.06.2020
2161 Rain 17 1010 69 0 0.45 18 00:18 03.06.2020
2162 Rain 17 1010 68 0 0.45 82 23:38 02.06.2020
2163 Clouds 17 1010 66 0 1.34 24 23:20 02.06.2020
2164 Clouds 18 1011 67 0 0.89 30 22:39 02.06.2020
2165 Clouds 19 1011 65 0 0.89 31 22:19 02.06.2020
2166 Clouds 19 1011 65 0 0.45 29 21:57 02.06.2020
2167 Clouds 20 1011 64 0 0.89 19 21:39 02.06.2020
2168 Clouds 20 1011 62 0 0.89 22 21:20 02.06.2020
2169 Clouds 21 1011 61 0 0.89 13 20:59 02.06.2020
2170 Clouds 21 1011 59 0 0.89 18 20:40 02.06.2020
2171 Clouds 23 1011 58 0 1.79 4 20:22 02.06.2020
2172 Clouds 24 1012 56 0 2.24 18 19:45 02.06.2020
2173 Clouds 24 1012 52 0 2.24 14 19:26 02.06.2020
2174 Clouds 25 1012 51 0 2.24 14 18:59 02.06.2020
2175 Clouds 25 1012 52 0 2.24 347 18:40 02.06.2020
2176 Clouds 26 1013 50 0 3.13 1 18:21 02.06.2020
2177 Clouds 26 1013 48 0 2.24 338 17:59 02.06.2020
2178 Clouds 26 1013 41 0 2.68 355 17:40 02.06.2020
2179 Clouds 26 1015 29 10000 1.5 220 17:21 02.06.2020
2180 Clouds 26 1015 29 10000 1.5 220 16:56 02.06.2020
2181 Clouds 26 1016 29 10000 2.6 170 16:37 02.06.2020
2182 Clouds 26 1016 29 10000 2.6 170 16:19 02.06.2020
2183 Clouds 26 1016 29 10000 2.6 170 15:41 02.06.2020
2184 Clouds 26 1017 31 10000 2.6 150 15:22 02.06.2020
2185 Clouds 25 1017 31 10000 2.6 150 14:49 02.06.2020
2186 Clouds 25 1018 33 10000 3.1 100 14:30 02.06.2020
2187 Clouds 25 1018 33 10000 3.1 100 13:57 02.06.2020
2188 Clouds 25 1016 48 0 0.89 169 13:38 02.06.2020
2189 Clouds 25 1016 45 0 0.89 196 13:19 02.06.2020
2190 Clouds 25 1018 35 10000 4.6 130 12:58 02.06.2020
2191 Clouds 24 1017 49 0 1.34 86 12:39 02.06.2020
2192 Clouds 23 1019 37 10000 4.1 150 12:20 02.06.2020
2193 Clouds 22 1019 37 10000 4.1 150 11:55 02.06.2020
2194 Clouds 21 1020 40 10000 4.1 130 11:37 02.06.2020
2195 Clouds 21 1020 40 10000 4.1 130 11:18 02.06.2020
2196 Clouds 20 1018 57 0 1.34 104 10:47 02.06.2020
2197 Clouds 20 1018 59 0 2.24 112 10:28 02.06.2020
2198 Clouds 21 1019 60 0 1.79 97 09:56 02.06.2020
2199 Clouds 20 1019 63 0 1.34 143 09:37 02.06.2020
2200 Clouds 18 1021 48 10000 3.6 120 09:19 02.06.2020
2201 Clouds 17 1021 48 10000 3.6 120 08:47 02.06.2020
2202 Clouds 16 1021 62 10000 2.1 110 08:20 02.06.2020
2203 Clouds 16 1020 66 0 1.79 91 07:46 02.06.2020
2204 Clouds 16 1020 67 0 2.24 87 07:25 02.06.2020
2205 Clouds 14 1021 68 0 1.79 104 06:43 02.06.2020
2206 Clouds 13 1020 68 0 1.79 127 05:57 02.06.2020
2207 Clouds 13 1020 69 0 1.79 83 05:19 02.06.2020
2208 Clouds 14 1021 65 0 1.79 85 03:22 02.06.2020
2209 Clouds 14 1019 74 0 3.77 95 02:26 02.06.2020
2210 Clouds 15 1020 71 0 3.97 88 01:22 02.06.2020
2211 Clouds 16 1022 66 0 0.89 42 00:25 02.06.2020
2212 Clouds 16 1021 65 0 1.34 18 23:57 01.06.2020
2213 Clouds 17 1021 62 0 1.34 37 23:37 01.06.2020
2214 Clouds 17 1021 63 0 1.34 28 23:18 01.06.2020
2215 Clouds 17 1022 52 10000 3.1 70 22:41 01.06.2020
2216 Clouds 18 1021 61 0 1.79 20 22:21 01.06.2020
2217 Clouds 18 1022 48 10000 3.6 60 21:58 01.06.2020
2218 Clouds 19 1022 35 10000 4.6 60 21:40 01.06.2020
2219 Clouds 19 1022 35 10000 4.6 60 21:40 01.06.2020
2220 Clouds 19 1021 63 0 1.34 28 21:20 01.06.2020
2221 Clouds 20 1021 62 0 1.34 5 20:58 01.06.2020
2222 Clouds 21 1021 59 0 1.79 2 20:39 01.06.2020
2223 Clouds 21 1021 46 0 1.79 74 20:19 01.06.2020
2224 Clouds 21 1021 46 0 1.34 20 19:56 01.06.2020
2225 Clouds 22 1021 46 0 0.89 22 19:38 01.06.2020
2226 Clouds 22 1021 46 0 0.89 16 19:19 01.06.2020
2227 Clouds 22 1019 43 0 0.45 46 18:56 01.06.2020
2228 Clouds 22 1019 43 0 0.45 46 18:56 01.06.2020
2229 Clouds 22 1019 44 0 0.45 37 18:38 01.06.2020
2230 Clouds 22 1019 43 0 1.34 108 18:18 01.06.2020
2231 Clouds 23 1022 33 10000 4.6 70 17:41 01.06.2020
2232 Clouds 23 1023 33 10000 5.7 70 17:20 01.06.2020
2233 Clouds 23 1023 33 10000 5.7 70 16:56 01.06.2020
2234 Clouds 23 1024 35 10000 7.7 80 16:37 01.06.2020
2235 Clouds 23 1024 35 10000 7.7 80 16:18 01.06.2020
2236 Clouds 23 1024 35 10000 7.7 80 15:44 01.06.2020
2237 Clouds 21 1024 37 10000 8.7 70 15:21 01.06.2020
2238 Clouds 21 1024 37 10000 8.7 70 14:59 01.06.2020
2239 Clouds 21 1024 37 10000 8.7 70 14:41 01.06.2020
2240 Clouds 21 1025 37 10000 7.2 80 14:21 01.06.2020
2241 Clouds 21 1021 44 0 2.24 29 13:58 01.06.2020
2242 Clouds 21 1022 45 0 1.34 122 13:39 01.06.2020
2243 Clouds 21 1022 51 0 1.34 348 13:20 01.06.2020
2244 Clouds 21 1022 51 0 1.34 66 12:57 01.06.2020
2245 Clouds 20 1025 45 10000 6.2 80 12:39 01.06.2020
2246 Clouds 19 1026 48 10000 7.2 80 12:20 01.06.2020
2247 Clouds 18 1026 48 10000 7.2 80 11:41 01.06.2020
2248 Clouds 18 1026 55 10000 5.7 70 11:23 01.06.2020
2249 Clouds 18 1024 57 0 2.68 18 10:59 01.06.2020
2250 Clouds 17 1024 60 0 2.68 75 10:39 01.06.2020
2251 Clouds 17 1024 60 0 2.68 353 10:20 01.06.2020
2252 Clouds 17 1025 61 0 1.79 31 09:57 01.06.2020
2253 Clouds 16 1025 62 0 1.79 12 09:39 01.06.2020
2254 Clouds 15 1026 58 10000 5.7 80 09:20 01.06.2020
2255 Clouds 15 1026 58 10000 5.7 80 08:50 01.06.2020
2256 Clouds 14 1026 71 10000 3.1 60 08:25 01.06.2020
2257 Clouds 13 1026 71 0 1.79 27 07:45 01.06.2020
2258 Clouds 13 1026 72 0 1.79 103 07:27 01.06.2020
2259 Clouds 12 1026 72 0 1.79 35 06:58 01.06.2020
2260 Clouds 10 1025 73 0 0.89 0 06:24 01.06.2020
2261 Clouds 10 1025 73 0 1.34 21 05:53 01.06.2020
2262 Clouds 11 1025 74 0 0.89 9 04:31 01.06.2020
2263 Clouds 12 1025 75 0 1.79 24 03:48 01.06.2020
2264 Clouds 12 1025 75 0 1.79 65 03:24 01.06.2020
2265 Clouds 13 1025 73 0 0.89 39 02:29 01.06.2020
2266 Clouds 14 1024 78 0 1.79 59 01:34 01.06.2020
2267 Clouds 14 1026 62 10000 4.1 80 00:58 01.06.2020
2268 Clouds 14 1024 71 0 1.79 351 00:40 01.06.2020
2269 Clouds 14 1024 70 0 1.79 13 00:21 01.06.2020
2270 Clouds 14 1024 70 0 1.79 13 00:21 01.06.2020
2271 Clouds 14 1024 70 0 1.34 15 23:57 31.05.2020
2272 Clouds 15 1024 67 0 0.89 35 23:38 31.05.2020
2273 Clouds 15 1024 66 0 1.34 41 23:20 31.05.2020
2274 Clouds 15 1025 55 10000 3.6 60 22:54 31.05.2020
2275 Clouds 15 1024 51 10000 4.1 50 22:36 31.05.2020
2276 Clouds 16 1024 61 0 1.79 33 22:18 31.05.2020
2277 Clouds 17 1024 55 0 2.24 49 21:42 31.05.2020
2278 Clouds 17 1024 54 0 2.24 347 21:23 31.05.2020
2279 Clouds 18 1024 54 0 2.68 81 20:58 31.05.2020
2280 Clouds 18 1024 65 0 1.79 27 20:40 31.05.2020
2281 Clouds 19 1024 63 0 2.68 24 20:21 31.05.2020
2282 Clouds 19 1023 64 0 2.68 20 19:55 31.05.2020
2283 Clouds 18 1024 66 0 3.13 18 19:37 31.05.2020
2284 Clouds 18 1024 68 0 4.02 338 19:19 31.05.2020
2285 Clouds 18 1024 65 0 4.47 328 18:44 31.05.2020
2286 Clouds 19 1024 65 0 4.47 350 18:25 31.05.2020
2287 Clouds 21 1024 62 0 4.02 24 17:54 31.05.2020
2288 Clouds 21 1024 61 0 3.13 20 17:36 31.05.2020
2289 Clouds 21 1024 58 0 3.58 4 17:18 31.05.2020
2290 Clouds 21 1024 57 0 4.02 347 16:40 31.05.2020
2291 Clouds 21 1024 55 0 4.02 3 16:21 31.05.2020
2292 Clouds 21 1024 50 0 3.13 14 15:40 31.05.2020
2293 Clouds 20 1025 48 10000 5.7 30 15:22 31.05.2020
2294 -273 0 0 0 0 0 14:58 31.05.2020
2295 Clouds 20 1024 49 0 2.68 34 14:40 31.05.2020
2296 Clouds 20 1025 49 0 3.13 33 14:19 31.05.2020
2297 Clouds 20 1022 52 0 1.34 147 13:54 31.05.2020
2298 Clouds 20 1023 50 0 1.34 122 13:36 31.05.2020
2299 Clouds 20 1023 50 0 1.34 113 13:18 31.05.2020
2300 Clouds 20 1025 46 0 3.13 89 12:41 31.05.2020
2301 Clouds 18 1026 39 10000 7.2 50 12:23 31.05.2020
2302 Clouds 18 1026 39 10000 7.2 50 11:54 31.05.2020
2303 Clouds 18 1026 51 10000 5.7 40 11:36 31.05.2020
2304 Clouds 18 1026 51 10000 5.7 40 11:18 31.05.2020
2305 Clouds 18 1025 51 0 2.24 7 10:42 31.05.2020
2306 Clouds 18 1025 52 0 2.24 50 10:23 31.05.2020
2307 Clouds 18 1025 53 0 2.24 156 09:57 31.05.2020
2308 Clouds 17 1025 55 0 2.24 55 09:39 31.05.2020
2309 Clouds 15 1026 62 10000 3.1 80 09:19 31.05.2020
2310 Clouds 14 1026 62 10000 3.1 80 08:42 31.05.2020
2311 Clouds 14 1024 69 0 0.45 106 08:24 31.05.2020
2312 Clouds 13 1026 62 0 2.24 102 07:49 31.05.2020
2313 Clouds 13 1026 67 0 0.89 137 07:22 31.05.2020
2314 Clouds 13 1025 68 0 0.89 138 06:57 31.05.2020
2315 Clouds 12 1025 67 0 1.34 111 06:35 31.05.2020
2316 Clouds 12 1025 69 0 1.34 63 05:51 31.05.2020
2317 Clouds 11 1025 71 0 1.34 85 05:32 31.05.2020
2318 Clouds 11 1025 77 0 0.89 81 04:18 31.05.2020
2319 Clouds 11 1025 81 0 0.45 94 03:39 31.05.2020
2320 Clouds 11 1025 84 0 2.77 98 02:47 31.05.2020
2321 Clouds 12 1025 82 0 0.45 13 01:46 31.05.2020
2322 Clear 12 1025 77 0 0.45 8 00:42 31.05.2020
2323 Clear 12 1024 75 0 0.45 6 00:24 31.05.2020
2324 Clear 13 1024 72 0 0.45 7 23:42 30.05.2020
2325 Clear 13 1024 70 0 0.89 4 23:24 30.05.2020
2326 Clear 14 1024 67 0 1.34 353 22:57 30.05.2020
2327 Clear 14 1024 65 0 1.79 18 22:39 30.05.2020
2328 Clear 14 1025 62 0 2.68 29 22:21 30.05.2020
2329 Clear 15 1025 61 0 2.24 14 21:55 30.05.2020
2330 Clouds 16 1025 55 10000 5.1 40 21:36 30.05.2020
2331 Clear 17 1024 64 0 2.68 8 21:18 30.05.2020
2332 Clear 17 1024 60 0 2.24 16 20:54 30.05.2020
2333 Clear 18 1024 62 0 2.24 29 20:36 30.05.2020
2334 Clear 19 1024 59 0 2.24 51 20:18 30.05.2020
2335 Clear 19 1024 55 0 2.24 6 19:41 30.05.2020
2336 Clear 21 1024 53 0 2.24 41 19:21 30.05.2020
2337 Clear 20 1024 50 0 3.13 347 18:44 30.05.2020
2338 Clear 21 1024 53 0 3.13 347 18:21 30.05.2020
2339 Clear 21 1024 58 0 3.58 2 17:46 30.05.2020
2340 Clear 21 1024 61 0 3.13 0 17:26 30.05.2020
2341 Clear 22 1024 56 0 3.58 351 16:59 30.05.2020
2342 Clear 22 1024 56 0 3.58 351 16:59 30.05.2020
2343 Clear 20 1024 61 0 3.13 328 16:41 30.05.2020
2344 Clear 21 1024 59 0 3.58 1 16:21 30.05.2020
2345 Clear 20 1025 55 0 3.13 7 15:48 30.05.2020
2346 Clear 20 1025 58 0 3.58 333 15:28 30.05.2020
2347 Clear 20 1025 50 0 2.68 10 14:48 30.05.2020
2348 Clear 20 1025 53 0 3.13 347 14:30 30.05.2020
2349 Clear 21 1025 48 0 3.13 353 13:47 30.05.2020
2350 Clear 21 1023 41 0 0.45 79 13:27 30.05.2020
2351 Clear 20 1023 42 0 0.45 63 12:57 30.05.2020
2352 Clear 20 1024 41 0 0.45 40 12:39 30.05.2020
2353 Clear 19 1027 34 10000 2.6 20 12:19 30.05.2020
2354 Clear 20 1026 49 0 2.24 15 11:41 30.05.2020
2355 Clear 20 1024 53 0 0.45 108 11:23 30.05.2020
2356 Clear 20 1026 58 0 1.34 8 10:58 30.05.2020
2357 Clear 19 1026 62 0 1.34 44 10:38 30.05.2020
2358 Clear 19 1026 64 0 1.34 20 10:20 30.05.2020
2359 Clear 19 1026 64 0 1.34 20 10:20 30.05.2020
2360 Clear 18 1026 68 0 0.89 22 09:45 30.05.2020
2361 Clear 15 1027 58 10000 4.1 70 09:27 30.05.2020
2362 Clear 14 1027 58 10000 4.1 70 08:46 30.05.2020
2363 Clear 13 1027 87 10000 1 40 08:27 30.05.2020
2364 Clear 12 1026 87 0 0.89 66 07:43 30.05.2020
2365 Clear 12 1026 89 0 0.89 29 07:20 30.05.2020
2366 Clear 9 1026 91 0 0.89 27 06:33 30.05.2020
2367 Clear 9 1026 90 0 0.45 45 05:52 30.05.2020
2368 Clear 9 1027 90 0 0.45 37 05:30 30.05.2020
2369 Clear 10 1027 90 0 0.89 27 03:39 30.05.2020
2370 Clear 10 1027 88 0 0.89 24 02:30 30.05.2020
2371 Clear 10 1027 86 0 0.89 14 01:45 30.05.2020
2372 Clear 10 1027 82 0 0.89 22 00:38 30.05.2020
2373 Clear 10 1027 82 0 1.34 358 00:18 30.05.2020
2374 Clear 11 1027 80 0 1.34 22 23:55 29.05.2020
2375 Clear 11 1027 79 0 1.34 10 23:36 29.05.2020
2376 Clear 11 1027 78 0 1.79 17 23:18 29.05.2020
2377 Clear 11 1027 75 0 1.79 9 22:40 29.05.2020
2378 Clear 12 1027 74 0 2.24 358 22:19 29.05.2020
2379 Clear 12 1027 72 0 2.24 14 21:58 29.05.2020
2380 Clear 13 1027 70 0 2.24 14 21:37 29.05.2020
2381 Clear 14 1027 69 0 2.24 48 21:18 29.05.2020
2382 Clear 15 1027 66 0 3.13 20 20:45 29.05.2020
2383 Clouds 15 1027 61 0 3.13 0 20:20 29.05.2020
2384 Clouds 16 1027 57 0 3.58 33 19:59 29.05.2020
2385 Clouds 17 1027 58 0 3.13 18 19:40 29.05.2020
2386 Clouds 18 1027 54 0 3.13 4 19:22 29.05.2020
2387 Clouds 19 1027 54 0 3.13 11 18:47 29.05.2020
2388 Clouds 19 1027 61 0 4.92 354 18:20 29.05.2020
2389 Clouds 19 1028 61 0 4.47 10 17:56 29.05.2020
2390 Clouds 19 1028 66 0 4.92 0 17:38 29.05.2020
2391 Clouds 18 1028 62 0 3.58 16 17:19 29.05.2020
2392 Clouds 19 1028 69 0 4.92 343 16:44 29.05.2020
2393 Clouds 20 1028 66 0 4.92 35 16:25 29.05.2020
2394 Clouds 20 1028 66 0 3.58 24 15:57 29.05.2020
2395 Clouds 20 1028 64 0 3.58 18 15:38 29.05.2020
2396 Clouds 18 1029 64 0 3.58 8 15:20 29.05.2020
2397 Clouds 18 1029 67 0 3.58 0 14:51 29.05.2020
2398 Clouds 20 1029 68 0 3.58 12 14:24 29.05.2020
2399 Clouds 19 1029 72 0 4.02 11 13:58 29.05.2020
2400 Clouds 19 1029 69 0 3.13 29 13:40 29.05.2020
2401 Clouds 19 1029 67 0 2.68 14 13:21 29.05.2020
2402 Clouds 19 1029 64 0 2.24 329 12:44 29.05.2020
2403 Clouds 18 1030 70 0 1.79 17 12:25 29.05.2020
2404 Clouds 18 1030 67 0 1.79 357 11:58 29.05.2020
2405 Clouds 17 1030 71 0 2.24 357 11:40 29.05.2020
2406 Clear 16 1030 72 0 1.79 6 11:22 29.05.2020
2407 Clear 16 1030 76 0 1.34 7 10:42 29.05.2020
2408 Clear 15 1030 78 0 1.34 349 10:21 29.05.2020
2409 Clear 15 1030 78 0 1.34 37 09:56 29.05.2020
2410 Clear 15 1031 79 0 1.34 5 09:37 29.05.2020
2411 Clear 14 1031 81 0 1.34 21 09:18 29.05.2020
2412 Clear 13 1031 84 0 1.34 6 08:44 29.05.2020
2413 Clear 12 1031 84 0 1.79 27 08:22 29.05.2020
2414 Clear 11 1031 86 0 1.34 8 07:46 29.05.2020
2415 Clear 11 1031 87 0 1.79 10 07:28 29.05.2020
2416 Clear 9 1031 89 0 1.34 356 06:52 29.05.2020
2417 Clear 8 1032 89 0 1.34 1 06:30 29.05.2020
2418 Clear 7 1032 89 0 0.89 32 05:58 29.05.2020
2419 Clear 7 1032 87 0 0.89 24 04:53 29.05.2020
2420 Clear 7 1032 84 0 1.34 31 01:48 29.05.2020
2421 Clear 7 1032 84 0 1.34 0 01:26 29.05.2020
2422 Clear 7 1032 82 0 0.45 20 00:50 29.05.2020
2423 Clear 8 1032 81 0 0.89 20 00:23 29.05.2020
2424 Clear 8 1032 79 0 0.89 31 23:41 28.05.2020
2425 Clear 9 1032 78 0 1.34 358 23:20 28.05.2020
2426 Clear 9 1032 76 0 1.34 27 22:59 28.05.2020
2427 Clear 9 1032 75 0 1.34 16 22:40 28.05.2020
2428 Clear 9 1032 74 0 1.34 58 22:20 28.05.2020
2429 Clear 10 1033 72 0 1.79 353 21:55 28.05.2020
2430 Clear 11 1033 71 0 1.79 347 21:37 28.05.2020
2431 Clear 11 1033 70 0 2.68 20 21:18 28.05.2020
2432 Clear 12 1033 68 0 2.24 19 20:55 28.05.2020
2433 Clear 13 1033 67 0 2.68 10 20:36 28.05.2020
2434 Clear 13 1033 66 0 3.58 17 20:18 28.05.2020
2435 Clear 14 1033 64 0 2.68 22 19:43 28.05.2020
2436 Clear 15 1033 65 0 3.58 358 19:20 28.05.2020
2437 Clear 15 1033 65 0 3.58 358 19:20 28.05.2020
2438 Clear 15 1033 63 0 3.13 352 18:57 28.05.2020
2439 Clear 15 1033 61 0 3.13 2 18:39 28.05.2020
2440 Clear 16 1034 61 0 3.13 343 18:20 28.05.2020
2441 Clear 16 1034 62 0 3.13 1 17:40 28.05.2020
2442 Clear 16 1034 62 0 2.68 338 17:22 28.05.2020
2443 Clear 16 1034 62 0 3.58 356 16:55 28.05.2020
2444 Clear 16 1034 61 0 3.58 34 16:36 28.05.2020
2445 Clear 16 1034 60 0 3.58 356 16:18 28.05.2020
2446 Clear 17 1034 58 0 3.13 7 15:40 28.05.2020
2447 Clear 17 1034 62 0 3.58 0 15:22 28.05.2020
2448 Clear 17 1034 58 0 3.13 11 14:43 28.05.2020
2449 Clouds 17 1034 60 0 2.68 326 14:24 28.05.2020
2450 Clouds 16 1034 61 0 4.02 358 13:49 28.05.2020
2451 Clouds 16 1034 61 0 4.02 358 13:49 28.05.2020
2452 Clouds 16 1034 63 0 3.13 4 13:30 28.05.2020
2453 Clouds 15 1034 61 0 3.13 357 13:30 28.05.2020
2454 Clouds 16 1035 63 0 3.13 343 12:59 28.05.2020
2455 Clear 16 1035 61 0 3.58 333 12:38 28.05.2020
2456 Clear 16 1035 64 0 3.13 301 12:18 28.05.2020
2457 Clear 16 1035 62 0 2.24 23 11:42 28.05.2020
2458 Clear 15 1035 67 0 3.13 10 11:24 28.05.2020
2459 Clear 15 1034 67 0 3.13 359 10:57 28.05.2020
2460 Clear 14 1034 71 0 3.13 3 10:39 28.05.2020
2461 Clear 15 1034 73 0 2.24 359 10:18 28.05.2020
2462 Clear 14 1035 71 0 2.68 6 09:39 28.05.2020
2463 Clear 13 1035 72 0 3.13 348 09:20 28.05.2020
2464 Clear 13 1035 73 0 3.13 343 08:49 28.05.2020
2465 Clear 13 1035 76 0 2.24 353 08:26 28.05.2020
2466 Clear 13 1033 85 0 4.37 3 07:45 28.05.2020
2467 Clear 12 1033 86 0 2.81 4 07:26 28.05.2020
2468 Clear 11 1033 90 0 2.81 4 06:57 28.05.2020
2469 Clear 10 1034 92 0 0.45 334 06:37 28.05.2020
2470 Clear 7 1033 92 0 3.19 6 05:58 28.05.2020
2471 Clear 8 1033 91 0 3.19 6 05:36 28.05.2020
2472 Clear 9 1033 90 0 3.6 2 04:29 28.05.2020
2473 Clear 9 1033 89 0 3.7 2 03:46 28.05.2020
2474 Clear 9 1034 94 0 0.89 328 02:45 28.05.2020
2475 Clouds 10 1033 82 0 3.36 6 01:52 28.05.2020
2476 Clouds 10 1035 89 0 0.45 348 00:55 28.05.2020
2477 Clouds 10 1035 87 0 0.45 344 00:37 28.05.2020
2478 Clouds 10 1035 75 0 1.79 10 00:18 28.05.2020
2479 Clouds 10 1035 74 0 3.13 21 23:39 27.05.2020
2480 Clouds 11 1035 73 0 4.02 6 23:21 27.05.2020
2481 Clouds 11 1035 73 0 4.02 38 22:59 27.05.2020
2482 Clouds 11 1035 73 0 3.58 26 22:40 27.05.2020
2483 Clouds 12 1035 71 0 4.02 351 22:21 27.05.2020
2484 Clouds 12 1035 71 0 3.13 8 21:42 27.05.2020
2485 Clouds 13 1035 70 0 2.68 351 21:24 27.05.2020
2486 Clouds 13 1035 68 0 3.13 31 20:59 27.05.2020
2487 Clouds 13 1035 67 0 3.13 2 20:41 27.05.2020
2488 Clouds 13 1035 65 0 3.13 41 20:22 27.05.2020
2489 Clouds 14 1035 64 0 2.68 355 19:59 27.05.2020
2490 Clouds 14 1035 66 0 2.68 351 19:41 27.05.2020
2491 Clouds 14 1035 64 0 4.47 24 19:19 27.05.2020
2492 Clouds 14 1035 64 0 4.47 24 19:19 27.05.2020
2493 Clouds 15 1035 66 0 4.02 10 18:43 27.05.2020
2494 Clouds 16 1035 65 0 5.36 6 18:20 27.05.2020
2495 Clouds 17 1035 63 0 4.92 12 17:57 27.05.2020
2496 Clouds 17 1034 61 0 4.92 357 17:38 27.05.2020
2497 Clouds 17 1035 60 0 4.47 10 17:19 27.05.2020
2498 Clouds 18 1035 64 0 4.02 11 16:55 27.05.2020
2499 Clouds 18 1034 70 0 4.02 313 16:37 27.05.2020
2500 Clouds 18 1034 71 0 3.13 25 16:18 27.05.2020
2501 Clouds 18 1034 71 0 3.13 25 16:18 27.05.2020
2502 Clouds 17 1034 77 0 3.58 16 15:46 27.05.2020
2503 Clouds 18 1034 77 0 3.13 0 15:21 27.05.2020
2504 Clouds 18 1034 74 0 2.68 39 14:46 27.05.2020
2505 Clouds 18 1034 74 0 3.58 353 14:22 27.05.2020
2506 Clouds 18 1034 77 0 4.02 348 13:58 27.05.2020
2507 Clouds 19 1034 75 0 4.02 8 13:39 27.05.2020
2508 Clouds 19 1034 76 0 3.58 18 13:21 27.05.2020
2509 Clouds 18 1034 77 0 3.13 33 12:42 27.05.2020
2510 Clouds 18 1034 76 0 3.13 16 12:23 27.05.2020
2511 Clouds 18 1034 76 0 3.13 16 12:23 27.05.2020
2512 Clouds 18 1034 77 0 2.68 1 11:55 27.05.2020
2513 Clouds 17 1033 78 0 2.68 347 11:36 27.05.2020
2514 Clouds 17 1033 79 0 2.68 338 11:18 27.05.2020
2515 Clouds 16 1033 82 0 1.79 26 10:43 27.05.2020
2516 Clouds 16 1033 83 0 2.68 8 10:24 27.05.2020
2517 Clouds 16 1033 84 0 2.24 5 09:57 27.05.2020
2518 Clouds 16 1033 84 0 2.24 5 09:57 27.05.2020
2519 Clouds 16 1033 83 0 2.68 2 09:39 27.05.2020
2520 Clouds 15 1033 82 0 3.13 343 09:20 27.05.2020
2521 Clouds 15 1033 82 0 2.68 353 08:42 27.05.2020
2522 Clouds 15 1033 84 0 2.68 4 08:24 27.05.2020
2523 Clouds 14 1034 86 0 2.24 3 07:53 27.05.2020
2524 Clouds 14 1034 87 0 1.34 0 07:34 27.05.2020
2525 Clouds 11 1033 89 0 0.45 50 06:56 27.05.2020
2526 Clouds 10 1033 88 0 0.19 271 06:31 27.05.2020
2527 Clouds 10 1033 86 0 0.27 156 05:50 27.05.2020
2528 Clouds 9 1033 86 0 0.27 156 05:30 27.05.2020
2529 Clouds 9 1034 87 0 0.59 108 04:19 27.05.2020
2530 Clear 10 1034 84 0 0.52 84 02:30 27.05.2020
2531 Clouds 10 1034 84 0 0.45 51 01:51 27.05.2020
2532 Clouds 10 1034 83 0 1.23 126 01:23 27.05.2020
2533 Clouds 11 1034 83 0 0.45 48 00:45 27.05.2020
2534 Clouds 11 1034 82 0 1.77 110 00:19 27.05.2020
2535 Clouds 12 1034 78 0 1.77 110 23:44 26.05.2020
2536 Clouds 12 1034 77 0 0.45 47 23:25 26.05.2020
2537 Clouds 12 1034 76 0 0.89 49 22:59 26.05.2020
2538 Clouds 13 1034 75 0 0.45 45 22:39 26.05.2020
2539 Clouds 13 1034 73 0 0.45 56 22:20 26.05.2020
2540 Clouds 14 1034 71 0 0.89 62 21:57 26.05.2020
2541 Clouds 14 1034 71 0 0.89 6 21:39 26.05.2020
2542 Clouds 15 1034 68 0 0.45 12 21:20 26.05.2020
2543 Clouds 17 1034 61 0 0.89 93 20:43 26.05.2020
2544 Clouds 17 1034 62 0 0.89 42 20:21 26.05.2020
2545 Clouds 18 1034 64 0 1.34 358 19:58 26.05.2020
2546 Clouds 19 1034 62 0 1.34 9 19:38 26.05.2020
2547 Clouds 19 1034 61 0 2.24 357 19:19 26.05.2020
2548 Clouds 17 1032 50 0 2.8 11 18:43 26.05.2020
2549 Clouds 18 1032 52 0 2.8 353 18:23 26.05.2020
2550 Clouds 19 1032 52 0 0.45 295 17:59 26.05.2020
2551 Clouds 19 1032 53 0 0.45 34 17:38 26.05.2020
2552 Clouds 18 1032 52 0 2.45 343 17:20 26.05.2020
2553 Clouds 21 1032 47 0 2.45 343 16:42 26.05.2020
2554 Clouds 20 1034 50 0 1.79 355 16:20 26.05.2020
2555 Clouds 19 1035 55 0 1.34 54 15:55 26.05.2020
2556 Clouds 19 1034 56 0 2.21 343 15:37 26.05.2020
2557 Clouds 19 1035 51 0 1.34 100 15:19 26.05.2020
2558 Clouds 20 1035 59 0 0.89 347 14:43 26.05.2020
2559 Clouds 20 1035 54 0 1.34 358 14:23 26.05.2020
2560 Clouds 19 1035 59 0 0.89 350 13:57 26.05.2020
2561 Clouds 19 1035 60 0 0.89 9 13:38 26.05.2020
2562 Clouds 18 1035 62 0 1.34 338 13:20 26.05.2020
2563 Clouds 17 1035 62 0 0.45 137 12:43 26.05.2020
2564 Clouds 17 1035 63 0 0.89 7 12:22 26.05.2020
2565 Clouds 16 1035 70 0 1.34 39 11:59 26.05.2020
2566 Clouds 16 1035 73 0 0.45 97 11:40 26.05.2020
2567 Clouds 15 1035 74 0 0.89 57 11:19 26.05.2020
2568 Clouds 14 1035 77 0 0.89 33 10:44 26.05.2020
2569 Clouds 14 1036 78 0 1.34 54 10:19 26.05.2020
2570 Clouds 13 1036 80 0 0.89 28 09:54 26.05.2020
2571 Clouds 13 1036 81 0 0.89 27 09:36 26.05.2020
2572 Clouds 13 1036 81 0 0.89 61 09:18 26.05.2020
2573 Clouds 12 1036 84 0 0.45 328 08:39 26.05.2020
2574 Clouds 11 1036 83 0 0.45 326 08:21 26.05.2020
2575 Clouds 11 1035 85 0 0.45 327 07:41 26.05.2020
2576 Clouds 11 1035 86 0 1.17 289 07:22 26.05.2020
2577 Clouds 10 1035 87 0 1.17 289 06:52 26.05.2020
2578 Clouds 10 1035 87 0 0.61 294 06:23 26.05.2020
2579 Clouds 10 1035 88 0 0.61 294 05:41 26.05.2020
2580 Clouds 9 1035 89 0 0.45 327 05:18 26.05.2020
2581 Clouds 10 1035 89 0 0.33 326 04:47 26.05.2020
2582 Clouds 10 1035 90 0 0.7 325 04:28 26.05.2020
2583 Clouds 10 1035 90 0 0.7 325 03:34 26.05.2020
2584 Clouds 9 1035 90 0 0.45 327 02:34 26.05.2020
2585 Clouds 10 1035 89 0 1.41 339 01:43 26.05.2020
2586 Clouds 9 1035 87 0 1.68 345 00:40 26.05.2020
2587 Clouds 9 1035 87 0 1.68 345 00:40 26.05.2020
2588 Clouds 10 1035 86 0 0.45 327 00:21 26.05.2020
2589 Clouds 9 1035 85 0 1.82 349 23:59 25.05.2020
2590 Clouds 10 1034 85 0 1.82 349 23:39 25.05.2020
2591 Clear 10 1034 85 0 0.45 338 23:20 25.05.2020
2592 Clear 10 1034 85 0 2.17 349 22:56 25.05.2020
2593 Clear 10 1034 85 0 2.17 349 22:56 25.05.2020
2594 Clear 11 1034 84 0 0.45 338 22:37 25.05.2020
2595 Clear 11 1034 84 0 0.45 327 22:19 25.05.2020
2596 Clear 11 1034 83 0 0.89 338 21:58 25.05.2020
2597 Clear 12 1034 82 0 0.89 338 21:38 25.05.2020
2598 Clear 11 1034 82 0 0.89 343 21:19 25.05.2020
2599 -273 0 0 0 0 0 20:59 25.05.2020
2600 Clear 12 1034 80 0 1.34 7 20:59 25.05.2020
2601 -273 0 0 0 0 0 20:58 25.05.2020
2602 Clear 12 1034 80 0 1.34 7 20:58 25.05.2020
2603 Clear 12 1034 80 0 1.34 309 20:40 25.05.2020
2604 Clear 12 1034 78 0 1.79 322 20:20 25.05.2020
2605 Clear 13 1034 77 0 1.79 333 19:57 25.05.2020
2606 Clear 13 1034 77 0 1.79 333 19:57 25.05.2020
2607 Clear 13 1034 75 0 2.68 5 19:38 25.05.2020
2608 Clear 13 1034 76 0 1.79 315 19:18 25.05.2020
2609 Clear 14 1034 71 0 2.68 308 18:43 25.05.2020
2610 Clear 14 1034 73 0 2.24 338 18:22 25.05.2020
2611 Clear 15 1034 68 0 3.13 338 17:57 25.05.2020
2612 Clear 15 1034 69 0 2.68 355 17:38 25.05.2020
2613 Clear 16 1034 70 0 2.68 357 17:20 25.05.2020
2614 Clear 16 1033 71 0 2.68 338 16:55 25.05.2020
2615 Clear 16 1033 71 0 2.68 338 16:36 25.05.2020
2616 Clear 15 1033 71 0 2.68 333 16:18 25.05.2020
2617 Clear 16 1033 73 0 3.13 305 15:42 25.05.2020
2618 Clear 15 1033 73 0 3.58 350 15:18 25.05.2020
2619 Clear 15 1033 72 0 3.13 16 14:43 25.05.2020
2620 Clear 15 1033 72 0 3.13 338 14:25 25.05.2020
2621 Clear 15 1033 72 0 3.13 338 14:25 25.05.2020
2622 Clear 15 1033 73 0 3.58 301 13:59 25.05.2020
2623 Clear 15 1033 73 0 3.13 299 13:39 25.05.2020
2624 Clear 15 1033 71 0 3.13 257 13:20 25.05.2020
2625 Clear 15 1032 71 0 2.68 284 12:57 25.05.2020
2626 Clear 16 1032 72 0 3.13 338 12:37 25.05.2020
2627 Clear 15 1032 75 0 3.58 328 12:19 25.05.2020
2628 Clear 14 1032 73 0 3.58 338 11:39 25.05.2020
2629 Clear 14 1032 77 0 3.13 320 11:20 25.05.2020
2630 Clear 14 1032 76 0 3.13 278 10:56 25.05.2020
2631 Clear 14 1031 76 0 3.13 343 10:37 25.05.2020
2632 Clear 14 1031 77 0 3.58 274 10:18 25.05.2020
2633 Clear 14 1031 76 0 3.58 319 09:54 25.05.2020
2634 Clear 14 1031 78 0 3.58 301 09:36 25.05.2020
2635 Clear 14 1031 79 0 2.68 306 09:18 25.05.2020
2636 Clear 13 1031 78 0 3.13 295 08:39 25.05.2020
2637 Clear 13 1031 82 0 2.68 305 08:20 25.05.2020
2638 Clear 12 1031 81 0 3.58 284 07:49 25.05.2020
2639 Clear 12 1031 82 0 3.13 263 07:27 25.05.2020
2640 Clear 12 1030 84 0 2.68 290 06:57 25.05.2020
2641 Clear 12 1030 85 0 2.24 300 06:36 25.05.2020
2642 Clear 11 1030 88 0 2.24 284 05:25 25.05.2020
2643 Clouds 12 1029 89 0 2.24 299 03:28 25.05.2020
2644 Clouds 12 1028 88 0 1.79 261 02:51 25.05.2020
2645 Clouds 12 1028 88 0 1.79 278 02:32 25.05.2020
2646 Clouds 13 1028 88 0 1.79 272 01:42 25.05.2020
2647 Clouds 12 1028 87 0 1.79 263 00:47 25.05.2020
2648 Clouds 12 1028 87 0 2.24 259 00:26 25.05.2020
2649 Clouds 12 1028 87 0 2.24 338 23:58 24.05.2020
2650 Clouds 12 1027 87 0 1.79 255 23:39 24.05.2020
2651 Clouds 12 1027 87 0 1.79 255 23:39 24.05.2020
2652 Clouds 12 1027 87 0 1.79 260 23:20 24.05.2020
2653 Clouds 12 1027 87 0 2.24 254 22:55 24.05.2020
2654 Clouds 12 1027 87 0 1.79 263 22:37 24.05.2020
2655 Clouds 12 1027 86 0 2.24 262 22:18 24.05.2020
2656 Clouds 13 1027 85 0 2.24 249 21:55 24.05.2020
2657 Clouds 13 1027 84 0 2.24 295 21:36 24.05.2020
2658 Clouds 13 1027 84 0 2.68 276 21:18 24.05.2020
2659 Clouds 14 1027 82 0 2.68 276 20:43 24.05.2020
2660 Clouds 14 1027 81 0 2.24 338 20:21 24.05.2020
2661 Clouds 14 1027 80 0 3.13 307 19:56 24.05.2020
2662 Clouds 15 1026 80 0 3.13 262 19:38 24.05.2020
2663 Clouds 15 1026 80 0 2.68 315 19:18 24.05.2020
2664 Clouds 15 1026 79 0 3.13 314 18:42 24.05.2020
2665 Clouds 15 1026 79 0 3.13 338 18:23 24.05.2020
2666 Clouds 15 1026 79 0 3.13 338 18:23 24.05.2020
2667 Clouds 15 1026 78 0 2.68 338 17:59 24.05.2020
2668 Clouds 15 1025 76 0 3.58 289 17:40 24.05.2020
2669 Rain 16 1025 74 0 4.02 301 17:21 24.05.2020
2670 Rain 15 1025 74 0 4.47 295 16:56 24.05.2020
2671 Rain 15 1025 76 0 3.13 322 16:38 24.05.2020
2672 Rain 15 1025 77 0 3.58 271 16:19 24.05.2020
2673 Rain 15 1025 79 0 3.58 282 15:56 24.05.2020
2674 Rain 16 1024 78 0 4.02 243 15:38 24.05.2020
2675 Rain 15 1024 79 0 3.13 270 15:18 24.05.2020
2676 Rain 15 1024 80 0 4.47 313 14:44 24.05.2020
2677 Rain 14 1024 82 0 3.58 299 14:24 24.05.2020
2678 Rain 14 1024 82 0 3.58 299 14:24 24.05.2020
2679 Rain 14 1024 85 0 3.58 284 13:58 24.05.2020
2680 Rain 13 1024 88 0 3.13 338 13:39 24.05.2020
2681 Rain 13 1023 88 0 3.13 274 13:21 24.05.2020
2682 Rain 14 1023 90 0 3.13 298 12:59 24.05.2020
2683 Rain 13 1024 91 0 2.68 242 12:40 24.05.2020
2684 Rain 13 1024 90 0 3.58 241 12:22 24.05.2020
2685 Rain 13 1023 89 0 4.02 338 11:59 24.05.2020
2686 Rain 13 1023 87 0 3.13 245 11:41 24.05.2020
2687 Rain 14 1023 82 0 4.02 277 11:22 24.05.2020
2688 Rain 15 1023 78 0 4.47 268 10:56 24.05.2020
2689 Rain 15 1023 80 0 3.13 255 10:37 24.05.2020
2690 Rain 15 1023 74 0 4.02 273 10:19 24.05.2020
2691 Rain 15 1023 70 0 4.47 295 09:41 24.05.2020
2692 Rain 14 1022 73 0 4.02 263 09:18 24.05.2020
2693 Rain 14 1022 74 0 4.47 338 08:57 24.05.2020
2694 Rain 14 1022 75 0 4.02 272 08:39 24.05.2020
2695 Clouds 13 1022 76 0 4.02 229 08:20 24.05.2020
2696 Clouds 13 1022 76 0 3.58 227 07:49 24.05.2020
2697 Clouds 13 1022 77 0 2.68 224 07:25 24.05.2020
2698 Clouds 12 1022 80 0 2.68 338 06:57 24.05.2020
2699 Clouds 12 1021 81 0 2.24 259 06:36 24.05.2020
2700 Clouds 12 1021 79 0 2.24 214 04:54 24.05.2020
2701 Clouds 12 1021 81 0 2.24 208 03:42 24.05.2020
2702 Clouds 12 1021 81 0 2.24 208 03:42 24.05.2020
2703 Clouds 12 1021 81 0 2.68 338 02:46 24.05.2020
2704 Clouds 12 1021 79 0 2.68 210 01:50 24.05.2020
2705 Clouds 12 1021 74 0 3.13 228 00:41 24.05.2020
2706 Clouds 12 1021 73 0 3.13 207 00:22 24.05.2020
2707 Clouds 13 1021 67 0 3.13 235 23:46 23.05.2020
2708 Clouds 13 1021 68 0 3.58 220 23:26 23.05.2020
2709 Clouds 13 1021 69 0 3.13 338 22:59 23.05.2020
2710 Clouds 13 1021 68 0 2.68 216 22:39 23.05.2020
2711 Clouds 13 1021 66 0 3.13 210 22:21 23.05.2020
2712 Clouds 14 1021 65 0 3.58 245 21:59 23.05.2020
2713 Clouds 14 1021 68 0 2.68 226 21:41 23.05.2020
2714 Rain 14 1020 67 0 3.13 222 21:20 23.05.2020
2715 Rain 14 1020 67 0 3.13 216 20:59 23.05.2020
2716 Rain 15 1020 66 0 3.13 253 20:39 23.05.2020
2717 Rain 15 1020 65 0 4.47 239 20:19 23.05.2020
2718 Rain 16 1020 57 0 5.36 261 19:55 23.05.2020
2719 Rain 16 1020 57 0 3.58 239 19:37 23.05.2020
2720 Rain 17 1020 57 0 3.58 212 19:18 23.05.2020
2721 Rain 17 1020 55 0 4.92 274 18:41 23.05.2020
2722 Rain 17 1019 52 0 4.47 338 18:22 23.05.2020
2723 Rain 17 1019 57 0 4.47 242 17:58 23.05.2020
2724 Rain 17 1019 57 0 4.47 242 17:58 23.05.2020
2725 Rain 17 1019 52 0 4.02 219 17:40 23.05.2020
2726 Clear 18 1019 53 0 4.02 267 17:20 23.05.2020
2727 Clear 18 1019 48 0 5.36 230 16:59 23.05.2020
2728 Clear 18 1019 49 0 5.81 338 16:40 23.05.2020
2729 Clear 18 1019 51 0 5.36 338 16:20 23.05.2020
2730 Clear 18 1019 49 0 5.81 338 15:56 23.05.2020
2731 Clear 18 1018 53 0 5.81 180 15:37 23.05.2020
2732 Rain 18 1018 52 0 5.36 226 15:19 23.05.2020
2733 Rain 19 1018 46 0 5.36 239 14:41 23.05.2020
2734 Clouds 18 1018 52 0 5.36 235 14:23 23.05.2020
2735 Clouds 18 1018 50 0 5.36 226 13:42 23.05.2020
2736 Clouds 18 1018 51 0 5.36 198 13:19 23.05.2020
2737 Clouds 18 1018 52 0 5.81 282 12:59 23.05.2020
2738 Clouds 17 1018 53 0 4.47 250 12:40 23.05.2020
2739 Clouds 17 1018 53 0 4.47 250 12:40 23.05.2020
2740 Clouds 17 1018 56 0 4.47 238 12:19 23.05.2020
2741 Clouds 16 1018 57 0 4.47 224 11:57 23.05.2020
2742 Clouds 16 1018 58 0 4.92 214 11:37 23.05.2020
2743 Clouds 16 1018 63 0 3.58 338 11:18 23.05.2020
2744 Clouds 16 1018 64 0 3.13 223 10:54 23.05.2020
2745 Clouds 16 1018 65 0 3.58 233 10:36 23.05.2020
2746 Clouds 16 1018 66 0 4.02 228 10:18 23.05.2020
2747 Clouds 15 1018 68 0 4.02 288 09:41 23.05.2020
2748 Clouds 15 1018 70 0 3.58 212 09:23 23.05.2020
2749 Clouds 15 1017 72 0 4.47 275 08:57 23.05.2020
2750 Clouds 15 1017 77 0 3.13 218 08:37 23.05.2020
2751 Clouds 14 1017 80 0 2.24 223 08:18 23.05.2020
2752 Clouds 14 1017 83 0 2.24 338 07:44 23.05.2020
2753 Clouds 13 1017 84 0 1.79 241 07:22 23.05.2020
2754 Clouds 13 1017 86 0 1.79 226 06:42 23.05.2020
2755 Clouds 13 1017 85 0 2.24 225 05:55 23.05.2020
2756 Clouds 13 1016 81 10000 2.1 230 03:52 23.05.2020
2757 Clouds 13 1016 80 0 2.24 269 03:24 23.05.2020
2758 Clouds 13 1016 78 0 2.24 216 02:40 23.05.2020
2759 Clouds 13 1016 76 0 1.79 228 01:48 23.05.2020
2760 Clouds 13 1016 75 0 2.24 215 01:18 23.05.2020
2761 Clouds 13 1017 82 10000 1.5 200 00:42 23.05.2020
2762 Clouds 14 1016 74 0 1.79 226 23:59 22.05.2020
2763 Clouds 14 1016 74 0 1.79 212 23:41 22.05.2020
2764 Clouds 14 1016 73 0 2.24 338 23:22 22.05.2020
2765 Clouds 14 1016 73 0 1.79 198 22:58 22.05.2020
2766 Clouds 15 1016 75 0 1.79 207 22:40 22.05.2020
2767 Clouds 15 1016 74 0 1.79 203 22:20 22.05.2020
2768 Clouds 16 1016 72 0 1.79 251 21:48 22.05.2020
2769 Clouds 17 1016 72 0 2.68 216 21:24 22.05.2020
2770 Clouds 17 1015 74 0 2.24 251 20:59 22.05.2020
2771 Clouds 18 1015 73 0 3.13 226 20:41 22.05.2020
2772 Clouds 18 1015 73 0 3.13 226 20:41 22.05.2020
2773 Clouds 19 1015 71 0 3.13 252 20:20 22.05.2020
2774 Clouds 18 1015 75 0 2.24 220 19:45 22.05.2020
2775 Clouds 19 1015 73 0 2.68 338 19:26 22.05.2020
2776 Clouds 19 1015 72 0 3.58 206 18:57 22.05.2020
2777 Clouds 19 1015 70 0 4.02 228 18:38 22.05.2020
2778 Clouds 18 1015 71 0 3.58 274 18:19 22.05.2020
2779 Clouds 18 1015 71 0 3.58 274 18:19 22.05.2020
2780 Clouds 17 1015 83 0 3.58 214 17:40 22.05.2020
2781 Rain 17 1015 86 0 2.24 239 17:20 22.05.2020
2782 Rain 17 1015 86 0 3.58 246 16:58 22.05.2020
2783 Rain 19 1015 81 0 4.47 247 16:39 22.05.2020
2784 Rain 20 1015 78 0 4.92 251 16:20 22.05.2020
2785 Rain 20 1014 62 0 5.36 240 15:57 22.05.2020
2786 Rain 20 1014 66 0 3.58 264 15:38 22.05.2020
2787 Rain 19 1014 83 0 1.34 182 15:18 22.05.2020
2788 Rain 19 1014 85 0 2.24 120 14:41 22.05.2020
2789 Rain 19 1014 85 0 2.24 125 14:23 22.05.2020
2790 Clouds 18 1014 90 0 2.24 144 13:44 22.05.2020
2791 Clouds 17 1014 90 0 3.13 61 13:20 22.05.2020
2792 Clouds 17 1014 91 0 3.13 338 12:44 22.05.2020
2793 Rain 17 1014 92 0 2.24 107 12:25 22.05.2020
2794 Rain 16 1014 92 0 1.79 100 11:56 22.05.2020
2795 Rain 16 1015 92 0 1.79 85 11:37 22.05.2020
2796 Rain 16 1015 92 0 1.34 287 11:19 22.05.2020
2797 Rain 16 1014 92 0 0.89 80 10:41 22.05.2020
2798 Rain 16 1014 91 0 2.24 83 10:22 22.05.2020
2799 Rain 16 1015 90 0 1.34 26 09:59 22.05.2020
2800 Rain 16 1015 89 0 1.34 33 09:40 22.05.2020
2801 Rain 16 1016 88 0 0.89 338 09:19 22.05.2020
2802 Rain 17 1015 84 0 1.34 285 08:43 22.05.2020
2803 Clouds 17 1016 77 0 2.24 192 08:21 22.05.2020
2804 Clouds 16 1015 73 0 1.79 127 07:56 22.05.2020
2805 Clouds 16 1016 74 0 1.79 338 07:27 22.05.2020
2806 Clouds 15 1016 75 0 1.79 122 06:57 22.05.2020
2807 Clouds 15 1016 75 0 1.34 126 06:36 22.05.2020
2808 Clouds 15 1016 73 0 1.79 136 05:39 22.05.2020
2809 Clouds 15 1016 73 0 1.79 136 05:39 22.05.2020
2810 Clouds 15 1017 72 0 1.79 144 04:51 22.05.2020
2811 Clouds 15 1017 72 0 1.79 134 04:24 22.05.2020
2812 Clouds 15 1017 70 0 1.34 118 03:47 22.05.2020
2813 Clouds 15 1017 69 0 0.89 125 02:59 22.05.2020
2814 Clouds 16 1018 70 0 1.34 132 01:56 22.05.2020
2815 Clouds 16 1018 71 0 0.89 130 01:28 22.05.2020
2816 Clouds 16 1018 74 0 0.89 118 00:48 22.05.2020
2817 Clouds 16 1018 72 0 0.45 97 00:28 22.05.2020
2818 Clouds 16 1017 71 0 4.07 135 23:43 21.05.2020
2819 Clear 17 1018 71 0 0.89 97 23:25 21.05.2020
2820 Clear 16 1017 69 0 3.65 123 22:58 21.05.2020
2821 Clear 16 1017 69 0 3.65 123 22:58 21.05.2020
2822 Clear 16 1017 69 0 3.65 123 22:58 21.05.2020
2823 Clear 17 1019 75 0 3.65 123 22:40 21.05.2020
2824 Clear 18 1019 69 0 0.45 69 22:21 21.05.2020
2825 Clear 18 1019 69 0 0.89 71 21:59 21.05.2020
2826 Clear 19 1019 68 0 0.45 39 21:40 21.05.2020
2827 Clear 19 1019 67 0 3.92 102 21:22 21.05.2020
2828 Clear 21 1019 64 0 0.45 39 20:45 21.05.2020
2829 Clouds 21 1019 55 0 0.45 41 20:22 21.05.2020
2830 Clouds 23 1019 51 0 0.89 74 19:55 21.05.2020
2831 Clouds 23 1019 57 0 0.89 45 19:36 21.05.2020
2832 Clouds 23 1019 56 0 0.89 49 19:18 21.05.2020
2833 Clouds 23 1022 71 0 3.58 32 18:40 21.05.2020
2834 Clouds 23 1022 71 0 3.58 32 18:40 21.05.2020
2835 Clouds 23 1023 70 0 4.02 30 18:20 21.05.2020
2836 Clouds 23 1022 50 0 2.12 120 17:58 21.05.2020
2837 Clouds 22 1020 46 10000 7.2 80 17:40 21.05.2020
2838 Clouds 22 1021 49 10000 4.6 40 17:22 21.05.2020
2839 Clouds 22 1021 49 10000 4.6 40 16:47 21.05.2020
2840 Clouds 23 1018 47 0 2.18 112 16:25 21.05.2020
2841 Clouds 22 1020 54 0 1.79 39 15:54 21.05.2020
2842 Clouds 22 1021 55 0 1.79 347 15:36 21.05.2020
2843 Clouds 21 1022 43 10000 2.6 80 15:18 21.05.2020
2844 Clouds 24 1021 50 0 1.79 83 14:39 21.05.2020
2845 Clear 22 1022 54 0 1.79 101 14:18 21.05.2020
2846 Clear 21 1022 56 0 1.79 22 13:41 21.05.2020
2847 Clear 23 1022 55 0 1.34 35 13:22 21.05.2020
2848 Clear 22 1022 58 0 2.24 49 12:58 21.05.2020
2849 Clear 22 1022 59 0 1.34 12 12:37 21.05.2020
2850 Clear 20 1022 58 0 1.79 349 12:19 21.05.2020
2851 Clear 19 1022 66 0 1.79 45 11:42 21.05.2020
2852 Clear 20 1022 69 0 1.34 94 11:23 21.05.2020
2853 Clear 20 1022 71 0 0.89 28 10:58 21.05.2020
2854 Clear 20 1022 70 0 1.79 81 10:39 21.05.2020
2855 Clear 19 1022 73 0 0.89 112 10:19 21.05.2020
2856 Clear 18 1022 76 0 1.34 91 09:55 21.05.2020
2857 Clear 18 1022 78 0 0.89 117 09:36 21.05.2020
2858 Clear 16 1022 79 0 1.34 109 09:18 21.05.2020
2859 Clear 15 1023 85 0 0.89 131 08:45 21.05.2020
2860 Clouds 14 1023 88 0 1.34 135 08:26 21.05.2020
2861 Clouds 13 1023 91 0 1.34 102 07:47 21.05.2020
2862 Clouds 12 1023 92 0 0.89 114 07:27 21.05.2020
2863 Clouds 11 1023 92 0 0.45 96 06:52 21.05.2020
2864 Clouds 10 1023 92 0 0.89 97 05:58 21.05.2020
2865 Clouds 10 1023 91 0 0.89 104 05:34 21.05.2020
2866 Clouds 11 1023 90 0 0.89 99 03:22 21.05.2020
2867 Clouds 11 1023 90 0 0.89 99 03:22 21.05.2020
2868 Clouds 11 1023 90 0 0.89 99 03:22 21.05.2020
2869 Clouds 11 1023 90 0 0.45 102 02:45 21.05.2020
2870 Clouds 11 1023 89 0 2.16 114 02:26 21.05.2020
2871 Clouds 12 1023 89 0 0.89 118 01:45 21.05.2020
2872 Clouds 12 1023 88 0 2.31 105 01:21 21.05.2020
2873 Clouds 12 1023 88 0 0.45 57 00:52 21.05.2020
2874 Clouds 12 1023 88 0 0.45 58 00:23 21.05.2020
2875 Clouds 12 1023 86 0 0.89 37 23:44 20.05.2020
2876 Clouds 13 1023 86 0 0.89 29 23:21 20.05.2020
2877 Clouds 13 1023 85 0 0.89 14 22:58 20.05.2020
2878 Clouds 13 1023 84 0 0.89 15 22:39 20.05.2020
2879 Clouds 14 1023 83 0 0.89 7 22:21 20.05.2020
2880 Clouds 14 1023 81 0 0.89 7 21:42 20.05.2020
2881 Clouds 15 1023 78 0 1.34 1 21:23 20.05.2020
2882 Clouds 16 1023 77 0 0.89 2 20:55 20.05.2020
2883 Clouds 17 1023 75 0 1.34 15 20:37 20.05.2020
2884 Clouds 17 1023 74 0 0.89 7 20:19 20.05.2020
2885 Clouds 18 1023 72 0 1.79 347 19:39 20.05.2020
2886 Clouds 19 1023 70 0 1.34 323 19:20 20.05.2020
2887 Clouds 19 1023 69 0 1.79 4 18:57 20.05.2020
2888 Clouds 19 1023 65 0 2.24 8 18:38 20.05.2020
2889 Clouds 20 1023 63 0 1.79 2 18:20 20.05.2020
2890 Clouds 20 1023 65 0 2.68 33 17:38 20.05.2020
2891 Clouds 19 1023 65 0 2.68 9 17:19 20.05.2020
2892 Clouds 20 1023 64 0 2.68 355 16:42 20.05.2020
2893 Clouds 20 1023 65 0 2.24 343 16:23 20.05.2020
2894 Clouds 18 1023 65 0 3.13 357 15:58 20.05.2020
2895 Clouds 19 1023 65 0 1.79 358 15:40 20.05.2020
2896 Clouds 19 1023 66 0 2.24 22 15:22 20.05.2020
2897 Clouds 19 1023 63 0 2.24 1 14:43 20.05.2020
2898 Clouds 17 1021 74 0 1.94 32 14:21 20.05.2020
2899 Clouds 18 1023 70 0 1.79 20 13:41 20.05.2020
2900 Rain 18 1023 73 0 1.79 21 13:20 20.05.2020
2901 Rain 17 1023 74 0 2.24 7 12:58 20.05.2020
2902 Rain 17 1023 74 0 1.34 357 12:39 20.05.2020
2903 Clouds 17 1023 76 0 1.34 2 12:19 20.05.2020
2904 Clouds 15 1023 85 0 1.34 4 11:36 20.05.2020
2905 Clouds 15 1023 85 0 1.34 10 11:36 20.05.2020
2906 Rain 14 1023 85 0 1.34 8 11:18 20.05.2020
2907 Rain 14 1023 85 0 1.34 8 11:18 20.05.2020
2908 Rain 14 1023 87 0 0.45 5 10:43 20.05.2020
2909 Clouds 14 1023 87 0 1.34 10 10:20 20.05.2020
2910 Clouds 14 1023 87 0 1.34 343 09:46 20.05.2020
2911 Clouds 14 1023 87 0 1.34 343 09:46 20.05.2020
2912 Clouds 13 1023 88 0 0.89 322 09:22 20.05.2020
2913 Clouds 13 1023 88 0 0.89 322 09:22 20.05.2020
2914 Clouds 13 1023 89 0 0.45 321 08:59 20.05.2020
2915 Clouds 13 1023 89 0 0.89 325 08:41 20.05.2020
2916 Clouds 13 1023 89 0 0.89 308 08:19 20.05.2020
2917 Clouds 13 1023 89 0 0.89 338 07:49 20.05.2020
2918 Clouds 13 1022 90 0 0.45 309 07:22 20.05.2020
2919 Clouds 13 1022 90 0 0.45 338 06:46 20.05.2020
2920 Mist 12 1022 93 5000 1 100 05:39 20.05.2020
2921 Clouds 12 1022 93 10000 1 330 04:37 20.05.2020
2922 Clouds 13 1022 93 10000 1 330 03:55 20.05.2020
2923 Clouds 13 1022 93 10000 1.5 310 03:25 20.05.2020
2924 Clouds 13 1022 87 0 1.35 274 01:33 20.05.2020
2925 Clouds 13 1022 86 0 0.45 338 00:57 20.05.2020
2926 Clouds 13 1022 86 0 0.45 338 00:37 20.05.2020
2927 Clouds 13 1022 85 0 0.45 338 00:19 20.05.2020
2928 Clouds 13 1022 84 0 1.23 315 23:36 19.05.2020
2929 Clouds 13 1022 83 0 0.45 338 23:18 19.05.2020
2930 Clouds 13 1022 83 0 0.45 338 22:54 19.05.2020
2931 Clouds 13 1022 82 0 1.85 323 22:36 19.05.2020
2932 Clouds 14 1022 82 0 0.45 338 22:18 19.05.2020
2933 Clouds 14 1022 82 0 0.45 338 21:54 19.05.2020
2934 Clouds 14 1022 81 0 0.89 338 21:36 19.05.2020
2935 Clouds 14 1022 80 0 0.89 333 21:18 19.05.2020
2936 Clouds 14 1022 79 0 0.89 347 20:54 19.05.2020
2937 Clouds 15 1022 79 0 0.89 343 20:36 19.05.2020
2938 Clouds 15 1022 78 0 1.34 338 20:18 19.05.2020
2939 Clouds 15 1021 77 0 1.79 0 19:37 19.05.2020
2940 Clouds 15 1021 77 0 1.34 318 19:19 19.05.2020
2941 Clouds 16 1021 75 0 1.79 350 18:44 19.05.2020
2942 Clouds 16 1021 74 0 2.24 321 18:22 19.05.2020
2943 Clouds 16 1021 74 0 2.24 322 17:57 19.05.2020
2944 Clouds 16 1021 73 0 2.24 343 17:39 19.05.2020
2945 Clouds 16 1021 73 0 2.68 343 17:20 19.05.2020
2946 Clouds 17 1021 72 10000 4.1 330 16:42 19.05.2020
2947 Clouds 17 1021 63 10000 5.1 300 16:23 19.05.2020
2948 Clouds 17 1021 63 10000 5.1 300 15:58 19.05.2020
2949 Clouds 17 1021 63 10000 6.2 310 15:39 19.05.2020
2950 Clouds 17 1021 63 10000 6.2 310 15:20 19.05.2020
2951 Clouds 18 1021 59 10000 6.2 300 14:55 19.05.2020
2952 Clouds 18 1021 59 10000 6.7 300 14:36 19.05.2020
2953 Clouds 18 1021 59 10000 6.7 300 14:18 19.05.2020
2954 Clouds 18 1021 59 10000 6.7 300 13:55 19.05.2020
2955 Clouds 18 1021 63 10000 7.2 290 13:37 19.05.2020
2956 Clouds 18 1021 63 10000 7.2 290 13:18 19.05.2020
2957 Clouds 17 1021 63 10000 7.2 290 12:55 19.05.2020
2958 Clouds 18 1020 63 10000 6.7 290 12:36 19.05.2020
2959 Clouds 18 1020 63 10000 6.7 290 12:18 19.05.2020
2960 Clouds 18 1020 63 10000 6.7 290 11:41 19.05.2020
2961 Clouds 17 1020 72 10000 6.7 290 11:22 19.05.2020
2962 Clouds 17 1020 72 10000 6.7 290 11:22 19.05.2020
2963 Clouds 17 1020 72 10000 6.7 290 11:22 19.05.2020
2964 Clouds 16 1020 72 10000 6.7 290 10:56 19.05.2020
2965 Clouds 17 1020 76 10000 5.7 280 10:38 19.05.2020
2966 Rain 16 1020 76 0 2.24 333 10:18 19.05.2020
2967 Rain 15 1020 79 0 1.79 213 09:43 19.05.2020
2968 Clouds 15 1020 76 10000 4.6 260 09:24 19.05.2020
2969 Clouds 14 1020 76 10000 4.1 270 08:47 19.05.2020
2970 Clouds 14 1020 76 10000 4.1 270 08:47 19.05.2020
2971 Clouds 13 1020 82 10000 3.1 260 08:25 19.05.2020
2972 Clouds 13 1020 87 0 1.34 246 07:49 19.05.2020
2973 Clouds 13 1020 88 0 1.34 234 07:28 19.05.2020
2974 Clouds 12 1020 88 0 1.34 249 06:55 19.05.2020
2975 Clouds 12 1020 88 0 1.34 243 06:31 19.05.2020
2976 Clouds 12 1020 87 0 0.89 338 05:43 19.05.2020
2977 Clouds 12 1020 86 0 0.89 255 05:23 19.05.2020
2978 Clouds 12 1020 86 0 0.89 253 04:50 19.05.2020
2979 Clouds 12 1020 86 0 0.89 338 02:50 19.05.2020
2980 Clouds 12 1021 83 0 0.89 338 00:49 19.05.2020
2981 Clouds 12 1021 83 0 0.89 338 00:49 19.05.2020
2982 Clouds 12 1021 82 0 0.89 224 00:31 19.05.2020
2983 Clouds 12 1021 81 0 1.34 226 23:59 18.05.2020
2984 Clouds 12 1021 81 0 1.34 239 23:40 18.05.2020
2985 Clouds 12 1021 81 0 1.34 232 23:20 18.05.2020
2986 Clouds 12 1021 79 0 1.34 229 22:56 18.05.2020
2987 Clouds 12 1021 78 0 0.89 338 22:38 18.05.2020
2988 Clouds 12 1021 78 0 0.89 246 22:19 18.05.2020
2989 Clouds 12 1021 77 0 1.34 263 21:42 18.05.2020
2990 Clouds 13 1021 76 0 1.34 262 21:22 18.05.2020
2991 Clouds 13 1021 75 0 1.79 263 20:57 18.05.2020
2992 Clouds 14 1021 73 0 2.24 289 20:37 18.05.2020
2993 Clouds 14 1021 72 0 2.68 268 20:19 18.05.2020
2994 Clouds 14 1021 72 0 2.68 268 20:19 18.05.2020
2995 Clouds 15 1021 70 0 2.24 338 19:55 18.05.2020
2996 Clouds 15 1021 69 0 3.13 241 19:37 18.05.2020
2997 Clouds 16 1020 69 0 2.68 338 19:18 18.05.2020
2998 Clouds 18 1020 66 0 3.13 338 18:43 18.05.2020
2999 Clouds 17 1020 65 0 2.68 338 18:21 18.05.2020
3000 Clouds 18 1020 67 0 3.13 302 17:39 18.05.2020
3001 Clouds 18 1020 67 0 3.13 305 17:39 18.05.2020
3002 Clouds 18 1020 65 0 3.58 246 17:18 18.05.2020
3003 Clouds 19 1020 65 0 2.24 261 16:56 18.05.2020
3004 Clouds 20 1020 63 0 3.58 244 16:38 18.05.2020
3005 Clouds 20 1020 59 0 4.02 338 16:18 18.05.2020
3006 Clouds 20 1020 58 0 4.02 250 15:56 18.05.2020
3007 Clouds 20 1020 56 0 4.02 268 15:37 18.05.2020
3008 Clouds 19 1020 56 0 4.92 282 15:19 18.05.2020
3009 Clouds 19 1020 53 0 4.47 264 14:43 18.05.2020
3010 Clouds 20 1020 57 0 4.92 253 14:24 18.05.2020
3011 Clouds 20 1020 57 0 3.58 245 13:58 18.05.2020
3012 Clouds 19 1020 58 0 4.47 248 13:39 18.05.2020
3013 Clouds 19 1023 62 0 1.79 248 13:19 18.05.2020
3014 Clouds 20 1018 60 0 0.45 262 12:56 18.05.2020
3015 Clouds 20 1018 59 0 0.45 281 12:38 18.05.2020
3016 Clouds 17 1020 59 10000 7.2 280 12:18 18.05.2020
3017 Clouds 17 1020 59 10000 7.2 280 11:47 18.05.2020
3018 Clouds 16 1020 63 10000 4.6 250 11:27 18.05.2020
3019 Clouds 16 1020 70 0 2.24 235 10:58 18.05.2020
3020 Clouds 16 1020 71 0 2.68 338 10:40 18.05.2020
3021 Clouds 16 1020 73 0 2.24 252 10:22 18.05.2020
3022 Clouds 16 1020 76 0 2.24 338 09:44 18.05.2020
3023 Clouds 14 1020 71 10000 3.1 230 09:25 18.05.2020
3024 Clouds 13 1020 79 0 1.79 211 08:45 18.05.2020
3025 Clouds 13 1020 81 0 2.24 250 08:27 18.05.2020
3026 Clouds 12 1020 80 0 1.79 212 07:58 18.05.2020
3027 Clouds 12 1020 80 0 2.24 338 07:38 18.05.2020
3028 Clouds 12 1020 80 0 2.24 217 07:18 18.05.2020
3029 Clouds 11 1020 79 0 2.24 231 06:43 18.05.2020
3030 Clouds 11 1020 78 0 2.24 204 05:49 18.05.2020
3031 Clouds 10 1020 78 0 1.79 338 05:26 18.05.2020
3032 Clouds 10 1020 79 0 1.79 193 03:37 18.05.2020
3033 Clouds 11 1021 78 0 1.34 207 02:30 18.05.2020
3034 Clouds 11 1021 78 0 0.89 199 01:32 18.05.2020
3035 Clouds 11 1021 78 0 0.89 202 00:27 18.05.2020
3036 Clouds 11 1021 78 0 0.45 338 23:58 17.05.2020
3037 Clouds 11 1021 78 0 0.45 338 23:58 17.05.2020
3038 Clouds 11 1021 75 0 0.89 338 23:40 17.05.2020
3039 Clouds 11 1021 73 0 0.45 231 23:20 17.05.2020
3040 Clouds 12 1021 72 0 0.89 232 22:58 17.05.2020
3041 Clouds 12 1021 71 0 0.89 234 22:39 17.05.2020
3042 Clouds 12 1021 70 0 1.34 338 22:21 17.05.2020
3043 Clouds 13 1021 69 0 1.34 238 21:58 17.05.2020
3044 Clouds 13 1021 69 0 1.34 244 21:40 17.05.2020
3045 Clouds 14 1021 67 0 1.79 240 21:19 17.05.2020
3046 Clouds 14 1021 63 0 2.68 268 20:55 17.05.2020
3047 Clouds 14 1021 63 0 2.24 248 20:36 17.05.2020
3048 Clouds 15 1021 62 0 2.68 230 20:18 17.05.2020
3049 Clouds 15 1021 60 0 3.13 282 19:42 17.05.2020
3050 Clouds 16 1021 58 0 3.58 259 19:23 17.05.2020
3051 Clouds 16 1021 56 0 3.58 259 18:55 17.05.2020
3052 Clouds 17 1021 56 0 3.58 262 18:37 17.05.2020
3053 Clouds 17 1021 56 0 3.13 257 18:19 17.05.2020
3054 Clouds 18 1021 54 0 3.58 244 17:40 17.05.2020
3055 Clouds 18 1021 54 0 4.47 263 17:21 17.05.2020
3056 Clouds 17 1021 54 0 2.68 338 16:57 17.05.2020
3057 Clouds 18 1021 52 0 4.02 237 16:38 17.05.2020
3058 Clouds 18 1021 52 0 4.02 260 16:19 17.05.2020
3059 Clouds 18 1021 51 0 4.47 232 15:46 17.05.2020
3060 Clouds 17 1021 51 0 4.47 246 15:24 17.05.2020
3061 Clouds 18 1021 50 0 4.47 338 14:58 17.05.2020
3062 Clouds 17 1022 51 0 3.58 232 14:39 17.05.2020
3063 Clouds 17 1022 51 0 4.47 224 14:20 17.05.2020
3064 Clouds 18 1022 52 0 4.02 227 13:42 17.05.2020
3065 Rain 17 1022 55 0 2.68 219 13:21 17.05.2020
3066 Rain 17 1022 55 0 2.68 219 13:21 17.05.2020
3067 Clear 6 1021 91 0 0.89 213 05:25 17.05.2020
3068 Clear 6 1021 88 0 0.89 235 03:53 17.05.2020
3069 Clouds 7 1021 86 0 0.45 236 02:27 17.05.2020
3070 Clouds 7 1021 85 0 1.34 239 01:55 17.05.2020
3071 Clouds 8 1021 85 0 0.89 247 00:53 17.05.2020
3072 Clouds 8 1021 83 0 0.89 245 00:31 17.05.2020
3073 Clouds 9 1020 82 0 0.89 247 23:57 16.05.2020
3074 Clouds 9 1021 81 0 0.89 338 23:39 16.05.2020
3075 Clouds 9 1020 81 0 0.45 261 23:19 16.05.2020
3076 Clouds 9 1020 80 0 0.45 338 22:55 16.05.2020
3077 Clouds 9 1020 80 0 1.34 338 22:36 16.05.2020
3078 Clouds 10 1021 80 0 1.34 274 22:18 16.05.2020
3079 Clouds 10 1020 79 0 0.89 271 21:42 16.05.2020
3080 Clouds 10 1020 78 0 1.79 290 21:23 16.05.2020
3081 Clouds 11 1020 76 0 1.34 306 20:57 16.05.2020
3082 Clouds 11 1020 76 0 1.34 301 20:39 16.05.2020
3083 Clouds 11 1020 75 0 1.79 291 20:20 16.05.2020
3084 Clouds 11 1020 72 0 2.24 289 19:56 16.05.2020
3085 Clouds 12 1020 72 0 1.79 248 19:37 16.05.2020
3086 Clouds 12 1020 73 0 3.13 323 19:19 16.05.2020
3087 Clouds 14 1020 69 0 3.58 311 18:41 16.05.2020
3088 Clouds 14 1020 64 0 2.68 274 18:22 16.05.2020
3089 Clouds 14 1020 64 0 3.58 269 17:55 16.05.2020
3090 Clouds 15 1020 62 0 3.13 281 17:36 16.05.2020
3091 Clouds 15 1020 63 0 3.13 270 17:18 16.05.2020
3092 Clouds 14 1020 61 0 2.24 295 16:39 16.05.2020
3093 Rain 15 1020 62 0 3.13 280 16:20 16.05.2020
3094 Rain 15 1020 66 0 2.68 300 15:55 16.05.2020
3095 Rain 15 1020 65 0 2.68 338 15:37 16.05.2020
3096 Rain 16 1020 59 0 2.68 294 15:18 16.05.2020
3097 Rain 16 1018 63 0 5.05 287 14:42 16.05.2020
3098 Rain 15 1018 60 0 0.45 263 14:20 16.05.2020
3099 Rain 15 1020 62 0 2.24 338 13:57 16.05.2020
3100 Clouds 15 1020 41 10000 7.2 260 13:38 16.05.2020
3101 Rain 16 1020 59 0 2.24 268 13:20 16.05.2020
3102 Rain 16 1020 57 0 2.68 338 12:44 16.05.2020
3103 Clouds 15 1020 61 0 2.68 253 12:20 16.05.2020
3104 Clouds 15 1020 63 0 3.13 252 11:56 16.05.2020
3105 Clouds 15 1020 61 0 3.13 210 11:38 16.05.2020
3106 Clouds 15 1020 61 0 3.13 338 11:19 16.05.2020
3107 Clouds 15 1020 63 0 2.68 255 10:55 16.05.2020
3108 Clouds 14 1020 66 0 2.68 268 10:36 16.05.2020
3109 Clouds 14 1020 68 0 2.68 224 10:18 16.05.2020
3110 Clouds 13 1020 71 0 2.68 338 09:44 16.05.2020
3111 Clouds 12 1020 77 0 2.24 263 09:25 16.05.2020
3112 Clouds 11 1020 84 0 2.68 338 08:43 16.05.2020
3113 Clouds 11 1021 90 0 2.24 189 08:21 16.05.2020
3114 Clouds 8 1021 91 0 0.89 338 07:46 16.05.2020
3115 Clouds 8 1021 91 0 1.79 201 07:27 16.05.2020
3116 Clouds 7 1021 92 0 1.34 201 06:59 16.05.2020
3117 Clouds 6 1021 92 0 1.34 338 06:41 16.05.2020
3118 Clouds 6 1021 92 0 0.89 338 06:18 16.05.2020
3119 Clouds 5 1021 91 0 0.89 224 05:38 16.05.2020
3120 Clear 7 1021 90 0 1.34 229 03:58 16.05.2020
3121 Clear 7 1021 87 0 1.34 221 02:59 16.05.2020
3122 Clear 8 1021 86 0 1.34 237 02:22 16.05.2020
3123 Clear 8 1021 85 0 1.79 227 01:54 16.05.2020
3124 Clear 8 1021 84 0 1.34 232 01:33 16.05.2020
3125 Clear 8 1022 84 0 1.34 215 00:54 16.05.2020
3126 Clear 8 1021 83 0 1.34 224 00:23 16.05.2020
3127 Clear 8 1021 80 0 1.34 224 23:56 15.05.2020
3128 Clear 8 1021 79 0 1.34 234 23:37 15.05.2020
3129 Clear 9 1021 78 0 0.89 251 23:18 15.05.2020
3130 Clear 9 1021 77 0 0.89 253 22:40 15.05.2020
3131 Clear 9 1021 76 0 1.34 241 22:20 15.05.2020
3132 Clear 9 1022 75 0 0.89 267 21:55 15.05.2020
3133 Clear 9 1022 75 0 0.89 267 21:55 15.05.2020
3134 Clear 9 1021 74 0 0.45 268 21:36 15.05.2020
3135 Clear 10 1021 72 0 0.89 277 21:18 15.05.2020
3136 Clear 11 1021 70 0 1.34 253 20:54 15.05.2020
3137 Clear 11 1021 68 0 1.79 269 20:36 15.05.2020
3138 Clouds 11 1021 67 0 1.79 266 20:18 15.05.2020
3139 Clouds 12 1021 67 0 3.13 303 19:42 15.05.2020
3140 Clouds 12 1021 65 0 3.58 310 19:23 15.05.2020
3141 Clouds 13 1021 63 0 2.68 307 18:48 15.05.2020
3142 Clouds 13 1021 60 0 3.13 299 18:28 15.05.2020
3143 Clouds 13 1021 52 0 3.58 338 17:59 15.05.2020
3144 Clouds 14 1021 54 0 3.58 338 17:37 15.05.2020
3145 Clouds 14 1021 55 0 3.13 268 17:18 15.05.2020
3146 Clouds 14 1021 52 0 3.58 240 16:56 15.05.2020
3147 Clouds 14 1021 46 0 3.13 338 16:37 15.05.2020
3148 Clouds 14 1021 50 0 3.58 338 16:18 15.05.2020
3149 Clouds 13 1021 52 0 3.13 294 15:41 15.05.2020
3150 Clouds 14 1021 55 0 3.13 322 15:20 15.05.2020
3151 Clouds 13 1021 53 0 2.68 287 14:57 15.05.2020
3152 Clouds 13 1021 55 0 3.13 295 14:39 15.05.2020
3153 Rain 12 1021 57 0 3.13 316 14:21 15.05.2020
3154 Rain 13 1021 58 0 2.68 246 13:42 15.05.2020
3155 Rain 13 1021 60 0 2.68 338 13:22 15.05.2020
3156 Rain 13 1021 66 0 2.24 338 12:56 15.05.2020
3157 Rain 12 1021 66 0 3.13 282 12:37 15.05.2020
3158 Rain 12 1021 66 0 1.79 338 12:18 15.05.2020
3159 Rain 12 1021 66 0 1.79 338 12:18 15.05.2020
3160 Rain 12 1021 67 0 2.24 320 11:56 15.05.2020
3161 Rain 11 1021 71 0 1.79 315 11:37 15.05.2020
3162 Rain 11 1021 71 0 2.24 285 11:19 15.05.2020
3163 Rain 11 1021 75 0 2.24 319 10:56 15.05.2020
3164 Rain 11 1021 74 0 2.24 314 10:37 15.05.2020
3165 Rain 11 1021 76 0 2.24 284 10:19 15.05.2020
3166 Rain 10 1021 79 0 1.79 254 09:40 15.05.2020
3167 Clear 9 1021 81 0 1.79 221 09:20 15.05.2020
3168 Clear 9 1021 82 0 0.89 230 08:58 15.05.2020
3169 Clear 8 1021 83 0 1.34 221 08:38 15.05.2020
3170 Clear 8 1021 83 0 1.34 221 08:38 15.05.2020
3171 Clear 8 1021 84 0 1.34 226 08:19 15.05.2020
3172 Clear 7 1021 87 0 1.34 338 07:46 15.05.2020
3173 Clear 7 1021 87 0 1.34 338 07:46 15.05.2020
3174 Clear 6 1021 89 0 0.89 255 07:27 15.05.2020
3175 Clear 4 1021 90 0 2.8 270 06:57 15.05.2020
3176 Clear 1 1020 88 0 2.5 275 05:55 15.05.2020
3177 Clear 2 1021 87 0 2.37 283 04:38 15.05.2020
3178 Clear 1 1021 86 0 2.11 284 03:49 15.05.2020
3179 Clear 1 1021 83 0 1.59 288 02:40 15.05.2020
3180 Clear 2 1021 80 0 1.52 274 01:32 15.05.2020
3181 Clear 2 1021 77 0 1.16 282 00:57 15.05.2020
3182 Clear 3 1021 75 0 1.16 282 00:39 15.05.2020
3183 Clear 3 1021 74 0 0.94 315 00:20 15.05.2020
3184 Clear 4 1021 75 0 0.94 315 23:40 14.05.2020
3185 Clear 4 1021 73 0 1.28 343 23:18 14.05.2020
3186 Clear 5 1021 71 0 1.28 343 22:42 14.05.2020
3187 Clear 5 1021 71 0 0.45 1 22:23 14.05.2020
3188 Clear 6 1021 68 0 0.45 2 21:58 14.05.2020
3189 Clear 6 1021 67 0 1.34 6 21:40 14.05.2020
3190 Clouds 7 1021 66 0 1.34 349 21:20 14.05.2020
3191 Clouds 7 1021 66 0 1.34 349 21:20 14.05.2020
3192 Clouds 7 1021 61 0 1.34 338 20:57 14.05.2020
3193 Clouds 8 1021 58 0 1.79 351 20:38 14.05.2020
3194 Clouds 9 1021 59 0 1.79 353 20:19 14.05.2020
3195 Clouds 9 1021 58 0 2.24 8 19:56 14.05.2020
3196 Clouds 10 1021 58 0 2.24 0 19:37 14.05.2020
3197 Clouds 10 1021 55 0 2.68 4 19:19 14.05.2020
3198 Clouds 10 1021 54 0 2.68 352 18:56 14.05.2020
3199 Clouds 11 1021 53 0 2.24 1 18:37 14.05.2020
3200 Clouds 10 1021 57 0 3.13 12 18:19 14.05.2020
3201 Clouds 10 1021 56 0 3.13 26 17:56 14.05.2020
3202 Clouds 11 1021 56 0 2.68 15 17:37 14.05.2020
3203 Clouds 10 1021 57 0 2.68 23 17:18 14.05.2020
3204 Clouds 11 1021 57 0 2.68 357 16:39 14.05.2020
3205 Clouds 10 1021 62 0 3.13 8 16:21 14.05.2020
3206 Clouds 11 1021 61 0 1.79 357 15:59 14.05.2020
3207 Clouds 11 1021 54 0 2.68 12 15:40 14.05.2020
3208 Clouds 11 1021 57 0 3.58 353 15:20 14.05.2020
3209 Clouds 11 1021 53 0 2.68 4 14:56 14.05.2020
3210 Clouds 11 1021 52 0 2.24 12 14:38 14.05.2020
3211 Clouds 11 1021 53 0 2.68 11 14:20 14.05.2020
3212 Clouds 11 1021 53 0 2.68 4 13:57 14.05.2020
3213 Clouds 11 1021 55 0 2.24 338 13:38 14.05.2020
3214 Clouds 11 1021 61 0 2.24 8 13:19 14.05.2020
3215 Clouds 10 1021 59 0 2.24 338 12:57 14.05.2020
3216 Clouds 11 1021 57 0 3.13 357 12:37 14.05.2020
3217 Clouds 11 1021 62 0 2.24 24 12:18 14.05.2020
3218 Clouds 10 1021 71 0 1.79 9 11:56 14.05.2020
3219 Clouds 9 1021 69 0 1.79 13 11:38 14.05.2020
3220 Clouds 9 1021 71 0 2.68 35 11:19 14.05.2020
3221 Clouds 9 1021 78 0 1.79 66 10:44 14.05.2020
3222 Clouds 10 1021 65 0 2.24 8 10:26 14.05.2020
3223 Clouds 9 1020 65 0 2.68 1 09:56 14.05.2020
3224 Clouds 9 1020 54 0 3.13 357 09:38 14.05.2020
3225 Clouds 9 1020 57 0 3.13 3 09:19 14.05.2020
3226 Clouds 8 1020 64 0 2.68 2 08:40 14.05.2020
3227 Clear 8 1020 67 0 2.24 1 08:19 14.05.2020
3228 Clear 8 1020 71 0 2.24 357 07:45 14.05.2020
3229 Clear 7 1020 71 0 2.24 27 07:22 14.05.2020
3230 Clear 6 1020 69 0 1.79 357 06:53 14.05.2020
3231 Clear 6 1020 69 0 1.79 357 06:53 14.05.2020
3232 Clear 5 1019 68 0 2.24 351 06:27 14.05.2020
3233 Clear 5 1019 64 0 2.24 338 05:43 14.05.2020
3234 Clear 5 1019 65 0 2.24 3 05:23 14.05.2020
3235 Clear 5 1019 60 0 2.68 358 04:24 14.05.2020
3236 Clear 5 1018 60 0 2.68 353 03:21 14.05.2020
3237 Clear 6 1018 65 0 3.13 355 02:40 14.05.2020
3238 Clear 6 1018 69 0 2.68 22 01:55 14.05.2020
3239 Clear 6 1017 68 0 3.13 353 01:19 14.05.2020
3240 Clear 6 1017 66 0 3.13 9 00:43 14.05.2020
3241 Clear 6 1017 67 0 3.13 358 00:21 14.05.2020
3242 Clear 6 1017 66 0 4.02 347 23:40 13.05.2020
3243 Clear 6 1016 67 0 3.13 23 23:21 13.05.2020
3244 Clear 6 1016 68 0 3.58 343 22:54 13.05.2020
3245 Clear 7 1016 64 0 3.58 24 22:36 13.05.2020
3246 Clear 7 1016 62 0 3.58 8 22:18 13.05.2020
3247 Clear 7 1016 63 0 2.68 23 21:55 13.05.2020
3248 Clear 7 1016 63 0 3.13 349 21:36 13.05.2020
3249 Clear 7 1015 63 0 3.58 338 21:18 13.05.2020
3250 Clear 8 1015 62 0 3.58 3 20:41 13.05.2020
3251 Clouds 9 1015 57 0 3.58 355 20:22 13.05.2020
3252 Clouds 9 1015 58 0 3.58 329 19:43 13.05.2020
3253 Clouds 10 1014 55 0 4.02 354 19:24 13.05.2020
3254 Clouds 9 1014 53 0 4.02 16 18:56 13.05.2020
3255 Clouds 10 1014 55 0 4.02 18 18:38 13.05.2020
3256 -273 0 0 0 0 0 18:20 13.05.2020
3257 Clouds 10 1014 54 0 4.92 4 18:19 13.05.2020
3258 Clouds 10 1014 54 0 4.92 4 18:19 13.05.2020
3259 Clouds 10 1014 54 0 4.92 4 18:19 13.05.2020
3260 Clouds 11 1014 54 0 4.02 347 17:39 13.05.2020
3261 Clouds 11 1014 50 0 4.02 0 17:19 13.05.2020
3262 Clouds 10 1014 48 0 4.02 11 16:56 13.05.2020
3263 Clouds 10 1014 54 0 4.02 6 16:37 13.05.2020
3264 Clouds 11 1014 53 0 3.58 7 16:18 13.05.2020
3265 Clouds 11 1014 56 0 3.58 14 15:42 13.05.2020
3266 Clouds 11 1014 59 0 4.02 15 15:20 13.05.2020
3267 Clouds 11 1014 56 0 3.58 358 14:57 13.05.2020
3268 Clouds 11 1014 59 0 4.02 347 14:39 13.05.2020
3269 Rain 10 1014 58 0 3.13 23 14:21 13.05.2020
3270 Clouds 10 1014 68 0 3.58 20 13:57 13.05.2020
3271 Clouds 10 1014 65 0 3.58 357 13:39 13.05.2020
3272 Clouds 10 1014 63 0 3.58 15 13:20 13.05.2020
3273 Clouds 10 1014 68 0 4.47 10 12:54 13.05.2020
3274 Clouds 10 1014 66 0 4.92 348 12:36 13.05.2020
3275 Clouds 9 1013 67 0 4.02 8 12:18 13.05.2020
3276 Clouds 9 1013 71 0 4.47 356 11:54 13.05.2020
3277 Clouds 9 1013 72 0 4.02 338 11:36 13.05.2020
3278 Rain 8 1013 73 0 3.58 343 11:18 13.05.2020
3279 Rain 9 1013 77 0 3.58 350 10:54 13.05.2020
3280 Rain 8 1013 77 0 3.58 319 10:36 13.05.2020
3281 Rain 8 1013 79 0 2.24 324 10:18 13.05.2020
3282 Rain 8 1013 90 0 1.79 286 09:41 13.05.2020
3283 Rain 7 1012 91 0 1.79 255 09:22 13.05.2020
3284 Rain 6 1012 91 0 1.34 254 08:43 13.05.2020
3285 Clouds 6 1012 91 0 1.34 237 08:22 13.05.2020
3286 Clouds 6 1012 90 0 0.89 218 07:59 13.05.2020
3287 Clouds 6 1012 90 0 1.34 245 07:39 13.05.2020
3288 Clouds 6 1012 89 0 1.79 224 07:21 13.05.2020
3289 Clouds 5 1012 89 0 1.34 205 06:43 13.05.2020
3290 Clouds 4 1012 90 0 1.34 201 05:59 13.05.2020
3291 Clouds 5 1012 90 0 1.79 197 04:49 13.05.2020
3292 Clouds 4 1013 87 0 1.34 214 03:27 13.05.2020
3293 Clouds 5 1013 86 0 1.34 215 02:32 13.05.2020
3294 Clouds 5 1013 86 0 1.34 229 01:36 13.05.2020
3295 Clouds 6 1013 86 0 1.34 226 00:50 13.05.2020
3296 Clouds 6 1013 85 0 1.79 338 00:20 13.05.2020
3297 Clouds 7 1014 83 0 1.34 259 23:40 12.05.2020
3298 Clouds 7 1012 78 0 3.53 260 23:21 12.05.2020
3299 Clouds 7 1012 78 0 3.53 260 23:21 12.05.2020
3300 Clouds 7 1014 81 0 1.34 212 22:59 12.05.2020
3301 Clouds 7 1014 81 0 0.89 218 22:41 12.05.2020
3302 Clouds 7 1014 81 0 0.45 212 22:21 12.05.2020
3303 Clouds 7 1014 81 0 0.89 213 21:56 12.05.2020
3304 Clouds 8 1014 80 0 0.89 214 21:37 12.05.2020
3305 Clouds 8 1014 80 0 0.89 216 21:19 12.05.2020
3306 Clouds 8 1014 80 0 1.34 338 20:57 12.05.2020
3307 Clouds 8 1014 79 0 0.89 249 20:38 12.05.2020
3308 Clouds 8 1014 78 0 1.34 270 20:20 12.05.2020
3309 Clouds 9 1014 74 0 1.79 262 19:56 12.05.2020
3310 Clouds 9 1014 74 0 1.79 262 19:56 12.05.2020
3311 Clouds 9 1014 74 0 2.24 220 19:38 12.05.2020
3312 Rain 9 1015 73 0 2.24 259 19:20 12.05.2020
3313 Rain 9 1014 74 0 1.79 257 18:55 12.05.2020
3314 Rain 9 1015 75 0 2.24 252 18:36 12.05.2020
3315 Clouds 9 1015 76 0 2.68 250 18:18 12.05.2020
3316 Clouds 9 1015 78 0 2.68 237 17:41 12.05.2020
3317 Rain 9 1015 74 0 4.02 253 17:23 12.05.2020
3318 Rain 10 1015 75 0 3.13 273 16:47 12.05.2020
3319 Rain 11 1015 69 0 3.13 287 16:25 12.05.2020
3320 Rain 11 1015 65 0 2.68 338 15:56 12.05.2020
3321 Rain 10 1015 69 0 2.68 338 15:37 12.05.2020
3322 Rain 10 1015 64 0 3.13 262 15:19 12.05.2020
3323 Rain 11 1016 63 0 3.58 260 14:57 12.05.2020
3324 Rain 10 1016 65 0 4.02 274 14:37 12.05.2020
3325 Rain 10 1016 66 0 3.58 338 14:19 12.05.2020
3326 Rain 10 1016 74 0 2.24 272 13:57 12.05.2020
3327 Rain 9 1016 78 0 3.13 241 13:39 12.05.2020
3328 Rain 9 1016 80 0 2.68 250 13:19 12.05.2020
3329 Rain 9 1016 82 0 2.68 222 12:57 12.05.2020
3330 Rain 9 1017 80 0 3.13 230 12:39 12.05.2020
3331 Rain 9 1017 80 0 3.13 230 12:39 12.05.2020
3332 Rain 9 1017 76 0 3.13 268 12:21 12.05.2020
3333 Rain 11 1017 75 0 4.02 317 11:58 12.05.2020
3334 Rain 10 1017 72 0 3.13 296 11:38 12.05.2020
3335 Rain 10 1017 79 0 3.13 210 11:20 12.05.2020
3336 Rain 9 1017 83 0 2.24 338 10:58 12.05.2020
3337 Rain 9 1017 82 0 3.13 236 10:40 12.05.2020
3338 Rain 9 1017 82 0 3.58 338 10:21 12.05.2020
3339 Rain 9 1018 82 0 2.68 263 09:59 12.05.2020
3340 Rain 9 1017 78 0 2.24 216 09:39 12.05.2020
3341 Clear 9 1017 79 0 2.68 224 09:20 12.05.2020
3342 Clouds 8 1017 76 0 2.24 338 08:54 12.05.2020
3343 Clouds 8 1018 79 0 2.24 216 08:36 12.05.2020
3344 Clouds 7 1018 80 0 1.79 338 08:18 12.05.2020
3345 Clouds 6 1018 84 0 0.89 232 07:41 12.05.2020
3346 Clouds 6 1018 83 0 1.34 338 07:22 12.05.2020
3347 Clouds 5 1018 83 0 1.34 226 06:47 12.05.2020
3348 Clouds 5 1018 84 0 0.89 265 06:27 12.05.2020
3349 Clouds 4 1018 84 0 0.89 258 05:50 12.05.2020
3350 Clouds 5 1018 84 0 0.89 259 05:30 12.05.2020
3351 Clouds 5 1018 75 0 0.89 286 03:27 12.05.2020
3352 Clouds 5 1018 75 0 0.45 338 02:44 12.05.2020
3353 Clouds 5 1018 74 0 0.89 296 02:24 12.05.2020
3354 Clouds 5 1018 73 0 1.34 338 01:27 12.05.2020
3355 Clouds 5 1018 76 0 1.34 338 00:28 12.05.2020
3356 Clouds 6 1018 74 0 0.45 338 23:59 11.05.2020
3357 Clouds 6 1017 73 0 1.34 326 23:40 11.05.2020
3358 Clouds 6 1017 73 0 2.68 338 23:21 11.05.2020
3359 Clouds 6 1017 73 0 2.68 338 23:21 11.05.2020
3360 Clouds 6 1017 73 0 1.34 267 22:59 11.05.2020
3361 Clouds 6 1017 73 0 1.34 267 22:59 11.05.2020
3362 Clouds 6 1017 72 0 2.68 312 22:40 11.05.2020
3363 Clouds 6 1017 71 0 3.58 333 22:20 11.05.2020
3364 Clouds 6 1017 69 0 2.24 354 21:59 11.05.2020
3365 Clouds 7 1017 68 0 3.13 305 21:40 11.05.2020
3366 Clear 7 1016 68 0 3.58 324 21:19 11.05.2020
3367 Clear 7 1016 69 0 2.68 343 20:59 11.05.2020
3368 Clear 7 1016 70 0 2.68 353 20:59 11.05.2020
3369 Clear 8 1016 70 0 2.24 338 20:40 11.05.2020
3370 Clear 8 1016 69 0 4.02 338 20:21 11.05.2020
3371 Clear 9 1016 59 0 3.13 343 19:58 11.05.2020
3372 Clear 9 1016 58 0 4.02 326 19:40 11.05.2020
3373 Clear 9 1016 59 0 4.92 14 19:21 11.05.2020
3374 Clear 9 1016 54 0 4.92 10 18:56 11.05.2020
3375 Clear 10 1016 54 0 5.36 352 18:37 11.05.2020
3376 Clear 11 1015 52 0 4.92 352 18:18 11.05.2020
3377 Clear 11 1015 52 0 4.47 343 17:55 11.05.2020
3378 Clear 10 1015 53 0 5.36 358 17:36 11.05.2020
3379 Clear 11 1015 44 0 4.92 12 17:18 11.05.2020
3380 Clear 11 1015 46 0 5.81 358 16:42 11.05.2020
3381 Clear 10 1015 47 0 5.36 349 16:22 11.05.2020
3382 Clear 10 1015 47 0 5.36 349 16:22 11.05.2020
3383 Clear 11 1015 48 0 5.81 349 15:59 11.05.2020
3384 Clear 11 1015 48 0 6.26 9 15:40 11.05.2020
3385 Clear 11 1015 49 0 4.47 18 15:19 11.05.2020
3386 Clear 11 1015 49 0 4.47 18 15:19 11.05.2020
3387 Clear 11 1015 53 0 5.36 343 14:56 11.05.2020
3388 Clear 11 1015 45 0 5.81 349 14:38 11.05.2020
3389 Clouds 10 1015 57 0 5.36 49 14:19 11.05.2020
3390 Clouds 11 1014 52 0 5.81 356 13:42 11.05.2020
3391 Clouds 9 1014 53 0 6.26 27 13:22 11.05.2020
3392 Clouds 10 1014 56 0 5.81 9 12:59 11.05.2020
3393 Clouds 10 1014 57 0 5.81 30 12:41 11.05.2020
3394 Clouds 9 1014 62 0 5.36 3 12:22 11.05.2020
3395 Clouds 10 1014 63 0 5.36 23 11:57 11.05.2020
3396 Clouds 10 1014 72 0 5.36 8 11:39 11.05.2020
3397 Clouds 10 1014 61 0 5.81 343 11:21 11.05.2020
3398 Clouds 9 1014 60 0 5.81 3 10:57 11.05.2020
3399 Clouds 10 1014 64 0 5.81 333 10:39 11.05.2020
3400 Clouds 9 1014 59 0 5.36 353 10:21 11.05.2020
3401 Clouds 9 1014 59 0 5.36 353 10:20 11.05.2020
3402 Clouds 9 1013 65 0 6.26 18 09:58 11.05.2020
3403 Clouds 8 1013 72 0 6.26 24 09:39 11.05.2020
3404 Clear 8 1013 78 0 5.81 358 09:19 11.05.2020
3405 Clear 8 1014 73 0 7.15 343 08:54 11.05.2020
3406 Clear 8 1013 67 0 4.47 352 08:36 11.05.2020
3407 Clouds 8 1013 67 0 4.47 15 08:18 11.05.2020
3408 Clouds 7 1013 74 0 4.92 3 07:41 11.05.2020
3409 Clouds 7 1013 69 0 4.47 349 07:23 11.05.2020
3410 Clouds 6 1013 67 0 5.36 355 06:40 11.05.2020
3411 Clouds 6 1013 63 0 4.47 351 05:56 11.05.2020
3412 Clouds 7 1013 60 0 5.36 29 05:24 11.05.2020
3413 Clouds 6 1013 58 0 5.36 3 04:24 11.05.2020
3414 Clouds 7 1013 60 0 5.36 4 02:59 11.05.2020
3415 Clouds 7 1013 62 0 5.81 14 02:29 11.05.2020
3416 Clouds 7 1013 62 0 5.81 333 01:34 11.05.2020
3417 Clouds 7 1013 57 0 6.26 19 00:52 11.05.2020
3418 Clouds 7 1012 62 0 5.81 4 00:19 11.05.2020
3419 Clouds 7 1012 64 0 5.36 2 23:43 10.05.2020
3420 Clouds 7 1012 66 0 4.47 355 23:24 10.05.2020
3421 Clouds 7 1012 65 0 6.26 358 22:57 10.05.2020
3422 Clouds 7 1012 67 0 4.92 23 22:38 10.05.2020
3423 Clouds 7 1012 67 0 5.81 26 22:20 10.05.2020
3424 Clouds 8 1012 69 0 5.36 347 21:44 10.05.2020
3425 Clouds 8 1012 69 0 5.36 347 21:44 10.05.2020
3426 Clouds 8 1012 67 0 5.81 20 21:20 10.05.2020
3427 Clouds 8 1011 67 0 5.36 0 20:55 10.05.2020
3428 Clouds 8 1011 68 0 4.92 4 20:37 10.05.2020
3429 Clouds 8 1011 70 0 5.81 8 20:19 10.05.2020
3430 Clouds 9 1010 67 0 5.81 359 19:41 10.05.2020
3431 Clouds 9 1010 70 0 5.81 32 19:22 10.05.2020
3432 Clouds 9 1010 69 0 6.26 8 18:57 10.05.2020
3433 Clouds 9 1010 69 0 6.26 8 18:57 10.05.2020
3434 Clouds 9 1010 70 0 5.81 12 18:37 10.05.2020
3435 Clouds 10 1009 71 0 7.15 355 18:19 10.05.2020
3436 Clouds 10 1009 72 0 7.15 349 17:59 10.05.2020
3437 Clouds 11 1009 75 0 7.6 33 17:40 10.05.2020
3438 Clouds 11 1009 76 0 7.15 10 17:22 10.05.2020
3439 Clouds 11 1009 79 0 6.71 0 16:58 10.05.2020
3440 Clouds 11 1009 79 0 6.71 0 16:40 10.05.2020
3441 Clouds 12 1009 80 0 7.15 4 16:19 10.05.2020
3442 Clouds 12 1009 82 0 5.81 1 15:55 10.05.2020
3443 Clouds 13 1008 84 0 6.26 358 15:36 10.05.2020
3444 Clouds 14 1008 83 0 4.92 5 15:18 10.05.2020
3445 Clouds 15 1008 81 0 4.47 0 14:38 10.05.2020
3446 Clouds 16 1008 80 0 4.02 1 14:20 10.05.2020
3447 Clouds 16 1008 80 0 4.02 1 14:20 10.05.2020
3448 Clouds 16 1008 80 0 4.02 1 14:20 10.05.2020
3449 Clouds 16 1007 77 0 4.92 18 13:59 10.05.2020
3450 Clouds 18 1007 74 0 4.47 343 13:39 10.05.2020
3451 Rain 18 1007 69 0 4.47 31 13:20 10.05.2020
3452 Rain 18 1006 75 0 4.92 13 12:58 10.05.2020
3453 Rain 19 1006 73 0 3.13 356 12:40 10.05.2020
3454 Rain 18 1006 77 0 3.58 2 12:21 10.05.2020
3455 Rain 18 1006 81 0 3.58 15 11:58 10.05.2020
3456 Rain 18 1006 79 0 3.13 353 11:39 10.05.2020
3457 Clouds 18 1006 81 0 3.13 338 11:20 10.05.2020
3458 Clouds 18 1006 76 0 2.68 359 10:48 10.05.2020
3459 Clouds 17 1006 75 0 0.45 357 10:29 10.05.2020
3460 Clouds 16 1006 77 0 0.89 357 09:59 10.05.2020
3461 Clouds 16 1006 79 0 0.45 33 09:40 10.05.2020
3462 Clouds 15 1006 83 0 0.45 29 09:21 10.05.2020
3463 Clouds 14 1006 86 0 0.45 28 08:52 10.05.2020
3464 Clouds 13 1006 87 0 0.45 31 08:24 10.05.2020
3465 Clouds 12 1006 89 0 0.89 43 07:57 10.05.2020
3466 Clouds 11 1006 91 0 0.89 29 07:38 10.05.2020
3467 Clouds 10 1006 91 0 0.45 29 07:19 10.05.2020
3468 Clouds 9 1007 91 0 0.89 29 06:50 10.05.2020
3469 Clouds 9 1007 90 0 0.89 34 06:22 10.05.2020
3470 Clouds 9 1007 89 0 0.45 33 05:43 10.05.2020
3471 Clouds 9 1007 88 0 0.45 34 04:41 10.05.2020
3472 Clouds 9 1007 88 0 0.45 34 04:22 10.05.2020
3473 Clouds 9 1008 87 0 0.45 35 03:43 10.05.2020
3474 Clouds 9 1008 86 0 0.45 27 02:54 10.05.2020
3475 Clouds 10 1009 85 0 0.45 26 02:24 10.05.2020
3476 Clouds 10 1009 84 0 0.45 18 01:44 10.05.2020
3477 Clouds 10 1009 84 0 0.89 18 01:25 10.05.2020
3478 Clouds 10 1009 83 0 0.89 29 00:59 10.05.2020
3479 Clouds 10 1009 83 0 0.89 31 00:39 10.05.2020
3480 Clouds 11 1010 82 0 0.45 36 00:19 10.05.2020
3481 Clouds 12 1010 81 0 0.89 39 23:39 09.05.2020
3482 Clear 12 1008 79 0 2.86 61 23:21 09.05.2020
3483 Clear 12 1010 80 0 0.89 50 22:55 09.05.2020
3484 Clear 12 1011 79 0 0.89 23 22:37 09.05.2020
3485 Clear 13 1011 78 0 0.89 354 22:19 09.05.2020
3486 Clear 13 1011 74 0 1.34 3 21:55 09.05.2020
3487 Clouds 14 1011 73 0 1.34 19 21:37 09.05.2020
3488 Clear 14 1011 71 0 1.79 27 21:19 09.05.2020
3489 Clear 15 1011 69 0 1.34 15 20:55 09.05.2020
3490 Clear 16 1011 69 0 1.79 13 20:36 09.05.2020
3491 Clear 17 1011 68 0 2.68 16 20:18 09.05.2020
3492 Clear 19 1011 61 0 2.68 6 19:40 09.05.2020
3493 Clear 20 1011 60 0 2.68 0 19:20 09.05.2020
3494 Clear 19 1011 58 0 2.68 2 18:58 09.05.2020
3495 Clear 21 1011 51 0 3.58 352 18:40 09.05.2020
3496 Clear 21 1012 51 0 2.68 26 18:18 09.05.2020
3497 Clear 21 1012 51 0 3.58 10 17:44 09.05.2020
3498 Clear 22 1012 49 0 2.68 33 17:23 09.05.2020
3499 Clear 20 1012 52 0 2.68 352 16:55 09.05.2020
3500 Clear 22 1013 53 0 3.13 355 16:37 09.05.2020
3501 Clear 22 1013 50 0 2.24 347 16:18 09.05.2020
3502 Clear 22 1013 54 0 2.68 338 15:40 09.05.2020
3503 Clear 22 1013 54 0 2.68 8 15:21 09.05.2020
3504 Clear 21 1013 57 0 2.68 10 14:43 09.05.2020
3505 Clear 22 1014 50 0 2.24 6 14:20 09.05.2020
3506 Clear 22 1014 48 0 2.24 3 14:00 09.05.2020
3507 Clear 22 1014 47 0 2.24 0 13:41 09.05.2020
3508 Clear 20 1014 51 0 2.24 2 13:22 09.05.2020
3509 Clear 20 1014 51 0 2.68 10 12:58 09.05.2020
3510 Clear 21 1014 46 0 1.34 354 12:39 09.05.2020
3511 Clear 20 1014 47 0 1.34 18 12:39 09.05.2020
3512 Clouds 20 1015 42 10000 1 300 12:21 09.05.2020
3513 Clear 20 1014 56 0 1.34 22 11:44 09.05.2020
3514 Clear 20 1018 55 0 0.89 37 11:20 09.05.2020
3515 Clear 19 1014 52 0 0.45 139 10:54 09.05.2020
3516 Clear 19 1014 56 0 0.45 124 10:36 09.05.2020
3517 Clear 19 1014 64 0 2.24 216 10:18 09.05.2020
3518 Clear 17 1015 63 0 0.45 160 09:42 09.05.2020
3519 Clouds 15 1016 62 10000 1.5 230 09:20 09.05.2020
3520 Clouds 14 1016 62 10000 1.5 230 08:54 09.05.2020
3521 Clouds 14 1016 62 10000 1.5 230 08:54 09.05.2020
3522 Clear 14 1015 73 0 0.45 144 08:35 09.05.2020
3523 Clouds 13 1016 81 0 0.89 132 07:56 09.05.2020
3524 Clouds 11 1016 88 0 1.16 142 07:38 09.05.2020
3525 Clouds 11 1016 88 0 1.52 155 07:20 09.05.2020
3526 Clouds 9 1016 88 0 1.33 158 06:27 09.05.2020
3527 Clouds 9 1016 88 0 0.89 131 05:50 09.05.2020
3528 Clouds 9 1016 88 0 1.03 179 05:20 09.05.2020
3529 Clouds 9 1016 86 0 0.45 135 03:39 09.05.2020
3530 Clouds 9 1016 87 0 0.45 145 02:54 09.05.2020
3531 Clouds 9 1016 88 0 1.34 119 02:30 09.05.2020
3532 Clouds 10 1016 87 0 1.98 157 01:50 09.05.2020
3533 Clouds 10 1016 86 0 1.75 137 01:22 09.05.2020
3534 Clouds 10 1016 84 0 1.75 137 00:43 09.05.2020
3535 Clouds 11 1016 83 0 1.64 121 00:19 09.05.2020
3536 Clouds 11 1016 80 0 1.64 121 23:44 08.05.2020
3537 Clouds 12 1016 79 0 1.55 96 23:25 08.05.2020
3538 Clouds 12 1016 75 0 1.55 96 22:56 08.05.2020
3539 Clouds 13 1016 71 0 1.55 96 22:38 08.05.2020
3540 Clouds 13 1016 70 0 1.7 55 22:19 08.05.2020
3541 Clouds 14 1016 80 0 1.7 55 21:55 08.05.2020
3542 Clouds 15 1017 45 10000 1 30 21:37 08.05.2020
3543 Clouds 16 1017 64 0 0.45 8 21:18 08.05.2020
3544 Clouds 17 1016 63 0 1.95 23 20:56 08.05.2020
3545 Clouds 18 1017 54 0 0.89 8 20:37 08.05.2020
3546 Clouds 18 1017 51 0 1.34 12 20:19 08.05.2020
3547 Clouds 18 1017 51 0 1.34 12 20:19 08.05.2020
3548 Clouds 18 1017 55 0 1.34 359 19:42 08.05.2020
3549 Clouds 18 1017 53 0 1.79 16 19:21 08.05.2020
3550 Clouds 18 1017 51 0 1.79 349 18:50 08.05.2020
3551 Clouds 19 1017 50 0 1.79 11 18:31 08.05.2020
3552 Clouds 21 1017 48 0 1.79 10 17:43 08.05.2020
3553 Clouds 21 1017 40 0 2.24 5 17:21 08.05.2020
3554 Clouds 21 1017 46 0 0.89 7 16:58 08.05.2020
3555 Clouds 19 1015 47 0 1.24 284 16:39 08.05.2020
3556 Clouds 19 1016 47 0 0.45 330 16:21 08.05.2020
3557 Clouds 21 1017 43 0 1.79 73 15:54 08.05.2020
3558 Clouds 19 1019 49 0 0.45 326 15:36 08.05.2020
3559 Clouds 19 1021 57 0 3.13 27 15:18 08.05.2020
3560 Clouds 19 1021 57 0 3.13 27 15:18 08.05.2020
3561 Clouds 19 1018 50 0 0.45 136 14:41 08.05.2020
3562 Clouds 19 1016 41 0 1.83 262 14:20 08.05.2020
3563 Clouds 18 1017 52 0 1.79 248 13:57 08.05.2020
3564 Clouds 19 1016 36 0 1.77 259 13:39 08.05.2020
3565 Clouds 18 1016 36 0 1.98 253 13:19 08.05.2020
3566 Clouds 17 1017 43 0 1.98 253 12:45 08.05.2020
3567 Clouds 17 1019 47 10000 2.1 280 12:24 08.05.2020
3568 Clouds 17 1018 46 0 0.89 253 11:55 08.05.2020
3569 Clouds 16 1018 54 0 1.34 261 11:37 08.05.2020
3570 Clouds 16 1018 56 0 0.89 243 11:18 08.05.2020
3571 Clouds 16 1018 57 0 0.45 338 10:54 08.05.2020
3572 Clouds 16 1018 57 0 0.89 338 10:54 08.05.2020
3573 Clouds 15 1018 61 0 0.45 166 10:36 08.05.2020
3574 Clouds 14 1018 63 0 0.45 229 10:18 08.05.2020
3575 Clouds 13 1018 70 0 0.89 259 09:41 08.05.2020
3576 Clouds 11 1019 81 0 0.45 275 09:19 08.05.2020
3577 Clouds 10 1019 91 0 0.45 277 08:51 08.05.2020
3578 Clouds 9 1019 92 0 0.45 343 08:25 08.05.2020
3579 Clouds 9 1019 93 0 0.45 343 07:55 08.05.2020
3580 Clouds 7 1019 93 0 1.53 255 07:37 08.05.2020
3581 Clouds 6 1019 93 0 1.54 260 07:19 08.05.2020
3582 Clouds 6 1019 93 0 1.54 260 07:19 08.05.2020
3583 -273 0 0 0 0 0 06:39 08.05.2020
3584 Clouds 5 1019 92 0 1.68 267 06:20 08.05.2020
3585 Clouds 6 1019 91 0 1.68 267 05:32 08.05.2020
3586 Clouds 5 1019 90 0 0.96 249 03:23 08.05.2020
3587 Clouds 5 1020 90 0 1.01 231 02:29 08.05.2020
3588 Clouds 6 1020 89 0 0.76 202 01:41 08.05.2020
3589 Clouds 6 1020 89 0 0.8 171 01:21 08.05.2020
3590 Clouds 6 1020 88 0 0.8 171 00:48 08.05.2020
3591 Clouds 6 1020 88 0 0.56 137 00:27 08.05.2020
3592 Clouds 7 1020 87 0 0.56 137 23:57 07.05.2020
3593 Clouds 7 1020 86 0 0.56 137 23:38 07.05.2020
3594 Clouds 7 1020 86 0 0.51 60 23:20 07.05.2020
3595 Clouds 8 1021 84 0 0.51 60 22:42 07.05.2020
3596 Clouds 8 1021 84 0 0.51 60 22:42 07.05.2020
3597 Clouds 9 1021 83 0 1.01 12 22:20 07.05.2020
3598 Clouds 10 1021 81 0 1.01 12 21:57 07.05.2020
3599 Clouds 10 1021 79 0 1.01 12 21:39 07.05.2020
3600 Clouds 11 1021 77 0 1.53 17 21:20 07.05.2020
3601 Clouds 12 1021 76 0 1.25 3 20:58 07.05.2020
3602 Clouds 13 1021 75 0 0.45 343 20:40 07.05.2020
3603 Clouds 13 1021 73 0 0.45 347 20:20 07.05.2020
3604 Clouds 13 1021 73 0 0.45 347 20:20 07.05.2020
3605 Clouds 14 1021 72 0 0.89 333 19:48 07.05.2020
3606 Clouds 14 1021 70 0 1.34 343 19:23 07.05.2020
3607 Clouds 14 1021 68 0 1.79 352 18:59 07.05.2020
3608 Clouds 15 1022 68 0 1.79 2 18:39 07.05.2020
3609 Clouds 16 1022 66 0 1.34 343 18:20 07.05.2020
3610 Clouds 16 1022 61 0 1.79 343 17:42 07.05.2020
3611 Clouds 15 1022 61 0 1.79 343 17:21 07.05.2020
3612 Clouds 17 1022 60 0 2.68 1 16:43 07.05.2020
3613 Clear 15 1023 61 0 2.24 24 16:20 07.05.2020
3614 Clear 17 1023 60 0 2.24 355 15:58 07.05.2020
3615 Clear 16 1023 62 0 2.24 2 15:39 07.05.2020
3616 Clear 17 1023 60 0 2.24 14 15:39 07.05.2020
3617 Clear 15 1023 62 0 2.24 357 15:19 07.05.2020
3618 Clear 17 1023 61 0 2.24 9 14:59 07.05.2020
3619 Clear 16 1023 60 0 2.24 22 14:41 07.05.2020
3620 Clear 16 1024 62 0 2.24 5 14:19 07.05.2020
3621 Clear 16 1024 65 0 2.24 33 13:43 07.05.2020
3622 Clear 16 1024 64 0 1.79 28 13:25 07.05.2020
3623 Clear 16 1024 64 0 1.79 28 13:25 07.05.2020
3624 Clear 14 1024 65 0 1.34 357 12:44 07.05.2020
3625 Clear 14 1024 67 0 1.34 29 12:20 07.05.2020
3626 Clear 14 1024 68 0 1.34 16 11:59 07.05.2020
3627 Clear 14 1024 68 0 1.34 16 11:59 07.05.2020
3628 Clear 13 1024 71 0 0.89 37 11:39 07.05.2020
3629 Clear 13 1024 69 0 0.45 353 11:20 07.05.2020
3630 Clear 12 1024 70 0 0.89 338 10:42 07.05.2020
3631 Clear 12 1024 72 0 0.89 297 10:23 07.05.2020
3632 Clear 11 1024 80 0 1.34 280 09:41 07.05.2020
3633 Clear 10 1024 83 0 1.79 338 09:20 07.05.2020
3634 Clear 10 1025 88 0 1.34 338 08:59 07.05.2020
3635 Clear 9 1025 90 0 1.79 268 08:41 07.05.2020
3636 Clouds 8 1025 91 0 1.34 251 08:21 07.05.2020
3637 Clouds 7 1025 93 0 0.45 338 07:46 07.05.2020
3638 Clouds 6 1025 93 0 0.45 244 07:28 07.05.2020
3639 Clouds 4 1025 92 0 0.89 338 06:56 07.05.2020
3640 Clouds 4 1025 92 0 0.45 338 06:35 07.05.2020
3641 Clouds 3 1025 91 0 0.45 338 05:40 07.05.2020
3642 Clouds 4 1025 90 0 0.45 338 04:26 07.05.2020
3643 Clouds 4 1025 89 0 0.45 303 03:29 07.05.2020
3644 Clouds 4 1025 89 0 2.48 296 02:55 07.05.2020
3645 Clear 5 1025 88 0 0.45 338 02:19 07.05.2020
3646 Clear 5 1025 87 0 0.45 338 01:25 07.05.2020
3647 Clear 5 1025 86 0 2.71 305 00:51 07.05.2020
3648 Clear 5 1026 85 0 2.71 305 00:30 07.05.2020
3649 Clear 6 1026 84 0 2.63 316 23:58 06.05.2020
3650 Clear 6 1025 84 0 2.63 316 23:38 06.05.2020
3651 Clear 6 1026 83 0 2.9 325 23:19 06.05.2020
3652 Clear 7 1026 82 0 2.9 325 22:54 06.05.2020
3653 Clear 7 1026 81 0 0.45 338 22:36 06.05.2020
3654 Clear 7 1026 80 0 0.45 302 22:18 06.05.2020
3655 Clear 7 1026 78 0 0.45 338 21:42 06.05.2020
3656 Clear 8 1026 77 0 0.89 303 21:22 06.05.2020
3657 Clear 9 1026 75 0 0.89 319 20:57 06.05.2020
3658 Clear 9 1026 72 0 1.79 333 20:38 06.05.2020
3659 Clear 10 1026 70 0 1.79 333 20:20 06.05.2020
3660 Clear 11 1026 68 0 2.24 338 19:56 06.05.2020
3661 Clear 11 1026 65 0 1.79 343 19:37 06.05.2020
3662 Clear 12 1026 63 0 2.24 349 19:18 06.05.2020
3663 Clear 12 1026 63 0 2.24 349 19:18 06.05.2020
3664 Clear 12 1026 61 0 2.24 356 18:55 06.05.2020
3665 Clear 12 1026 60 0 2.68 327 18:37 06.05.2020
3666 Clear 13 1026 55 0 2.24 338 18:19 06.05.2020
3667 Clear 14 1026 56 0 2.24 351 17:55 06.05.2020
3668 Clear 13 1026 56 0 1.34 357 17:36 06.05.2020
3669 Clear 13 1026 56 0 1.34 357 17:36 06.05.2020
3670 Clear 14 1026 52 0 2.68 6 17:18 06.05.2020
3671 Clear 14 1026 53 0 2.68 299 16:57 06.05.2020
3672 Clear 14 1026 52 0 2.24 303 16:39 06.05.2020
3673 Clear 14 1026 48 0 2.68 351 16:20 06.05.2020
3674 Clear 14 1026 55 0 2.68 343 15:48 06.05.2020
3675 Clear 14 1026 59 0 2.68 19 15:23 06.05.2020
3676 Clear 14 1026 65 0 3.13 343 14:59 06.05.2020
3677 Clear 14 1026 65 0 2.24 351 14:39 06.05.2020
3678 Clear 14 1026 62 0 2.68 353 14:19 06.05.2020
3679 Clear 14 1026 61 0 2.68 23 13:59 06.05.2020
3680 Clear 13 1026 61 0 2.68 354 13:39 06.05.2020
3681 Clear 14 1026 64 0 2.68 24 13:19 06.05.2020
3682 Clear 14 1026 60 0 3.13 349 12:43 06.05.2020
3683 Clear 14 1026 64 0 2.68 3 12:25 06.05.2020
3684 Clear 13 1026 67 0 2.68 8 11:55 06.05.2020
3685 Clear 13 1026 68 0 1.79 3 11:36 06.05.2020
3686 Clear 12 1025 70 0 1.34 351 11:18 06.05.2020
3687 Clear 12 1025 69 0 1.34 347 10:55 06.05.2020
3688 Clear 12 1025 70 0 0.89 338 10:36 06.05.2020
3689 Clear 12 1025 71 0 1.34 351 10:18 06.05.2020
3690 Clear 11 1026 75 0 1.34 16 09:39 06.05.2020
3691 Clear 9 1026 76 0 1.34 18 09:21 06.05.2020
3692 Clear 9 1026 86 0 0.89 338 08:45 06.05.2020
3693 Clear 8 1026 87 0 0.89 338 08:22 06.05.2020
3694 Clear 8 1026 88 0 0.45 303 07:58 06.05.2020
3695 Clear 5 1026 92 0 0.89 13 07:39 06.05.2020
3696 Clear 4 1026 91 0 1.25 4 07:20 06.05.2020
3697 Clear 3 1025 90 0 1.25 4 06:49 06.05.2020
3698 Clear 2 1025 90 0 1.57 353 06:21 06.05.2020
3699 Clear 2 1025 90 0 1.57 353 05:51 06.05.2020
3700 Clear 2 1025 89 0 1.57 353 05:32 06.05.2020
3701 Clear 2 1025 88 0 1.33 330 04:31 06.05.2020
3702 Clear 3 1025 87 0 1.29 326 03:36 06.05.2020
3703 Clear 3 1025 86 0 1.27 331 02:58 06.05.2020
3704 Clear 3 1025 85 0 1.27 331 02:29 06.05.2020
3705 Clear 3 1025 85 0 1.27 331 02:29 06.05.2020
3706 Clear 4 1025 83 0 1.34 331 01:54 06.05.2020
3707 Clear 4 1025 82 0 1.34 331 01:30 06.05.2020
3708 Clear 5 1025 80 0 1.49 349 00:53 06.05.2020
3709 Clear 5 1025 79 0 0.45 20 00:23 06.05.2020
3710 Clear 6 1024 78 0 0.89 22 23:56 05.05.2020
3711 Clear 6 1024 77 0 0.89 18 23:37 05.05.2020
3712 Clear 6 1024 77 0 1.34 15 23:18 05.05.2020
3713 Clear 7 1024 75 0 0.89 16 22:41 05.05.2020
3714 Clear 7 1024 74 0 1.34 10 22:19 05.05.2020
3715 Clear 7 1023 72 0 1.34 14 21:57 05.05.2020
3716 Clear 8 1023 70 0 1.79 18 21:38 05.05.2020
3717 Clear 8 1023 67 0 2.68 18 21:20 05.05.2020
3718 Clear 9 1023 67 0 2.24 23 20:57 05.05.2020
3719 Clear 10 1023 64 0 2.24 6 20:39 05.05.2020
3720 Clear 10 1023 65 0 2.24 3 20:18 05.05.2020
3721 Clear 11 1023 65 0 2.68 11 19:54 05.05.2020
3722 Clear 10 1023 65 0 3.13 20 19:36 05.05.2020
3723 Clear 12 1023 65 0 3.58 6 19:18 05.05.2020
3724 Clear 12 1023 65 0 3.58 6 19:18 05.05.2020
3725 Clear 11 1023 62 0 3.58 29 18:42 05.05.2020
3726 Clear 13 1023 57 0 2.68 33 18:20 05.05.2020
3727 Clear 13 1023 56 0 3.13 355 17:59 05.05.2020
3728 Clear 13 1023 57 0 3.58 0 17:41 05.05.2020
3729 Clear 13 1023 58 0 2.68 354 17:23 05.05.2020
3730 Clear 13 1023 57 0 3.13 23 16:57 05.05.2020
3731 Clear 13 1023 61 0 3.58 24 16:36 05.05.2020
3732 Clear 12 1023 59 0 3.58 358 16:18 05.05.2020
3733 Clear 12 1023 59 0 3.58 358 16:18 05.05.2020
3734 Clear 12 1023 56 0 2.68 32 15:42 05.05.2020
3735 Clear 13 1023 58 0 3.58 343 15:23 05.05.2020
3736 Clear 13 1023 60 0 3.13 11 14:58 05.05.2020
3737 Clear 12 1023 56 0 3.58 338 14:39 05.05.2020
3738 Clear 12 1023 56 0 3.58 338 14:39 05.05.2020
3739 Clear 12 1023 56 0 3.13 14 14:21 05.05.2020
3740 Clear 12 1023 55 0 2.68 326 13:58 05.05.2020
3741 Clear 12 1023 56 0 3.13 338 13:40 05.05.2020
3742 Clear 12 1023 55 0 3.13 318 13:21 05.05.2020
3743 Clear 12 1023 55 0 3.13 318 13:21 05.05.2020
3744 Clear 12 1023 56 0 2.68 18 12:59 05.05.2020
3745 Clear 12 1023 57 0 2.68 333 12:39 05.05.2020
3746 Clear 11 1023 59 0 3.13 353 12:20 05.05.2020
3747 Clear 11 1023 60 0 3.13 326 11:57 05.05.2020
3748 Clear 11 1022 64 0 3.58 5 11:39 05.05.2020
3749 Clear 11 1022 61 0 3.58 13 11:18 05.05.2020
3750 Clear 11 1022 61 0 3.58 13 11:18 05.05.2020
3751 Clear 10 1022 60 0 3.58 347 10:39 05.05.2020
3752 Clear 10 1022 60 0 3.58 347 10:39 05.05.2020
3753 Clear 10 1022 62 0 3.13 20 10:20 05.05.2020
3754 Clear 10 1022 65 0 2.68 11 09:59 05.05.2020
3755 Clear 10 1022 65 0 2.68 11 09:59 05.05.2020
3756 Clear 9 1022 64 0 3.13 16 09:41 05.05.2020
3757 Clear 10 1022 64 0 2.24 338 09:22 05.05.2020
3758 Clear 9 1022 66 0 2.68 338 08:42 05.05.2020
3759 Clear 8 1022 69 0 1.79 297 08:21 05.05.2020
3760 Clear 8 1022 69 0 2.24 333 07:58 05.05.2020
3761 Clear 6 1022 74 0 0.89 352 07:39 05.05.2020
3762 Clear 6 1022 75 0 1.34 343 07:19 05.05.2020
3763 Clear 4 1022 74 0 0.89 314 06:50 05.05.2020
3764 Clear 4 1022 73 0 1.34 328 06:29 05.05.2020
3765 Clear 4 1022 73 0 1.34 328 06:29 05.05.2020
3766 Clear 4 1022 73 0 1.34 328 06:29 05.05.2020
3767 Clear 4 1022 73 0 1.34 328 06:29 05.05.2020
3768 Clear 4 1022 73 0 1.34 328 06:29 05.05.2020
3769 Clear 5 1022 74 0 1.34 333 05:50 05.05.2020
3770 Clear 6 1022 72 0 1.34 343 04:52 05.05.2020
3771 Clouds 6 1022 71 0 1.34 347 02:28 05.05.2020
3772 Clear 6 1023 70 0 1.79 338 00:54 05.05.2020
3773 Clear 6 1023 70 0 1.34 356 00:28 05.05.2020
3774 Clear 6 1022 69 0 2.24 343 23:48 04.05.2020
3775 Clear 6 1022 71 0 2.24 357 23:25 04.05.2020
3776 Clear 7 1022 69 0 2.68 6 22:58 04.05.2020
3777 Clear 7 1022 70 0 2.68 353 22:40 04.05.2020
3778 Clear 7 1022 70 0 2.68 2 22:21 04.05.2020
3779 Clear 7 1022 69 0 2.68 343 21:57 04.05.2020
3780 Clear 8 1022 69 0 2.68 357 21:37 04.05.2020
3781 Clear 8 1022 69 0 2.68 324 21:19 04.05.2020
3782 Clear 8 1022 69 0 2.68 324 21:19 04.05.2020
3783 Clear 9 1022 69 0 2.68 357 20:41 04.05.2020
3784 Clear 9 1022 69 0 2.68 357 20:41 04.05.2020
3785 Clear 9 1022 69 0 2.68 357 20:41 04.05.2020
3786 Clear 9 1022 69 0 2.68 357 20:41 04.05.2020
3787 Clear 9 1022 69 0 2.68 357 20:41 04.05.2020
3788 Clear 9 1022 66 0 3.58 12 20:20 04.05.2020
3789 Clear 10 1022 66 0 3.58 5 19:56 04.05.2020
3790 Clear 10 1022 68 0 2.68 29 19:37 04.05.2020
3791 Clear 10 1021 67 0 3.13 12 19:18 04.05.2020
3792 Clear 11 1021 66 0 3.13 354 18:39 04.05.2020
3793 Clear 11 1021 66 0 3.13 354 18:39 04.05.2020
3794 Clear 11 1021 68 0 2.68 22 18:20 04.05.2020
3795 Clear 11 1021 67 0 3.58 349 17:56 04.05.2020
3796 Clear 11 1021 63 0 3.13 347 17:38 04.05.2020
3797 Clear 12 1021 62 0 2.68 353 17:20 04.05.2020
3798 Clear 12 1021 63 0 3.13 351 16:56 04.05.2020
3799 Clear 12 1021 64 0 2.68 10 16:37 04.05.2020
3800 Clear 13 1021 62 0 3.58 4 16:19 04.05.2020
3801 Clear 13 1021 62 0 3.58 4 16:19 04.05.2020
3802 Clear 13 1020 59 0 3.13 333 15:40 04.05.2020
3803 Clear 13 1020 64 0 3.13 16 15:22 04.05.2020
3804 Clear 13 1020 61 0 2.68 2 14:53 04.05.2020
3805 Clear 13 1020 61 0 2.68 2 14:53 04.05.2020
3806 Clear 13 1020 61 0 2.68 2 14:53 04.05.2020
3807 Clear 13 1020 61 0 2.68 2 14:53 04.05.2020
3808 Clear 13 1020 61 0 2.68 2 14:53 04.05.2020
3809 Clouds 14 1020 58 0 2.68 359 14:25 04.05.2020
3810 Clouds 14 1020 58 0 2.68 359 14:25 04.05.2020
3811 Clouds 14 1020 58 0 2.68 359 14:25 04.05.2020
3812 Clouds 14 1020 58 0 2.68 359 14:24 04.05.2020
3813 Clouds 13 1020 59 0 3.58 349 13:22 04.05.2020
3814 Clouds 13 1020 59 0 3.58 349 13:22 04.05.2020
3815 Clouds 13 1020 59 0 3.58 349 13:22 04.05.2020
3816 Clouds 13 1020 59 0 3.58 349 13:22 04.05.2020
3817 Clouds 13 1020 59 0 3.58 349 13:22 04.05.2020
3818 Clouds 13 1020 61 0 3.13 359 12:44 04.05.2020
3819 Clouds 13 1020 61 0 3.13 359 12:44 04.05.2020
3820 Clouds 13 1020 61 0 3.13 359 12:44 04.05.2020
3821 Clouds 13 1020 61 0 3.13 359 12:44 04.05.2020
3822 Clouds 12 1019 68 0 2.68 350 11:27 04.05.2020
3823 Clouds 12 1019 68 0 2.68 350 11:27 04.05.2020
3824 Clouds 12 1019 68 0 2.68 350 11:27 04.05.2020
3825 Clouds 12 1019 68 0 2.68 350 11:27 04.05.2020
3826 Clouds 12 1019 68 0 2.68 350 11:27 04.05.2020
3827 Clouds 11 1019 73 0 3.13 22 09:29 04.05.2020
3828 Clouds 8 1019 76 0 2.68 329 07:54 04.05.2020
3829 Clouds 7 1019 81 0 2.24 343 07:34 04.05.2020
3830 Clouds 4 1018 91 0 0.45 36 05:55 04.05.2020
3831 Clouds 4 1018 90 0 2.24 16 04:52 04.05.2020
3832 Clouds 5 1018 86 0 1.83 19 02:57 04.05.2020
3833 Clouds 6 1018 86 0 1.28 27 02:19 04.05.2020
3834 Clouds 7 1018 82 0 0.89 41 00:23 04.05.2020
3835 Clouds 7 1018 82 0 0.89 41 00:23 04.05.2020
3836 Clouds 7 1018 82 0 0.89 41 00:23 04.05.2020
3837 Clouds 8 1018 82 0 0.89 15 23:44 03.05.2020
3838 Clouds 8 1018 80 0 1.34 26 23:24 03.05.2020
3839 Clouds 9 1018 79 0 1.79 5 22:44 03.05.2020
3840 Clouds 9 1018 80 0 1.79 358 22:25 03.05.2020
3841 Clouds 9 1018 79 0 1.34 355 21:57 03.05.2020
3842 Clouds 9 1017 79 0 1.34 353 21:39 03.05.2020
3843 Clouds 9 1017 78 0 1.34 2 21:20 03.05.2020
3844 Clouds 10 1017 78 0 1.34 348 20:46 03.05.2020
3845 Clouds 10 1017 78 0 1.34 348 20:45 03.05.2020
3846 Clouds 10 1017 77 0 1.79 357 20:21 03.05.2020
3847 Clouds 12 1017 76 0 2.24 0 19:50 03.05.2020
3848 Clouds 12 1017 76 0 2.24 0 19:50 03.05.2020
3849 Clouds 12 1017 76 0 2.24 0 19:50 03.05.2020
3850 Clouds 12 1017 76 0 2.24 0 19:50 03.05.2020
3851 Clouds 12 1017 77 0 1.79 4 19:31 03.05.2020
3852 Clouds 13 1017 74 0 2.24 347 19:00 03.05.2020
3853 Clouds 13 1017 74 0 2.24 347 19:00 03.05.2020
3854 Clouds 13 1017 74 0 2.24 347 19:00 03.05.2020
3855 Clouds 13 1017 74 0 2.24 347 18:59 03.05.2020
3856 Clouds 13 1017 70 0 2.24 338 18:38 03.05.2020
3857 Clouds 13 1017 70 0 2.24 338 18:38 03.05.2020
3858 Clouds 13 1017 70 0 2.24 338 18:38 03.05.2020
3859 Clouds 13 1017 70 0 2.24 338 18:38 03.05.2020
3860 Clouds 13 1017 73 0 1.79 4 18:38 03.05.2020
3861 Clouds 14 1017 70 0 2.68 4 18:19 03.05.2020
3862 Clouds 14 1017 70 0 2.68 4 18:19 03.05.2020
3863 Clouds 13 1017 73 0 2.68 7 17:42 03.05.2020
3864 Clouds 14 1017 73 0 3.13 12 17:22 03.05.2020
3865 Clouds 14 1017 69 0 3.13 4 16:54 03.05.2020
3866 Clouds 14 1017 69 0 2.24 289 16:36 03.05.2020
3867 Clouds 14 1017 71 0 1.79 353 16:18 03.05.2020
3868 Clouds 14 1017 64 0 1.34 322 15:54 03.05.2020
3869 Clouds 15 1017 65 0 1.79 308 15:36 03.05.2020
3870 Clouds 13 1017 71 0 1.79 343 15:18 03.05.2020
3871 Clouds 14 1017 72 0 1.79 306 14:41 03.05.2020
3872 Clouds 14 1017 71 0 1.79 265 14:22 03.05.2020
3873 Clouds 14 1017 71 0 1.79 265 14:22 03.05.2020
3874 Clouds 14 1017 70 0 1.79 302 13:56 03.05.2020
3875 Clouds 14 1017 70 0 1.79 302 13:56 03.05.2020
3876 Clouds 14 1017 74 0 1.79 304 13:32 03.05.2020
3877 Clouds 14 1017 74 0 1.79 304 13:32 03.05.2020
3878 Clouds 14 1017 74 0 1.79 304 13:32 03.05.2020
3879 Clouds 13 1017 75 0 1.79 357 13:32 03.05.2020
3880 Clouds 13 1017 75 0 1.79 357 13:32 03.05.2020
3881 Clouds 13 1017 71 0 1.79 293 12:47 03.05.2020
3882 Clouds 13 1017 73 0 2.24 343 12:20 03.05.2020
3883 Clouds 13 1016 73 0 2.24 347 11:57 03.05.2020
3884 Clouds 13 1016 73 0 2.24 347 11:57 03.05.2020
3885 Clouds 13 1016 73 0 2.24 347 11:57 03.05.2020
3886 Clouds 13 1016 77 0 1.79 298 11:39 03.05.2020
3887 Clouds 13 1016 77 0 1.79 298 11:39 03.05.2020
3888 Clouds 12 1016 81 0 1.79 255 11:19 03.05.2020
3889 Clouds 11 1016 81 0 1.79 284 10:49 03.05.2020
3890 Clouds 11 1016 81 0 1.79 284 10:49 03.05.2020
3891 Clouds 11 1016 81 0 1.79 284 10:49 03.05.2020
3892 Clouds 12 1016 83 0 2.24 338 10:01 03.05.2020
3893 Clouds 12 1016 84 0 2.24 290 10:01 03.05.2020
3894 Clouds 12 1016 83 0 2.24 338 10:01 03.05.2020
3895 Clouds 11 1015 87 0 1.34 296 09:39 03.05.2020
3896 Clouds 10 1015 88 0 1.79 263 08:57 03.05.2020
3897 Clouds 10 1015 91 0 1.79 255 08:31 03.05.2020
3898 Clouds 10 1015 91 0 1.79 255 08:31 03.05.2020
3899 Clouds 10 1015 91 0 1.79 264 08:29 03.05.2020
3900 Clouds 9 1015 91 0 1.34 247 07:40 03.05.2020
3901 Clouds 9 1015 91 0 1.34 247 07:40 03.05.2020
3902 Clouds 8 1014 92 0 1.34 230 06:31 03.05.2020
3903 Clear 8 1014 92 0 1.79 241 05:49 03.05.2020
3904 Clear 8 1013 92 0 1.79 210 05:29 03.05.2020
3905 Clear 8 1013 91 0 1.34 220 04:27 03.05.2020
3906 Clear 8 1013 91 0 1.79 220 03:30 03.05.2020
3907 Clear 8 1013 91 0 1.79 213 02:31 03.05.2020
3908 Clear 8 1012 91 0 1.34 212 01:48 03.05.2020
3909 Clear 8 1012 91 0 0.89 213 01:27 03.05.2020
3910 Clear 8 1012 90 0 1.34 338 00:59 03.05.2020
3911 Clear 8 1012 90 0 1.34 338 00:57 03.05.2020
3912 Clear 8 1012 90 0 1.34 338 00:57 03.05.2020
3913 Clear 8 1012 89 0 1.79 233 00:38 03.05.2020
3914 Clear 8 1012 89 0 1.34 219 00:20 03.05.2020
3915 Clear 8 1012 88 0 1.34 226 23:45 02.05.2020
3916 Clear 8 1012 87 0 1.34 223 23:27 02.05.2020
3917 Clear 8 1012 86 0 1.79 338 22:56 02.05.2020
3918 Clear 9 1011 86 0 1.79 338 22:37 02.05.2020
3919 Clouds 9 1011 85 0 1.79 245 22:19 02.05.2020
3920 Clouds 9 1011 85 0 0.89 260 21:40 02.05.2020
3921 Clouds 9 1011 84 0 1.79 338 21:20 02.05.2020
3922 Clouds 9 1011 84 0 1.79 338 21:20 02.05.2020
3923 Clouds 10 1010 83 0 1.79 338 20:58 02.05.2020
3924 Clouds 10 1010 80 0 1.79 284 20:38 02.05.2020
3925 Clouds 11 1010 78 0 2.24 260 20:20 02.05.2020
3926 Clouds 11 1010 77 0 2.68 338 19:58 02.05.2020
3927 Clouds 11 1010 78 0 1.79 247 19:39 02.05.2020
3928 Clear 11 1010 77 0 2.24 280 19:20 02.05.2020
3929 Clear 11 1009 77 0 2.68 316 18:56 02.05.2020
3930 Clear 11 1009 76 0 3.58 293 18:38 02.05.2020
3931 Clear 12 1009 76 0 3.13 296 18:19 02.05.2020
3932 Clear 12 1009 77 0 3.13 338 17:56 02.05.2020
3933 Clear 12 1008 74 0 3.58 268 17:38 02.05.2020
3934 Clear 12 1008 73 0 3.58 262 17:19 02.05.2020
3935 Clear 13 1008 71 0 4.02 292 16:44 02.05.2020
3936 Rain 13 1008 71 0 4.02 338 16:26 02.05.2020
3937 Rain 13 1007 73 0 3.58 316 15:56 02.05.2020
3938 Rain 13 1007 76 0 3.58 278 15:38 02.05.2020
3939 Rain 12 1007 77 0 3.13 271 15:19 02.05.2020
3940 Rain 12 1007 77 0 3.13 271 15:19 02.05.2020
3941 Rain 12 1006 77 0 3.58 300 14:42 02.05.2020
3942 Rain 12 1006 75 0 3.13 274 14:24 02.05.2020
3943 Rain 11 1006 75 0 3.13 343 13:58 02.05.2020
3944 Rain 12 1005 71 0 3.58 287 13:39 02.05.2020
3945 Rain 12 1005 75 0 3.58 267 13:19 02.05.2020
3946 Rain 13 1005 74 0 3.58 252 12:41 02.05.2020
3947 Rain 12 1004 77 0 3.13 338 12:21 02.05.2020
3948 Rain 11 1004 78 0 3.58 245 11:57 02.05.2020
3949 Rain 11 1004 81 0 3.13 249 11:39 02.05.2020
3950 Rain 11 1004 84 0 3.58 235 11:20 02.05.2020
3951 Rain 11 1004 87 0 3.58 256 10:54 02.05.2020
3952 Rain 11 1004 87 0 2.24 235 10:36 02.05.2020
3953 Rain 10 1004 88 0 1.79 265 10:18 02.05.2020
3954 Rain 11 1003 85 0 3.58 241 09:54 02.05.2020
3955 Rain 10 1003 83 0 2.68 338 09:36 02.05.2020
3956 Rain 10 1003 85 0 2.68 338 09:18 02.05.2020
3957 Rain 9 1003 89 0 1.79 224 08:41 02.05.2020
3958 Clouds 9 1002 88 0 1.34 240 08:22 02.05.2020
3959 Clouds 9 1002 90 0 1.79 229 07:46 02.05.2020
3960 Clouds 8 1002 90 0 1.34 235 07:27 02.05.2020
3961 Clouds 8 1002 90 0 1.34 235 07:27 02.05.2020
3962 Clouds 8 1002 90 0 1.34 237 06:47 02.05.2020
3963 Clouds 8 1001 88 0 1.79 338 05:28 02.05.2020
3964 Clouds 8 1001 88 0 2.24 240 04:37 02.05.2020
3965 Clear 8 1001 89 0 2.24 237 03:59 02.05.2020
3966 Clear 8 1000 89 0 2.68 338 02:43 02.05.2020
3967 Clouds 8 1000 89 0 2.68 231 02:19 02.05.2020
3968 Clear 9 999 87 0 2.68 205 01:33 02.05.2020
3969 Clouds 9 999 85 0 2.68 338 00:45 02.05.2020
3970 Clouds 9 999 84 0 2.68 243 00:24 02.05.2020
3971 Clouds 9 999 84 0 3.13 248 23:57 01.05.2020
3972 Clouds 9 999 85 0 2.68 239 23:38 01.05.2020
3973 Clouds 9 999 86 0 2.68 203 23:19 01.05.2020
3974 Clouds 9 999 87 0 2.24 223 22:54 01.05.2020
3975 Clouds 9 999 86 0 1.79 197 22:36 01.05.2020
3976 Clear 9 998 85 0 1.79 209 22:18 01.05.2020
3977 Clear 9 999 85 0 1.79 209 21:54 01.05.2020
3978 Clear 9 998 85 0 1.79 338 21:36 01.05.2020
3979 Clear 9 998 85 0 1.79 203 21:18 01.05.2020
3980 Clear 9 998 85 0 1.79 203 20:54 01.05.2020
3981 Clear 9 998 84 0 1.79 215 20:36 01.05.2020
3982 Rain 9 998 83 0 2.68 253 20:18 01.05.2020
3983 Rain 9 998 82 0 2.24 254 19:41 01.05.2020
3984 Rain 9 998 82 0 2.24 207 19:22 01.05.2020
3985 Rain 9 997 82 0 2.68 226 18:57 01.05.2020
3986 Rain 10 997 79 0 2.24 270 18:38 01.05.2020
3987 Rain 11 997 80 0 1.79 338 18:19 01.05.2020
3988 Rain 10 997 84 0 1.34 250 17:56 01.05.2020
3989 Rain 11 997 83 0 2.68 249 17:37 01.05.2020
3990 Rain 11 997 87 0 2.68 203 17:19 01.05.2020
3991 Rain 11 997 86 0 1.34 338 16:55 01.05.2020
3992 Rain 11 997 86 0 0.89 191 16:37 01.05.2020
3993 Rain 12 997 81 0 2.24 225 16:18 01.05.2020
3994 Rain 12 997 80 0 3.58 338 15:42 01.05.2020
3995 Rain 9 997 82 0 3.58 212 15:24 01.05.2020
3996 Rain 9 997 88 0 2.24 226 14:58 01.05.2020
3997 Rain 9 997 88 0 2.68 185 14:39 01.05.2020
3998 Rain 9 997 88 0 3.13 338 14:39 01.05.2020
3999 Rain 9 997 88 0 3.13 170 14:20 01.05.2020
4000 Rain 10 997 84 0 4.47 338 13:41 01.05.2020
4001 Rain 10 997 84 0 4.47 338 13:41 01.05.2020
4002 Rain 10 996 87 0 2.24 230 13:22 01.05.2020
4003 Rain 11 996 87 0 3.58 170 12:58 01.05.2020
4004 Rain 11 996 88 0 2.68 185 12:39 01.05.2020
4005 Rain 12 997 75 0 4.92 182 12:19 01.05.2020
4006 Rain 13 996 71 0 4.47 205 11:58 01.05.2020
4007 Rain 12 996 72 0 4.02 194 11:39 01.05.2020
4008 Rain 13 996 75 0 3.58 247 11:19 01.05.2020
4009 Rain 11 996 81 0 3.58 232 10:41 01.05.2020
4010 Clouds 11 997 85 0 3.58 160 10:20 01.05.2020
4011 Clouds 11 997 89 0 3.13 338 09:59 01.05.2020
4012 Clouds 10 997 91 0 3.13 185 09:41 01.05.2020
4013 Clouds 9 997 92 0 2.24 169 09:18 01.05.2020
4014 Clouds 9 997 91 0 1.79 168 08:43 01.05.2020
4015 Clouds 8 997 91 0 2.24 155 08:25 01.05.2020
4016 Clouds 8 997 89 0 3.13 205 07:55 01.05.2020
4017 Clouds 9 997 87 0 4.47 253 07:37 01.05.2020
4018 Clouds 8 997 88 0 3.13 224 06:58 01.05.2020
4019 Clouds 8 996 88 0 2.24 168 05:48 01.05.2020
4020 Clouds 8 996 86 0 3.13 338 05:21 01.05.2020
4021 Rain 9 996 81 0 3.13 186 03:43 01.05.2020
4022 Clouds 9 996 84 0 3.13 145 02:52 01.05.2020
4023 Clouds 9 996 84 0 2.68 338 02:34 01.05.2020
4024 Rain 9 996 81 0 2.24 141 01:47 01.05.2020
4025 Rain 9 996 80 0 1.79 157 01:27 01.05.2020
4026 Rain 9 997 77 0 2.24 168 00:40 01.05.2020
4027 Clouds 9 997 75 0 1.79 159 00:21 01.05.2020
4028 Clouds 9 997 73 0 3.13 158 23:57 30.04.2020
4029 Clouds 9 997 72 0 2.68 172 23:39 30.04.2020
4030 Clouds 9 997 71 0 2.24 183 23:20 30.04.2020
4031 Clouds 9 997 69 0 2.24 338 22:56 30.04.2020
4032 Clouds 9 998 67 0 2.68 173 22:38 30.04.2020
4033 Clouds 9 998 66 0 2.24 182 22:18 30.04.2020
4034 Clouds 10 998 65 0 0.89 338 21:42 30.04.2020
4035 Clouds 11 998 63 0 0.89 158 21:22 30.04.2020
4036 Clouds 12 998 61 0 1.34 163 20:58 30.04.2020
4037 Clouds 13 998 61 0 0.89 169 20:40 30.04.2020
4038 Rain 14 998 58 0 1.34 338 20:18 30.04.2020
4039 Rain 14 997 54 0 1.79 338 19:47 30.04.2020
4040 Rain 15 998 55 0 1.79 166 19:26 30.04.2020
4041 Rain 15 998 55 0 1.79 145 18:59 30.04.2020
4042 Rain 16 998 51 0 2.24 174 18:39 30.04.2020
4043 Rain 16 998 54 0 1.79 181 18:21 30.04.2020
4044 Rain 16 998 51 0 1.79 338 17:59 30.04.2020
4045 Rain 16 998 54 0 2.24 180 17:40 30.04.2020
4046 Rain 16 998 52 0 2.24 338 17:21 30.04.2020
4047 Rain 16 998 50 0 2.68 222 16:57 30.04.2020
4048 Rain 16 998 51 0 3.58 338 16:38 30.04.2020
4049 Clear 16 998 53 0 3.58 338 16:19 30.04.2020
4050 Clear 15 999 58 0 3.58 220 15:48 30.04.2020
4051 Rain 15 999 56 0 4.47 214 15:25 30.04.2020
4052 Rain 15 999 54 0 5.36 338 14:58 30.04.2020
4053 Rain 15 999 54 0 4.02 284 14:39 30.04.2020
4054 Rain 14 999 51 0 4.92 213 14:19 30.04.2020
4055 Rain 14 998 62 0 4.47 200 13:56 30.04.2020
4056 Rain 14 998 63 0 3.58 234 13:38 30.04.2020
4057 Rain 13 998 66 0 4.02 257 13:19 30.04.2020
4058 Rain 11 998 78 0 5.36 209 12:41 30.04.2020
4059 Rain 11 998 86 0 4.02 244 12:21 30.04.2020
4060 Rain 12 997 80 0 3.58 163 11:58 30.04.2020
4061 Rain 12 997 84 0 2.68 196 11:37 30.04.2020
4062 Rain 11 997 83 0 3.58 189 11:18 30.04.2020
4063 Rain 11 998 86 0 3.58 206 10:54 30.04.2020
4064 Rain 11 998 88 0 2.68 184 10:36 30.04.2020
4065 Rain 11 998 88 0 2.24 207 10:18 30.04.2020
4066 Rain 11 998 84 0 4.02 206 09:41 30.04.2020
4067 Clouds 11 998 86 0 3.58 211 09:22 30.04.2020
4068 Clouds 10 998 90 0 3.13 192 08:49 30.04.2020
4069 Clouds 10 998 91 0 2.68 172 08:27 30.04.2020
4070 Clouds 9 998 91 0 2.68 172 07:58 30.04.2020
4071 Clouds 9 998 91 0 2.68 172 07:58 30.04.2020
4072 Clouds 9 998 90 0 2.24 168 07:40 30.04.2020
4073 Rain 8 998 90 0 2.24 182 07:21 30.04.2020
4074 Rain 8 998 90 0 2.24 170 06:39 30.04.2020
4075 Rain 8 998 90 0 2.24 174 05:49 30.04.2020
4076 Clouds 8 998 90 0 2.24 176 05:27 30.04.2020
4077 Clouds 8 999 90 0 1.79 338 04:30 30.04.2020
4078 Rain 10 999 87 0 4.92 189 02:59 30.04.2020
4079 Rain 10 999 91 0 3.13 175 02:29 30.04.2020
4080 Rain 10 999 91 0 2.24 110 01:56 30.04.2020
4081 Rain 10 1000 90 0 2.68 144 01:20 30.04.2020
4082 Rain 10 1000 88 0 2.24 338 00:40 30.04.2020
4083 Clouds 10 1001 87 0 2.24 107 00:18 30.04.2020
4084 Clouds 10 1001 85 0 1.79 93 23:54 29.04.2020
4085 Clouds 10 1001 84 0 2.68 114 23:36 29.04.2020
4086 Clouds 9 1001 84 0 2.24 128 23:18 29.04.2020
4087 Clouds 8 1002 89 0 0.89 92 22:39 29.04.2020
4088 Clouds 8 1002 88 0 0.45 186 22:20 29.04.2020
4089 Clouds 8 1002 87 0 0.45 188 21:56 29.04.2020
4090 Clouds 8 1002 85 0 2.47 89 21:36 29.04.2020
4091 Clouds 9 1002 82 0 1.73 23 21:18 29.04.2020
4092 Clouds 11 1002 79 0 1.73 23 20:40 29.04.2020
4093 Clouds 11 1003 76 0 0.89 235 20:20 29.04.2020
4094 Clouds 12 1003 74 0 1.34 228 19:58 29.04.2020
4095 Clouds 12 1003 73 0 1.79 222 19:40 29.04.2020
4096 Clouds 13 1003 77 0 1.79 251 19:20 29.04.2020
4097 Clouds 12 1003 79 0 3.58 222 18:43 29.04.2020
4098 Rain 12 1003 82 0 2.24 338 18:25 29.04.2020
4099 Rain 12 1003 83 0 2.68 266 17:57 29.04.2020
4100 Rain 12 1003 83 0 2.68 235 17:39 29.04.2020
4101 Rain 12 1003 83 0 2.68 241 17:21 29.04.2020
4102 Rain 12 1003 82 0 3.13 338 16:39 29.04.2020
4103 Rain 12 1003 82 0 3.13 338 16:39 29.04.2020
4104 Rain 12 1003 84 0 2.68 240 16:19 29.04.2020
4105 Rain 12 1003 86 0 1.79 255 15:57 29.04.2020
4106 Rain 12 1003 86 0 2.24 338 15:39 29.04.2020
4107 Rain 12 1003 86 0 2.24 252 15:21 29.04.2020
4108 Rain 12 1003 87 0 1.79 253 14:57 29.04.2020
4109 Rain 12 1003 88 0 1.79 224 14:39 29.04.2020
4110 Clouds 12 1003 89 0 1.79 255 14:20 29.04.2020
4111 Clouds 11 1003 90 0 1.34 245 13:42 29.04.2020
4112 Rain 11 1003 91 0 0.89 192 13:20 29.04.2020
4113 Rain 11 1003 91 0 0.89 191 12:59 29.04.2020
4114 Rain 11 1003 91 0 0.89 187 12:40 29.04.2020
4115 Rain 10 1003 92 0 0.45 116 12:19 29.04.2020
4116 Rain 10 1003 92 0 2.33 215 11:58 29.04.2020
4117 Rain 10 1003 92 0 0.45 104 11:36 29.04.2020
4118 Rain 10 1003 92 0 2.18 186 11:18 29.04.2020
4119 Rain 9 1003 92 0 2.18 186 10:38 29.04.2020
4120 Rain 9 1003 92 0 0.45 104 10:19 29.04.2020
4121 Rain 9 1003 92 0 0.45 106 09:58 29.04.2020
4122 Rain 9 1003 92 0 0.89 105 09:40 29.04.2020
4123 Rain 9 1003 92 0 0.45 100 09:18 29.04.2020
4124 Rain 8 1003 92 0 0.45 99 08:43 29.04.2020
4125 Rain 8 1003 92 0 0.45 338 08:24 29.04.2020
4126 Rain 8 1003 92 0 0.89 99 07:50 29.04.2020
4127 Clouds 8 1003 92 0 0.45 99 07:27 29.04.2020
4128 Clouds 8 1003 92 0 0.89 112 06:52 29.04.2020
4129 Clouds 7 1003 93 0 0.45 86 06:31 29.04.2020
4130 Clouds 7 1003 93 0 0.89 24 05:42 29.04.2020
4131 Clouds 7 1003 93 0 0.89 34 05:18 29.04.2020
4132 Clouds 7 1003 93 0 0.89 24 04:19 29.04.2020
4133 Clouds 7 1004 93 0 1.79 49 02:56 29.04.2020
4134 Rain 7 1004 93 0 1.79 5 01:47 29.04.2020
4135 Rain 7 1004 93 0 1.79 4 01:27 29.04.2020
4136 Rain 7 1004 92 0 1.79 20 00:55 29.04.2020
4137 Rain 7 1004 92 0 1.34 6 00:36 29.04.2020
4138 Rain 7 1004 92 0 1.34 16 00:18 29.04.2020
4139 Rain 7 1004 91 0 1.34 47 23:43 28.04.2020
4140 Rain 7 1004 91 0 1.79 45 23:20 28.04.2020
4141 Rain 7 1004 90 0 1.34 35 22:39 28.04.2020
4142 Rain 7 1005 90 0 2.24 347 22:20 28.04.2020
4143 Rain 7 1005 89 0 2.24 30 21:59 28.04.2020
4144 Rain 7 1004 87 0 2.68 356 21:40 28.04.2020
4145 Rain 7 1004 87 0 2.68 356 21:40 28.04.2020
4146 Rain 7 1004 86 0 3.13 15 21:22 28.04.2020
4147 Rain 7 1004 85 0 2.68 4 20:59 28.04.2020
4148 Rain 7 1004 84 0 2.24 24 20:40 28.04.2020
4149 Rain 7 1004 84 0 2.24 24 20:40 28.04.2020
4150 Rain 8 1004 81 0 3.13 2 20:20 28.04.2020
4151 Rain 8 1004 81 0 3.13 5 19:56 28.04.2020
4152 Rain 8 1003 82 0 2.68 357 19:38 28.04.2020
4153 Rain 8 1004 84 0 2.68 22 19:19 28.04.2020
4154 Rain 8 1004 84 0 2.68 22 19:19 28.04.2020
4155 Rain 8 1004 85 0 2.68 5 18:57 28.04.2020
4156 Rain 9 1004 84 0 1.79 35 18:37 28.04.2020
4157 Rain 9 1004 84 0 1.79 35 18:37 28.04.2020
4158 Rain 9 1004 83 0 1.79 1 18:18 28.04.2020
4159 Rain 10 1005 83 0 1.34 56 17:37 28.04.2020
4160 Rain 10 1004 82 0 1.79 68 17:19 28.04.2020
4161 Rain 10 1004 78 0 2.24 64 16:58 28.04.2020
4162 Rain 10 1005 73 0 1.34 8 16:39 28.04.2020
4163 Rain 10 1005 73 0 1.34 29 16:21 28.04.2020
4164 Rain 11 1005 78 0 2.24 22 15:56 28.04.2020
4165 Rain 10 1005 80 0 2.24 30 15:38 28.04.2020
4166 Clouds 10 1005 81 0 2.24 58 15:20 28.04.2020
4167 Clouds 10 1005 82 0 2.24 29 14:55 28.04.2020
4168 Rain 10 1005 82 0 2.24 16 14:37 28.04.2020
4169 Clouds 10 1005 79 0 3.13 4 14:18 28.04.2020
4170 Clouds 11 1005 78 0 3.13 10 13:56 28.04.2020
4171 Clouds 11 1005 75 0 2.68 355 13:37 28.04.2020
4172 Clouds 11 1005 75 0 2.68 24 13:19 28.04.2020
4173 Clouds 13 1006 72 0 2.68 351 12:43 28.04.2020
4174 Clouds 13 1005 69 0 2.24 0 12:23 28.04.2020
4175 Clouds 12 1006 69 0 2.68 358 11:43 28.04.2020
4176 Clouds 12 1006 73 0 1.79 6 11:23 28.04.2020
4177 Clouds 12 1006 73 0 1.34 18 10:58 28.04.2020
4178 Clouds 12 1006 76 0 1.79 114 10:38 28.04.2020
4179 Clouds 12 1006 76 0 1.79 114 10:38 28.04.2020
4180 Clouds 11 1006 76 0 1.79 25 10:19 28.04.2020
4181 Clouds 11 1006 76 0 1.79 7 09:55 28.04.2020
4182 Clouds 10 1006 76 0 1.34 21 09:37 28.04.2020
4183 Clouds 10 1006 76 0 1.79 355 09:18 28.04.2020
4184 Clouds 9 1006 80 0 1.34 14 08:40 28.04.2020
4185 Clouds 9 1006 81 0 1.34 17 08:22 28.04.2020
4186 Clouds 8 1006 82 0 1.79 28 07:44 28.04.2020
4187 Clouds 8 1006 82 0 1.79 28 07:44 28.04.2020
4188 Clouds 8 1006 82 0 1.79 28 07:44 28.04.2020
4189 Clouds 7 1006 83 0 1.34 8 07:19 28.04.2020
4190 Clouds 7 1006 83 0 1.34 47 06:44 28.04.2020
4191 Clouds 8 1006 85 0 0.89 31 05:57 28.04.2020
4192 Clouds 8 1006 84 0 0.89 22 05:38 28.04.2020
4193 Clouds 8 1006 84 0 1.34 21 04:39 28.04.2020
4194 Clouds 9 1006 83 0 1.79 348 02:59 28.04.2020
4195 Clouds 9 1006 84 0 1.34 4 02:27 28.04.2020
4196 Clouds 9 1006 84 0 1.79 0 01:23 28.04.2020
4197 Clouds 9 1006 85 0 1.79 333 00:51 28.04.2020
4198 Clouds 10 1006 87 0 1.79 338 00:20 28.04.2020
4199 Clouds 10 1006 88 0 1.79 318 23:45 27.04.2020
4200 Clouds 9 1006 88 0 1.34 321 23:23 27.04.2020
4201 Clouds 9 1006 88 0 1.34 321 23:23 27.04.2020
4202 Clouds 10 1006 87 0 1.34 338 22:55 27.04.2020
4203 Clouds 10 1006 86 0 1.34 293 22:37 27.04.2020
4204 Clouds 10 1006 84 0 1.34 288 22:18 27.04.2020
4205 Clouds 10 1006 83 0 1.34 338 21:56 27.04.2020
4206 Clouds 11 1006 82 0 1.34 338 21:38 27.04.2020
4207 Clouds 11 1006 80 0 2.24 295 21:18 27.04.2020
4208 Clouds 12 1005 75 0 2.24 289 20:43 27.04.2020
4209 Clouds 13 1005 73 0 1.34 309 20:22 27.04.2020
4210 Clouds 13 1005 73 0 1.34 309 20:22 27.04.2020
4211 Clouds 14 1005 68 0 2.24 338 19:58 27.04.2020
4212 Clouds 15 1005 63 0 1.79 291 19:39 27.04.2020
4213 Clear 16 1005 59 0 2.24 338 19:20 27.04.2020
4214 Clear 16 1005 58 0 1.79 338 18:58 27.04.2020
4215 Clear 17 1005 55 0 2.24 303 18:40 27.04.2020
4216 Clear 17 1005 55 0 1.34 328 18:19 27.04.2020
4217 Clear 17 1005 55 0 1.34 328 18:19 27.04.2020
4218 Clear 19 1005 52 0 2.68 358 17:44 27.04.2020
4219 Clear 17 1005 52 0 2.24 338 17:24 27.04.2020
4220 Clear 17 1005 48 0 2.24 353 17:00 27.04.2020
4221 Clear 18 1006 37 0 1.34 303 16:40 27.04.2020
4222 Clear 18 1005 44 0 1.34 347 16:21 27.04.2020
4223 Clear 18 1004 46 0 5.36 221 15:57 27.04.2020
4224 Clear 19 1003 35 0 0.45 239 15:38 27.04.2020
4225 Clouds 20 1005 38 0 2.24 186 15:19 27.04.2020
4226 Clouds 20 1006 38 0 3.13 221 14:56 27.04.2020
4227 Clouds 19 1006 38 0 2.24 338 14:38 27.04.2020
4228 Clouds 19 1006 37 0 2.68 198 14:18 27.04.2020
4229 Clouds 19 1006 40 0 2.68 252 13:42 27.04.2020
4230 Clouds 19 1006 41 0 2.24 338 13:21 27.04.2020
4231 Clouds 19 1006 44 0 3.13 212 12:58 27.04.2020
4232 Clouds 18 1007 43 0 2.24 197 12:40 27.04.2020
4233 Clouds 17 1005 58 0 3.13 254 12:20 27.04.2020
4234 Clouds 17 1007 49 0 1.79 239 11:41 27.04.2020
4235 Clouds 16 1005 49 0 0.45 93 11:22 27.04.2020
4236 Clouds 16 1007 57 0 2.24 232 10:58 27.04.2020
4237 Clouds 16 1007 59 0 1.34 338 10:39 27.04.2020
4238 Clouds 15 1007 58 0 2.68 222 10:21 27.04.2020
4239 Clouds 14 1007 63 0 1.79 202 09:54 27.04.2020
4240 Clouds 12 1007 69 0 1.34 206 09:36 27.04.2020
4241 Clouds 10 1008 70 10000 1.5 200 09:18 27.04.2020
4242 Clouds 9 1008 80 0 1.34 168 08:43 27.04.2020
4243 Clouds 5 1008 87 0 1.34 168 08:25 27.04.2020
4244 Clouds 5 1008 87 0 1.34 168 07:44 27.04.2020
4245 Clouds 5 1008 87 0 1.34 168 07:22 27.04.2020
4246 Clouds 4 1008 88 0 1.34 168 06:57 27.04.2020
4247 Clear 4 1008 87 0 4.03 183 06:27 27.04.2020
4248 Clear 4 1008 87 0 0.89 153 05:50 27.04.2020
4249 Clear 4 1009 86 0 0.89 151 04:55 27.04.2020
4250 Clear 4 1009 86 0 0.89 152 04:36 27.04.2020
4251 Clear 4 1009 84 0 1.34 153 03:43 27.04.2020
4252 Clear 5 1010 82 0 1.34 147 01:45 27.04.2020
4253 Clear 5 1010 81 0 0.45 116 01:19 27.04.2020
4254 Clear 6 1010 80 0 1.79 122 00:21 27.04.2020
4255 Clear 6 1010 81 0 1.34 110 23:59 26.04.2020
4256 Clear 6 1010 81 0 0.89 338 23:41 26.04.2020
4257 Clear 6 1010 81 0 0.45 73 23:22 26.04.2020
4258 Clear 6 1010 80 0 0.45 33 22:59 26.04.2020
4259 Clear 6 1010 80 0 0.45 34 22:40 26.04.2020
4260 Clear 6 1010 80 0 0.45 34 22:40 26.04.2020
4261 Clear 7 1010 80 0 0.45 3 22:21 26.04.2020
4262 Clear 7 1010 78 0 0.45 0 21:58 26.04.2020
4263 Clear 9 1010 75 0 0.45 0 21:39 26.04.2020
4264 Clear 9 1010 74 0 0.45 358 21:19 26.04.2020
4265 Clear 9 1010 74 0 0.45 358 21:19 26.04.2020
4266 Clear 9 1010 74 0 0.45 358 21:19 26.04.2020
4267 Clear 10 1010 72 0 0.45 358 20:55 26.04.2020
4268 Clear 10 1010 71 0 0.45 358 20:37 26.04.2020
4269 Clear 11 1010 69 0 1.34 358 20:19 26.04.2020
4270 Clear 11 1010 67 0 0.89 357 19:57 26.04.2020
4271 Clear 11 1010 66 0 0.89 357 19:36 26.04.2020
4272 Clear 11 1010 65 0 0.89 2 19:18 26.04.2020
4273 Clear 12 1011 63 0 1.34 19 18:43 26.04.2020
4274 Clouds 13 1011 59 0 1.34 6 18:24 26.04.2020
4275 Clouds 14 1011 56 0 1.79 10 17:44 26.04.2020
4276 Clouds 12 1011 55 0 2.24 338 17:24 26.04.2020
4277 Clouds 14 1011 56 0 2.68 343 16:59 26.04.2020
4278 Clouds 14 1011 55 0 2.24 4 16:40 26.04.2020
4279 Clouds 12 1011 54 0 2.68 357 16:21 26.04.2020
4280 Clouds 14 1011 55 0 1.34 333 15:58 26.04.2020
4281 Clouds 13 1011 55 0 1.79 338 15:38 26.04.2020
4282 Clouds 13 1011 56 0 1.79 329 15:20 26.04.2020
4283 Clouds 13 1012 58 0 1.34 10 14:55 26.04.2020
4284 Clouds 12 1010 61 0 2.47 300 14:36 26.04.2020
4285 Clouds 11 1010 60 0 0.45 285 14:18 26.04.2020
4286 Clouds 12 1012 60 0 1.34 56 13:43 26.04.2020
4287 Clouds 11 1012 61 0 0.89 353 13:23 26.04.2020
4288 Clouds 11 1013 59 0 0.89 338 12:58 26.04.2020
4289 Clouds 11 1013 61 0 0.45 245 12:40 26.04.2020
4290 Clouds 10 1012 75 0 0.89 326 12:21 26.04.2020
4291 Clouds 10 1013 63 0 0.45 338 11:59 26.04.2020
4292 Clouds 10 1013 64 0 0.89 276 11:40 26.04.2020
4293 Clouds 10 1013 65 0 0.89 278 11:21 26.04.2020
4294 Clouds 9 1013 66 0 1.34 284 10:56 26.04.2020
4295 Clouds 9 1013 66 0 0.45 338 10:37 26.04.2020
4296 Clouds 9 1013 68 0 0.45 338 10:18 26.04.2020
4297 Clouds 9 1013 70 0 0.89 316 09:40 26.04.2020
4298 Clouds 9 1013 70 0 0.89 338 09:21 26.04.2020
4299 Clouds 8 1013 74 0 0.45 338 08:58 26.04.2020
4300 Clouds 8 1013 78 0 0.89 268 08:40 26.04.2020
4301 Clouds 7 1013 78 0 0.89 268 08:20 26.04.2020
4302 Clouds 7 1013 80 0 0.89 338 07:46 26.04.2020
4303 Clouds 6 1013 82 0 0.45 267 07:21 26.04.2020
4304 Clouds 6 1013 84 0 1.92 325 06:44 26.04.2020
4305 Clouds 5 1013 84 0 1.97 334 05:58 26.04.2020
4306 Clouds 5 1013 83 0 1.97 334 05:39 26.04.2020
4307 Clouds 6 1013 83 0 1.97 334 04:58 26.04.2020
4308 Clouds 6 1013 83 0 0.89 275 04:23 26.04.2020
4309 Clouds 4 1013 84 0 2.33 356 02:53 26.04.2020
4310 Clouds 4 1013 85 0 0.45 338 02:32 26.04.2020
4311 Clouds 4 1013 84 0 2.24 340 01:52 26.04.2020
4312 Clouds 4 1013 82 0 2.24 340 01:27 26.04.2020
4313 Clouds 4 1013 80 0 2.24 340 00:40 26.04.2020
4314 Clear 5 1013 79 0 3.41 342 00:19 26.04.2020
4315 Clear 6 1013 78 0 0.45 338 23:39 25.04.2020
4316 Clear 6 1013 77 0 0.45 305 23:21 25.04.2020
4317 Clear 6 1013 77 0 0.89 301 22:59 25.04.2020
4318 Clear 7 1013 76 0 0.89 309 22:40 25.04.2020
4319 Clear 7 1013 75 0 0.89 322 22:19 25.04.2020
4320 Clear 7 1013 74 0 1.34 322 21:56 25.04.2020
4321 Clear 8 1013 75 0 1.34 321 21:37 25.04.2020
4322 Clear 8 1013 76 0 1.34 326 21:18 25.04.2020
4323 Clear 9 1013 74 0 0.89 338 20:42 25.04.2020
4324 Clear 9 1013 74 0 1.34 304 20:22 25.04.2020
4325 Clear 9 1013 74 0 1.79 338 19:59 25.04.2020
4326 Clear 10 1013 73 0 2.24 338 19:38 25.04.2020
4327 Clear 10 1013 72 0 2.24 311 19:20 25.04.2020
4328 Clear 11 1013 68 0 1.79 338 18:43 25.04.2020
4329 Clouds 12 1013 67 0 2.24 326 18:22 25.04.2020
4330 Clouds 12 1013 64 0 2.68 16 17:59 25.04.2020
4331 Clouds 12 1013 63 0 2.24 338 17:40 25.04.2020
4332 Clouds 12 1014 63 0 2.68 338 17:22 25.04.2020
4333 Clouds 12 1014 65 0 2.68 338 16:59 25.04.2020
4334 Clouds 13 1014 64 0 2.68 338 16:41 25.04.2020
4335 Clouds 12 1014 67 0 2.24 295 16:23 25.04.2020
4336 Clouds 13 1014 64 0 3.13 293 15:58 25.04.2020
4337 Clouds 13 1014 64 0 2.68 333 15:38 25.04.2020
4338 Clouds 14 1014 62 0 2.68 350 15:19 25.04.2020
4339 Clouds 14 1014 62 0 2.24 273 14:56 25.04.2020
4340 Clouds 14 1014 63 0 2.24 338 14:37 25.04.2020
4341 Clouds 14 1014 62 0 2.68 313 14:18 25.04.2020
4342 Clouds 14 1014 65 0 2.24 312 13:41 25.04.2020
4343 Clouds 13 1014 67 0 2.24 356 13:19 25.04.2020
4344 Clouds 14 1014 67 0 2.24 338 12:57 25.04.2020
4345 Clouds 13 1015 67 0 2.24 19 12:38 25.04.2020
4346 Clouds 13 1015 67 0 2.24 11 12:19 25.04.2020
4347 Clouds 12 1015 69 0 1.79 359 11:54 25.04.2020
4348 Clouds 12 1015 69 0 1.79 4 11:36 25.04.2020
4349 Clouds 12 1015 71 0 1.79 6 11:18 25.04.2020
4350 Clouds 11 1015 73 0 2.24 304 10:41 25.04.2020
4351 Clouds 11 1015 73 0 2.24 321 10:22 25.04.2020
4352 Clouds 10 1014 75 0 1.79 293 09:46 25.04.2020
4353 Clouds 9 1014 76 0 2.24 338 09:27 25.04.2020
4354 Clouds 9 1014 78 0 1.79 333 08:57 25.04.2020
4355 Clouds 9 1014 79 0 1.79 311 08:38 25.04.2020
4356 Clouds 8 1014 81 0 0.89 314 08:20 25.04.2020
4357 Clouds 8 1014 80 0 0.45 307 07:46 25.04.2020
4358 Clouds 7 1014 80 0 0.89 303 07:24 25.04.2020
4359 Clouds 7 1014 77 0 1.34 307 06:44 25.04.2020
4360 Clouds 8 1013 76 0 1.34 306 06:18 25.04.2020
4361 Clouds 7 1013 76 0 1.34 338 05:31 25.04.2020
4362 Clouds 8 1013 74 0 1.34 338 04:47 25.04.2020
4363 Clouds 8 1013 71 0 2.24 338 02:59 25.04.2020
4364 Clouds 8 1013 68 0 2.68 314 02:20 25.04.2020
4365 Clouds 8 1013 69 0 2.68 343 01:51 25.04.2020
4366 Clouds 8 1013 70 0 2.24 338 01:27 25.04.2020
4367 Clouds 8 1013 69 0 2.68 355 00:52 25.04.2020
4368 Clouds 8 1013 71 0 2.68 289 00:31 25.04.2020
4369 Clouds 8 1013 76 0 2.68 318 23:44 24.04.2020
4370 Clouds 8 1013 76 0 2.68 318 23:44 24.04.2020
4371 Clouds 8 1013 76 0 2.24 353 23:24 24.04.2020
4372 Clouds 8 1013 76 0 2.24 285 22:58 24.04.2020
4373 Clouds 8 1013 76 0 2.68 352 22:38 24.04.2020
4374 Clouds 8 1013 79 0 2.24 318 22:19 24.04.2020
4375 Clouds 8 1013 79 0 2.24 318 22:19 24.04.2020
4376 Clouds 8 1013 79 0 2.68 338 21:55 24.04.2020
4377 Clouds 8 1013 79 0 1.79 293 21:36 24.04.2020
4378 Clouds 8 1013 78 0 2.24 343 21:18 24.04.2020
4379 Clouds 8 1013 78 0 2.68 324 20:55 24.04.2020
4380 Clouds 9 1013 78 0 1.79 333 20:37 24.04.2020
4381 Clouds 9 1013 77 0 2.24 338 20:18 24.04.2020
4382 Clouds 9 1013 75 0 3.13 354 19:40 24.04.2020
4383 Clouds 9 1013 75 0 2.68 299 19:21 24.04.2020
4384 Clouds 9 1013 76 0 2.68 1 18:45 24.04.2020
4385 Clouds 10 1013 75 0 2.68 280 18:27 24.04.2020
4386 Clouds 10 1013 75 0 2.68 347 17:58 24.04.2020
4387 Clouds 10 1013 75 0 2.68 347 17:58 24.04.2020
4388 Clouds 10 1013 75 0 2.68 297 17:38 24.04.2020
4389 Clouds 11 1013 74 0 3.13 0 17:19 24.04.2020
4390 Clouds 11 1013 72 0 3.13 343 16:58 24.04.2020
4391 Clouds 11 1013 69 0 3.13 359 16:40 24.04.2020
4392 Clouds 11 1013 70 0 3.58 302 16:21 24.04.2020
4393 Clouds 12 1013 68 0 3.58 303 15:42 24.04.2020
4394 Clouds 13 1013 68 0 3.13 258 15:21 24.04.2020
4395 Clouds 13 1013 68 0 3.13 327 14:59 24.04.2020
4396 Clouds 14 1013 67 0 3.13 347 14:38 24.04.2020
4397 Clear 14 1013 66 0 3.13 289 14:20 24.04.2020
4398 Clear 14 1013 63 0 2.68 358 13:42 24.04.2020
4399 Clear 15 1013 62 0 2.24 353 13:22 24.04.2020
4400 Clear 15 1013 67 0 2.68 39 12:59 24.04.2020
4401 Clear 15 1013 53 0 3.13 359 12:41 24.04.2020
4402 Clouds 15 1013 79 0 3.13 45 12:20 24.04.2020
4403 Clouds 15 1013 51 0 2.68 303 11:56 24.04.2020
4404 Clouds 15 1013 51 0 2.68 338 11:37 24.04.2020
4405 Clouds 15 1013 58 0 2.24 351 11:18 24.04.2020
4406 Clouds 15 1013 61 0 2.24 4 10:38 24.04.2020
4407 Clouds 14 1013 65 0 1.79 0 10:20 24.04.2020
4408 Clouds 14 1013 66 0 2.24 338 09:58 24.04.2020
4409 Clouds 13 1013 69 0 1.79 327 09:39 24.04.2020
4410 Clouds 12 1013 75 0 1.79 329 09:21 24.04.2020
4411 Clouds 11 1013 83 0 1.34 314 08:55 24.04.2020
4412 Clouds 10 1013 85 0 1.34 320 08:37 24.04.2020
4413 Clouds 10 1013 85 0 1.34 338 08:18 24.04.2020
4414 Clouds 9 1013 83 0 0.89 318 07:43 24.04.2020
4415 Clouds 9 1013 85 0 1.34 353 07:24 24.04.2020
4416 Clouds 9 1013 85 0 0.89 338 06:50 24.04.2020
4417 Clouds 9 1013 86 0 1.34 355 06:31 24.04.2020
4418 Clouds 9 1013 86 0 1.79 351 05:42 24.04.2020
4419 Clouds 9 1013 86 0 1.79 351 05:42 24.04.2020
4420 Clouds 9 1014 84 0 1.79 351 04:25 24.04.2020
4421 Clouds 10 1014 81 0 2.24 8 02:58 24.04.2020
4422 Clouds 10 1014 76 0 2.24 8 02:38 24.04.2020
4423 Clouds 10 1015 71 0 1.34 16 01:58 24.04.2020
4424 Clouds 11 1015 67 0 0.89 35 00:58 24.04.2020
4425 Clouds 11 1016 65 0 0.89 25 00:36 24.04.2020
4426 Clouds 11 1016 67 0 1.34 14 00:18 24.04.2020
4427 Clouds 11 1016 68 0 1.79 10 23:42 23.04.2020
4428 Clouds 11 1016 70 0 2.24 44 23:23 23.04.2020
4429 Clouds 12 1016 73 0 2.68 0 22:55 23.04.2020
4430 Clouds 12 1016 73 0 3.13 355 22:36 23.04.2020
4431 Clouds 12 1016 74 0 3.13 20 22:18 23.04.2020
4432 Clouds 13 1016 68 0 1.34 0 21:55 23.04.2020
4433 Clouds 14 1016 64 0 0.89 1 21:37 23.04.2020
4434 Clouds 14 1016 65 0 0.89 30 21:19 23.04.2020
4435 Clouds 16 1016 62 0 1.79 18 20:41 23.04.2020
4436 Clouds 16 1016 62 0 1.34 17 20:22 23.04.2020
4437 Clouds 17 1016 58 0 2.24 18 19:59 23.04.2020
4438 Clouds 18 1016 60 0 1.79 17 19:40 23.04.2020
4439 Clouds 19 1017 55 0 2.68 2 19:21 23.04.2020
4440 Clouds 19 1017 53 0 2.68 358 18:57 23.04.2020
4441 Clouds 20 1017 54 0 1.79 343 18:38 23.04.2020
4442 Clouds 21 1017 53 0 1.79 11 18:20 23.04.2020
4443 Clouds 20 1017 47 0 1.34 19 17:55 23.04.2020
4444 Clouds 19 1017 45 0 1.79 1 17:37 23.04.2020
4445 Clouds 20 1018 44 0 1.79 0 17:19 23.04.2020
4446 Clouds 21 1019 54 10000 3.6 120 16:43 23.04.2020
4447 Clouds 21 1020 26 10000 3.1 130 16:20 23.04.2020
4448 Clouds 20 1019 35 0 2.68 35 15:43 23.04.2020
4449 Clear 20 1019 36 0 1.79 42 15:24 23.04.2020
4450 Clear 21 1019 37 0 2.24 71 14:59 23.04.2020
4451 Clear 21 1020 38 0 2.24 351 14:40 23.04.2020
4452 Clear 21 1020 37 0 2.24 65 14:21 23.04.2020
4453 Clear 20 1020 40 0 2.24 62 13:58 23.04.2020
4454 Clear 20 1021 41 0 3.13 58 13:39 23.04.2020
4455 Clear 19 1019 39 0 1.34 113 13:20 23.04.2020
4456 Clear 19 1021 42 0 2.24 45 12:57 23.04.2020
4457 Clear 19 1021 44 0 2.24 53 12:38 23.04.2020
4458 Clear 17 1023 39 10000 3.6 110 12:20 23.04.2020
4459 Clear 17 1022 50 0 2.24 97 11:46 23.04.2020
4460 Clear 17 1020 48 0 0.45 120 11:27 23.04.2020
4461 Clear 16 1022 62 0 1.79 81 10:58 23.04.2020
4462 Clear 16 1022 64 0 1.79 33 10:39 23.04.2020
4463 Clear 14 1022 67 0 1.79 77 10:20 23.04.2020
4464 Clear 14 1022 67 0 0.45 33 09:40 23.04.2020
4465 Clear 11 1024 76 10000 3.1 110 09:18 23.04.2020
4466 Clear 11 1024 76 10000 3.1 110 09:18 23.04.2020
4467 Clear 11 1023 68 0 1.79 74 08:50 23.04.2020
4468 Clear 10 1023 70 0 2.68 69 08:30 23.04.2020
4469 Clear 9 1023 73 0 1.79 76 07:57 23.04.2020
4470 Clear 8 1023 74 0 2.24 99 07:39 23.04.2020
4471 Clear 8 1023 74 0 2.24 99 07:39 23.04.2020
4472 Clear 7 1023 74 0 2.24 66 07:19 23.04.2020
4473 Clear 6 1023 76 0 2.24 160 06:44 23.04.2020
4474 Clear 7 1023 75 0 0.89 47 05:50 23.04.2020
4475 Clear 7 1023 76 0 1.34 77 05:21 23.04.2020
4476 Clear 7 1023 73 0 1.79 95 03:32 23.04.2020
4477 Clear 8 1023 71 0 1.79 62 02:23 23.04.2020
4478 Clear 10 1021 78 0 4.69 90 01:38 23.04.2020
4479 Clear 10 1023 70 0 2.24 76 00:55 23.04.2020
4480 Clear 10 1023 69 0 1.34 92 00:28 23.04.2020
4481 Clear 10 1023 69 0 1.34 92 00:28 23.04.2020
4482 Clear 10 1023 68 0 1.34 61 23:58 22.04.2020
4483 Clear 11 1023 67 0 1.79 60 23:40 22.04.2020
4484 Clear 11 1023 66 0 1.79 50 23:19 22.04.2020
4485 Clear 11 1023 64 0 1.79 70 22:40 22.04.2020
4486 Clear 12 1023 63 0 2.24 88 22:20 22.04.2020
4487 -273 0 0 0 0 0 21:59 22.04.2020
4488 Clear 12 1023 62 0 1.79 57 21:59 22.04.2020
4489 Clear 12 1023 59 0 1.34 20 21:41 22.04.2020
4490 Clear 13 1023 56 0 1.79 66 21:22 22.04.2020
4491 Clear 14 1023 54 0 1.79 67 20:59 22.04.2020
4492 Clear 14 1023 54 0 1.79 67 20:59 22.04.2020
4493 Clear 14 1023 51 0 2.24 13 20:41 22.04.2020
4494 Clear 15 1022 51 0 1.79 43 20:19 22.04.2020
4495 Clear 15 1022 51 0 1.79 43 20:19 22.04.2020
4496 Clear 16 1022 47 0 2.68 28 19:57 22.04.2020
4497 Clear 17 1022 46 0 3.58 28 19:38 22.04.2020
4498 Clear 18 1022 46 0 3.13 31 19:18 22.04.2020
4499 Clear 18 1022 47 0 3.13 60 18:58 22.04.2020
4500 Clear 19 1022 46 0 3.58 31 18:40 22.04.2020
4501 Clear 19 1022 47 0 2.68 29 18:21 22.04.2020
4502 Clear 19 1020 42 0 1.34 101 17:44 22.04.2020
4503 Clear 19 1020 42 0 1.34 113 17:26 22.04.2020
4504 Clear 19 1020 41 0 1.34 57 16:58 22.04.2020
4505 Clear 19 1020 41 0 1.34 25 16:40 22.04.2020
4506 Clear 19 1021 41 0 1.34 126 16:22 22.04.2020
4507 Clear 18 1021 40 0 1.79 155 15:43 22.04.2020
4508 Clear 18 1026 49 0 8.05 37 15:24 22.04.2020
4509 Clear 18 1021 41 0 1.79 115 14:59 22.04.2020
4510 Clear 18 1022 43 0 1.34 127 14:38 22.04.2020
4511 Clear 18 1022 42 0 1.79 41 14:20 22.04.2020
4512 Clear 18 1022 41 0 1.79 62 13:56 22.04.2020
4513 Clear 18 1022 42 0 1.79 344 13:37 22.04.2020
4514 Clear 17 1022 41 0 2.24 194 13:19 22.04.2020
4515 Clear 17 1022 41 0 2.24 194 13:19 22.04.2020
4516 Clear 17 1022 42 0 2.24 110 12:41 22.04.2020
4517 Clear 15 1026 44 10000 7.2 90 12:22 22.04.2020
4518 Clear 15 1026 44 10000 7.2 90 11:57 22.04.2020
4519 Clear 15 1024 46 0 3.13 40 11:36 22.04.2020
4520 Clear 15 1023 44 0 2.24 103 11:18 22.04.2020
4521 Clear 14 1024 54 0 3.13 109 10:41 22.04.2020
4522 Clear 14 1025 54 0 3.13 338 10:21 22.04.2020
4523 Clear 12 1025 59 0 2.24 48 09:41 22.04.2020
4524 Clear 9 1026 61 10000 5.1 80 09:23 22.04.2020
4525 Clear 10 1026 61 10000 5.1 80 08:59 22.04.2020
4526 Clear 10 1025 65 0 2.68 71 08:41 22.04.2020
4527 Clear 10 1025 65 0 2.68 101 08:22 22.04.2020
4528 Clear 9 1025 69 0 2.68 58 07:53 22.04.2020
4529 Clear 8 1025 72 0 1.79 79 07:33 22.04.2020
4530 Clear 7 1025 73 0 1.79 25 06:53 22.04.2020
4531 Clear 7 1024 72 0 2.24 79 06:23 22.04.2020
4532 Clear 7 1025 69 0 2.24 36 05:38 22.04.2020
4533 Clear 8 1024 65 0 2.68 52 04:34 22.04.2020
4534 Clear 9 1024 64 0 3.13 66 02:59 22.04.2020
4535 Clear 9 1024 64 0 3.58 74 01:55 22.04.2020
4536 Clear 10 1023 64 0 3.13 31 01:28 22.04.2020
4537 Clear 10 1023 64 0 3.13 37 00:59 22.04.2020
4538 Clear 10 1023 64 0 3.13 37 00:59 22.04.2020
4539 Clear 10 1023 65 0 2.68 73 00:41 22.04.2020
4540 Clear 10 1023 66 0 2.24 70 00:20 22.04.2020
4541 Clear 10 1023 65 0 2.68 21 23:44 21.04.2020
4542 Clear 11 1023 65 0 2.24 42 23:20 21.04.2020
4543 Clear 11 1022 64 0 2.24 14 22:55 21.04.2020
4544 Clear 11 1022 62 0 2.24 65 22:37 21.04.2020
4545 Clear 12 1022 61 0 2.68 54 22:19 21.04.2020
4546 Clear 12 1022 57 0 2.24 35 21:42 21.04.2020
4547 Clear 13 1022 56 0 2.24 91 21:23 21.04.2020
4548 Clear 14 1022 50 0 2.24 39 20:58 21.04.2020
4549 Clear 14 1022 48 0 2.68 60 20:40 21.04.2020
4550 Clear 15 1022 48 0 2.68 18 20:21 21.04.2020
4551 Clear 15 1021 45 0 3.13 76 19:56 21.04.2020
4552 Clear 16 1021 45 0 3.13 2 19:36 21.04.2020
4553 Clear 17 1021 46 0 3.13 54 19:18 21.04.2020
4554 Clear 16 1021 45 0 3.13 97 18:54 21.04.2020
4555 Clear 17 1021 41 0 3.13 56 18:36 21.04.2020
4556 Clear 18 1021 41 0 3.13 34 18:18 21.04.2020
4557 Clear 17 1019 40 0 1.79 106 17:39 21.04.2020
4558 Clear 17 1019 40 0 2.24 164 17:19 21.04.2020
4559 Clear 17 1019 39 0 2.24 342 16:54 21.04.2020
4560 Clear 17 1019 40 0 2.24 124 16:36 21.04.2020
4561 Clear 17 1019 40 0 2.24 104 16:18 21.04.2020
4562 Clear 17 1020 40 0 2.24 106 15:54 21.04.2020
4563 Clear 17 1022 38 0 4.02 105 15:36 21.04.2020
4564 Clear 17 1020 38 0 2.68 97 15:18 21.04.2020
4565 Clear 17 1022 40 0 4.02 16 14:43 21.04.2020
4566 Clear 16 1021 43 0 2.24 107 14:23 21.04.2020
4567 Clear 16 1023 41 0 4.47 92 13:55 21.04.2020
4568 Clear 16 1023 43 0 4.02 68 13:37 21.04.2020
4569 Clear 15 1021 46 0 2.24 108 13:18 21.04.2020
4570 Clear 15 1021 46 0 2.68 129 12:38 21.04.2020
4571 Clear 14 1022 45 0 2.68 256 12:19 21.04.2020
4572 Clear 14 1022 46 0 3.58 147 11:57 21.04.2020
4573 Clear 14 1024 52 0 3.13 98 11:38 21.04.2020
4574 Clear 13 1024 53 0 4.02 24 11:19 21.04.2020
4575 Clear 13 1024 52 0 3.13 37 10:58 21.04.2020
4576 Clear 13 1024 55 0 4.02 65 10:39 21.04.2020
4577 Clear 12 1024 54 0 3.58 63 10:21 21.04.2020
4578 Clear 11 1024 56 0 3.13 24 09:55 21.04.2020
4579 Clear 11 1022 58 0 1.34 118 09:36 21.04.2020
4580 Clear 10 1026 61 10000 6.7 90 09:18 21.04.2020
4581 Clear 9 1024 61 0 3.13 39 08:43 21.04.2020
4582 Clear 8 1024 62 0 2.68 44 08:25 21.04.2020
4583 Clear 7 1024 64 0 2.68 29 07:51 21.04.2020
4584 Clear 6 1024 65 0 2.24 49 07:27 21.04.2020
4585 Clear 6 1024 65 0 2.68 35 06:51 21.04.2020
4586 Clear 6 1024 65 0 2.68 35 06:51 21.04.2020
4587 Clear 6 1024 64 0 2.68 45 06:33 21.04.2020
4588 Clear 6 1024 63 0 1.79 72 05:50 21.04.2020
4589 Clear 7 1024 62 0 2.68 110 04:57 21.04.2020
4590 Clear 7 1024 61 0 3.58 106 03:46 21.04.2020
4591 Clear 8 1024 60 0 3.13 83 02:42 21.04.2020
4592 Clear 9 1024 59 0 3.13 81 01:31 21.04.2020
4593 Clear 9 1023 58 0 3.58 72 00:39 21.04.2020
4594 Clear 10 1023 58 0 3.13 78 00:19 21.04.2020
4595 Clear 10 1023 57 0 3.13 54 23:43 20.04.2020
4596 Clear 10 1023 56 0 3.13 60 23:21 20.04.2020
4597 Clear 11 1023 56 0 3.58 59 22:56 20.04.2020
4598 Clear 11 1023 56 0 3.13 24 22:36 20.04.2020
4599 Clear 11 1023 56 0 3.13 41 22:18 20.04.2020
4600 Clear 11 1023 56 0 2.68 59 21:54 20.04.2020
4601 Clear 12 1023 55 0 2.24 47 21:36 20.04.2020
4602 Clear 12 1022 51 0 2.68 44 21:18 20.04.2020
4603 Clear 13 1022 48 0 2.68 39 20:55 20.04.2020
4604 Clear 13 1022 46 0 3.13 32 20:36 20.04.2020
4605 Clear 14 1022 45 0 3.13 42 20:18 20.04.2020
4606 Clear 15 1022 42 0 3.13 75 19:41 20.04.2020
4607 Clear 16 1022 40 0 2.68 60 19:23 20.04.2020
4608 Clear 16 1022 37 0 4.02 67 18:59 20.04.2020
4609 Clear 16 1022 40 0 3.13 56 18:40 20.04.2020
4610 Clear 17 1022 36 0 4.02 58 18:20 20.04.2020
4611 Clear 17 1019 37 0 2.24 36 17:55 20.04.2020
4612 Clear 17 1020 36 0 2.24 103 17:36 20.04.2020
4613 Clear 17 1020 36 0 1.79 115 17:18 20.04.2020
4614 Clear 16 1020 38 0 1.79 156 16:43 20.04.2020
4615 Clear 16 1020 35 0 2.24 147 16:21 20.04.2020
4616 Clear 17 1023 36 0 4.02 114 15:57 20.04.2020
4617 Clear 16 1023 39 0 4.02 49 15:39 20.04.2020
4618 Clear 16 1021 38 0 2.24 68 15:21 20.04.2020
4619 Clear 16 1023 40 0 3.58 64 14:54 20.04.2020
4620 Clear 16 1024 38 0 4.02 13 14:36 20.04.2020
4621 Clear 16 1022 42 0 1.79 133 14:18 20.04.2020
4622 Clear 15 1022 41 0 2.24 20 13:40 20.04.2020
4623 Clear 15 1022 43 0 2.24 128 13:22 20.04.2020
4624 Clear 14 1022 44 0 2.24 119 12:45 20.04.2020
4625 Clear 14 1022 43 0 2.24 108 12:26 20.04.2020
4626 Clear 14 1023 44 0 1.79 71 11:59 20.04.2020
4627 Clear 14 1023 44 0 1.79 71 11:59 20.04.2020
4628 Clear 13 1025 48 0 3.13 81 11:39 20.04.2020
4629 Clear 13 1023 45 0 1.79 118 11:20 20.04.2020
4630 Clear 12 1025 51 0 3.13 68 10:56 20.04.2020
4631 Clear 12 1025 53 0 2.68 99 10:38 20.04.2020
4632 Clear 11 1025 54 0 3.13 85 10:19 20.04.2020
4633 Clear 10 1025 57 0 2.68 75 09:55 20.04.2020
4634 Clear 9 1025 58 0 2.24 111 09:36 20.04.2020
4635 Clear 5 1026 72 0 6.55 88 09:18 20.04.2020
4636 Clear 7 1025 63 0 2.24 85 08:41 20.04.2020
4637 Clear 6 1026 64 0 2.24 85 08:21 20.04.2020
4638 Clear 5 1026 67 0 2.24 88 07:52 20.04.2020
4639 Clear 4 1026 70 0 1.79 73 07:29 20.04.2020
4640 Clear 3 1025 71 0 1.79 36 06:57 20.04.2020
4641 Clear 3 1025 70 0 1.79 43 06:36 20.04.2020
4642 Clear 4 1025 68 0 1.79 37 05:41 20.04.2020
4643 Clear 5 1025 60 0 1.79 45 04:18 20.04.2020
4644 Clear 6 1025 59 0 2.24 41 02:46 20.04.2020
4645 Clear 6 1025 59 0 2.24 41 02:46 20.04.2020
4646 Clear 6 1025 60 0 2.24 61 01:52 20.04.2020
4647 Clear 6 1025 61 0 2.24 69 01:28 20.04.2020
4648 Clear 7 1024 60 0 2.24 51 00:37 20.04.2020
4649 Clear 7 1024 58 0 2.24 54 23:59 19.04.2020
4650 Clear 8 1024 57 0 2.68 76 23:39 19.04.2020
4651 Clear 8 1024 57 0 2.24 20 23:20 19.04.2020
4652 Clear 9 1023 57 0 2.68 52 22:43 19.04.2020
4653 Clear 9 1023 55 0 2.68 57 22:23 19.04.2020
4654 Clear 9 1023 52 0 2.68 43 21:59 19.04.2020
4655 Clear 9 1023 51 0 2.68 54 21:41 19.04.2020
4656 Clear 9 1023 51 0 2.68 54 21:41 19.04.2020
4657 Clear 10 1023 50 0 2.68 37 21:22 19.04.2020
4658 Clear 11 1023 48 0 3.13 24 20:56 19.04.2020
4659 Clear 11 1022 47 0 2.68 26 20:38 19.04.2020
4660 Clear 12 1022 46 0 4.02 35 20:19 19.04.2020
4661 Clear 13 1022 46 0 3.13 24 19:55 19.04.2020
4662 Clear 13 1022 44 0 3.13 81 19:37 19.04.2020
4663 Clear 14 1021 40 0 3.13 38 19:19 19.04.2020
4664 Clear 14 1021 39 0 3.13 49 18:54 19.04.2020
4665 Clear 15 1021 37 0 3.58 4 18:36 19.04.2020
4666 Clear 15 1021 36 0 2.68 83 18:18 19.04.2020
4667 Clear 16 1019 37 0 1.79 113 17:41 19.04.2020
4668 Clear 16 1019 37 0 1.79 113 17:41 19.04.2020
4669 Clear 16 1022 35 0 3.58 66 17:23 19.04.2020
4670 Clear 16 1019 38 0 1.34 126 17:00 19.04.2020
4671 Clear 16 1019 36 0 1.79 111 16:39 19.04.2020
4672 Clear 16 1019 36 0 1.79 111 16:39 19.04.2020
4673 Clear 16 1019 37 0 1.79 146 16:21 19.04.2020
4674 Clear 16 1019 37 0 1.79 146 16:21 19.04.2020
4675 Clear 16 1022 37 0 3.13 23 15:55 19.04.2020
4676 Clear 16 1022 33 0 3.13 114 15:36 19.04.2020
4677 Clear 16 1020 37 0 1.79 18 15:18 19.04.2020
4678 Clear 16 1022 37 0 3.13 41 14:38 19.04.2020
4679 Clear 15 1020 35 0 2.24 61 14:20 19.04.2020
4680 Clear 16 1022 35 0 3.58 43 13:56 19.04.2020
4681 Clear 15 1022 35 0 3.13 54 13:36 19.04.2020
4682 Clear 14 1020 39 0 1.79 139 13:18 19.04.2020
4683 Clear 14 1020 41 0 1.79 91 12:43 19.04.2020
4684 Clear 10 1023 54 0 6.32 75 12:24 19.04.2020
4685 Clear 13 1020 46 0 1.79 169 11:39 19.04.2020
4686 Clear 13 1020 47 0 1.34 134 11:20 19.04.2020
4687 Clear 12 1020 50 0 1.34 65 10:59 19.04.2020
4688 Clear 12 1022 52 0 2.68 37 10:41 19.04.2020
4689 Clear 11 1022 54 0 2.24 73 10:21 19.04.2020
4690 Clear 11 1022 59 0 2.68 19 09:56 19.04.2020
4691 Clear 10 1024 54 0 6.19 77 09:38 19.04.2020
4692 Clear 9 1022 63 0 2.68 26 09:18 19.04.2020
4693 Clear 7 1022 70 0 2.24 66 08:40 19.04.2020
4694 Clear 7 1022 71 0 2.24 52 08:40 19.04.2020
4695 Clear 7 1022 72 0 2.68 21 08:21 19.04.2020
4696 Clear 6 1022 73 0 2.68 31 07:48 19.04.2020
4697 Clear 5 1022 73 0 2.68 25 07:25 19.04.2020
4698 Clear 5 1021 72 0 1.79 58 06:57 19.04.2020
4699 Clear 5 1021 71 0 2.24 35 06:23 19.04.2020
4700 Clear 5 1020 72 0 2.24 19 05:34 19.04.2020
4701 Clear 6 1020 65 0 2.68 33 03:40 19.04.2020
4702 Clear 7 1019 66 0 2.24 47 02:49 19.04.2020
4703 Clear 7 1019 61 0 1.79 37 02:18 19.04.2020
4704 Clear 8 1019 62 0 2.68 42 01:22 19.04.2020
4705 Clear 8 1019 67 0 2.24 62 00:41 19.04.2020
4706 Clear 8 1019 67 0 2.24 62 00:41 19.04.2020
4707 Clear 8 1019 70 0 2.24 65 00:20 19.04.2020
4708 Clear 9 1018 69 0 2.24 22 23:43 18.04.2020
4709 Clear 9 1018 69 0 2.24 8 23:20 18.04.2020
4710 Clear 10 1018 67 0 2.68 16 22:55 18.04.2020
4711 Clear 10 1018 67 0 2.24 24 22:37 18.04.2020
4712 Clear 10 1018 67 0 2.24 16 22:19 18.04.2020
4713 Clear 11 1018 66 0 2.24 34 21:43 18.04.2020
4714 Clouds 11 1018 66 0 1.79 22 21:22 18.04.2020
4715 Clouds 11 1017 67 0 2.24 1 20:59 18.04.2020
4716 Clouds 12 1017 65 0 2.24 29 20:40 18.04.2020
4717 Clouds 13 1017 64 0 2.68 359 20:21 18.04.2020
4718 Clouds 14 1017 59 0 2.68 54 19:43 18.04.2020
4719 Clouds 15 1017 57 0 3.13 20 19:25 18.04.2020
4720 Clouds 16 1017 56 0 2.68 24 18:59 18.04.2020
4721 Clouds 16 1017 53 0 3.13 348 18:37 18.04.2020
4722 Clouds 17 1017 53 0 2.24 13 18:19 18.04.2020
4723 Clouds 18 1017 50 0 3.13 32 17:41 18.04.2020
4724 Clouds 18 1017 50 0 3.13 24 17:21 18.04.2020
4725 Clouds 18 1017 47 0 3.13 13 16:57 18.04.2020
4726 Clouds 19 1017 46 0 3.13 22 16:37 18.04.2020
4727 Clouds 19 1017 48 0 3.58 60 16:19 18.04.2020
4728 Clouds 19 1017 50 0 2.68 19 15:39 18.04.2020
4729 Clouds 19 1014 46 0 1.34 37 15:21 18.04.2020
4730 Clouds 18 1017 40 0 3.13 93 14:46 18.04.2020
4731 Clouds 18 1014 48 0 1.34 115 14:27 18.04.2020
4732 Clouds 18 1014 48 0 1.34 108 13:58 18.04.2020
4733 Clouds 17 1015 52 0 1.34 106 13:40 18.04.2020
4734 Clouds 17 1015 52 0 1.34 49 13:19 18.04.2020
4735 Clouds 16 1017 52 0 3.58 26 12:42 18.04.2020
4736 Clouds 10 1018 70 0 5.07 85 12:23 18.04.2020
4737 Clouds 10 1018 70 0 5.07 85 11:55 18.04.2020
4738 Clouds 14 1015 61 0 0.45 61 11:36 18.04.2020
4739 Clouds 13 1016 63 0 1.34 30 11:18 18.04.2020
4740 Clouds 12 1018 64 0 2.24 26 10:40 18.04.2020
4741 Clouds 11 1017 66 0 1.79 24 10:19 18.04.2020
4742 Clouds 10 1018 68 0 1.79 126 09:58 18.04.2020
4743 Clouds 9 1018 71 0 1.79 57 09:38 18.04.2020
4744 Clouds 8 1018 74 0 1.79 50 09:20 18.04.2020
4745 Clouds 8 1018 78 0 2.24 81 08:42 18.04.2020
4746 Clouds 7 1018 79 0 2.24 41 08:21 18.04.2020
4747 Clouds 5 1018 84 0 2.24 4 07:42 18.04.2020
4748 Clouds 4 1018 86 0 1.79 33 07:20 18.04.2020
4749 Clouds 4 1018 90 0 1.34 45 06:39 18.04.2020
4750 Clear 4 1017 91 0 0.89 19 05:48 18.04.2020
4751 Clear 4 1018 91 0 0.89 23 04:54 18.04.2020
4752 Clear 4 1018 91 0 0.89 24 04:30 18.04.2020
4753 Clouds 4 1018 89 0 0.45 32 02:59 18.04.2020
4754 Clouds 4 1018 89 0 0.45 32 02:40 18.04.2020
4755 Clouds 4 1018 88 0 0.45 33 02:20 18.04.2020
4756 Clouds 4 1018 87 0 0.45 32 01:40 18.04.2020
4757 Clouds 5 1018 87 0 1.34 30 00:59 18.04.2020
4758 Clouds 5 1018 86 0 0.89 21 00:24 18.04.2020
4759 Clouds 5 1018 85 0 1.34 37 23:58 17.04.2020
4760 Clouds 5 1018 84 0 2.24 24 23:40 17.04.2020
4761 Clouds 5 1018 84 0 2.24 20 23:19 17.04.2020
4762 Clouds 5 1018 83 0 1.79 11 22:58 17.04.2020
4763 Clouds 6 1018 82 0 2.24 35 22:40 17.04.2020
4764 Clouds 6 1018 81 0 2.24 31 22:20 17.04.2020
4765 Clouds 6 1018 80 0 1.79 343 21:58 17.04.2020
4766 Clouds 6 1018 79 0 1.79 8 21:39 17.04.2020
4767 Clouds 7 1018 77 0 2.24 14 21:19 17.04.2020
4768 Clouds 7 1018 75 0 2.24 355 20:55 17.04.2020
4769 Clouds 8 1018 75 0 2.68 3 20:36 17.04.2020
4770 Clouds 9 1018 75 0 3.58 0 20:18 17.04.2020
4771 Clouds 9 1018 73 0 3.13 10 19:46 17.04.2020
4772 Clouds 10 1018 71 0 3.13 17 19:24 17.04.2020
4773 Clouds 11 1018 69 0 2.68 350 18:47 17.04.2020
4774 Clear 11 1018 68 0 3.13 351 18:25 17.04.2020
4775 Clear 11 1018 67 0 3.58 357 17:59 17.04.2020
4776 Clear 12 1019 64 0 3.13 355 17:37 17.04.2020
4777 Clear 12 1019 64 0 2.68 354 17:19 17.04.2020
4778 Clear 12 1019 63 0 3.58 2 16:44 17.04.2020
4779 Clear 12 1019 62 0 3.13 14 16:24 17.04.2020
4780 Clear 12 1019 62 0 3.58 8 15:59 17.04.2020
4781 Clear 12 1019 63 0 3.13 343 15:39 17.04.2020
4782 Clouds 12 1019 63 0 3.58 8 15:20 17.04.2020
4783 Clouds 12 1019 62 0 3.58 13 14:42 17.04.2020
4784 Clouds 12 1019 63 0 3.13 353 14:23 17.04.2020
4785 Clouds 12 1019 61 0 3.58 343 13:59 17.04.2020
4786 Clouds 12 1019 61 0 3.58 343 13:59 17.04.2020
4787 Clouds 11 1020 61 10000 4.6 340 13:39 17.04.2020
4788 Clouds 11 1020 61 10000 4.6 340 13:20 17.04.2020
4789 Clouds 11 1020 61 10000 4.6 340 12:48 17.04.2020
4790 Clouds 11 1020 57 10000 4.1 360 12:27 17.04.2020
4791 Clouds 10 1020 57 10000 4.1 360 11:59 17.04.2020
4792 Clouds 10 1020 66 10000 4.1 60 11:39 17.04.2020
4793 Clouds 10 1020 66 10000 4.1 60 11:19 17.04.2020
4794 Clouds 9 1020 70 10000 4.6 30 10:40 17.04.2020
4795 Clouds 9 1020 70 10000 4.6 30 10:20 17.04.2020
4796 Clouds 9 1020 65 10000 3.6 30 09:55 17.04.2020
4797 Clouds 8 1020 81 10000 3.1 50 09:37 17.04.2020
4798 Clouds 8 1020 81 10000 3.1 50 09:18 17.04.2020
4799 Clouds 7 1020 81 10000 2.1 30 08:47 17.04.2020
4800 Clouds 7 1020 81 10000 2.1 30 08:47 17.04.2020
4801 Clouds 6 1020 86 10000 1.5 20 08:27 17.04.2020
4802 Clouds 5 1020 93 10000 2.1 20 07:58 17.04.2020
4803 Clouds 4 1020 93 10000 1.5 20 07:39 17.04.2020
4804 Clouds 4 1020 93 10000 1.5 20 07:19 17.04.2020
4805 Clouds 4 1020 93 10000 1.5 20 06:44 17.04.2020
4806 Clouds 4 1019 93 10000 1.5 10 05:58 17.04.2020
4807 Clouds 5 1020 86 7000 1 360 03:27 17.04.2020
4808 Clouds 5 1020 86 7000 1 360 02:55 17.04.2020
4809 Clouds 6 1019 86 6000 1 360 01:52 17.04.2020
4810 Clouds 6 1019 81 6000 2.6 20 01:22 17.04.2020
4811 Clouds 6 1019 81 7000 2.6 20 00:26 17.04.2020
4812 Clouds 7 1019 81 7000 2.6 20 23:56 16.04.2020
4813 Clouds 7 1019 81 10000 2.6 50 23:38 16.04.2020
4814 Clouds 7 1019 81 7000 2.6 10 23:19 16.04.2020
4815 Clouds 7 1019 81 7000 2.6 10 22:55 16.04.2020
4816 Clouds 8 1019 87 6000 2.6 10 22:36 16.04.2020
4817 Clouds 8 1019 87 6000 2.6 10 22:18 16.04.2020
4818 Clouds 9 1018 81 10000 5.1 30 21:41 16.04.2020
4819 Clouds 9 1018 70 10000 3.6 10 21:20 16.04.2020
4820 Clouds 9 1018 70 10000 3.6 10 20:57 16.04.2020
4821 Clouds 10 1018 76 10000 5.1 40 20:38 16.04.2020
4822 Clouds 11 1018 66 10000 3.6 10 20:19 16.04.2020
4823 Clouds 12 1017 62 10000 6.2 30 19:40 16.04.2020
4824 Clouds 12 1018 76 10000 5.1 360 19:20 16.04.2020
4825 Clouds 13 1018 76 10000 5.1 360 18:58 16.04.2020
4826 Clouds 13 1017 58 10000 6.7 30 18:39 16.04.2020
4827 Clouds 14 1018 66 10000 4.1 10 18:21 16.04.2020
4828 Clouds 14 1018 66 10000 4.1 10 17:56 16.04.2020
4829 Clouds 14 1018 62 10000 4.1 10 17:38 16.04.2020
4830 Clouds 15 1018 62 10000 4.1 10 17:18 16.04.2020
4831 Clouds 15 1017 58 10000 5.7 30 16:42 16.04.2020
4832 Clouds 16 1018 62 10000 4.1 10 16:20 16.04.2020
4833 Clouds 16 1018 62 10000 4.1 10 15:45 16.04.2020
4834 Clouds 16 1018 54 10000 4.6 20 15:20 16.04.2020
4835 Clouds 15 1018 54 10000 4.6 20 14:59 16.04.2020
4836 Clouds 15 1018 54 10000 5.1 50 14:40 16.04.2020
4837 Clouds 15 1018 54 10000 5.1 50 14:40 16.04.2020
4838 Clouds 15 1018 54 10000 5.1 50 14:21 16.04.2020
4839 Clouds 15 1018 54 10000 5.1 50 14:21 16.04.2020
4840 Clouds 15 1018 54 10000 5.1 50 13:57 16.04.2020
4841 Clouds 15 1018 54 10000 5.1 60 13:38 16.04.2020
4842 Clouds 15 1018 54 10000 5.1 60 13:20 16.04.2020
4843 Clouds 15 1018 54 10000 5.1 60 12:57 16.04.2020
4844 Clouds 14 1018 50 10000 4.6 70 12:38 16.04.2020
4845 Clouds 14 1018 50 10000 5.1 70 12:19 16.04.2020
4846 Clouds 13 1019 62 10000 5.1 80 11:56 16.04.2020
4847 Clouds 13 1018 64 0 2.24 66 11:38 16.04.2020
4848 Clouds 13 1018 66 0 1.79 62 11:18 16.04.2020
4849 Clouds 13 1018 66 0 1.79 62 11:18 16.04.2020
4850 Clouds 12 1019 66 10000 3.1 100 10:54 16.04.2020
4851 Clouds 12 1018 70 0 1.34 39 10:36 16.04.2020
4852 Clouds 11 1018 73 0 1.79 52 10:18 16.04.2020
4853 Clouds 10 1018 81 0 1.34 46 09:39 16.04.2020
4854 Clouds 9 1018 85 0 1.34 49 09:20 16.04.2020
4855 Clouds 9 1018 85 0 1.34 49 09:20 16.04.2020
4856 Fog 7 1019 93 8000 0.5 50 08:45 16.04.2020
4857 Fog 6 1019 93 8000 0.5 50 08:26 16.04.2020
4858 Fog 4 1019 100 700 0.97 354 07:59 16.04.2020
4859 Fog 3 1018 100 400 1 260 07:41 16.04.2020
4860 Fog 3 1018 100 400 1 260 07:20 16.04.2020
4861 Fog 3 1018 100 400 1 260 07:20 16.04.2020
4862 Clouds 3 1018 76 10000 0.5 280 06:41 16.04.2020
4863 Clouds 3 1018 79 10000 0.5 280 06:22 16.04.2020
4864 Clouds 4 1019 86 4800 1 240 04:53 16.04.2020
4865 Clouds 4 1020 86 5000 1 280 03:28 16.04.2020
4866 Clouds 4 1020 86 5000 1 280 02:59 16.04.2020
4867 Clouds 4 1020 86 5000 1.5 260 02:38 16.04.2020
4868 Clouds 5 1020 80 6000 0.5 340 01:29 16.04.2020
4869 Clouds 5 1020 80 6000 0.5 340 00:57 16.04.2020
4870 Clouds 6 1020 80 6000 1 260 00:26 16.04.2020
4871 Clouds 6 1020 80 6000 1 260 23:55 15.04.2020
4872 Clouds 7 1020 70 7000 1.5 280 23:37 15.04.2020
4873 Clouds 7 1020 70 7000 1.5 280 23:19 15.04.2020
4874 Clouds 8 1021 81 10000 1 290 22:39 15.04.2020
4875 Clouds 9 1021 65 7000 3.1 290 22:21 15.04.2020
4876 Clouds 9 1021 65 7000 3.1 290 21:57 15.04.2020
4877 Clouds 9 1021 76 10000 2.6 310 21:39 15.04.2020
4878 Clouds 10 1021 57 10000 2.6 290 21:21 15.04.2020
4879 Clouds 11 1021 57 10000 2.6 290 20:56 15.04.2020
4880 Clouds 11 1021 66 10000 2.6 270 20:38 15.04.2020
4881 Clouds 12 1021 58 10000 5.1 280 20:20 15.04.2020
4882 Clouds 13 1021 54 10000 3.1 290 19:41 15.04.2020
4883 Clouds 14 1021 47 10000 6.2 270 19:20 15.04.2020
4884 Clouds 15 1021 47 10000 6.2 270 18:54 15.04.2020
4885 Clouds 15 1022 50 10000 6.2 280 18:36 15.04.2020
4886 Clouds 15 1022 50 10000 6.2 280 18:18 15.04.2020
4887 Clouds 15 1022 44 10000 3.1 260 17:40 15.04.2020
4888 Clouds 16 1022 47 10000 6.7 290 17:21 15.04.2020
4889 Clouds 16 1022 47 10000 6.7 290 16:58 15.04.2020
4890 Clouds 16 1022 47 10000 5.7 290 16:38 15.04.2020
4891 Clouds 16 1022 44 10000 3.6 250 16:38 15.04.2020
4892 Clouds 16 1022 47 10000 5.7 290 16:20 15.04.2020
4893 Clouds 15 1022 47 10000 5.7 290 15:58 15.04.2020
4894 Clouds 15 1023 44 10000 3.6 260 15:39 15.04.2020
4895 Clouds 15 1023 44 10000 6.7 280 15:20 15.04.2020
4896 Clouds 15 1023 44 10000 6.7 280 15:20 15.04.2020
4897 Clouds 15 1023 44 10000 6.7 280 14:58 15.04.2020
4898 Clouds 15 1023 47 10000 3.1 270 14:40 15.04.2020
4899 Clouds 14 1023 50 10000 6.2 270 14:21 15.04.2020
4900 Clouds 14 1023 50 10000 6.2 270 13:58 15.04.2020
4901 Clouds 13 1024 54 10000 3.1 250 13:39 15.04.2020
4902 Clouds 13 1024 58 10000 6.7 280 13:20 15.04.2020
4903 Clouds 13 1024 58 10000 6.7 280 12:57 15.04.2020
4904 Clouds 13 1024 58 10000 2.6 0 12:39 15.04.2020
4905 Clouds 12 1024 57 10000 6.2 270 12:21 15.04.2020
4906 Clouds 11 1024 57 10000 6.2 270 11:45 15.04.2020
4907 Clouds 11 1024 61 10000 7.7 270 11:25 15.04.2020
4908 Clouds 10 1024 61 10000 7.7 270 10:59 15.04.2020
4909 Clouds 10 1025 66 10000 4.6 250 10:37 15.04.2020
4910 Clouds 9 1024 75 10000 5.1 260 10:19 15.04.2020
4911 Clouds 9 1024 75 10000 5.1 260 09:55 15.04.2020
4912 Clouds 8 1024 70 10000 3.6 250 09:37 15.04.2020
4913 Clouds 7 1024 81 10000 3.6 260 09:19 15.04.2020
4914 Clouds 6 1024 86 10000 3.1 230 08:42 15.04.2020
4915 Clouds 5 1023 86 10000 2.1 230 08:23 15.04.2020
4916 Clouds 4 1023 86 10000 2.1 230 07:58 15.04.2020
4917 Clouds 4 1023 80 10000 2.6 240 07:39 15.04.2020
4918 -273 0 0 0 0 0 06:59 15.04.2020
4919 Clouds 3 1023 80 10000 2.1 250 06:24 15.04.2020
4920 Clouds 4 1023 80 10000 2.6 250 05:34 15.04.2020
4921 Clouds 3 1024 86 7000 2.6 280 04:47 15.04.2020
4922 Clouds 4 1024 80 8000 2.6 240 04:18 15.04.2020
4923 Clouds 3 1024 80 7000 2.1 250 03:22 15.04.2020
4924 Clouds 3 1024 80 7000 2.1 250 02:49 15.04.2020
4925 Clouds 3 1024 80 7000 2.1 240 01:51 15.04.2020
4926 Clouds 4 1025 81 7000 2.1 250 01:25 15.04.2020
4927 Clouds 4 1025 81 7000 2.1 250 00:48 15.04.2020
4928 Clouds 4 1025 80 7000 2.6 270 00:25 15.04.2020
4929 Clouds 4 1025 80 7000 2.6 270 23:56 14.04.2020
4930 Clouds 4 1025 80 7000 2.1 250 23:38 14.04.2020
4931 Clouds 5 1025 80 7000 2.1 250 23:20 14.04.2020
4932 Clouds 5 1025 80 7000 2.1 250 22:56 14.04.2020
4933 Clouds 5 1026 80 10000 2.1 260 22:38 14.04.2020
4934 Clouds 5 1025 80 8000 2.6 280 22:20 14.04.2020
4935 Clouds 5 1025 80 8000 2.6 280 21:56 14.04.2020
4936 Clouds 5 1026 80 10000 3.1 300 21:38 14.04.2020
4937 Clouds 6 1026 72 10000 3.1 300 21:19 14.04.2020
4938 Clouds 6 1026 73 10000 3.1 300 20:57 14.04.2020
4939 Clouds 6 1026 72 10000 2.6 290 20:38 14.04.2020
4940 Clouds 7 1025 65 10000 4.6 300 20:38 14.04.2020
4941 Clouds 6 1026 73 10000 2.6 290 20:38 14.04.2020
4942 Clouds 7 1025 65 10000 4.6 300 20:19 14.04.2020
4943 Clouds 8 1026 61 10000 3.6 310 19:41 14.04.2020
4944 Clouds 8 1025 72 10000 5.7 320 19:23 14.04.2020
4945 Clouds 8 1025 72 10000 5.7 320 18:58 14.04.2020
4946 Clouds 8 1026 65 10000 4.1 320 18:40 14.04.2020
4947 Clouds 8 1026 64 10000 6.2 330 18:21 14.04.2020
4948 Clouds 8 1026 64 10000 6.2 330 17:58 14.04.2020
4949 Clouds 9 1025 64 10000 5.7 320 17:39 14.04.2020
4950 Clouds 9 1025 64 10000 5.7 320 17:20 14.04.2020
4951 Clouds 9 1025 64 10000 5.7 320 16:57 14.04.2020
4952 Clouds 9 1026 64 10000 5.7 330 16:38 14.04.2020
4953 Clouds 9 1026 64 10000 5.7 330 16:20 14.04.2020
4954 Clouds 9 1026 64 10000 5.7 330 15:56 14.04.2020
4955 Clouds 9 1026 64 10000 6.7 320 15:38 14.04.2020
4956 Clouds 9 1026 65 10000 6.7 320 15:18 14.04.2020
4957 Clouds 9 1026 65 10000 6.7 320 14:56 14.04.2020
4958 Clouds 9 1027 61 10000 3.6 340 14:37 14.04.2020
4959 Clouds 9 1026 63 10000 6.7 330 14:19 14.04.2020
4960 Clouds 9 1026 63 10000 6.7 330 14:19 14.04.2020
4961 Clouds 9 1026 63 10000 6.7 330 13:43 14.04.2020
4962 Clouds 8 1026 63 10000 6.2 320 13:24 14.04.2020
4963 Clouds 8 1026 63 10000 6.2 320 12:56 14.04.2020
4964 Clouds 8 1026 49 10000 5.1 330 12:38 14.04.2020
4965 Clouds 8 1026 52 10000 4.6 340 12:19 14.04.2020
4966 Clouds 8 1026 52 10000 5.7 320 11:41 14.04.2020
4967 Clouds 8 1026 52 10000 5.7 320 11:41 14.04.2020
4968 Clouds 7 1025 66 10000 4.6 320 11:22 14.04.2020
4969 Clouds 7 1025 66 10000 4.6 320 10:56 14.04.2020
4970 Clouds 7 1026 65 10000 4.6 330 10:38 14.04.2020
4971 Clouds 6 1025 60 10000 5.7 330 10:19 14.04.2020
4972 Clouds 6 1026 70 10000 4.6 310 09:42 14.04.2020
4973 Clouds 6 1024 56 10000 3.6 340 09:22 14.04.2020
4974 Clouds 6 1024 56 10000 3.6 340 08:56 14.04.2020
4975 Rain 5 1025 74 0 6.29 334 08:37 14.04.2020
4976 Clouds 5 1024 65 10000 3.6 350 08:19 14.04.2020
4977 Clouds 5 1024 65 10000 3.6 350 07:51 14.04.2020
4978 Clouds 5 1023 65 10000 4.6 310 07:26 14.04.2020
4979 Clouds 5 1023 65 10000 4.6 310 06:45 14.04.2020
4980 Clouds 5 1023 72 10000 2.1 350 05:52 14.04.2020
4981 Rain 4 1023 69 8000 4.1 330 03:50 14.04.2020
4982 Clouds 5 1025 73 10000 4.1 320 02:40 14.04.2020
4983 Rain 5 1023 65 8000 7.2 340 01:38 14.04.2020
4984 Rain 5 1023 65 8000 7.2 340 01:18 14.04.2020
4985 Rain 5 1023 73 4800 6.7 350 00:32 14.04.2020
4986 Clouds 5 1024 65 10000 5.1 330 23:59 13.04.2020
4987 Clouds 5 1023 65 8000 6.7 330 23:39 13.04.2020
4988 Clouds 5 1023 65 8000 6.7 330 23:21 13.04.2020
4989 Clouds 5 1023 65 8000 6.7 330 22:56 13.04.2020
4990 Clouds 5 1025 75 10000 5.1 310 22:37 13.04.2020
4991 Clouds 5 1023 65 4900 8.7 330 22:19 13.04.2020
4992 Clouds 5 1023 65 4900 8.7 330 21:54 13.04.2020
4993 Clouds 6 1024 69 10000 6.7 320 21:36 13.04.2020
4994 Clouds 6 1022 52 9000 6.7 340 21:18 13.04.2020
4995 Clouds 6 1024 60 10000 6.2 350 20:41 13.04.2020
4996 Clouds 6 1022 52 9000 8.7 340 20:20 13.04.2020
4997 Clouds 6 1022 52 9000 8.7 340 20:20 13.04.2020
4998 Clouds 6 1022 52 9000 8.7 340 19:59 13.04.2020
4999 Clouds 7 1023 52 8000 9.3 330 19:37 13.04.2020
5000 Clouds 6 1024 56 10000 6.2 360 19:37 13.04.2020
5001 Clouds 6 1024 56 10000 6.2 360 19:37 13.04.2020
5002 Clouds 7 1023 52 8000 9.3 330 19:19 13.04.2020
5003 Clouds 7 1023 52 8000 9.3 330 18:58 13.04.2020
5004 Clouds 7 1024 48 10000 7.7 340 18:38 13.04.2020
5005 Clouds 7 1023 48 9000 8.7 350 18:19 13.04.2020
5006 Clouds 8 1023 48 9000 8.7 350 17:58 13.04.2020
5007 Clouds 8 1024 52 10000 7.7 360 17:37 13.04.2020
5008 Clouds 8 1023 48 9000 8.7 350 17:19 13.04.2020
5009 Clouds 8 1023 48 9000 8.7 350 16:58 13.04.2020
5010 Clouds 8 1023 48 9000 8.7 350 16:58 13.04.2020
5011 Clouds 9 1024 39 10000 7.2 340 16:39 13.04.2020
5012 Clouds 8 1022 49 9000 11.3 350 16:20 13.04.2020
5013 Clouds 8 1022 49 9000 11.3 350 15:57 13.04.2020
5014 Clouds 9 1022 49 8000 8.7 360 15:38 13.04.2020
5015 Clouds 9 1022 49 8000 8.7 360 15:20 13.04.2020
5016 Clouds 8 1022 49 8000 8.7 360 14:54 13.04.2020
5017 Clouds 9 1022 49 8000 9.8 360 14:36 13.04.2020
5018 Clouds 9 1022 49 8000 9.8 360 14:18 13.04.2020
5019 Clouds 9 1022 49 8000 9.8 360 14:18 13.04.2020
5020 Clouds 8 1022 49 8000 9.8 360 13:54 13.04.2020
5021 Clouds 8 1024 45 10000 8.7 340 13:36 13.04.2020
5022 Clouds 8 1022 48 10000 9.8 350 13:18 13.04.2020
5023 Clouds 8 1022 48 10000 9.8 350 12:55 13.04.2020
5024 Clouds 8 1022 45 10000 9.8 350 12:37 13.04.2020
5025 Clouds 7 1022 45 10000 9.8 350 12:18 13.04.2020
5026 Clouds 7 1023 42 10000 6.2 360 11:41 13.04.2020
5027 Clouds 7 1021 52 10000 8.2 350 11:18 13.04.2020
5028 Clouds 7 1021 52 10000 8.2 350 10:56 13.04.2020
5029 Clouds 7 1022 48 10000 6.7 350 10:37 13.04.2020
5030 Clouds 7 1020 48 10000 8.2 350 10:19 13.04.2020
5031 Clouds 6 1020 48 10000 8.2 350 09:46 13.04.2020
5032 Clouds 6 1019 48 10000 8.2 350 09:26 13.04.2020
5033 Clouds 6 1019 48 10000 8.2 350 08:52 13.04.2020
5034 Clouds 6 1019 48 10000 6.7 360 08:31 13.04.2020
5035 Clouds 6 1019 48 10000 6.7 360 07:59 13.04.2020
5036 Clouds 6 1020 52 10000 6.7 360 07:41 13.04.2020
5037 Clouds 6 1018 52 10000 8.2 350 07:20 13.04.2020
5038 Clouds 6 1018 52 10000 8.2 350 06:47 13.04.2020
5039 Clouds 6 1017 56 10000 7.7 360 06:25 13.04.2020
5040 Clouds 7 1017 70 7000 6.7 10 05:32 13.04.2020
5041 Clouds 7 1017 70 7000 6.7 10 04:53 13.04.2020
5042 Clouds 7 1016 75 6000 7.2 360 04:24 13.04.2020
5043 Clouds 8 1016 75 6000 7.2 360 03:48 13.04.2020
5044 Clouds 8 1015 81 7000 6.2 360 02:59 13.04.2020
5045 Clouds 8 1015 81 7000 4.1 360 02:38 13.04.2020
5046 Clouds 8 1016 66 10000 4.6 10 01:44 13.04.2020
5047 Clouds 9 1015 75 7000 3.6 360 01:25 13.04.2020
5048 Clouds 9 1015 75 7000 3.6 360 00:43 13.04.2020
5049 Clouds 9 1014 87 6000 6.2 360 00:21 13.04.2020
5050 Clouds 10 1014 87 6000 6.2 360 23:49 12.04.2020
5051 Clouds 10 1013 76 7000 2.1 350 23:23 12.04.2020
5052 Clouds 10 1013 76 7000 2.1 350 22:59 12.04.2020
5053 Clouds 11 1013 76 10000 3.1 10 22:38 12.04.2020
5054 Clouds 11 1013 87 6000 2.6 10 22:19 12.04.2020
5055 Clouds 11 1013 87 6000 2.6 10 21:55 12.04.2020
5056 Clouds 12 1013 71 10000 2.6 10 21:36 12.04.2020
5057 Clear 13 1012 71 7000 2.1 20 21:18 12.04.2020
5058 Clear 14 1012 76 10000 2.6 50 20:41 12.04.2020
5059 Clear 15 1012 58 8000 2.1 20 20:23 12.04.2020
5060 Clear 15 1012 58 8000 2.1 20 19:57 12.04.2020
5061 Clear 16 1012 63 10000 2.6 320 19:38 12.04.2020
5062 Clear 17 1013 54 10000 4.1 10 19:19 12.04.2020
5063 Clear 18 1013 55 8000 4.6 20 18:41 12.04.2020
5064 Clear 19 1013 55 8000 4.6 20 18:23 12.04.2020
5065 Clear 19 1013 55 8000 4.6 20 17:59 12.04.2020
5066 Clear 19 1012 46 10000 2.6 270 17:41 12.04.2020
5067 Clear 20 1013 55 8000 3.6 320 17:23 12.04.2020
5068 Clear 20 1013 55 8000 3.6 320 16:59 12.04.2020
5069 Clear 20 1013 46 10000 3.6 270 16:39 12.04.2020
5070 Clear 20 1013 52 7000 4.1 290 16:20 12.04.2020
5071 Clear 20 1013 52 7000 4.1 290 15:49 12.04.2020
5072 Clear 20 1014 55 7000 4.1 300 15:31 12.04.2020
5073 Clouds 20 1014 55 7000 4.1 300 14:56 12.04.2020
5074 Clouds 20 1014 46 10000 2.6 280 14:37 12.04.2020
5075 Clouds 19 1014 52 7000 5.1 300 14:18 12.04.2020
5076 Clouds 20 1014 52 7000 5.1 300 13:43 12.04.2020
5077 Clouds 20 1014 42 7000 4.6 250 13:25 12.04.2020
5078 Clouds 19 1014 42 7000 4.6 250 12:56 12.04.2020
5079 Clouds 19 1014 48 10000 3.6 260 12:38 12.04.2020
5080 Clouds 18 1014 42 7000 3.6 250 12:19 12.04.2020
5081 Clouds 18 1014 42 7000 3.6 250 11:57 12.04.2020
5082 Clouds 17 1015 52 10000 4.6 230 11:37 12.04.2020
5083 Clouds 17 1015 47 6000 3.1 230 11:18 12.04.2020
5084 Clouds 17 1015 47 6000 3.1 230 10:55 12.04.2020
5085 Clouds 15 1015 54 7000 2.6 220 10:37 12.04.2020
5086 Clouds 15 1015 54 7000 2.6 220 10:18 12.04.2020
5087 Clouds 14 1015 54 7000 2.6 220 09:55 12.04.2020
5088 Clouds 13 1015 66 10000 2.1 210 09:37 12.04.2020
5089 Clouds 11 1015 61 6000 1.5 220 09:19 12.04.2020
5090 Clouds 11 1015 61 6000 1.5 220 08:47 12.04.2020
5091 Clouds 9 1016 87 10000 1.5 240 08:29 12.04.2020
5092 Clouds 7 1015 75 6000 1.5 190 07:47 12.04.2020
5093 Clouds 7 1016 70 6000 1.5 220 07:19 12.04.2020
5094 Clouds 7 1016 70 6000 1.5 220 06:42 12.04.2020
5095 Clouds 7 1016 65 7000 1.5 170 06:22 12.04.2020
5096 Clouds 7 1017 61 6000 1 190 05:42 12.04.2020
5097 Clouds 8 1017 65 6000 1 170 04:26 12.04.2020
5098 Clouds 8 1018 61 6000 1 0 03:29 12.04.2020
5099 Clouds 8 1018 61 6000 1 0 02:48 12.04.2020
5100 Clouds 8 1019 65 7000 1.5 170 02:27 12.04.2020
5101 Clouds 8 1020 70 7000 0.5 210 01:22 12.04.2020
5102 Clouds 9 1020 70 7000 0.5 210 00:43 12.04.2020
5103 Clouds 9 1020 66 7000 1.5 160 00:21 12.04.2020
5104 Clouds 10 1020 66 7000 1.5 160 23:58 11.04.2020
5105 Clouds 10 1020 65 10000 3.18 163 23:40 11.04.2020
5106 Clouds 10 1020 61 7000 1 110 23:22 11.04.2020
5107 Clouds 12 1020 70 10000 3.18 163 22:38 11.04.2020
5108 Clouds 12 1021 50 8000 2.1 150 22:20 11.04.2020
5109 Clouds 13 1021 50 8000 2.1 150 21:55 11.04.2020
5110 Clouds 13 1021 44 8000 1.5 130 21:36 11.04.2020
5111 Clouds 14 1021 44 8000 1.5 130 21:18 11.04.2020
5112 Clouds 15 1021 44 8000 1.5 130 20:56 11.04.2020
5113 Clouds 16 1020 41 10000 1.5 140 20:38 11.04.2020
5114 Clouds 17 1021 34 10000 2.1 180 20:19 11.04.2020
5115 Clouds 18 1021 34 10000 2.1 180 19:57 11.04.2020
5116 Clouds 18 1022 70 10000 3.1 160 19:38 11.04.2020
5117 Clouds 18 1022 70 10000 3.1 160 19:38 11.04.2020
5118 Clouds 18 1022 70 10000 3.1 160 19:18 11.04.2020
5119 Clouds 18 1022 70 10000 3.1 160 18:55 11.04.2020
5120 Clouds 19 1022 70 10000 2.1 190 18:37 11.04.2020
5121 Clouds 19 1022 70 10000 2.1 190 18:37 11.04.2020
5122 Clouds 19 1022 57 10000 2.1 190 18:18 11.04.2020
5123 Clouds 19 1022 57 10000 2.1 190 17:58 11.04.2020
5124 Clouds 19 1022 32 10000 2.1 90 17:38 11.04.2020
5125 Clouds 19 1023 27 10000 2.1 200 17:19 11.04.2020
5126 Clouds 19 1023 27 10000 2.1 200 16:43 11.04.2020
5127 Clouds 19 1024 27 10000 2.6 150 16:22 11.04.2020
5128 Clouds 19 1024 27 10000 2.6 150 16:22 11.04.2020
5129 Clouds 18 1024 27 10000 2.6 150 15:54 11.04.2020
5130 Clouds 18 1025 31 10000 2.6 180 15:36 11.04.2020
5131 Clouds 17 1025 31 10000 2.6 180 15:18 11.04.2020
5132 Clouds 17 1024 33 10000 2.1 170 14:41 11.04.2020
5133 Clouds 17 1025 30 9000 4.1 160 14:23 11.04.2020
5134 Clouds 16 1025 30 9000 4.1 160 13:58 11.04.2020
5135 Clouds 16 1025 53 10000 2.6 120 13:38 11.04.2020
5136 Clouds 15 1026 53 7000 3.6 140 13:18 11.04.2020
5137 Clouds 14 1026 44 10000 2.6 130 12:41 11.04.2020
5138 Clouds 12 1027 50 7000 2.1 160 12:18 11.04.2020
5139 Clouds 13 1027 50 7000 2.1 160 11:56 11.04.2020
5140 Clouds 12 1026 46 10000 2.6 100 11:38 11.04.2020
5141 Clouds 12 1026 50 10000 2.6 110 11:19 11.04.2020
5142 Clouds 11 1027 66 6000 2.1 140 10:43 11.04.2020
5143 Clouds 11 1027 66 6000 2.1 140 10:43 11.04.2020
5144 Clouds 10 1026 61 10000 2.6 120 10:22 11.04.2020
5145 Clouds 9 1027 81 5000 2.6 150 09:59 11.04.2020
5146 Clouds 8 1027 70 10000 2.6 140 09:39 11.04.2020
5147 Clouds 7 1027 87 10000 2.1 110 09:21 11.04.2020
5148 Clouds 6 1027 93 4300 0.5 100 08:49 11.04.2020
5149 Clouds 5 1027 93 9000 1.5 110 08:28 11.04.2020
5150 Clouds 3 1027 93 150 1 100 07:53 11.04.2020
5151 Clouds 3 1027 93 800 1.5 0 07:34 11.04.2020
5152 Clouds 3 1027 93 800 1.5 0 06:51 11.04.2020
5153 Clouds 3 1026 93 10000 2.1 110 06:20 11.04.2020
5154 Clouds 3 1026 86 10000 2.6 110 05:55 11.04.2020
5155 Clouds 4 1027 86 10000 2.1 90 03:42 11.04.2020
5156 Clouds 4 1027 80 10000 2.6 110 02:37 11.04.2020
5157 Clouds 4 1028 93 6000 0.5 0 01:25 11.04.2020
5158 Clouds 5 1028 93 6000 0.5 0 00:44 11.04.2020
5159 Clouds 5 1028 86 6000 0.5 30 00:20 11.04.2020
5160 Clouds 5 1028 86 6000 0.5 30 23:59 10.04.2020
5161 Clouds 6 1027 80 10000 2.1 70 23:40 10.04.2020
5162 Clouds 6 1028 86 7000 2.1 40 23:19 10.04.2020
5163 Clouds 6 1028 86 7000 2.1 40 22:55 10.04.2020
5164 Clouds 6 1027 75 10000 2.6 60 22:37 10.04.2020
5165 Clouds 7 1028 80 7000 2.1 30 22:18 10.04.2020
5166 Clouds 7 1028 80 7000 2.1 30 22:18 10.04.2020
5167 Clouds 8 1027 70 10000 2.6 40 21:41 10.04.2020
5168 Clouds 8 1028 70 8000 2.1 30 21:21 10.04.2020
5169 Clouds 9 1028 70 8000 2.1 30 20:57 10.04.2020
5170 Clouds 9 1027 61 10000 3.1 30 20:38 10.04.2020
5171 Clouds 10 1027 65 9000 2.1 30 20:38 10.04.2020
5172 Clouds 10 1027 65 9000 2.1 30 20:19 10.04.2020
5173 Clouds 10 1027 65 9000 2.1 30 19:55 10.04.2020
5174 Clouds 11 1027 57 10000 3.6 40 19:37 10.04.2020
5175 Clouds 11 1027 61 10000 3.6 40 19:18 10.04.2020
5176 Clouds 11 1027 61 10000 3.6 40 18:55 10.04.2020
5177 Clouds 12 1028 61 10000 4.1 30 18:37 10.04.2020
5178 Clouds 12 1028 61 10000 4.1 30 18:18 10.04.2020
5179 Clouds 13 1028 61 10000 4.1 30 17:56 10.04.2020
5180 Clouds 13 1027 43 10000 4.1 50 17:38 10.04.2020
5181 Clouds 13 1028 57 10000 3.6 20 17:18 10.04.2020
5182 Clouds 13 1028 57 10000 3.6 20 16:42 10.04.2020
5183 Clouds 13 1028 57 9000 4.1 10 16:23 10.04.2020
5184 Clouds 13 1028 57 9000 4.1 10 15:58 10.04.2020
5185 Clouds 13 1028 59 10000 2.6 0 15:39 10.04.2020
5186 Clouds 13 1028 57 9000 4.1 10 15:21 10.04.2020
5187 Clouds 13 1028 57 9000 4.1 10 14:59 10.04.2020
5188 Clouds 13 1028 43 10000 2.6 60 14:40 10.04.2020
5189 Clouds 13 1029 57 10000 3.1 20 14:21 10.04.2020
5190 Clouds 12 1029 57 10000 3.1 20 13:49 10.04.2020
5191 Clouds 12 1029 57 7000 2.6 10 13:23 10.04.2020
5192 Clouds 12 1029 50 10000 2.6 40 12:59 10.04.2020
5193 Clouds 11 1029 50 10000 2.6 40 12:41 10.04.2020
5194 Clouds 10 1029 66 7000 2.6 350 12:21 10.04.2020
5195 Clouds 10 1029 66 7000 2.6 350 11:43 10.04.2020
5196 Clouds 10 1029 70 10000 3.1 80 11:25 10.04.2020
5197 Clouds 9 1029 75 10000 3.1 70 10:59 10.04.2020
5198 Clouds 9 1029 75 10000 3.1 70 10:41 10.04.2020
5199 Clouds 8 1029 75 10000 3.6 70 10:22 10.04.2020
5200 Clouds 7 1029 81 6000 1 360 09:44 10.04.2020
5201 Clouds 7 1029 87 10000 4.1 70 09:24 10.04.2020
5202 Clouds 5 1029 93 6000 1 260 08:55 10.04.2020
5203 Clouds 5 1029 93 10000 2.1 80 08:37 10.04.2020
5204 Clouds 4 1029 93 10000 1.5 80 08:18 10.04.2020
5205 Clouds 2 1029 93 9000 1 80 07:41 10.04.2020
5206 Clouds 2 1029 82 800 1.48 61 07:21 10.04.2020
5207 Clouds 2 1029 82 800 1.48 61 06:43 10.04.2020
5208 Clouds 3 1028 87 7000 1.5 20 06:23 10.04.2020
5209 Clouds 3 1028 100 10000 2.1 60 05:35 10.04.2020
5210 Clouds 3 1029 87 6000 1.5 10 04:57 10.04.2020
5211 Clouds 4 1028 100 10000 2.1 60 03:37 10.04.2020
5212 Clouds 4 1029 93 5000 1 10 02:59 10.04.2020
5213 Clouds 4 1028 93 10000 2.6 60 02:38 10.04.2020
5214 Clouds 4 1029 93 7000 1.5 300 02:19 10.04.2020
5215 Clouds 4 1028 93 7000 2.6 30 01:29 10.04.2020
5216 Clouds 5 1028 93 7000 2.6 30 00:49 10.04.2020
5217 Clouds 5 1029 86 7000 3.1 20 00:23 10.04.2020
5218 Clouds 6 1029 86 7000 3.1 20 23:44 09.04.2020
5219 Clouds 6 1029 86 6000 3.1 20 23:26 09.04.2020
5220 Clouds 6 1029 86 6000 3.1 20 23:00 09.04.2020
5221 Clouds 6 1029 86 10000 3.1 20 22:41 09.04.2020
5222 Clouds 6 1029 86 10000 3.1 20 22:22 09.04.2020
5223 Clouds 7 1028 81 10000 2.1 20 21:45 09.04.2020
5224 Clouds 7 1028 75 10000 2.6 20 21:26 09.04.2020
5225 Clouds 8 1028 75 10000 2.6 20 20:59 09.04.2020
5226 Clouds 8 1027 75 10000 5.1 30 20:40 09.04.2020
5227 Clouds 9 1028 70 10000 5.7 20 20:20 09.04.2020
5228 Clouds 10 1028 70 10000 5.7 20 19:56 09.04.2020
5229 Clouds 11 1027 61 10000 5.7 10 19:36 09.04.2020
5230 Clouds 11 1027 61 10000 5.7 10 19:18 09.04.2020
5231 Clouds 12 1027 66 10000 5.1 30 18:41 09.04.2020
5232 Clouds 13 1027 57 10000 5.1 10 18:18 09.04.2020
5233 Clouds 13 1026 66 10000 5.1 30 17:41 09.04.2020
5234 Clouds 14 1027 61 10000 5.7 20 17:22 09.04.2020
5235 Clouds 15 1027 61 10000 5.7 20 16:56 09.04.2020
5236 Clouds 15 1026 48 10000 3.6 360 16:37 09.04.2020
5237 Clouds 16 1027 66 10000 5.1 20 16:18 09.04.2020
5238 Clouds 16 1027 66 10000 5.1 20 15:54 09.04.2020
5239 Clouds 16 1027 66 10000 5.7 10 15:36 09.04.2020
5240 Clouds 15 1026 51 10000 4.6 350 15:36 09.04.2020
5241 Clear 17 1026 45 10000 3.6 320 15:18 09.04.2020
5242 Clear 16 1026 42 10000 3.6 310 14:39 09.04.2020
5243 Clouds 16 1026 62 10000 5.1 360 14:21 09.04.2020
5244 Clouds 16 1026 48 10000 3.1 0 13:43 09.04.2020
5245 Clouds 16 1026 62 10000 4.1 350 13:25 09.04.2020
5246 Clouds 16 1026 62 10000 4.1 350 12:59 09.04.2020
5247 Clouds 16 1026 62 10000 4.1 350 12:59 09.04.2020
5248 Clouds 16 1026 44 10000 2.6 300 12:41 09.04.2020
5249 Clouds 16 1026 51 10000 4.1 290 12:21 09.04.2020
5250 Clouds 15 1026 51 10000 4.1 290 11:57 09.04.2020
5251 Clouds 14 1025 58 10000 2.1 310 11:38 09.04.2020
5252 Clouds 14 1025 58 10000 2.1 310 11:20 09.04.2020
5253 Clouds 14 1025 58 10000 2.1 310 10:56 09.04.2020
5254 Clouds 14 1026 66 10000 2.1 10 10:37 09.04.2020
5255 Clouds 13 1026 71 10000 1.5 10 10:18 09.04.2020
5256 Clouds 12 1025 81 10000 1.5 270 09:55 09.04.2020
5257 Clouds 10 1025 87 10000 1.5 240 09:37 09.04.2020
5258 Clouds 9 1025 87 10000 1.5 240 09:19 09.04.2020
5259 Clear 7 1025 93 3800 1.5 220 08:42 09.04.2020
5260 Clear 6 1025 93 2800 0.5 0 08:23 09.04.2020
5261 Clear 5 1025 93 2800 0.5 0 07:52 09.04.2020
5262 Clear 5 1024 93 100 1 290 07:24 09.04.2020
5263 Clear 5 1024 93 100 1 290 06:51 09.04.2020
5264 Clear 6 1024 93 300 0.5 250 05:56 09.04.2020
5265 Clear 6 1023 100 100 1 270 05:37 09.04.2020
5266 Clear 7 1024 93 3400 1.5 340 03:20 09.04.2020
5267 Clear 7 1024 87 3200 0.5 300 02:21 09.04.2020
5268 Clear 8 1024 87 3900 0.5 0 01:40 09.04.2020
5269 Clear 8 1024 87 3900 0.5 0 01:20 09.04.2020
5270 Clear 8 1024 93 10000 1 90 00:40 09.04.2020
5271 Clear 9 1023 93 5000 0.5 340 00:19 09.04.2020
5272 Clear 9 1023 93 5000 0.5 340 23:57 08.04.2020
5273 Clouds 10 1023 87 10000 2.6 10 23:39 08.04.2020
5274 Clouds 10 1023 87 10000 2.6 10 23:20 08.04.2020
5275 Clouds 11 1023 81 10000 2.6 360 22:42 08.04.2020
5276 Clouds 11 1023 81 10000 2.6 360 22:24 08.04.2020
5277 Clouds 11 1023 81 10000 2.6 360 21:56 08.04.2020
5278 Clouds 12 1023 71 10000 3.1 360 21:37 08.04.2020
5279 Clouds 12 1023 71 10000 3.1 360 21:19 08.04.2020
5280 Clouds 13 1023 71 10000 3.1 360 20:57 08.04.2020
5281 Clouds 14 1023 58 10000 3.1 360 20:38 08.04.2020
5282 Clouds 14 1023 58 10000 3.1 360 20:19 08.04.2020
5283 Clouds 16 1023 51 10000 3.1 10 19:42 08.04.2020
5284 Clouds 17 1023 45 10000 3.6 360 19:22 08.04.2020
5285 Clouds 18 1023 45 10000 3.6 360 18:59 08.04.2020
5286 Clouds 19 1023 42 10000 3.6 360 18:40 08.04.2020
5287 Clouds 20 1023 42 10000 3.6 360 18:22 08.04.2020
5288 Clouds 20 1023 45 10000 3.6 30 17:44 08.04.2020
5289 Clouds 20 1024 42 10000 3.6 10 17:22 08.04.2020
5290 Clouds 20 1024 42 10000 3.6 10 17:22 08.04.2020
5291 Clouds 21 1024 42 10000 3.6 10 16:59 08.04.2020
5292 Clouds 21 1023 46 10000 2.6 340 16:41 08.04.2020
5293 Clouds 21 1024 48 10000 3.29 346 16:22 08.04.2020
5294 Clouds 20 1024 48 10000 3.29 346 15:55 08.04.2020
5295 Clouds 21 1024 43 10000 1.5 0 15:37 08.04.2020
5296 Clouds 20 1024 52 10000 2.6 320 15:18 08.04.2020
5297 Clouds 21 1024 43 10000 2.6 0 14:42 08.04.2020
5298 Clouds 20 1024 48 10000 1.5 280 14:24 08.04.2020
5299 Clouds 20 1024 48 10000 1.5 280 13:54 08.04.2020
5300 Clouds 20 1025 48 10000 2.1 250 13:36 08.04.2020
5301 Clouds 20 1025 48 10000 2.1 250 13:18 08.04.2020
5302 Clouds 19 1025 48 10000 1 0 12:41 08.04.2020
5303 Clouds 17 1026 51 10000 2.1 240 12:18 08.04.2020
5304 Clouds 17 1026 51 10000 2.1 240 12:18 08.04.2020
5305 Clouds 17 1026 51 10000 2.1 240 11:56 08.04.2020
5306 Clouds 17 1025 55 10000 1 0 11:38 08.04.2020
5307 Clouds 16 1026 54 10000 3.1 200 11:19 08.04.2020
5308 Clouds 16 1026 54 10000 3.1 200 10:55 08.04.2020
5309 Clouds 15 1026 54 10000 4.1 170 10:37 08.04.2020
5310 Clouds 15 1026 54 10000 4.1 170 10:18 08.04.2020
5311 Clouds 13 1026 54 10000 4.1 170 09:42 08.04.2020
5312 Clouds 11 1026 53 10000 2.6 150 09:21 08.04.2020
5313 Clouds 10 1026 57 8000 2.1 140 08:59 08.04.2020
5314 Clouds 10 1026 75 10000 1 0 08:41 08.04.2020
5315 Clouds 8 1027 61 8000 2.6 120 08:22 08.04.2020
5316 Clouds 7 1027 61 8000 2.6 120 07:44 08.04.2020
5317 Clouds 7 1027 61 8000 3.1 110 07:25 08.04.2020
5318 Clouds 7 1027 61 8000 3.1 110 06:55 08.04.2020
5319 Clouds 8 1028 61 8000 3.1 120 05:56 08.04.2020
5320 Clouds 8 1029 65 7000 2.6 100 03:49 08.04.2020
5321 Clouds 8 1030 70 7000 3.1 90 02:49 08.04.2020
5322 Clouds 8 1030 70 8000 2.6 80 02:19 08.04.2020
5323 Clouds 8 1030 70 8000 2.6 80 01:43 08.04.2020
5324 Clouds 8 1030 70 8000 2.6 80 01:22 08.04.2020
5325 Clouds 9 1030 70 10000 3.1 80 00:41 08.04.2020
5326 Clouds 9 1031 66 7000 3.6 70 00:21 08.04.2020
5327 Clouds 9 1031 61 10000 3.1 70 23:39 07.04.2020
5328 Clouds 9 1031 61 10000 3.1 70 23:20 07.04.2020
5329 Clouds 9 1031 61 10000 3.1 70 22:57 07.04.2020
5330 Clouds 10 1030 66 10000 3.1 70 22:39 07.04.2020
5331 Clouds 10 1032 61 10000 3.1 60 22:19 07.04.2020
5332 Clouds 11 1032 61 10000 3.1 60 21:56 07.04.2020
5333 Clouds 11 1030 57 10000 4.6 60 21:38 07.04.2020
5334 Clouds 12 1032 53 10000 3.6 80 21:19 07.04.2020
5335 Clouds 12 1032 53 10000 3.6 80 20:56 07.04.2020
5336 Clouds 13 1032 54 10000 5.1 70 20:37 07.04.2020
5337 Clouds 13 1032 54 10000 5.1 70 20:19 07.04.2020
5338 Clouds 14 1032 54 10000 5.1 70 19:56 07.04.2020
5339 Clouds 14 1032 54 10000 5.1 70 19:56 07.04.2020
5340 Clouds 15 1032 71 10000 6.2 70 19:36 07.04.2020
5341 Clouds 15 1032 71 10000 6.2 70 19:18 07.04.2020
5342 Clouds 16 1032 71 10000 6.2 70 18:54 07.04.2020
5343 Clouds 16 1032 41 10000 4.6 60 18:36 07.04.2020
5344 Clouds 16 1032 41 10000 4.6 60 18:18 07.04.2020
5345 Clouds 17 1032 41 10000 5.1 70 17:44 07.04.2020
5346 Clouds 17 1032 41 10000 5.1 70 17:20 07.04.2020
5347 Clouds 17 1032 41 10000 5.1 70 16:46 07.04.2020
5348 Clouds 17 1033 38 10000 3.6 50 16:27 07.04.2020
5349 Clouds 18 1033 38 10000 3.6 50 15:56 07.04.2020
5350 Clouds 17 1033 44 10000 3.1 90 15:38 07.04.2020
5351 Clouds 18 1033 44 10000 3.1 90 15:19 07.04.2020
5352 Clouds 17 1032 45 10000 1 0 14:41 07.04.2020
5353 Clouds 17 1033 41 10000 1 170 14:22 07.04.2020
5354 Clouds 16 1033 41 10000 1 170 13:57 07.04.2020
5355 Clouds 16 1032 48 10000 2.6 70 13:37 07.04.2020
5356 Clouds 16 1033 54 10000 2.1 320 13:18 07.04.2020
5357 Clouds 15 1033 54 10000 2.1 320 12:55 07.04.2020
5358 Clouds 14 1033 71 10000 1.5 220 12:36 07.04.2020
5359 Clear 14 1033 71 10000 1.5 220 12:18 07.04.2020
5360 Clear 13 1033 71 10000 1.5 220 11:42 07.04.2020
5361 Mist 12 1032 87 5000 1.5 210 11:24 07.04.2020
5362 Mist 11 1032 87 5000 1.5 210 10:58 07.04.2020
5363 Mist 11 1032 100 3000 1.5 0 10:38 07.04.2020
5364 Mist 10 1032 100 3000 1.5 0 10:19 07.04.2020
5365 Mist 9 1032 93 1000 2.1 270 09:45 07.04.2020
5366 Fog 8 1031 100 400 1 250 09:19 07.04.2020
5367 Fog 8 1031 100 400 1 250 09:19 07.04.2020
5368 Clear 8 1031 100 150 1.5 230 08:56 07.04.2020
5369 Fog 7 1031 100 150 1 0 08:38 07.04.2020
5370 Clear 7 1030 93 50 1 220 08:18 07.04.2020
5371 Fog 8 1030 100 100 1 0 07:41 07.04.2020
5372 Clear 7 1029 93 50 1.5 220 07:21 07.04.2020
5373 Clear 8 1029 93 50 1.5 220 06:51 07.04.2020
5374 Clear 8 1028 100 100 1.5 260 06:24 07.04.2020
5375 Clear 8 1028 100 100 1.5 260 05:46 07.04.2020
5376 Clear 8 1028 100 100 3.1 270 05:22 07.04.2020
5377 Clear 9 1026 93 3400 3.6 270 03:32 07.04.2020
5378 Rain 10 1026 93 3400 3.6 270 02:59 07.04.2020
5379 Rain 10 1025 87 4700 0.5 0 01:59 07.04.2020
5380 Rain 10 1024 87 3600 3.6 300 01:32 07.04.2020
5381 Rain 11 1024 87 3600 3.6 300 00:44 07.04.2020
5382 Clouds 11 1023 87 5000 3.6 280 00:25 07.04.2020
5383 Rain 11 1024 93 5000 4.6 290 23:39 06.04.2020
5384 Clouds 11 1023 81 10000 4.1 270 23:20 06.04.2020
5385 Clouds 12 1023 87 10000 4.6 270 22:41 06.04.2020
5386 Clouds 12 1022 66 10000 2.1 260 22:23 06.04.2020
5387 Clouds 12 1022 66 10000 2.1 260 21:59 06.04.2020
5388 Clouds 13 1023 76 10000 4.6 280 21:40 06.04.2020
5389 Clouds 13 1021 62 10000 4.1 290 21:19 06.04.2020
5390 Clouds 14 1021 62 10000 4.1 290 20:56 06.04.2020
5391 Clouds 14 1021 62 10000 4.1 290 20:56 06.04.2020
5392 Clear 14 1021 76 10000 3.1 260 20:38 06.04.2020
5393 Clouds 15 1020 51 10000 6.2 300 20:19 06.04.2020
5394 Clouds 15 1020 51 10000 6.2 300 19:56 06.04.2020
5395 Clear 16 1020 62 10000 4.1 250 19:38 06.04.2020
5396 Clear 17 1020 55 10000 4.1 270 19:19 06.04.2020
5397 Clear 17 1020 55 10000 4.1 270 19:19 06.04.2020
5398 Clear 18 1019 55 10000 5.7 280 18:42 06.04.2020
5399 Clouds 20 1018 23 10000 5.1 220 18:23 06.04.2020
5400 Clouds 22 1018 23 10000 5.1 220 17:57 06.04.2020
5401 Clear 23 1018 30 10000 5.7 210 17:38 06.04.2020
5402 Clear 23 1018 58 10000 5.1 210 17:18 06.04.2020
5403 Clear 23 1018 58 10000 5.1 210 16:47 06.04.2020
5404 Clear 23 1018 58 10000 5.1 210 16:47 06.04.2020
5405 Clear 23 1018 23 10000 5.7 210 16:29 06.04.2020
5406 Clear 22 1018 28 10000 5.7 190 14:47 06.04.2020
5407 Clear 22 1018 28 10000 5.7 190 14:47 06.04.2020
5408 Clear 22 1018 28 10000 5.7 190 14:47 06.04.2020
5409 Clear 22 1018 28 10000 5.7 190 14:47 06.04.2020
5410 Clear 22 1018 28 10000 5.7 190 14:47 06.04.2020
5411 Clear 21 1018 30 10000 5.1 180 13:44 06.04.2020
5412 Clear 21 1018 34 10000 4.6 170 13:22 06.04.2020
5413 Clear 21 1018 34 10000 4.6 170 13:22 06.04.2020
5414 Clear 20 1018 34 10000 4.6 170 12:46 06.04.2020
5415 Clear 20 1018 34 10000 4.6 170 12:46 06.04.2020
5416 Clear 20 1018 34 10000 4.6 170 12:46 06.04.2020
5417 Clear 20 1018 34 10000 4.6 170 12:46 06.04.2020
5418 Clear 20 1018 34 10000 4.6 170 12:46 06.04.2020
5419 Clear 18 1018 36 10000 4.6 190 12:19 06.04.2020
5420 Clear 17 1018 36 10000 4.6 190 11:40 06.04.2020
5421 Clear 16 1018 38 10000 4.6 170 11:03 06.04.2020
5422 Clear 16 1018 38 10000 4.6 170 11:02 06.04.2020
5423 Clear 17 1018 38 10000 4.6 170 11:02 06.04.2020
5424 Clear 16 1018 38 10000 4.6 170 11:02 06.04.2020
5425 Clear 17 1018 38 10000 4.6 170 11:02 06.04.2020
5426 Clear 16 1018 38 10000 4.6 170 10:37 06.04.2020
5427 Clear 16 1018 38 10000 4.6 170 10:37 06.04.2020
5428 Clear 15 1018 46 10000 4.6 160 10:19 06.04.2020
5429 Clear 15 1018 46 10000 4.6 160 10:19 06.04.2020
5430 Clear 14 1018 46 10000 4.6 160 09:39 06.04.2020
5431 Clear 14 1018 46 10000 4.6 160 09:39 06.04.2020
5432 Clear 14 1018 46 10000 4.6 160 09:39 06.04.2020
5433 Clear 14 1018 46 10000 4.6 160 09:39 06.04.2020
5434 Clear 11 1018 53 10000 3.1 150 09:19 06.04.2020
5435 Clear 10 1017 78 7000 3.6 140 08:43 06.04.2020
5436 Clear 10 1017 78 7000 3.6 140 08:43 06.04.2020
5437 Clear 10 1017 78 7000 3.6 140 08:43 06.04.2020
5438 Clear 10 1017 78 7000 3.6 140 08:43 06.04.2020
5439 Clear 10 1017 78 7000 3.6 140 08:43 06.04.2020
5440 Clear 9 1016 57 10000 3.1 140 08:23 06.04.2020
5441 Clear 8 1017 78 7000 3.1 140 07:23 06.04.2020
5442 Clear 8 1017 78 7000 3.1 140 07:23 06.04.2020
5443 Clear 8 1017 78 7000 3.1 140 07:23 06.04.2020
5444 Clear 8 1017 78 7000 3.1 140 07:23 06.04.2020
5445 Clear 8 1016 65 10000 2.6 120 06:27 06.04.2020
5446 Clear 8 1018 78 8000 3.1 130 05:52 06.04.2020
5447 Clear 9 1018 78 7000 3.1 120 03:57 06.04.2020
5448 Clear 10 1018 75 8000 3.1 130 02:52 06.04.2020
5449 Clear 10 1017 53 10000 3.6 120 01:56 06.04.2020
5450 Clear 10 1017 53 10000 3.6 120 01:56 06.04.2020
5451 Clear 11 1019 73 8000 4.6 130 00:55 06.04.2020
5452 Clear 11 1017 50 10000 4.1 130 00:28 06.04.2020
5453 Clear 12 1019 46 8000 5.1 130 00:28 06.04.2020
5454 Clear 12 1019 46 8000 5.1 130 00:28 06.04.2020
5455 Clear 12 1019 46 8000 5.1 130 23:55 05.04.2020
5456 Clear 12 1019 46 8000 5.1 130 23:37 05.04.2020
5457 Clear 12 1020 43 8000 5.7 130 23:19 05.04.2020
5458 Clear 12 1020 43 8000 5.7 130 22:54 05.04.2020
5459 Clear 13 1020 43 8000 5.7 130 22:36 05.04.2020
5460 Clear 13 1020 44 8000 5.7 130 22:18 05.04.2020
5461 Clear 14 1020 44 8000 5.7 130 21:41 05.04.2020
5462 Clear 14 1020 41 8000 3.6 120 21:23 05.04.2020
5463 Clear 16 1018 36 10000 3.6 130 20:24 05.04.2020
5464 Clear 16 1018 36 10000 3.6 130 20:24 05.04.2020
5465 Clear 17 1020 72 9000 5.7 140 19:43 05.04.2020
5466 Clear 18 1020 72 10000 6.2 140 19:24 05.04.2020
5467 Clear 18 1020 72 10000 6.2 140 18:49 05.04.2020
5468 Clear 18 1021 54 9000 6.2 150 18:18 05.04.2020
5469 Clear 19 1021 54 9000 6.2 150 17:49 05.04.2020
5470 Clear 19 1021 54 9000 6.2 150 17:49 05.04.2020
5471 Clear 19 1021 54 9000 6.2 150 17:49 05.04.2020
5472 Clear 19 1021 54 9000 6.2 150 17:49 05.04.2020
5473 Clear 19 1021 54 9000 7.2 150 17:22 05.04.2020
5474 Clear 19 1021 54 9000 7.2 150 16:47 05.04.2020
5475 Clear 19 1021 54 9000 7.2 150 16:47 05.04.2020
5476 Clear 19 1021 54 9000 7.2 150 16:47 05.04.2020
5477 Clear 19 1022 54 9000 7.7 150 16:19 05.04.2020
5478 Clear 19 1022 54 9000 7.7 150 15:46 05.04.2020
5479 Clear 19 1020 54 10000 7.7 160 15:28 05.04.2020
5480 Clear 19 1020 54 10000 7.7 160 15:28 05.04.2020
5481 Clear 18 1023 54 8000 7.7 160 14:48 05.04.2020
5482 Clear 18 1023 54 8000 7.7 160 14:48 05.04.2020
5483 Clear 18 1023 54 8000 7.7 160 14:48 05.04.2020
5484 Clear 18 1023 54 8000 7.7 160 14:48 05.04.2020
5485 Clear 18 1024 36 8000 5.1 150 13:59 05.04.2020
5486 Clear 18 1024 36 8000 5.1 150 13:40 05.04.2020
5487 Clear 18 1024 36 8000 5.1 150 13:40 05.04.2020
5488 Clear 18 1024 36 8000 5.1 150 13:40 05.04.2020
5489 Clear 18 1024 36 8000 5.1 150 13:40 05.04.2020
5490 Clear 18 1024 36 8000 5.1 150 13:40 05.04.2020
5491 Clear 15 1025 46 7000 5.1 140 12:21 05.04.2020
5492 Clear 14 1025 46 7000 5.1 140 11:40 05.04.2020
5493 Clear 13 1024 50 10000 4.1 130 11:20 05.04.2020
5494 Clear 12 1025 69 6000 4.1 140 10:48 05.04.2020
5495 Clear 11 1024 57 10000 4.1 120 10:23 05.04.2020
5496 Clear 10 1026 69 6000 4.1 140 09:55 05.04.2020
5497 Clear 8 1026 69 7000 3.6 120 09:27 05.04.2020
5498 Clouds 6 1026 81 7000 3.6 120 08:34 05.04.2020
5499 Clouds 4 1025 69 7000 3.1 110 07:21 05.04.2020
5500 Clouds 5 1025 64 7000 3.1 110 04:33 05.04.2020
5501 Clouds 6 1024 65 10000 2.6 110 03:29 05.04.2020
5502 Clear 6 1026 65 7000 2.6 120 02:49 05.04.2020
5503 Clear 6 1026 60 8000 2.1 120 01:46 05.04.2020
5504 Clear 6 1026 74 6000 1.5 140 01:25 05.04.2020
5505 Clear 6 1026 74 6000 1.5 140 00:43 05.04.2020
5506 Clear 7 1026 74 7000 2.1 140 00:21 05.04.2020
5507 Clear 7 1026 75 7000 2.1 140 23:43 04.04.2020
5508 Clear 7 1025 70 7000 2.1 130 23:23 04.04.2020
5509 Clear 7 1025 70 7000 2.1 130 22:58 04.04.2020
5510 Clear 8 1025 70 7000 2.1 130 22:40 04.04.2020
5511 Clear 8 1025 70 7000 2.6 90 22:21 04.04.2020
5512 Clear 9 1025 70 7000 2.6 90 21:58 04.04.2020
5513 Clear 9 1025 70 7000 2.6 90 21:39 04.04.2020
5514 Clouds 10 1025 61 8000 2.6 50 21:19 04.04.2020
5515 Clouds 10 1025 61 8000 2.6 50 20:58 04.04.2020
5516 Clouds 11 1025 61 8000 2.6 50 20:39 04.04.2020
5517 Clouds 11 1024 37 9000 2.1 160 20:20 04.04.2020
5518 Clouds 12 1024 37 9000 2.1 160 19:57 04.04.2020
5519 Clouds 13 1024 37 9000 2.1 160 19:37 04.04.2020
5520 Clouds 13 1024 37 9000 3.1 210 19:19 04.04.2020
5521 Clouds 13 1024 37 9000 3.1 210 19:19 04.04.2020
5522 Clouds 14 1024 37 9000 3.1 210 18:55 04.04.2020
5523 Clouds 14 1024 37 9000 3.1 210 18:37 04.04.2020
5524 Clear 14 1024 35 9000 4.1 200 18:19 04.04.2020
5525 Clear 14 1024 35 9000 4.1 200 17:41 04.04.2020
5526 Clear 14 1024 35 9000 4.1 200 17:41 04.04.2020
5527 Clear 15 1024 57 9000 4.1 260 17:20 04.04.2020
5528 Clear 14 1024 57 9000 4.1 260 16:59 04.04.2020
5529 Clear 14 1024 57 9000 4.1 260 16:41 04.04.2020
5530 Clear 14 1024 41 9000 4.6 230 16:22 04.04.2020
5531 Clear 14 1024 55 10000 3.1 190 15:55 04.04.2020
5532 Clear 14 1024 41 9000 4.6 230 15:36 04.04.2020
5533 Clouds 14 1024 41 8000 5.7 220 15:18 04.04.2020
5534 Clouds 14 1024 41 8000 5.7 220 14:42 04.04.2020
5535 Clouds 14 1024 43 8000 6.2 230 14:22 04.04.2020
5536 Clouds 14 1024 41 10000 5.1 230 13:56 04.04.2020
5537 Clouds 13 1024 43 8000 6.2 230 13:37 04.04.2020
5538 Clouds 13 1024 46 7000 6.2 240 13:19 04.04.2020
5539 Clouds 12 1024 46 7000 6.2 240 12:45 04.04.2020
5540 Clouds 12 1023 50 8000 5.1 240 12:26 04.04.2020
5541 Clouds 11 1023 50 8000 5.1 240 11:59 04.04.2020
5542 Clouds 11 1023 50 8000 5.1 240 11:38 04.04.2020
5543 Clouds 10 1023 57 7000 5.7 230 11:20 04.04.2020
5544 Clouds 10 1023 57 7000 5.7 230 10:56 04.04.2020
5545 Clouds 9 1023 57 7000 5.7 230 10:38 04.04.2020
5546 Clouds 9 1023 61 10000 5.7 210 10:19 04.04.2020
5547 Clouds 8 1023 70 7000 4.6 220 09:55 04.04.2020
5548 Clouds 7 1023 70 7000 4.6 220 09:37 04.04.2020
5549 Clouds 6 1022 80 7000 3.6 210 09:19 04.04.2020
5550 Clouds 5 1022 80 7000 3.6 210 08:42 04.04.2020
5551 Clouds 4 1021 86 7000 2.6 210 08:21 04.04.2020
5552 Clouds 3 1021 86 7000 2.6 210 07:47 04.04.2020
5553 Clouds 3 1021 80 10000 3.6 210 07:28 04.04.2020
5554 Clouds 3 1021 80 7000 3.1 200 06:57 04.04.2020
5555 Clouds 4 1021 80 10000 3.6 210 06:21 04.04.2020
5556 Clouds 3 1021 86 7000 2.1 200 05:51 04.04.2020
5557 Clouds 3 1021 86 10000 3.1 210 05:32 04.04.2020
5558 Clouds 2 1021 86 7000 2.1 210 04:33 04.04.2020
5559 Clouds 2 1020 84 7000 1 210 03:55 04.04.2020
5560 Clouds 2 1021 84 10000 2.6 200 03:27 04.04.2020
5561 Clear 2 1020 80 7000 2.1 220 02:42 04.04.2020
5562 Clear 1 1019 86 7000 2.6 210 02:24 04.04.2020
5563 Clear 1 1020 92 10000 2.1 210 01:27 04.04.2020
5564 Clear 2 1019 80 7000 1.5 220 00:57 04.04.2020
5565 Clear 2 1019 69 7000 1.5 260 00:31 04.04.2020
5566 Clear 2 1019 69 7000 1.5 260 23:57 03.04.2020
5567 Clear 3 1019 69 7000 1.5 260 23:38 03.04.2020
5568 Clear 3 1018 69 7000 2.1 260 23:19 03.04.2020
5569 Clear 3 1018 69 7000 2.1 260 23:19 03.04.2020
5570 Clear 4 1018 69 7000 2.1 260 22:40 03.04.2020
5571 Clear 4 1018 65 7000 3.1 290 22:19 03.04.2020
5572 Clear 4 1018 65 7000 3.1 290 22:19 03.04.2020
5573 Clear 4 1018 65 7000 3.1 290 21:57 03.04.2020
5574 Clear 5 1018 65 7000 3.1 290 21:38 03.04.2020
5575 Clouds 5 1017 72 10000 4.1 300 21:20 03.04.2020
5576 Clouds 6 1017 72 10000 4.1 300 20:55 03.04.2020
5577 Clouds 6 1017 72 10000 4.1 300 20:36 03.04.2020
5578 Clouds 6 1017 56 10000 5.1 300 20:18 03.04.2020
5579 Clouds 7 1017 56 10000 5.1 300 19:55 03.04.2020
5580 Clouds 7 1017 56 10000 5.1 300 19:36 03.04.2020
5581 Clouds 7 1016 52 10000 5.7 300 19:18 03.04.2020
5582 Clouds 7 1016 52 10000 5.7 300 18:57 03.04.2020
5583 Clouds 8 1016 52 10000 5.7 300 18:39 03.04.2020
5584 Clouds 8 1016 52 10000 6.7 300 18:21 03.04.2020
5585 Clouds 8 1016 52 10000 6.7 300 17:42 03.04.2020
5586 Clouds 8 1015 42 10000 6.2 290 17:20 03.04.2020
5587 Clouds 8 1015 42 10000 6.2 290 16:56 03.04.2020
5588 Clouds 8 1015 42 10000 6.2 290 16:38 03.04.2020
5589 Clouds 8 1015 45 10000 6.7 290 16:20 03.04.2020
5590 Clouds 9 1015 45 10000 6.7 290 15:56 03.04.2020
5591 Clouds 9 1015 45 10000 6.7 290 15:37 03.04.2020
5592 Clouds 9 1015 61 10000 4.1 310 15:19 03.04.2020
5593 Clouds 9 1015 58 10000 5.1 250 14:41 03.04.2020
5594 Clouds 9 1015 58 10000 5.1 250 14:22 03.04.2020
5595 Clouds 9 1015 58 10000 5.1 250 13:57 03.04.2020
5596 Clouds 8 1015 58 10000 5.1 250 13:38 03.04.2020
5597 Clouds 8 1014 45 10000 8.2 290 13:20 03.04.2020
5598 Clouds 9 1014 45 10000 8.2 290 12:43 03.04.2020
5599 Clouds 8 1013 49 10000 8.2 290 12:20 03.04.2020
5600 Clouds 8 1013 49 10000 8.2 290 11:57 03.04.2020
5601 Clouds 8 1013 49 10000 8.2 290 11:38 03.04.2020
5602 Clouds 8 1012 48 10000 8.2 300 11:20 03.04.2020
5603 Clouds 8 1012 48 10000 8.2 300 10:58 03.04.2020
5604 Clouds 8 1012 48 10000 8.2 300 10:38 03.04.2020
5605 Clouds 7 1012 52 10000 6.7 300 10:20 03.04.2020
5606 Clouds 7 1012 52 10000 6.7 300 09:59 03.04.2020
5607 Clouds 7 1012 52 10000 6.7 300 09:40 03.04.2020
5608 Clouds 7 1011 60 10000 3.6 270 09:21 03.04.2020
5609 Clear 6 1012 75 10000 2.1 260 08:55 03.04.2020
5610 Clouds 5 1011 60 10000 3.6 270 08:37 03.04.2020
5611 Clouds 5 1010 60 10000 4.1 290 08:18 03.04.2020
5612 Clouds 4 1010 60 10000 4.1 290 07:46 03.04.2020
5613 Clouds 5 1010 60 10000 4.6 290 07:27 03.04.2020
5614 Clouds 5 1010 60 10000 4.6 290 06:40 03.04.2020
5615 Clouds 5 1009 60 10000 4.6 290 06:21 03.04.2020
5616 Clouds 5 1009 60 10000 4.6 290 05:34 03.04.2020
5617 Clouds 5 1008 65 7000 4.6 290 03:40 03.04.2020
5618 Clouds 5 1010 86 10000 2.1 270 02:55 03.04.2020
5619 Clouds 5 1008 56 7000 7.2 300 02:18 03.04.2020
5620 Clouds 5 1007 70 6000 5.7 290 01:20 03.04.2020
5621 Clouds 6 1007 70 6000 5.7 290 00:34 03.04.2020
5622 Rain 7 1007 81 5000 5.1 290 23:58 02.04.2020
5623 Rain 7 1007 81 5000 5.1 290 23:39 02.04.2020
5624 Rain 7 1007 81 5000 5.1 290 23:39 02.04.2020
5625 Clouds 7 1007 81 10000 6.2 310 23:21 02.04.2020
5626 Clouds 7 1007 75 10000 6.2 320 22:43 02.04.2020
5627 Clouds 8 1006 81 10000 8.2 270 22:25 02.04.2020
5628 Clouds 8 1006 81 10000 8.2 270 21:59 02.04.2020
5629 Clouds 8 1006 81 10000 8.2 270 21:38 02.04.2020
5630 Clouds 8 1006 81 10000 8.2 270 21:38 02.04.2020
5631 Clouds 8 1006 81 7000 9.8 270 21:19 02.04.2020
5632 Clouds 8 1006 81 7000 9.8 270 20:57 02.04.2020
5633 Clouds 8 1006 81 7000 9.8 270 20:38 02.04.2020
5634 Drizzle 8 1006 81 6000 7.2 260 20:19 02.04.2020
5635 Rain 8 1006 70 10000 6.7 250 19:43 02.04.2020
5636 Rain 9 1006 66 10000 10.3 260 19:21 02.04.2020
5637 Rain 9 1006 66 10000 10.3 260 19:21 02.04.2020
5638 Rain 9 1006 66 10000 10.3 260 18:58 02.04.2020
5639 Rain 9 1006 66 10000 10.3 260 18:39 02.04.2020
5640 Clouds 9 1007 57 10000 12.9 270 18:20 02.04.2020
5641 Clouds 10 1007 57 10000 12.9 270 17:56 02.04.2020
5642 Clouds 10 1007 57 10000 12.9 270 17:38 02.04.2020
5643 Clouds 10 1007 61 10000 9.8 270 17:18 02.04.2020
5644 Clouds 10 1007 61 10000 9.8 270 16:55 02.04.2020
5645 Clouds 10 1007 61 10000 9.8 270 16:36 02.04.2020
5646 Clouds 10 1008 61 10000 8.2 250 16:18 02.04.2020
5647 Clouds 10 1008 61 10000 8.2 250 15:44 02.04.2020
5648 Clouds 10 1008 61 10000 8.2 250 15:44 02.04.2020
5649 Clouds 10 1008 61 10000 8.2 250 15:44 02.04.2020
5650 Clouds 10 1008 57 10000 8.7 250 15:21 02.04.2020
5651 Clouds 10 1008 57 10000 8.7 250 14:58 02.04.2020
5652 Clouds 10 1008 57 10000 8.7 250 14:39 02.04.2020
5653 Clouds 10 1009 57 10000 7.2 250 14:19 02.04.2020
5654 Clouds 10 1009 57 10000 7.2 250 13:56 02.04.2020
5655 Clouds 10 1009 57 10000 7.2 250 13:38 02.04.2020
5656 Clouds 10 1009 57 10000 8.2 250 13:20 02.04.2020
5657 Clouds 10 1009 57 10000 8.2 250 12:55 02.04.2020
5658 Clouds 10 1009 57 10000 8.2 250 12:37 02.04.2020
5659 Clouds 10 1010 61 10000 7.7 250 12:19 02.04.2020
5660 Clouds 10 1010 61 10000 7.7 250 11:56 02.04.2020
5661 Clouds 9 1010 61 10000 7.7 250 11:37 02.04.2020
5662 Clouds 9 1010 61 10000 7.7 250 11:37 02.04.2020
5663 Clouds 9 1011 61 10000 7.2 250 11:18 02.04.2020
5664 Clouds 9 1011 61 10000 7.2 250 10:54 02.04.2020
5665 Clouds 8 1011 61 10000 7.2 250 10:36 02.04.2020
5666 Clouds 8 1012 75 10000 7.2 230 10:18 02.04.2020
5667 Clouds 7 1011 75 10000 5.7 240 09:43 02.04.2020
5668 Clouds 6 1012 86 10000 5.1 240 09:24 02.04.2020
5669 Clouds 5 1012 86 10000 5.1 240 08:58 02.04.2020
5670 Clouds 5 1012 86 10000 5.1 240 08:40 02.04.2020
5671 Clouds 5 1012 86 10000 4.6 240 08:22 02.04.2020
5672 Clouds 4 1012 86 10000 4.6 240 07:44 02.04.2020
5673 Clouds 4 1012 86 10000 4.1 240 07:20 02.04.2020
5674 Clouds 4 1012 86 10000 4.1 240 06:58 02.04.2020
5675 Clouds 4 1013 86 10000 3.6 250 06:21 02.04.2020
5676 Clouds 5 1013 86 10000 3.6 250 05:44 02.04.2020
5677 Clouds 5 1014 86 7000 4.1 260 03:57 02.04.2020
5678 Clouds 5 1015 81 7000 4.1 260 01:35 02.04.2020
5679 Clouds 5 1016 81 7000 4.6 270 00:48 02.04.2020
5680 Clouds 5 1016 81 7000 4.6 260 00:26 02.04.2020
5681 Clouds 5 1016 81 7000 4.6 260 23:55 01.04.2020
5682 Clouds 6 1016 81 7000 4.6 260 23:37 01.04.2020
5683 Clouds 6 1016 81 10000 5.1 260 23:18 01.04.2020
5684 Clouds 6 1016 81 10000 5.1 260 22:40 01.04.2020
5685 Clouds 6 1016 81 10000 4.6 270 22:22 01.04.2020
5686 Clouds 6 1016 81 10000 4.6 270 21:55 01.04.2020
5687 Clouds 6 1016 81 10000 4.6 270 21:37 01.04.2020
5688 Clouds 6 1017 75 10000 4.6 280 21:18 01.04.2020
5689 Clouds 6 1018 81 10000 2.6 270 20:55 01.04.2020
5690 Clouds 7 1017 75 10000 4.6 280 20:37 01.04.2020
5691 Clouds 7 1017 75 10000 6.7 280 20:18 01.04.2020
5692 Clouds 7 1017 75 10000 6.7 280 19:43 01.04.2020
5693 Clouds 7 1017 75 10000 7.2 290 19:22 01.04.2020
5694 Clouds 7 1017 75 10000 7.2 290 18:59 01.04.2020
5695 Clouds 7 1017 75 10000 7.2 290 18:40 01.04.2020
5696 Clouds 8 1017 70 10000 7.7 290 18:21 01.04.2020
5697 Clouds 8 1017 70 10000 7.7 290 17:55 01.04.2020
5698 Clouds 8 1017 70 10000 7.7 290 17:36 01.04.2020
5699 Clouds 8 1018 65 10000 7.2 300 17:18 01.04.2020
5700 Clouds 8 1018 65 10000 7.2 300 17:18 01.04.2020
5701 Clouds 8 1018 65 10000 7.2 300 16:43 01.04.2020
5702 Clouds 8 1019 65 10000 7.2 290 16:24 01.04.2020
5703 Clouds 8 1019 81 10000 4.1 240 15:59 01.04.2020
5704 Clouds 7 1019 65 10000 7.2 290 15:41 01.04.2020
5705 Clouds 7 1019 61 10000 6.7 300 15:22 01.04.2020
5706 Clouds 8 1019 61 10000 6.7 300 14:58 01.04.2020
5707 Clouds 8 1019 61 10000 6.7 300 14:39 01.04.2020
5708 Clouds 8 1020 70 10000 6.7 280 14:20 01.04.2020
5709 Clouds 7 1020 70 10000 6.7 280 13:58 01.04.2020
5710 Clouds 8 1020 70 10000 6.7 280 13:38 01.04.2020
5711 Clouds 8 1020 61 10000 6.2 270 13:19 01.04.2020
5712 Clouds 8 1020 61 10000 6.2 270 12:57 01.04.2020
5713 Clouds 8 1020 61 10000 6.2 270 12:37 01.04.2020
5714 Clouds 8 1021 75 10000 7.2 270 12:18 01.04.2020
5715 Clouds 8 1021 75 10000 7.2 270 11:56 01.04.2020
5716 Clouds 8 1021 75 10000 7.2 270 11:37 01.04.2020
5717 Clouds 7 1022 75 10000 5.1 270 11:18 01.04.2020
5718 Clouds 7 1021 81 10000 5.1 260 10:38 01.04.2020
5719 Clouds 6 1022 81 10000 4.1 250 10:20 01.04.2020
5720 Clouds 6 1021 86 10000 4.6 260 09:58 01.04.2020
5721 Clouds 5 1021 86 10000 4.6 260 09:39 01.04.2020
5722 Clouds 4 1021 86 10000 4.1 250 09:19 01.04.2020
5723 Clouds 4 1022 93 7000 2.1 250 08:44 01.04.2020
5724 Clouds 3 1022 86 5000 3.1 240 08:19 01.04.2020
5725 Clouds 3 1023 78 10000 3.1 250 07:56 01.04.2020
5726 Clouds 3 1022 86 5000 3.1 240 07:38 01.04.2020
5727 Clouds 2 1022 78 8000 2.1 240 07:18 01.04.2020
5728 Clouds 2 1022 78 8000 2.1 240 06:41 01.04.2020
5729 Clouds 2 1023 86 8000 3.1 230 06:20 01.04.2020
5730 Clouds 2 1024 80 8000 3.6 250 05:24 01.04.2020
5731 Clouds 1 1024 74 8000 2.1 230 03:40 01.04.2020
5732 Clouds 1 1025 69 8000 2.1 250 02:59 01.04.2020
5733 Clouds 1 1026 69 9000 2.6 260 02:31 01.04.2020
5734 Clouds 1 1026 69 9000 2.6 260 01:50 01.04.2020
5735 Clouds 0 1027 69 8000 2.6 270 01:25 01.04.2020
5736 Clouds 0 1027 69 8000 2.6 270 00:47 01.04.2020
5737 Clouds 0 1027 64 8000 1.5 270 00:22 01.04.2020
5738 Clouds 0 1027 64 8000 1.5 270 23:57 31.03.2020
5739 Clouds 1 1027 64 8000 1.5 270 23:38 31.03.2020
5740 Clouds 1 1028 64 10000 2.1 310 23:19 31.03.2020
5741 Clouds 1 1028 64 10000 2.1 310 22:41 31.03.2020
5742 Clouds 2 1029 59 10000 1.5 310 22:21 31.03.2020
5743 Clouds 2 1029 59 10000 1.5 310 21:58 31.03.2020
5744 Clouds 3 1029 59 10000 1.5 310 21:40 31.03.2020
5745 Clouds 3 1029 55 10000 1.5 320 21:21 31.03.2020
5746 Clouds 3 1029 55 10000 1.5 320 20:57 31.03.2020
5747 Clouds 4 1029 55 10000 1.5 320 20:37 31.03.2020
5748 Clouds 4 1029 48 10000 3.1 350 20:19 31.03.2020
5749 Clouds 5 1029 48 10000 3.1 350 19:57 31.03.2020
5750 Clouds 5 1029 48 10000 3.1 350 19:38 31.03.2020
5751 Clouds 6 1030 35 10000 3.1 360 19:19 31.03.2020
5752 Clouds 7 1030 35 10000 3.1 360 18:44 31.03.2020
5753 Clouds 7 1030 35 10000 3.6 360 18:21 31.03.2020
5754 Clouds 7 1030 35 10000 3.6 360 17:58 31.03.2020
5755 Clouds 8 1030 35 10000 3.6 360 17:39 31.03.2020
5756 Clouds 8 1031 35 10000 4.1 360 17:21 31.03.2020
5757 Clouds 8 1031 35 10000 4.1 360 16:57 31.03.2020
5758 Clouds 8 1031 35 10000 4.1 360 16:37 31.03.2020
5759 Clouds 8 1031 36 10000 3.1 10 16:18 31.03.2020
5760 Clouds 8 1031 36 10000 3.1 10 15:56 31.03.2020
5761 Clouds 8 1031 36 10000 3.1 10 15:37 31.03.2020
5762 Clouds 8 1031 33 10000 2.6 60 15:18 31.03.2020
5763 Clear 8 1031 39 10000 4.1 50 14:56 31.03.2020
5764 Clouds 8 1031 33 10000 2.6 60 14:37 31.03.2020
5765 Clouds 8 1032 35 10000 4.6 60 14:18 31.03.2020
5766 Clouds 8 1032 35 10000 4.6 60 13:41 31.03.2020
5767 Clouds 7 1032 38 10000 4.6 80 13:19 31.03.2020
5768 Clouds 7 1032 38 10000 4.6 80 12:54 31.03.2020
5769 Clouds 7 1032 38 10000 4.6 80 12:36 31.03.2020
5770 Clouds 7 1032 41 10000 4.6 80 12:18 31.03.2020
5771 Clouds 6 1032 41 10000 4.6 80 11:38 31.03.2020
5772 Clouds 6 1033 65 10000 4.1 30 11:19 31.03.2020
5773 Clouds 6 1033 56 10000 4.6 40 10:57 31.03.2020
5774 Clouds 5 1033 65 10000 4.1 30 10:39 31.03.2020
5775 Clear 5 1032 64 10000 2.6 50 10:21 31.03.2020
5776 Clear 5 1032 64 10000 2.6 50 10:21 31.03.2020
5777 Clear 5 1032 55 10000 3.1 30 09:56 31.03.2020
5778 Clear 4 1032 64 10000 2.6 50 09:37 31.03.2020
5779 Clear 3 1032 69 10000 2.1 60 09:19 31.03.2020
5780 Clear 1 1032 74 10000 0.5 10 08:55 31.03.2020
5781 Clear 0 1032 84 7000 1 310 08:37 31.03.2020
5782 Clear -1 1032 86 9000 1 360 08:18 31.03.2020
5783 Clear -2 1032 86 9000 1 360 07:44 31.03.2020
5784 Clear -2 1031 79 9000 1 350 07:25 31.03.2020
5785 Clear -2 1031 79 9000 1 350 06:59 31.03.2020
5786 Clear -2 1031 79 9000 1 350 06:41 31.03.2020
5787 Clear -2 1031 79 9000 1 310 05:53 31.03.2020
5788 Clear -2 1031 89 10000 2.1 20 05:26 31.03.2020
5789 Clear 0 1031 86 9000 2.1 30 02:57 31.03.2020
5790 Clear 2 1030 55 9000 3.1 70 01:47 31.03.2020
5791 Clear 2 1030 55 10000 5.1 60 01:27 31.03.2020
5792 Clear 2 1030 55 10000 5.1 60 00:43 31.03.2020
5793 Clear 2 1030 55 10000 4.6 70 00:23 31.03.2020
5794 Clear 3 1030 55 10000 4.6 70 23:41 30.03.2020
5795 Clouds 3 1029 51 10000 4.6 70 23:20 30.03.2020
5796 Clouds 3 1029 51 10000 4.6 70 23:20 30.03.2020
5797 Clouds 4 1029 51 10000 4.6 70 22:58 30.03.2020
5798 Clouds 4 1029 51 10000 4.6 70 22:58 30.03.2020
5799 Clouds 4 1029 51 10000 4.6 70 22:58 30.03.2020
5800 Clouds 4 1029 51 10000 4.6 70 22:39 30.03.2020
5801 Clouds 4 1028 80 10000 5.7 60 22:20 30.03.2020
5802 Clouds 4 1028 80 10000 5.7 60 21:58 30.03.2020
5803 Clouds 4 1028 80 10000 5.7 60 21:39 30.03.2020
5804 Clouds 5 1027 75 10000 3.1 20 21:20 30.03.2020
5805 Clouds 5 1027 75 10000 3.1 20 20:58 30.03.2020
5806 Clouds 5 1027 75 10000 3.1 20 20:39 30.03.2020
5807 Clouds 5 1026 70 10000 4.6 20 20:20 30.03.2020
5808 Clouds 6 1026 70 10000 4.6 20 19:56 30.03.2020
5809 Clouds 6 1026 70 10000 4.6 20 19:38 30.03.2020
5810 Clouds 6 1026 70 10000 4.1 20 19:20 30.03.2020
5811 Clouds 7 1026 70 10000 4.1 20 18:43 30.03.2020
5812 Clouds 7 1026 70 10000 6.2 360 18:25 30.03.2020
5813 Clouds 7 1026 70 10000 6.2 360 17:58 30.03.2020
5814 Clouds 7 1026 70 10000 6.2 360 17:39 30.03.2020
5815 Clouds 7 1026 70 10000 6.2 360 17:39 30.03.2020
5816 Clouds 8 1025 65 10000 6.7 360 17:20 30.03.2020
5817 Clouds 7 1025 65 10000 6.7 360 16:59 30.03.2020
5818 Clouds 8 1025 65 10000 6.7 360 16:40 30.03.2020
5819 Clouds 8 1026 70 10000 5.7 350 16:20 30.03.2020
5820 Clouds 8 1026 70 10000 5.7 350 16:20 30.03.2020
5821 Clouds 8 1026 70 10000 5.7 350 16:20 30.03.2020
5822 Clouds 8 1026 70 10000 5.7 350 16:20 30.03.2020
5823 Clouds 8 1026 70 10000 5.7 350 15:56 30.03.2020
5824 Clouds 8 1026 70 10000 5.7 350 15:38 30.03.2020
5825 Clouds 8 1026 75 10000 6.7 350 15:20 30.03.2020
5826 Drizzle 7 1027 75 10000 5.7 340 14:56 30.03.2020
5827 Clouds 7 1026 75 10000 7.7 360 14:37 30.03.2020
5828 Clouds 8 1026 87 10000 5.7 330 14:18 30.03.2020
5829 Rain 8 1027 75 10000 6.7 330 13:56 30.03.2020
5830 Rain 8 1028 70 10000 6.2 330 13:37 30.03.2020
5831 Clouds 8 1027 81 10000 7.7 330 13:19 30.03.2020
5832 Clouds 8 1027 81 10000 7.7 330 12:44 30.03.2020
5833 Clouds 7 1027 75 10000 6.2 320 12:21 30.03.2020
5834 Clouds 7 1027 75 10000 6.2 320 12:21 30.03.2020
5835 Clouds 7 1027 75 10000 6.2 320 11:57 30.03.2020
5836 Clouds 7 1027 75 10000 6.2 320 11:39 30.03.2020
5837 Rain 7 1028 81 10000 5.1 310 11:21 30.03.2020
5838 Clouds 5 1028 81 10000 4.1 320 10:41 30.03.2020
5839 Clouds 5 1028 86 10000 3.1 290 10:23 30.03.2020
5840 Clouds 4 1028 86 10000 3.1 290 09:59 30.03.2020
5841 Clouds 4 1028 86 10000 3.1 290 09:59 30.03.2020
5842 Clouds 4 1028 86 10000 3.1 290 09:40 30.03.2020
5843 Clouds 3 1028 86 10000 3.1 280 09:19 30.03.2020
5844 Rain 3 1028 86 5000 3.1 250 08:54 30.03.2020
5845 Rain 2 1028 86 5000 3.1 250 08:36 30.03.2020
5846 Rain 2 1029 83 5000 3.1 250 08:18 30.03.2020
5847 Rain 1 1029 83 5000 3.1 250 07:41 30.03.2020
5848 Rain 1 1030 80 7000 2.1 250 07:20 30.03.2020
5849 Rain 1 1030 80 7000 2.1 250 06:42 30.03.2020
5850 Clouds 1 1030 86 7000 2.6 260 06:23 30.03.2020
5851 Clouds 0 1030 86 7000 2.6 260 05:39 30.03.2020
5852 Clouds 1 1032 86 10000 0.5 0 04:29 30.03.2020
5853 Clouds 1 1032 80 8000 1 330 03:53 30.03.2020
5854 Clouds 0 1033 69 8000 3.1 290 02:44 30.03.2020
5855 Clouds 0 1033 86 9000 1 310 01:55 30.03.2020
5856 Clouds 0 1034 64 9000 1.5 360 00:57 30.03.2020
5857 Clouds 1 1034 59 9000 2.6 350 00:27 30.03.2020
5858 Clear 1 1034 59 9000 2.6 350 23:56 29.03.2020
5859 Clear 1 1034 59 9000 2.6 350 23:37 29.03.2020
5860 Clear 2 1034 51 10000 4.6 10 23:18 29.03.2020
5861 Clear 2 1034 51 10000 4.6 10 22:40 29.03.2020
5862 Clear 2 1035 55 9000 5.1 10 22:20 29.03.2020
5863 Clear 3 1035 55 9000 5.1 10 21:59 29.03.2020
5864 Clear 3 1035 55 9000 5.1 10 21:38 29.03.2020
5865 Clear 3 1034 55 9000 6.7 10 21:20 29.03.2020
5866 Clear 3 1034 55 9000 6.7 10 20:56 29.03.2020
5867 Clear 3 1034 55 9000 6.7 10 20:37 29.03.2020
5868 Clear 3 1034 55 9000 6.7 10 20:37 29.03.2020
5869 Clear 3 1034 55 9000 6.7 10 20:37 29.03.2020
5870 Clear 3 1034 29 10000 5.7 30 20:19 29.03.2020
5871 Clear 3 1034 29 10000 5.7 30 20:19 29.03.2020
5872 Clear 4 1034 29 10000 5.7 30 19:57 29.03.2020
5873 Clear 4 1034 29 10000 5.7 30 19:39 29.03.2020
5874 Clear 4 1034 25 10000 7.7 30 19:21 29.03.2020
5875 Clear 5 1034 25 10000 7.7 30 18:57 29.03.2020
5876 Clear 5 1034 25 10000 7.7 30 18:38 29.03.2020
5877 Clouds 5 1034 30 10000 8.2 30 18:19 29.03.2020
5878 Clouds 5 1034 30 10000 8.2 30 18:19 29.03.2020
5879 Clouds 5 1034 30 10000 8.2 30 17:56 29.03.2020
5880 Clouds 5 1034 38 10000 8.7 30 17:38 29.03.2020
5881 Clouds 5 1033 32 10000 10.3 30 17:19 29.03.2020
5882 Clouds 6 1033 32 10000 10.3 30 16:56 29.03.2020
5883 Clouds 6 1033 32 10000 10.3 30 16:38 29.03.2020
5884 Clouds 6 1033 32 10000 10.8 40 16:19 29.03.2020
5885 Clouds 6 1033 32 10000 10.8 40 15:42 29.03.2020
5886 Clouds 6 1033 32 10000 10.8 40 15:42 29.03.2020
5887 Clouds 6 1033 41 10000 10.8 30 15:24 29.03.2020
5888 Clouds 6 1033 41 10000 10.8 30 14:59 29.03.2020
5889 Clouds 6 1033 41 10000 10.8 30 14:40 29.03.2020
5890 Clouds 6 1033 41 10000 10.8 30 14:40 29.03.2020
5891 Clouds 6 1032 48 9000 11.8 30 14:20 29.03.2020
5892 Clouds 6 1032 48 9000 11.8 30 13:58 29.03.2020
5893 Clouds 6 1032 48 9000 11.8 30 13:40 29.03.2020
5894 Clouds 5 1032 51 8000 10.3 30 13:21 29.03.2020
5895 Clouds 5 1032 51 8000 10.3 30 12:57 29.03.2020
5896 Clouds 5 1032 51 8000 10.3 30 12:38 29.03.2020
5897 Clouds 5 1031 55 9000 10.3 30 12:19 29.03.2020
5898 Clouds 5 1031 55 9000 10.3 30 11:55 29.03.2020
5899 Clouds 5 1031 55 9000 10.3 30 11:37 29.03.2020
5900 Clouds 5 1030 55 9000 9.8 30 11:19 29.03.2020
5901 Clouds 5 1030 55 9000 9.8 30 10:38 29.03.2020
5902 Clouds 4 1030 56 10000 8.7 20 10:19 29.03.2020
5903 Clouds 4 1029 59 8000 10.3 30 09:54 29.03.2020
5904 Clouds 4 1029 59 8000 10.3 30 09:36 29.03.2020
5905 Clouds 4 1028 69 8000 10.3 30 09:18 29.03.2020
5906 Clouds 4 1028 69 8000 10.3 30 08:41 29.03.2020
5907 Clouds 4 1027 64 8000 9.8 30 08:22 29.03.2020
5908 Clouds 4 1027 64 8000 9.8 30 07:45 29.03.2020
5909 Clouds 4 1026 60 8000 8.7 30 07:22 29.03.2020
5910 Clouds 4 1026 56 8000 8.2 30 05:59 29.03.2020
5911 Clouds 5 1026 65 10000 5.7 10 04:56 29.03.2020
5912 Clouds 5 1025 65 8000 7.2 20 03:41 29.03.2020
5913 Clouds 5 1025 56 9000 6.7 20 01:57 29.03.2020
5914 Clouds 5 1025 56 9000 6.7 20 01:39 29.03.2020
5915 Clouds 5 1025 65 8000 6.2 10 01:20 29.03.2020
5916 Clouds 5 1025 65 8000 6.2 10 00:40 29.03.2020
5917 Clouds 5 1024 70 7000 6.2 360 00:19 29.03.2020
5918 Clouds 5 1024 70 7000 6.2 360 23:40 28.03.2020
5919 Clouds 5 1024 75 7000 6.7 350 23:22 28.03.2020
5920 Clouds 5 1024 75 7000 6.7 350 22:44 28.03.2020
5921 Clouds 5 1024 74 7000 6.2 350 22:22 28.03.2020
5922 Clouds 5 1024 74 7000 6.2 350 21:57 28.03.2020
5923 Clouds 5 1024 74 7000 6.2 350 21:57 28.03.2020
5924 Clouds 5 1024 74 7000 6.2 350 21:57 28.03.2020
5925 Clouds 5 1024 74 7000 6.2 350 21:39 28.03.2020
5926 Clouds 5 1025 65 7000 7.7 350 21:21 28.03.2020
5927 Clouds 5 1025 65 7000 7.7 350 20:57 28.03.2020
5928 Clouds 5 1025 65 7000 7.7 350 20:38 28.03.2020
5929 Clouds 5 1024 70 7000 7.7 350 20:20 28.03.2020
5930 Clouds 6 1026 70 10000 5.7 360 19:55 28.03.2020
5931 Clouds 6 1024 70 7000 7.7 350 19:36 28.03.2020
5932 Clouds 6 1024 70 8000 9.3 350 19:18 28.03.2020
5933 Clouds 7 1024 70 8000 9.3 350 18:42 28.03.2020
5934 Clouds 7 1024 69 8000 9.8 360 18:21 28.03.2020
5935 Clouds 7 1024 69 8000 9.8 360 17:56 28.03.2020
5936 Clouds 8 1024 65 8000 8.7 360 17:36 28.03.2020
5937 Clear 8 1024 65 8000 8.7 360 17:18 28.03.2020
5938 Clear 9 1024 65 8000 8.7 360 16:40 28.03.2020
5939 Clear 9 1024 70 8000 8.2 360 16:20 28.03.2020
5940 Clear 9 1024 70 8000 8.2 360 15:55 28.03.2020
5941 Clear 9 1024 70 8000 8.2 360 15:37 28.03.2020
5942 Clear 9 1024 70 8000 8.2 350 15:18 28.03.2020
5943 Clear 10 1024 70 8000 8.2 350 14:42 28.03.2020
5944 Clear 10 1025 70 8000 6.7 360 14:22 28.03.2020
5945 Clear 10 1025 70 8000 6.7 360 13:55 28.03.2020
5946 Clear 10 1025 70 8000 6.7 360 13:36 28.03.2020
5947 Clear 10 1025 66 8000 6.2 10 13:18 28.03.2020
5948 Clear 10 1025 66 8000 6.2 10 12:38 28.03.2020
5949 Clear 10 1025 66 7000 6.2 10 12:19 28.03.2020
5950 Clear 9 1025 66 7000 6.2 10 11:42 28.03.2020
5951 Clear 9 1025 66 7000 6.2 10 11:42 28.03.2020
5952 Clear 9 1025 70 7000 6.2 360 11:21 28.03.2020
5953 Clear 9 1025 70 7000 6.2 360 10:55 28.03.2020
5954 Clear 9 1025 70 7000 6.2 360 10:36 28.03.2020
5955 Clear 9 1025 75 6000 5.1 10 10:18 28.03.2020
5956 Clear 8 1025 75 6000 5.1 10 09:40 28.03.2020
5957 Clear 8 1025 75 10000 4.6 20 09:22 28.03.2020
5958 Clear 7 1025 75 6000 4.1 10 08:45 28.03.2020
5959 Clear 7 1025 81 9000 4.6 10 08:25 28.03.2020
5960 Clear 6 1025 81 8000 3.6 20 07:58 28.03.2020
5961 Clear 5 1025 86 6000 3.1 10 07:40 28.03.2020
5962 Clear 4 1025 86 5000 2.6 10 06:53 28.03.2020
5963 Clear 4 1024 86 5000 4.1 20 06:26 28.03.2020
5964 Clear 4 1024 86 5000 4.1 20 05:38 28.03.2020
5965 Clear 4 1024 80 6000 3.1 30 05:19 28.03.2020
5966 Clear 4 1024 80 6000 3.1 30 04:39 28.03.2020
5967 Clear 5 1025 80 6000 2.6 30 02:52 28.03.2020
5968 Clear 5 1024 75 7000 4.6 40 01:48 28.03.2020
5969 Clear 5 1025 70 7000 5.1 50 01:24 28.03.2020
5970 Clear 6 1025 70 7000 5.1 50 00:52 28.03.2020
5971 Clear 6 1024 75 10000 4.1 30 00:28 28.03.2020
5972 Clear 6 1025 70 7000 5.1 50 23:44 27.03.2020
5973 Clear 7 1024 65 7000 4.6 50 23:26 27.03.2020
5974 Clear 7 1024 65 7000 4.6 50 22:58 27.03.2020
5975 Clear 7 1024 65 7000 4.6 50 22:39 27.03.2020
5976 Clear 7 1024 70 7000 6.2 60 22:21 27.03.2020
5977 Clear 7 1024 70 7000 6.2 60 21:59 27.03.2020
5978 Clear 7 1024 70 7000 6.2 60 21:41 27.03.2020
5979 Clear 8 1024 65 10000 7.2 50 21:22 27.03.2020
5980 Clear 8 1024 65 10000 7.2 50 20:57 27.03.2020
5981 Clear 8 1024 65 10000 7.2 50 20:39 27.03.2020
5982 Clear 8 1023 61 10000 6.7 50 20:19 27.03.2020
5983 Clear 8 1023 61 10000 6.7 50 20:19 27.03.2020
5984 Clear 8 1022 70 10000 6.2 30 19:56 27.03.2020
5985 Clear 9 1023 61 10000 6.7 50 19:38 27.03.2020
5986 Clear 9 1023 57 10000 6.2 40 19:19 27.03.2020
5987 Clear 10 1023 57 10000 6.2 40 18:43 27.03.2020
5988 Clear 11 1023 50 10000 6.2 40 18:23 27.03.2020
5989 Clear 11 1023 50 10000 6.2 40 17:55 27.03.2020
5990 Clear 12 1023 50 10000 6.2 40 17:37 27.03.2020
5991 Clear 12 1023 46 10000 7.2 40 17:19 27.03.2020
5992 Clear 13 1023 46 10000 7.2 40 16:44 27.03.2020
5993 Clear 13 1023 63 10000 6.7 50 16:25 27.03.2020
5994 Clear 13 1023 63 10000 6.7 50 16:25 27.03.2020
5995 Clear 13 1023 63 10000 6.7 50 16:25 27.03.2020
5996 Clear 13 1023 63 10000 6.7 50 15:45 27.03.2020
5997 Clear 13 1024 46 10000 6.2 50 15:27 27.03.2020
5998 Clear 13 1022 60 0 4.02 1 14:59 27.03.2020
5999 Clear 13 1023 56 0 4.02 30 14:40 27.03.2020
6000 Clear 13 1023 55 0 3.58 20 14:21 27.03.2020
6001 Clear 14 1023 46 0 3.58 27 13:54 27.03.2020
6002 Clear 14 1023 45 0 2.68 34 13:36 27.03.2020
6003 Clear 10 1024 61 0 7.06 60 13:18 27.03.2020
6004 Clear 13 1024 43 0 3.13 46 12:42 27.03.2020
6005 Clear 10 1024 61 0 6.92 57 12:19 27.03.2020
6006 Clear 10 1024 61 0 6.92 57 11:55 27.03.2020
6007 Clear 10 1024 61 0 6.92 57 11:36 27.03.2020
6008 Clear 8 1025 63 0 6.18 68 11:18 27.03.2020
6009 Clear 8 1025 63 0 6.18 68 10:41 27.03.2020
6010 Clear 11 1024 54 0 3.13 18 10:22 27.03.2020
6011 Clear 9 1024 57 0 2.68 34 09:59 27.03.2020
6012 Clear 9 1024 60 0 2.24 34 09:40 27.03.2020
6013 Clear 8 1024 63 0 2.68 39 09:22 27.03.2020
6014 Clear 6 1025 69 0 2.24 10 08:59 27.03.2020
6015 Clear 6 1025 72 0 2.24 45 08:40 27.03.2020
6016 Clear 4 1025 75 0 2.24 22 08:22 27.03.2020
6017 Clear 3 1025 77 0 2.68 22 07:57 27.03.2020
6018 Clear 3 1025 78 0 2.24 31 07:57 27.03.2020
6019 Clear 3 1025 78 0 2.24 33 07:38 27.03.2020
6020 Clear 3 1025 79 0 2.24 49 07:20 27.03.2020
6021 Clear 3 1025 79 0 1.79 34 06:39 27.03.2020
6022 Clear 2 1025 80 0 2.24 64 05:51 27.03.2020
6023 Clear 3 1025 75 0 2.24 23 03:34 27.03.2020
6024 Clear 3 1025 72 0 1.79 25 01:55 27.03.2020
6025 Clear 3 1025 71 0 1.79 53 01:19 27.03.2020
6026 Clear 3 1025 70 0 1.34 35 00:41 27.03.2020
6027 Clear 3 1025 70 0 1.34 35 00:41 27.03.2020
6028 Clear 3 1025 69 0 1.79 31 00:19 27.03.2020
6029 Clear 4 1025 68 0 1.79 18 23:40 26.03.2020
6030 Clear 4 1025 67 0 1.79 23 23:18 26.03.2020
6031 Clear 4 1025 65 0 1.79 25 22:57 26.03.2020
6032 Clear 4 1025 64 0 1.34 22 22:36 26.03.2020
6033 Clear 4 1025 61 0 1.34 53 22:18 26.03.2020
6034 Clear 4 1025 64 0 1.79 22 21:40 26.03.2020
6035 Clear 5 1025 64 0 0.89 19 21:21 26.03.2020
6036 Clear 5 1025 62 0 1.34 25 20:59 26.03.2020
6037 Clear 6 1025 59 0 1.34 27 20:39 26.03.2020
6038 Clear 6 1025 55 0 1.34 17 20:21 26.03.2020
6039 Clear 7 1025 54 0 1.79 31 19:58 26.03.2020
6040 Clear 7 1025 51 0 1.34 19 19:40 26.03.2020
6041 Clear 8 1025 46 0 1.79 20 19:21 26.03.2020
6042 Clear 8 1024 45 0 2.24 50 18:58 26.03.2020
6043 Clear 8 1024 45 0 2.24 49 18:40 26.03.2020
6044 Clear 9 1024 43 0 1.79 56 18:21 26.03.2020
6045 Clear 9 1024 42 0 2.24 71 17:45 26.03.2020
6046 Clear 10 1024 40 0 2.68 47 17:20 26.03.2020
6047 Clear 11 1024 35 0 2.68 53 16:57 26.03.2020
6048 Clear 11 1024 35 0 2.68 53 16:57 26.03.2020
6049 Clear 11 1024 35 0 2.68 57 16:38 26.03.2020
6050 Clear 12 1024 37 0 2.68 24 16:19 26.03.2020
6051 Clear 12 1024 33 0 3.13 39 15:56 26.03.2020
6052 Clear 12 1024 31 0 2.24 34 15:38 26.03.2020
6053 Clear 11 1025 32 0 3.13 54 15:18 26.03.2020
6054 Clear 11 1025 31 0 3.13 86 14:43 26.03.2020
6055 Clear 11 1025 31 0 3.13 41 14:25 26.03.2020
6056 Clear 11 1025 35 0 2.24 47 13:56 26.03.2020
6057 Clear 11 1025 35 0 2.24 47 13:56 26.03.2020
6058 Clear 11 1026 37 0 2.68 33 13:38 26.03.2020
6059 Clear 8 1027 54 0 5.71 91 13:20 26.03.2020
6060 Clear 10 1026 36 0 3.13 17 12:39 26.03.2020
6061 Clear 9 1026 34 0 3.13 68 12:21 26.03.2020
6062 Clear 9 1026 35 0 3.13 72 11:56 26.03.2020
6063 Clear 9 1026 35 0 3.13 72 11:56 26.03.2020
6064 Clear 9 1026 34 0 3.13 103 11:37 26.03.2020
6065 Clear 8 1027 35 0 3.58 83 11:19 26.03.2020
6066 Clear 8 1027 43 0 2.68 105 10:42 26.03.2020
6067 Clear 8 1027 46 0 2.24 65 10:20 26.03.2020
6068 Clear 7 1027 47 0 3.13 46 09:55 26.03.2020
6069 Clear 7 1027 47 0 3.13 46 09:55 26.03.2020
6070 Clear 6 1027 49 0 2.68 93 09:37 26.03.2020
6071 Clear 6 1027 49 0 2.24 107 09:19 26.03.2020
6072 Clear 4 1027 51 0 2.24 70 08:42 26.03.2020
6073 Clear 3 1027 54 0 2.24 67 08:24 26.03.2020
6074 Clouds 3 1027 59 0 1.79 46 07:57 26.03.2020
6075 Clouds 2 1027 60 0 1.34 31 07:38 26.03.2020
6076 Clouds 1 1027 64 0 1.34 34 07:19 26.03.2020
6077 Clouds 1 1027 63 0 1.34 34 06:35 26.03.2020
6078 Clouds 2 1026 63 0 1.34 35 05:51 26.03.2020
6079 Clouds 4 1026 51 0 2.24 91 03:47 26.03.2020
6080 Clouds 4 1026 53 0 1.79 136 03:26 26.03.2020
6081 Clouds 4 1026 51 0 1.34 106 02:52 26.03.2020
6082 Clouds 5 1027 50 0 1.79 112 01:19 26.03.2020
6083 Clouds 5 1027 51 0 2.24 122 00:33 26.03.2020
6084 Clouds 6 1027 49 0 2.68 82 23:44 25.03.2020
6085 Clouds 6 1027 49 0 2.68 82 23:26 25.03.2020
6086 Clouds 7 1027 46 0 2.68 91 22:57 25.03.2020
6087 Clouds 7 1027 44 0 3.13 102 22:38 25.03.2020
6088 Clouds 7 1027 45 0 2.24 70 22:19 25.03.2020
6089 Clouds 5 1027 56 0 0.89 56 21:54 25.03.2020
6090 Clouds 5 1027 57 0 1.34 47 21:36 25.03.2020
6091 Clouds 5 1027 56 0 1.34 58 21:18 25.03.2020
6092 Clouds 6 1027 53 0 1.34 41 20:39 25.03.2020
6093 Clouds 6 1027 52 0 0.89 56 20:20 25.03.2020
6094 Clouds 7 1027 50 0 0.89 60 19:58 25.03.2020
6095 Clouds 7 1027 51 0 0.45 57 19:39 25.03.2020
6096 Clouds 7 1026 51 0 0.45 54 19:21 25.03.2020
6097 Clouds 8 1026 50 0 0.89 63 18:56 25.03.2020
6098 Clouds 9 1026 47 0 0.89 42 18:37 25.03.2020
6099 Clouds 9 1026 43 0 1.34 105 18:19 25.03.2020
6100 Clouds 10 1026 33 0 1.79 72 17:42 25.03.2020
6101 Clouds 11 1026 35 0 2.24 60 17:23 25.03.2020
6102 Clouds 11 1026 32 0 1.79 102 16:59 25.03.2020
6103 Clouds 11 1026 33 0 2.24 50 16:41 25.03.2020
6104 Clouds 12 1027 36 0 2.24 32 16:21 25.03.2020
6105 Clouds 12 1027 35 0 2.24 47 15:57 25.03.2020
6106 Clouds 12 1027 34 0 2.68 71 15:37 25.03.2020
6107 Clouds 12 1027 33 0 2.24 47 15:18 25.03.2020
6108 Clouds 12 1027 33 0 2.24 47 15:18 25.03.2020
6109 Clouds 12 1028 32 0 2.24 112 14:41 25.03.2020
6110 Clouds 12 1028 35 0 2.24 45 14:21 25.03.2020
6111 Clouds 11 1029 33 0 2.68 79 13:46 25.03.2020
6112 Clouds 11 1029 39 0 2.24 11 13:26 25.03.2020
6113 Clouds 10 1029 40 0 2.68 54 12:57 25.03.2020
6114 Clouds 9 1029 40 0 2.24 60 12:37 25.03.2020
6115 Clouds 10 1029 38 0 2.24 66 12:18 25.03.2020
6116 Clouds 9 1030 41 0 1.79 66 11:43 25.03.2020
6117 Clouds 9 1029 51 0 3.59 119 11:21 25.03.2020
6118 Clouds 8 1030 42 0 1.79 126 10:59 25.03.2020
6119 Clouds 8 1030 40 0 1.79 126 10:40 25.03.2020
6120 Clouds 7 1030 48 0 1.34 96 10:19 25.03.2020
6121 Clouds 7 1030 45 0 1.79 131 09:59 25.03.2020
6122 Clouds 6 1031 50 0 1.79 93 09:41 25.03.2020
6123 Clouds 4 1031 52 0 1.79 128 09:22 25.03.2020
6124 Clouds 3 1031 56 0 2.24 101 08:55 25.03.2020
6125 Clouds 3 1031 55 0 1.79 114 08:37 25.03.2020
6126 Clear 2 1031 60 0 2.24 118 08:18 25.03.2020
6127 Clear 0 1030 88 0 3.75 147 07:39 25.03.2020
6128 Clear 0 1030 88 0 3.75 147 07:20 25.03.2020
6129 Clear 0 1030 88 0 3.75 147 06:47 25.03.2020
6130 Clear 0 1030 88 0 3.75 147 06:26 25.03.2020
6131 Clear 0 1030 88 0 3.75 147 05:53 25.03.2020
6132 Clear 0 1030 88 0 4.66 146 04:59 25.03.2020
6133 Clear 0 1030 88 0 4.66 146 04:39 25.03.2020
6134 Clear 0 1030 88 0 4.66 146 03:36 25.03.2020
6135 Clouds 1 1031 81 0 5.13 146 01:58 25.03.2020
6136 Clouds 2 1032 80 0 5.27 150 01:21 25.03.2020
6137 Clouds 2 1032 80 0 5.27 150 00:48 25.03.2020
6138 Clouds 4 1030 55 0 1.79 120 00:19 25.03.2020
6139 Clouds 4 1030 55 0 1.79 120 23:45 24.03.2020
6140 Clouds 4 1030 55 0 1.79 120 23:26 24.03.2020
6141 Clouds 4 1030 54 0 2.24 123 22:56 24.03.2020
6142 Clouds 4 1030 52 0 2.24 126 22:37 24.03.2020
6143 Clouds 4 1030 52 0 2.68 127 22:19 24.03.2020
6144 Clouds 4 1030 52 0 2.68 127 22:19 24.03.2020
6145 Clouds 4 1030 51 0 1.79 109 21:56 24.03.2020
6146 Clouds 4 1030 52 0 1.34 114 21:37 24.03.2020
6147 Clouds 5 1030 50 0 0.89 111 21:18 24.03.2020
6148 Clouds 5 1030 49 0 1.79 108 20:56 24.03.2020
6149 Clouds 5 1030 49 0 1.79 123 20:38 24.03.2020
6150 Clouds 6 1030 48 0 1.34 110 20:19 24.03.2020
6151 Clouds 6 1030 45 0 2.68 97 19:41 24.03.2020
6152 Clouds 7 1030 45 0 1.34 114 19:19 24.03.2020
6153 Clouds 7 1030 43 0 1.79 137 18:56 24.03.2020
6154 Clouds 8 1030 42 0 1.79 118 18:37 24.03.2020
6155 Clouds 8 1030 40 0 1.79 338 18:18 24.03.2020
6156 Clouds 9 1030 40 0 2.68 338 17:42 24.03.2020
6157 Clouds 9 1030 39 0 2.24 338 17:24 24.03.2020
6158 Clouds 10 1031 25 10000 5.1 150 16:59 24.03.2020
6159 Clouds 10 1031 25 10000 5.1 150 16:41 24.03.2020
6160 Clear 10 1030 27 10000 5.7 130 16:23 24.03.2020
6161 Clouds 10 1031 25 10000 6.2 150 15:59 24.03.2020
6162 Clouds 10 1031 25 10000 6.2 150 15:39 24.03.2020
6163 Clear 10 1030 27 10000 5.7 140 15:21 24.03.2020
6164 Clouds 10 1032 23 10000 7.2 160 14:43 24.03.2020
6165 Clouds 10 1032 23 10000 7.2 160 14:43 24.03.2020
6166 Clouds 10 1032 23 10000 7.2 160 14:43 24.03.2020
6167 Clear 11 1031 34 0 3.58 153 14:22 24.03.2020
6168 Clouds 11 1031 34 0 4.02 170 13:56 24.03.2020
6169 Clouds 11 1031 32 0 3.13 146 13:38 24.03.2020
6170 Clouds 11 1031 31 0 4.02 177 13:20 24.03.2020
6171 Clouds 9 1032 36 0 3.58 154 12:42 24.03.2020
6172 Clouds 9 1032 36 0 3.58 338 12:23 24.03.2020
6173 Clouds 8 1032 38 0 3.58 134 11:41 24.03.2020
6174 Clouds 7 1032 36 10000 5.1 180 11:21 24.03.2020
6175 Clouds 7 1033 35 10000 5.1 170 10:59 24.03.2020
6176 Clouds 6 1033 35 10000 5.1 170 10:40 24.03.2020
6177 Clouds 6 1033 41 10000 5.1 150 10:18 24.03.2020
6178 Clouds 5 1034 41 10000 5.7 170 09:46 24.03.2020
6179 Clouds 5 1034 41 10000 5.7 170 09:46 24.03.2020
6180 Clouds 4 1033 44 10000 4.6 150 09:26 24.03.2020
6181 Clouds 3 1033 47 10000 4.6 140 08:57 24.03.2020
6182 Clouds 2 1034 47 9000 5.1 160 08:38 24.03.2020
6183 Clouds 1 1033 55 10000 4.1 140 08:19 24.03.2020
6184 Clouds 0 1034 61 10000 3.6 140 07:44 24.03.2020
6185 Clouds -1 1033 63 10000 2.6 120 07:22 24.03.2020
6186 Clouds -1 1033 63 10000 2.6 120 07:22 24.03.2020
6187 Clouds -1 1033 63 10000 2.6 110 06:42 24.03.2020
6188 Clouds -1 1033 63 10000 2.6 110 06:21 24.03.2020
6189 Clouds 0 1034 50 10000 3.1 150 04:52 24.03.2020
6190 Clouds 1 1033 50 10000 4.1 150 03:41 24.03.2020
6191 Clouds 1 1033 47 10000 4.1 160 02:44 24.03.2020
6192 Clouds 2 1033 55 10000 3.1 130 00:57 24.03.2020
6193 Clouds 2 1033 55 10000 3.1 130 00:28 24.03.2020
6194 Clouds 2 1034 40 10000 4.6 150 23:59 23.03.2020
6195 Clouds 3 1034 40 10000 4.6 150 23:38 23.03.2020
6196 Clear 3 1032 51 10000 4.1 110 23:20 23.03.2020
6197 Clear 3 1034 40 10000 4.6 140 22:45 23.03.2020
6198 Clear 3 1033 47 10000 4.6 110 22:24 23.03.2020
6199 Clear 3 1033 47 10000 4.6 110 21:58 23.03.2020
6200 Clouds 3 1035 44 10000 3.1 130 21:40 23.03.2020
6201 Clear 4 1033 44 10000 3.6 110 21:20 23.03.2020
6202 Clouds 4 1034 41 10000 4.6 130 20:56 23.03.2020
6203 Clouds 4 1034 41 10000 4.6 130 20:38 23.03.2020
6204 Clear 4 1033 44 10000 3.6 110 20:19 23.03.2020
6205 Clouds 5 1035 41 10000 3.6 110 19:44 23.03.2020
6206 Clear 5 1033 38 10000 3.1 110 19:24 23.03.2020
6207 Clouds 6 1034 35 10000 4.1 130 18:57 23.03.2020
6208 Clouds 7 1034 35 10000 4.1 130 18:39 23.03.2020
6209 Clear 7 1032 31 10000 4.1 130 18:20 23.03.2020
6210 Clear 8 1034 30 10000 5.1 140 17:42 23.03.2020
6211 Clear 8 1032 26 10000 5.7 140 17:21 23.03.2020
6212 Clear 9 1034 26 10000 6.2 150 16:59 23.03.2020
6213 Clear 9 1034 26 10000 6.2 150 16:39 23.03.2020
6214 Clear 9 1033 26 10000 5.7 130 16:20 23.03.2020
6215 Clear 9 1035 22 10000 5.7 140 15:42 23.03.2020
6216 Clear 9 1035 22 10000 5.7 140 15:42 23.03.2020
6217 Clear 9 1034 29 10000 6.7 130 15:20 23.03.2020
6218 Clear 8 1035 28 10000 6.2 130 14:55 23.03.2020
6219 Clear 8 1035 28 10000 6.2 130 14:36 23.03.2020
6220 Clear 8 1034 28 10000 6.7 140 14:18 23.03.2020
6221 Clear 8 1036 26 10000 6.7 130 13:40 23.03.2020
6222 Clear 7 1034 33 10000 5.7 130 13:22 23.03.2020
6223 Clear 7 1036 28 10000 6.7 140 12:55 23.03.2020
6224 Clear 7 1036 28 10000 6.7 140 12:37 23.03.2020
6225 Clear 6 1035 33 10000 5.7 130 12:19 23.03.2020
6226 Clear 6 1036 30 10000 6.2 140 11:42 23.03.2020
6227 Clear 5 1035 38 10000 5.1 120 11:21 23.03.2020
6228 Clear 5 1037 29 10000 6.2 150 10:58 23.03.2020
6229 Clear 5 1037 29 10000 6.2 150 10:40 23.03.2020
6230 Clear 4 1035 44 10000 5.7 140 10:21 23.03.2020
6231 Clear 4 1037 37 10000 5.7 140 09:58 23.03.2020
6232 Clear 3 1037 37 10000 5.7 140 09:40 23.03.2020
6233 Clear 3 1037 43 10000 5.1 140 09:19 23.03.2020
6234 Clear 2 1037 50 10000 4.6 130 08:38 23.03.2020
6235 Clear 1 1035 57 10000 3.1 110 08:19 23.03.2020
6236 Clear 0 1037 58 10000 3.6 120 07:51 23.03.2020
6237 Clear 0 1035 57 10000 3.1 120 07:32 23.03.2020
6238 Clear -1 1035 63 10000 3.6 110 06:55 23.03.2020
6239 Clear -1 1035 63 10000 3.1 110 06:32 23.03.2020
6240 Clear -1 1037 63 10000 3.6 110 05:43 23.03.2020
6241 Clear 0 1036 58 10000 3.6 110 03:54 23.03.2020
6242 Clear 0 1036 59 10000 3.6 110 02:43 23.03.2020
6243 Clear 1 1036 64 10000 3.6 120 01:42 23.03.2020
6244 Clear 1 1036 55 10000 3.6 120 00:45 23.03.2020
6245 Clear 2 1035 64 10000 3.1 110 00:26 23.03.2020
6246 Clear 2 1036 51 10000 4.1 120 23:42 22.03.2020
6247 Clear 2 1035 59 10000 3.1 110 23:24 22.03.2020
6248 Clear 2 1036 59 10000 3.6 110 22:41 22.03.2020
6249 Clear 3 1035 55 10000 3.1 100 22:20 22.03.2020
6250 Clear 3 1036 55 10000 3.6 110 21:41 22.03.2020
6251 Clear 3 1034 55 10000 3.6 90 21:23 22.03.2020
6252 Clear 3 1034 55 10000 3.6 90 20:58 22.03.2020
6253 Clear 4 1036 55 10000 4.1 100 20:40 22.03.2020
6254 Clear 4 1034 51 10000 3.1 90 20:22 22.03.2020
6255 Clear 4 1034 51 10000 3.1 90 19:56 22.03.2020
6256 Clear 5 1035 51 10000 4.6 100 19:38 22.03.2020
6257 Clear 5 1033 48 10000 4.6 100 19:19 22.03.2020
6258 Clear 5 1035 41 10000 5.7 110 18:57 22.03.2020
6259 Clear 6 1035 41 10000 5.7 110 18:39 22.03.2020
6260 Clear 6 1033 39 10000 6.2 110 18:20 22.03.2020
6261 Clear 7 1035 39 10000 5.7 120 17:57 22.03.2020
6262 Clear 7 1035 39 10000 5.7 120 17:38 22.03.2020
6263 Clear 7 1033 42 10000 6.2 100 17:20 22.03.2020
6264 Clear 7 1035 39 10000 6.7 120 16:57 22.03.2020
6265 Clear 7 1035 39 10000 6.7 120 16:57 22.03.2020
6266 Clear 7 1035 39 10000 6.7 120 16:39 22.03.2020
6267 Clear 7 1033 45 10000 7.2 100 16:20 22.03.2020
6268 Clear 8 1035 39 10000 7.2 120 15:40 22.03.2020
6269 Clear 8 1033 42 10000 7.2 100 15:19 22.03.2020
6270 Clear 7 1035 42 10000 8.7 110 14:46 22.03.2020
6271 Clear 7 1035 42 10000 8.7 110 14:46 22.03.2020
6272 Clear 7 1033 42 10000 6.7 110 14:18 22.03.2020
6273 Clear 7 1036 45 10000 8.2 110 13:44 22.03.2020
6274 Clear 7 1034 45 10000 7.2 100 13:20 22.03.2020
6275 Clear 6 1034 45 10000 7.2 100 12:58 22.03.2020
6276 Clear 6 1036 48 10000 8.7 110 12:39 22.03.2020
6277 Clear 6 1034 45 10000 6.7 90 12:19 22.03.2020
6278 Clear 5 1036 44 9000 9.3 120 11:43 22.03.2020
6279 Clear 5 1034 44 10000 7.2 110 11:25 22.03.2020
6280 Clear 5 1036 48 10000 9.3 120 10:58 22.03.2020
6281 Clear 4 1036 48 10000 9.3 120 10:40 22.03.2020
6282 Clear 4 1034 55 10000 7.2 110 10:22 22.03.2020
6283 Clear 3 1036 55 9000 7.7 120 09:46 22.03.2020
6284 Clear 3 1034 51 10000 8.2 110 09:27 22.03.2020
6285 Clear 2 1036 59 9000 6.2 120 08:48 22.03.2020
6286 Clear 2 1036 59 9000 6.2 120 08:48 22.03.2020
6287 Clear 2 1034 64 10000 5.7 90 08:30 22.03.2020
6288 Clear 1 1036 67 10000 4.6 100 07:56 22.03.2020
6289 Clear 0 1036 67 10000 4.6 100 07:38 22.03.2020
6290 Clear -1 1035 68 10000 3.6 90 06:48 22.03.2020
6291 Clear -1 1035 67 10000 5.7 90 05:52 22.03.2020
6292 Clear 0 1034 64 10000 5.1 100 04:39 22.03.2020
6293 Clear 1 1034 59 10000 3.6 100 01:49 22.03.2020
6294 Clear 1 1034 59 10000 4.1 100 00:50 22.03.2020
6295 Clear 2 1032 69 10000 5.7 80 00:31 22.03.2020
6296 Clear 2 1034 64 9000 4.6 90 23:46 21.03.2020
6297 Clear 2 1032 64 10000 5.7 80 23:23 21.03.2020
6298 Clear 2 1034 59 10000 5.7 80 22:59 21.03.2020
6299 Clear 2 1034 59 10000 5.7 80 22:38 21.03.2020
6300 Clear 3 1032 69 10000 4.6 60 22:20 21.03.2020
6301 Clear 3 1033 59 10000 5.7 80 21:58 21.03.2020
6302 Clear 3 1033 59 10000 5.7 80 21:39 21.03.2020
6303 Clear 3 1031 64 10000 4.1 80 21:20 21.03.2020
6304 -273 0 0 0 0 0 21:20 21.03.2020
6305 Clear 4 1033 55 10000 5.7 80 20:44 21.03.2020
6306 Clear 4 1031 60 10000 4.1 80 20:22 21.03.2020
6307 Clear 4 1031 60 10000 4.1 80 19:57 21.03.2020
6308 Clear 5 1032 55 10000 5.7 80 19:38 21.03.2020
6309 Clear 5 1030 56 10000 5.7 90 19:19 21.03.2020
6310 Clear 5 1032 56 10000 7.7 80 18:54 21.03.2020
6311 Clear 6 1032 56 10000 7.7 80 18:36 21.03.2020
6312 Clear 6 1030 52 10000 6.2 80 18:18 21.03.2020
6313 Clear 7 1030 48 10000 6.7 80 17:42 21.03.2020
6314 Clouds 7 1030 48 10000 6.7 90 17:23 21.03.2020
6315 Clear 7 1032 45 10000 8.7 90 16:56 21.03.2020
6316 Clear 7 1032 45 10000 8.7 90 16:38 21.03.2020
6317 Clear 8 1030 49 10000 6.7 90 16:18 21.03.2020
6318 Clear 8 1032 45 10000 9.3 90 15:41 21.03.2020
6319 Clouds 8 1030 52 10000 8.2 80 15:23 21.03.2020
6320 Clouds 8 1030 52 10000 8.2 80 14:58 21.03.2020
6321 Clear 8 1031 49 10000 8.2 80 14:40 21.03.2020
6322 Clouds 8 1031 52 10000 8.2 80 14:20 21.03.2020
6323 Clouds 7 1031 52 10000 8.2 80 13:59 21.03.2020
6324 Clear 7 1033 52 10000 8.2 80 13:40 21.03.2020
6325 Clouds 7 1031 63 10000 7.7 70 13:22 21.03.2020
6326 Clouds 7 1031 62 10000 7.7 70 12:59 21.03.2020
6327 Clouds 7 1031 65 10000 8.2 90 12:38 21.03.2020
6328 Clouds 7 1031 62 10000 7.7 70 12:19 21.03.2020
6329 Clear 6 1033 60 9000 10.3 80 11:56 21.03.2020
6330 Clear 6 1033 60 9000 10.3 80 11:38 21.03.2020
6331 Clouds 6 1032 75 10000 6.2 90 11:19 21.03.2020
6332 Clear 5 1033 65 10000 8.2 80 10:57 21.03.2020
6333 Clear 5 1033 65 10000 8.2 80 10:38 21.03.2020
6334 Clouds 5 1032 70 10000 8.2 70 10:19 21.03.2020
6335 Clear 5 1033 70 9000 7.7 80 09:56 21.03.2020
6336 Clear 5 1033 70 9000 7.7 80 09:37 21.03.2020
6337 Clear 4 1032 69 10000 7.2 60 09:19 21.03.2020
6338 Clear 3 1033 69 9000 8.2 70 08:44 21.03.2020
6339 Clear 3 1032 69 10000 5.1 50 08:25 21.03.2020
6340 Clear 2 1032 69 10000 6.2 60 07:47 21.03.2020
6341 Clear 1 1032 74 10000 5.1 50 07:28 21.03.2020
6342 Clear 1 1032 64 10000 6.2 60 06:48 21.03.2020
6343 Clear 1 1031 74 10000 4.6 40 06:29 21.03.2020
6344 Clear 1 1032 64 10000 5.7 60 05:48 21.03.2020
6345 Clear 1 1031 74 10000 4.1 50 05:18 21.03.2020
6346 Clear 2 1031 74 10000 5.7 60 03:32 21.03.2020
6347 Clear 2 1032 69 10000 4.6 60 02:35 21.03.2020
6348 Clear 3 1032 55 10000 5.7 60 01:40 21.03.2020
6349 Clear 3 1031 74 10000 4.6 60 01:20 21.03.2020
6350 Clear 4 1032 51 10000 6.7 50 00:38 21.03.2020
6351 Clear 4 1032 60 10000 6.2 60 23:59 20.03.2020
6352 Clear 4 1032 60 10000 6.2 60 23:41 20.03.2020
6353 Clear 4 1031 86 10000 4.1 40 23:20 20.03.2020
6354 Clear 4 1031 52 10000 6.2 60 22:43 20.03.2020
6355 Clear 5 1030 93 10000 3.1 30 22:24 20.03.2020
6356 Clear 5 1031 75 9000 6.2 50 21:58 20.03.2020
6357 Clear 5 1031 75 9000 6.2 50 21:39 20.03.2020
6358 Clear 5 1030 86 10000 3.1 30 21:19 20.03.2020
6359 Clear 5 1030 86 10000 3.1 30 20:57 20.03.2020
6360 Clouds 5 1030 86 10000 4.1 20 20:39 20.03.2020
6361 Clouds 5 1029 80 10000 3.6 30 20:19 20.03.2020
6362 Clouds 5 1029 86 10000 3.6 20 19:46 20.03.2020
6363 Clouds 5 1029 75 10000 4.1 30 19:20 20.03.2020
6364 Clouds 6 1029 75 10000 4.1 30 18:57 20.03.2020
6365 Clouds 6 1029 75 10000 4.1 30 18:38 20.03.2020
6366 Clouds 7 1029 70 10000 4.6 10 18:19 20.03.2020
6367 Clouds 7 1029 70 10000 5.1 30 17:56 20.03.2020
6368 Clouds 7 1029 70 10000 5.1 30 17:37 20.03.2020
6369 Clouds 7 1029 70 10000 5.7 20 17:18 20.03.2020
6370 Clouds 7 1029 70 10000 4.6 10 16:41 20.03.2020
6371 Clouds 7 1029 70 10000 4.6 10 16:41 20.03.2020
6372 Clouds 8 1029 70 10000 6.2 30 16:21 20.03.2020
6373 Clouds 8 1029 70 10000 5.1 20 15:44 20.03.2020
6374 Clouds 8 1029 70 10000 6.2 20 15:23 20.03.2020
6375 Clouds 8 1029 70 10000 6.2 20 14:59 20.03.2020
6376 Clouds 8 1029 70 10000 6.2 20 14:59 20.03.2020
6377 Clouds 8 1029 70 10000 5.7 30 14:41 20.03.2020
6378 -273 0 0 0 0 0 14:20 20.03.2020
6379 Clouds 8 1029 70 10000 4.6 20 13:48 20.03.2020
6380 Clouds 8 1029 65 10000 6.2 40 13:24 20.03.2020
6381 Clouds 8 1029 65 10000 6.2 40 13:24 20.03.2020
6382 Clouds 8 1029 70 10000 5.1 30 12:58 20.03.2020
6383 Clouds 8 1029 70 10000 5.1 30 12:38 20.03.2020
6384 Clouds 8 1029 75 10000 5.1 30 12:19 20.03.2020
6385 Clouds 8 1029 70 10000 5.7 50 11:39 20.03.2020
6386 Clouds 8 1028 75 10000 5.7 50 11:20 20.03.2020
6387 Clouds 8 1029 70 10000 6.2 40 10:56 20.03.2020
6388 Clouds 8 1029 70 10000 6.2 40 10:38 20.03.2020
6389 Clouds 8 1029 70 10000 5.1 40 10:18 20.03.2020
6390 Clouds 8 1029 70 10000 5.1 40 10:18 20.03.2020
6391 Clouds 8 1029 70 10000 5.1 40 10:18 20.03.2020
6392 Rain 7 1028 81 10000 4.6 30 09:45 20.03.2020
6393 Clouds 7 1028 81 10000 5.1 40 09:21 20.03.2020
6394 Clouds 7 1028 81 10000 5.1 40 08:58 20.03.2020
6395 Clouds 7 1028 87 10000 3.1 40 08:39 20.03.2020
6396 Clouds 6 1028 87 10000 3.1 20 08:19 20.03.2020
6397 Clouds 6 1028 87 10000 2.6 30 07:43 20.03.2020
6398 Clouds 6 1027 87 10000 3.6 30 07:25 20.03.2020
6399 Clouds 6 1027 87 10000 2.6 50 06:43 20.03.2020
6400 Clouds 6 1027 87 10000 3.1 30 06:22 20.03.2020
6401 Clouds 6 1027 81 8000 2.1 30 04:48 20.03.2020
6402 Clouds 6 1027 87 8000 2.1 30 02:54 20.03.2020
6403 Clouds 6 1027 87 8000 1.5 10 01:50 20.03.2020
6404 Clouds 6 1027 87 7000 1 30 00:46 20.03.2020
6405 Clouds 7 1027 81 10000 2.6 40 00:24 20.03.2020
6406 Clouds 7 1027 87 8000 2.1 20 23:42 19.03.2020
6407 Clouds 7 1027 87 10000 2.6 40 23:23 19.03.2020
6408 Clouds 7 1027 87 7000 2.1 30 22:55 19.03.2020
6409 Clouds 7 1027 87 7000 2.1 30 22:37 19.03.2020
6410 Clouds 7 1027 81 10000 3.1 30 22:18 19.03.2020
6411 Clouds 7 1027 87 10000 3.6 30 21:40 19.03.2020
6412 Clouds 7 1027 87 10000 4.1 30 21:20 19.03.2020
6413 Clouds 7 1027 81 10000 1.5 20 20:56 19.03.2020
6414 Clouds 7 1027 81 10000 1.5 20 20:38 19.03.2020
6415 Clouds 7 1027 81 10000 3.6 30 20:19 19.03.2020
6416 Clouds 8 1027 81 10000 2.1 30 19:55 19.03.2020
6417 Clouds 8 1027 81 10000 2.1 30 19:37 19.03.2020
6418 Clouds 8 1026 75 10000 4.1 30 19:18 19.03.2020
6419 Clouds 8 1027 75 10000 2.6 30 18:42 19.03.2020
6420 Clouds 8 1026 66 10000 3.6 30 18:22 19.03.2020
6421 Clouds 8 1027 65 10000 2.6 20 17:58 19.03.2020
6422 Clouds 9 1027 65 10000 2.6 20 17:39 19.03.2020
6423 Clouds 9 1026 70 10000 3.6 10 17:18 19.03.2020
6424 Clouds 9 1027 70 10000 3.1 360 16:43 19.03.2020
6425 Clouds 10 1026 61 10000 4.1 30 16:23 19.03.2020
6426 Clouds 10 1027 61 10000 3.1 10 15:45 19.03.2020
6427 Clouds 10 1027 66 10000 4.1 30 15:26 19.03.2020
6428 Clouds 10 1027 66 10000 2.6 20 14:55 19.03.2020
6429 Clouds 10 1027 66 10000 2.6 20 14:37 19.03.2020
6430 Clouds 10 1027 66 10000 3.6 40 14:19 19.03.2020
6431 Clouds 10 1027 70 10000 3.1 10 13:39 19.03.2020
6432 Clouds 9 1027 76 10000 3.1 40 13:19 19.03.2020
6433 Clouds 9 1027 70 10000 2.1 20 12:55 19.03.2020
6434 Clouds 9 1027 70 10000 2.1 20 12:37 19.03.2020
6435 Clouds 9 1027 76 10000 2.1 70 12:18 19.03.2020
6436 Clouds 9 1027 75 10000 2.1 10 11:41 19.03.2020
6437 Clouds 8 1027 75 10000 2.6 20 11:23 19.03.2020
6438 Clouds 8 1027 75 10000 3.1 30 10:56 19.03.2020
6439 Clouds 8 1027 87 10000 2.1 350 10:36 19.03.2020
6440 Clouds 8 1026 87 10000 2.1 70 10:18 19.03.2020
6441 Clouds 7 1026 87 10000 0.5 290 09:44 19.03.2020
6442 Clouds 7 1026 87 10000 2.1 40 09:25 19.03.2020
6443 Clouds 7 1026 93 10000 1 260 08:57 19.03.2020
6444 Clouds 7 1026 93 10000 1 260 08:37 19.03.2020
6445 Clouds 6 1026 93 10000 2.1 20 08:18 19.03.2020
6446 Clouds 6 1025 93 10000 0.5 190 07:42 19.03.2020
6447 Clouds 6 1025 100 10000 1.5 30 07:22 19.03.2020
6448 Clouds 6 1025 100 9000 2.6 40 06:29 19.03.2020
6449 Clouds 6 1024 93 9000 2.1 20 05:25 19.03.2020
6450 Rain 6 1024 93 3300 3.1 10 04:51 19.03.2020
6451 Mist 7 1024 93 3900 3.1 20 04:22 19.03.2020
6452 Clouds 7 1024 100 6000 3.1 20 02:33 19.03.2020
6453 Rain 8 1023 93 3000 2.6 10 00:55 19.03.2020
6454 Drizzle 9 1023 93 2700 3.6 250 00:20 19.03.2020
6455 Rain 9 1023 93 1400 1.5 30 23:45 18.03.2020
6456 Mist 10 1023 93 5000 3.6 240 23:26 18.03.2020
6457 Mist 10 1023 93 5000 3.6 240 23:26 18.03.2020
6458 Rain 10 1023 100 2000 2.1 50 22:43 18.03.2020
6459 Drizzle 10 1023 93 4400 4.6 230 22:24 18.03.2020
6460 Rain 10 1023 93 1800 3.1 260 21:59 18.03.2020
6461 Rain 10 1023 93 1800 3.1 260 21:41 18.03.2020
6462 Clouds 10 1023 93 10000 4.6 220 21:21 18.03.2020
6463 Clouds 10 1023 93 10000 4.6 220 20:57 18.03.2020
6464 Drizzle 10 1023 93 2000 3.1 240 20:38 18.03.2020
6465 Clouds 10 1023 93 6000 4.6 220 20:19 18.03.2020
6466 Drizzle 10 1023 93 2500 4.6 240 19:55 18.03.2020
6467 Drizzle 10 1023 93 2500 4.6 240 19:36 18.03.2020
6468 Clouds 10 1023 93 10000 5.1 230 19:18 18.03.2020
6469 Drizzle 11 1023 93 2000 4.1 240 18:41 18.03.2020
6470 Clouds 11 1023 87 10000 6.2 230 18:20 18.03.2020
6471 Drizzle 11 1022 93 3000 4.6 240 17:57 18.03.2020
6472 Drizzle 11 1022 93 3000 4.6 240 17:57 18.03.2020
6473 Drizzle 11 1022 93 3000 4.6 240 17:39 18.03.2020
6474 Drizzle 11 1022 93 4000 5.1 240 17:21 18.03.2020
6475 Drizzle 11 1023 87 3000 4.6 240 16:55 18.03.2020
6476 Drizzle 11 1023 87 3000 4.6 240 16:37 18.03.2020
6477 Drizzle 11 1023 87 3000 5.1 240 16:19 18.03.2020
6478 Clouds 11 1023 87 10000 4.6 240 15:45 18.03.2020
6479 Clouds 11 1023 81 10000 6.7 230 15:20 18.03.2020
6480 Drizzle 12 1023 87 4000 5.7 250 14:45 18.03.2020
6481 Drizzle 12 1023 81 4000 6.2 240 14:22 18.03.2020
6482 Clouds 12 1023 76 10000 7.2 230 13:59 18.03.2020
6483 Clouds 12 1023 81 10000 5.7 240 13:37 18.03.2020
6484 Clouds 12 1024 76 10000 8.2 240 13:19 18.03.2020
6485 Clouds 12 1024 76 10000 7.2 240 12:41 18.03.2020
6486 Clouds 11 1024 76 10000 7.2 240 12:20 18.03.2020
6487 Drizzle 11 1023 81 10000 5.1 240 11:40 18.03.2020
6488 Clouds 11 1023 71 10000 6.2 240 11:21 18.03.2020
6489 Clouds 11 1023 71 10000 5.7 240 10:58 18.03.2020
6490 Clouds 11 1023 71 10000 5.7 240 10:39 18.03.2020
6491 Clouds 10 1023 76 10000 7.2 230 10:20 18.03.2020
6492 Clouds 10 1023 76 10000 7.2 230 09:59 18.03.2020
6493 Clouds 10 1023 70 10000 6.7 230 09:39 18.03.2020
6494 Clouds 9 1023 66 10000 5.1 230 09:21 18.03.2020
6495 Clouds 8 1022 65 10000 5.1 220 08:40 18.03.2020
6496 Clouds 8 1023 70 10000 5.7 210 08:21 18.03.2020
6497 Clouds 8 1022 65 10000 5.7 220 07:49 18.03.2020
6498 Clouds 7 1023 65 10000 6.2 220 07:31 18.03.2020
6499 Clouds 7 1022 65 10000 5.7 220 06:54 18.03.2020
6500 Clouds 7 1022 65 10000 5.7 220 06:35 18.03.2020
6501 Clouds 7 1022 82 10000 5.7 220 05:37 18.03.2020
6502 Clouds 7 1023 73 10000 5.7 210 04:32 18.03.2020
6503 Clouds 7 1024 61 10000 6.7 220 03:21 18.03.2020
6504 Clouds 7 1023 70 9000 6.2 210 02:35 18.03.2020
6505 Clouds 8 1024 65 9000 5.7 220 01:42 18.03.2020
6506 Clouds 8 1024 65 9000 4.6 230 00:43 18.03.2020
6507 Clouds 8 1025 70 10000 6.2 220 00:21 18.03.2020
6508 Clouds 8 1025 65 9000 5.1 220 23:42 17.03.2020
6509 Clouds 8 1025 70 10000 5.7 210 23:20 17.03.2020
6510 Clouds 8 1025 70 9000 4.1 220 22:45 17.03.2020
6511 Clouds 8 1026 70 10000 4.6 200 22:26 17.03.2020
6512 Clouds 8 1026 70 8000 3.1 220 21:44 17.03.2020
6513 Clouds 8 1026 75 10000 3.6 200 21:25 17.03.2020
6514 Clouds 8 1026 75 10000 3.6 200 20:58 17.03.2020
6515 Clouds 9 1026 66 10000 3.1 230 20:38 17.03.2020
6516 Clouds 9 1026 70 10000 4.6 230 20:19 17.03.2020
6517 Clouds 10 1026 66 10000 3.6 230 19:42 17.03.2020
6518 Clouds 10 1026 66 10000 4.6 230 19:21 17.03.2020
6519 Clouds 11 1026 57 10000 5.7 250 18:59 17.03.2020
6520 Clouds 11 1026 57 10000 5.7 250 18:40 17.03.2020
6521 Clouds 11 1026 57 10000 5.7 240 18:22 17.03.2020
6522 Clouds 11 1026 58 10000 6.7 250 17:59 17.03.2020
6523 Clouds 11 1026 58 10000 6.7 250 17:39 17.03.2020
6524 Clouds 12 1026 58 10000 7.2 240 17:19 17.03.2020
6525 Clouds 12 1026 58 10000 6.7 250 16:43 17.03.2020
6526 Clouds 12 1026 54 10000 8.7 230 16:19 17.03.2020
6527 Clouds 12 1026 54 10000 8.7 230 15:56 17.03.2020
6528 Clouds 13 1026 62 10000 7.7 250 15:38 17.03.2020
6529 Clouds 12 1026 50 10000 9.8 230 15:18 17.03.2020
6530 Clouds 12 1026 62 10000 8.2 230 14:41 17.03.2020
6531 Clouds 12 1027 66 10000 8.2 230 14:18 17.03.2020
6532 Clouds 11 1026 62 10000 6.7 240 13:41 17.03.2020
6533 Clouds 11 1027 62 10000 9.3 230 13:22 17.03.2020
6534 Clouds 11 1026 61 10000 6.7 240 12:48 17.03.2020
6535 Clouds 11 1027 66 10000 8.2 220 12:26 17.03.2020
6536 Clouds 11 1027 66 10000 8.7 230 11:59 17.03.2020
6537 Clouds 11 1027 66 10000 8.7 230 11:40 17.03.2020
6538 Clouds 10 1026 66 10000 8.2 230 11:22 17.03.2020
6539 Clouds 10 1026 70 10000 6.7 240 10:56 17.03.2020
6540 Clouds 10 1026 70 10000 6.7 240 10:37 17.03.2020
6541 Clouds 9 1026 81 10000 6.2 210 10:18 17.03.2020
6542 Clouds 8 1026 81 10000 5.1 220 09:46 17.03.2020
6543 Clouds 7 1026 93 9000 5.7 210 09:20 17.03.2020
6544 Clouds 7 1026 93 9000 5.7 210 08:59 17.03.2020
6545 Clouds 6 1025 93 10000 5.7 210 08:41 17.03.2020
6546 Clouds 5 1026 93 6000 5.1 210 08:20 17.03.2020
6547 Mist 5 1026 93 5000 4.6 210 07:49 17.03.2020
6548 Mist 4 1026 93 5000 4.1 200 07:21 17.03.2020
6549 Fog 4 1025 100 300 2.6 220 06:53 17.03.2020
6550 Mist 4 1025 93 4300 3.6 200 06:27 17.03.2020
6551 Fog 3 1025 93 6000 2.6 210 05:38 17.03.2020
6552 Fog 4 1024 100 10000 1 240 03:36 17.03.2020
6553 Fog 4 1024 100 10000 1.5 210 02:38 17.03.2020
6554 Fog 3 1024 100 10000 1.5 180 01:41 17.03.2020
6555 Clear 3 1024 100 9000 1.5 170 01:19 17.03.2020
6556 Clouds 4 1025 100 10000 0.5 250 00:19 17.03.2020
6557 Clouds 4 1024 93 10000 0.5 220 23:44 16.03.2020
6558 Clear 4 1024 100 9000 1 250 23:23 16.03.2020
6559 Clouds 5 1024 93 10000 0.5 0 22:40 16.03.2020
6560 Clear 5 1023 100 10000 1 140 22:22 16.03.2020
6561 Clouds 5 1023 93 10000 2.94 232 21:55 16.03.2020
6562 Clouds 6 1023 93 10000 2.94 232 21:36 16.03.2020
6563 Clear 6 1023 100 10000 0.5 40 21:18 16.03.2020
6564 Clouds 6 1023 86 10000 0.5 20 20:55 16.03.2020
6565 Clouds 7 1023 86 10000 0.5 20 20:37 16.03.2020
6566 Clear 7 1023 87 10000 1 70 20:18 16.03.2020
6567 Clear 7 1023 87 10000 1 70 20:18 16.03.2020
6568 Clouds 8 1023 81 10000 0.5 20 19:40 16.03.2020
6569 Clear 8 1022 87 10000 0.5 30 19:20 16.03.2020
6570 Clouds 9 1022 75 10000 1.5 340 18:41 16.03.2020
6571 Clouds 9 1022 76 10000 2.6 320 18:20 16.03.2020
6572 Clouds 10 1022 70 10000 3.1 330 17:55 16.03.2020
6573 Clouds 10 1022 70 10000 3.1 330 17:36 16.03.2020
6574 Clear 11 1021 71 10000 3.1 330 17:18 16.03.2020
6575 Clouds 11 1021 66 10000 3.6 280 16:42 16.03.2020
6576 Clouds 12 1021 58 10000 3.1 260 16:24 16.03.2020
6577 Clouds 12 1021 71 10000 3.1 300 15:44 16.03.2020
6578 Clouds 11 1020 62 10000 2.1 290 15:26 16.03.2020
6579 Clouds 11 1020 66 10000 3.1 280 14:49 16.03.2020
6580 Clouds 11 1020 66 10000 2.6 260 14:27 16.03.2020
6581 Clouds 11 1020 66 10000 2.6 260 13:58 16.03.2020
6582 Clouds 11 1020 71 10000 4.1 270 13:40 16.03.2020
6583 Clouds 11 1019 62 10000 2.6 280 13:21 16.03.2020
6584 Clouds 10 1019 76 10000 3.6 310 12:44 16.03.2020
6585 Clouds 11 1019 76 10000 3.1 280 12:23 16.03.2020
6586 Clouds 10 1019 76 10000 3.1 260 11:46 16.03.2020
6587 Clouds 9 1019 81 10000 5.1 290 11:27 16.03.2020
6588 Clouds 9 1019 81 10000 5.1 290 11:27 16.03.2020
6589 Clouds 9 1018 81 10000 4.1 280 10:56 16.03.2020
6590 Clouds 9 1018 81 10000 4.1 280 10:37 16.03.2020
6591 Clouds 9 1018 87 10000 2.6 270 10:18 16.03.2020
6592 Clouds 8 1017 81 10000 3.1 260 09:42 16.03.2020
6593 Clouds 8 1017 93 10000 2.6 240 09:21 16.03.2020
6594 Clouds 7 1015 87 10000 2.6 240 08:53 16.03.2020
6595 Clouds 7 1016 93 10000 2.6 250 08:25 16.03.2020
6596 Clouds 6 1015 87 10000 2.6 260 07:49 16.03.2020
6597 Clouds 6 1014 87 10000 2.6 250 07:27 16.03.2020
6598 Clouds 6 1014 87 10000 2.6 250 06:54 16.03.2020
6599 Clouds 6 1014 100 6000 2.6 240 06:25 16.03.2020
6600 Clouds 6 1013 81 10000 3.1 260 05:42 16.03.2020
6601 Clouds 8 1011 81 10000 3.1 190 02:44 16.03.2020
6602 Clouds 9 1011 81 10000 3.1 200 01:20 16.03.2020
6603 Clouds 9 1011 71 10000 3.6 200 00:39 16.03.2020
6604 Clouds 10 1011 66 10000 4.1 210 23:48 15.03.2020
6605 Rain 10 1011 76 10000 4.6 200 23:20 15.03.2020
6606 Clouds 10 1011 71 10000 4.6 220 22:43 15.03.2020
6607 Rain 10 1011 76 10000 4.1 210 22:23 15.03.2020
6608 Rain 10 1011 76 10000 4.1 210 21:59 15.03.2020
6609 Clouds 10 1011 66 10000 5.1 230 21:39 15.03.2020
6610 Clouds 10 1011 71 10000 4.6 200 21:19 15.03.2020
6611 Clouds 10 1011 62 10000 6.7 220 20:43 15.03.2020
6612 Clouds 10 1011 76 10000 4.6 210 20:22 15.03.2020
6613 Clouds 10 1011 76 10000 4.6 210 19:58 15.03.2020
6614 Clouds 10 1011 66 10000 7.7 220 19:40 15.03.2020
6615 Clouds 10 1010 71 10000 6.2 210 19:22 15.03.2020
6616 Clouds 11 1010 71 10000 5.7 210 18:57 15.03.2020
6617 Clouds 11 1010 71 10000 5.7 210 18:38 15.03.2020
6618 Clouds 11 1010 66 10000 8.2 210 18:20 15.03.2020
6619 Clouds 11 1010 71 10000 5.7 210 17:42 15.03.2020
6620 Clouds 11 1010 71 10000 5.1 210 17:22 15.03.2020
6621 Clouds 11 1010 66 10000 7.2 210 16:59 15.03.2020
6622 Clouds 11 1010 66 10000 7.2 210 16:41 15.03.2020
6623 Clouds 11 1010 71 10000 7.2 220 16:22 15.03.2020
6624 Clouds 11 1010 71 10000 7.2 220 15:57 15.03.2020
6625 Clouds 11 1010 66 10000 6.2 210 15:38 15.03.2020
6626 Clouds 11 1010 76 10000 7.7 210 15:19 15.03.2020
6627 Clouds 11 1010 62 10000 7.7 210 14:43 15.03.2020
6628 Clouds 12 1010 71 10000 7.7 200 14:24 15.03.2020
6629 Clouds 12 1010 62 10000 8.7 200 13:57 15.03.2020
6630 Clouds 12 1010 62 10000 8.7 200 13:38 15.03.2020
6631 Clouds 12 1010 66 10000 8.2 200 13:19 15.03.2020
6632 Clouds 12 1011 66 10000 7.2 200 12:43 15.03.2020
6633 Clouds 12 1011 76 10000 8.2 200 12:25 15.03.2020
6634 Clouds 11 1012 71 10000 6.2 190 11:54 15.03.2020
6635 Clouds 11 1012 71 10000 6.2 190 11:36 15.03.2020
6636 Clouds 11 1012 76 10000 7.7 190 11:18 15.03.2020
6637 Clouds 10 1012 76 10000 6.2 190 10:55 15.03.2020
6638 Clouds 10 1012 76 10000 6.2 190 10:36 15.03.2020
6639 Clouds 9 1012 81 10000 6.7 190 10:18 15.03.2020
6640 Clouds 9 1012 81 10000 6.7 190 09:39 15.03.2020
6641 Clouds 9 1012 81 10000 7.2 190 09:20 15.03.2020
6642 Clouds 8 1012 75 10000 5.7 190 08:42 15.03.2020
6643 Clouds 8 1012 81 10000 7.7 190 08:20 15.03.2020
6644 Clouds 8 1012 75 10000 5.7 190 07:51 15.03.2020
6645 Clouds 8 1012 81 10000 7.2 190 07:29 15.03.2020
6646 Clouds 8 1012 81 10000 6.7 190 06:49 15.03.2020
6647 Clouds 8 1013 75 10000 5.7 190 05:50 15.03.2020
6648 Clouds 8 1012 81 10000 6.7 190 05:18 15.03.2020
6649 Clouds 8 1013 75 10000 6.2 190 04:43 15.03.2020
6650 Clouds 8 1013 81 10000 6.2 190 04:24 15.03.2020
6651 Clouds 8 1014 70 10000 6.7 180 03:38 15.03.2020
6652 Clouds 8 1014 81 10000 6.2 190 02:38 15.03.2020
6653 Clouds 8 1015 70 10000 5.1 180 01:34 15.03.2020
6654 Clouds 7 1016 65 10000 5.7 170 00:46 15.03.2020
6655 Clouds 8 1015 70 10000 6.7 190 00:24 15.03.2020
6656 Clouds 8 1016 65 10000 5.7 160 23:55 14.03.2020
6657 Clouds 8 1016 65 10000 5.7 160 23:37 14.03.2020
6658 Clouds 8 1015 66 10000 5.7 180 23:18 14.03.2020
6659 Clouds 8 1017 65 10000 5.7 160 22:42 14.03.2020
6660 Clouds 8 1016 66 10000 5.7 170 22:23 14.03.2020
6661 Clouds 7 1017 65 10000 5.1 150 21:56 14.03.2020
6662 Clouds 7 1017 65 10000 5.1 150 21:36 14.03.2020
6663 Clouds 8 1017 70 10000 4.1 150 21:18 14.03.2020
6664 Clouds 8 1018 65 10000 4.1 140 20:58 14.03.2020
6665 Clouds 8 1018 65 10000 4.1 140 20:40 14.03.2020
6666 Clouds 8 1017 70 10000 3.6 150 20:19 14.03.2020
6667 Clouds 8 1018 70 10000 4.1 140 19:44 14.03.2020
6668 Clouds 8 1017 66 10000 3.1 150 19:25 14.03.2020
6669 Clouds 8 1018 61 10000 4.1 160 18:56 14.03.2020
6670 Clouds 9 1018 61 10000 4.1 160 18:37 14.03.2020
6671 Clouds 9 1017 61 10000 4.6 150 18:19 14.03.2020
6672 Clouds 10 1018 57 10000 6.2 160 17:39 14.03.2020
6673 Clouds 10 1017 61 10000 4.6 160 17:20 14.03.2020
6674 Clouds 10 1019 53 10000 6.2 160 16:41 14.03.2020
6675 Clouds 10 1018 62 10000 5.7 150 16:23 14.03.2020
6676 Clouds 10 1018 62 10000 5.7 150 16:23 14.03.2020
6677 Clouds 10 1018 62 10000 5.7 150 15:59 14.03.2020
6678 Clouds 10 1018 62 10000 5.7 150 15:27 14.03.2020
6679 Clouds 10 1018 61 10000 6.7 160 14:59 14.03.2020
6680 Clouds 10 1020 57 10000 5.1 150 14:37 14.03.2020
6681 Clouds 10 1019 61 10000 5.1 170 14:19 14.03.2020
6682 Clouds 10 1021 57 10000 5.7 160 13:54 14.03.2020
6683 Clouds 10 1021 57 10000 5.7 160 13:36 14.03.2020
6684 Clouds 9 1020 66 10000 6.2 170 13:18 14.03.2020
6685 Clouds 9 1021 61 10000 4.6 160 12:42 14.03.2020
6686 Clouds 9 1020 70 10000 4.1 160 12:23 14.03.2020
6687 Clouds 8 1022 60 10000 3.6 160 11:43 14.03.2020
6688 Clouds 8 1022 60 10000 3.6 160 11:43 14.03.2020
6689 Clouds 7 1021 75 10000 4.6 150 11:25 14.03.2020
6690 Clouds 6 1022 60 10000 5.1 160 10:47 14.03.2020
6691 Clouds 6 1022 60 10000 5.1 160 10:47 14.03.2020
6692 Clouds 6 1021 75 10000 4.1 130 10:28 14.03.2020
6693 Clouds 5 1021 75 10000 4.1 130 09:59 14.03.2020
6694 Clouds 4 1022 69 10000 3.1 170 09:40 14.03.2020
6695 Clouds 4 1021 74 10000 3.1 130 09:21 14.03.2020
6696 Clouds 2 1022 74 10000 1 160 08:46 14.03.2020
6697 Clouds 2 1022 74 10000 1 160 08:46 14.03.2020
6698 Clouds 1 1021 86 10000 2.6 120 08:26 14.03.2020
6699 Clear 0 1021 77 10000 2.1 120 07:41 14.03.2020
6700 Clear -1 1021 92 10000 2.1 110 07:22 14.03.2020
6701 Fog -1 1021 92 10000 1 0 06:55 14.03.2020
6702 Fog -1 1021 92 10000 1 0 06:36 14.03.2020
6703 Clouds -1 1021 92 10000 0.5 150 04:56 14.03.2020
6704 Clouds -1 1021 92 10000 0.5 180 03:40 14.03.2020
6705 Clouds -1 1021 92 10000 2.1 230 02:53 14.03.2020
6706 Clouds 0 1021 66 10000 1.5 240 01:47 14.03.2020
6707 Clouds 0 1021 80 10000 1 280 00:36 14.03.2020
6708 Clouds 1 1021 74 10000 1 250 23:44 13.03.2020
6709 Clear 1 1021 62 10000 0.5 300 23:24 13.03.2020
6710 Clouds 2 1020 74 10000 1 300 22:46 13.03.2020
6711 Clear 2 1020 66 10000 0.5 300 22:24 13.03.2020
6712 Clouds 3 1019 69 10000 3.1 330 21:42 13.03.2020
6713 Clouds 4 1019 64 10000 4.1 330 21:21 13.03.2020
6714 Clouds 4 1019 64 10000 4.1 330 20:56 13.03.2020
6715 Clouds 4 1019 64 10000 4.1 330 20:37 13.03.2020
6716 Clear 4 1019 69 10000 1.5 280 20:18 13.03.2020
6717 Clouds 5 1018 60 10000 5.1 310 19:42 13.03.2020
6718 Clouds 5 1018 75 10000 3.6 330 19:23 13.03.2020
6719 Clouds 6 1017 60 10000 4.1 320 18:44 13.03.2020
6720 Clouds 6 1017 70 10000 4.6 320 18:25 13.03.2020
6721 Clouds 6 1016 69 10000 6.7 320 17:55 13.03.2020
6722 Clouds 7 1016 69 10000 6.7 320 17:37 13.03.2020
6723 Clouds 7 1017 70 10000 4.6 330 17:18 13.03.2020
6724 Clouds 8 1015 65 10000 7.7 310 16:40 13.03.2020
6725 Clouds 8 1016 70 10000 5.7 310 16:22 13.03.2020
6726 Clouds 8 1014 65 10000 7.2 310 15:55 13.03.2020
6727 Clouds 8 1014 65 10000 7.2 310 15:37 13.03.2020
6728 Clouds 8 1015 66 10000 7.7 310 15:18 13.03.2020
6729 Clouds 9 1013 61 10000 10.3 310 14:41 13.03.2020
6730 Clouds 9 1014 70 10000 7.7 310 14:22 13.03.2020
6731 Clouds 9 1012 66 10000 9.3 300 13:56 13.03.2020
6732 Clouds 9 1012 66 10000 9.3 300 13:38 13.03.2020
6733 Rain 9 1014 66 10000 8.2 300 13:18 13.03.2020
6734 Clouds 9 1013 66 10000 6.2 300 12:40 13.03.2020
6735 Clouds 9 1012 70 10000 7.7 300 12:22 13.03.2020
6736 Clouds 8 1009 70 10000 9.3 300 11:57 13.03.2020
6737 Clouds 8 1009 70 10000 9.3 300 11:39 13.03.2020
6738 Clouds 8 1011 81 10000 9.3 310 11:21 13.03.2020
6739 Rain 7 1008 81 8000 9.3 290 10:47 13.03.2020
6740 Clouds 7 1010 81 10000 6.7 270 10:27 13.03.2020
6741 Rain 7 1006 81 8000 10.3 280 09:57 13.03.2020
6742 Rain 7 1006 81 8000 10.3 280 09:39 13.03.2020
6743 Clouds 7 1008 81 10000 7.7 270 09:20 13.03.2020
6744 Rain 6 1004 87 8000 13.4 270 08:45 13.03.2020
6745 Clouds 6 1007 87 10000 7.7 260 08:22 13.03.2020
6746 Rain 6 1003 86 9000 9.8 250 07:49 13.03.2020
6747 Rain 5 1005 93 7000 9.8 250 07:28 13.03.2020
6748 Rain 5 1003 86 9000 9.8 250 06:50 13.03.2020
6749 Drizzle 5 1005 81 5000 10.3 250 06:32 13.03.2020
6750 Clouds 5 1003 75 10000 10.8 250 05:54 13.03.2020
6751 Rain 5 1005 86 10000 8.2 250 05:22 13.03.2020
6752 Clouds 5 1003 70 10000 8.2 240 04:37 13.03.2020
6753 Rain 6 1004 70 10000 8.7 240 03:37 13.03.2020
6754 Clouds 6 1004 81 10000 7.2 230 01:47 13.03.2020
6755 Clouds 6 1005 75 10000 9.8 240 01:19 13.03.2020
6756 Clouds 6 1006 75 10000 8.7 240 00:53 13.03.2020
6757 Clouds 6 1006 75 10000 9.8 230 00:24 13.03.2020
6758 Rain 6 1005 75 10000 6.7 220 23:55 12.03.2020
6759 Clouds 6 1006 81 10000 8.2 220 23:28 12.03.2020
6760 Clouds 5 1005 80 10000 5.7 220 22:57 12.03.2020
6761 Clouds 5 1005 80 10000 5.7 220 22:39 12.03.2020
6762 Rain 5 1006 80 10000 6.7 220 22:21 12.03.2020
6763 Clouds 5 1005 86 10000 4.6 220 21:45 12.03.2020
6764 Rain 5 1006 80 10000 5.7 220 21:27 12.03.2020
6765 Clouds 5 1005 80 10000 4.6 230 20:57 12.03.2020
6766 Clouds 5 1005 80 10000 4.6 230 20:38 12.03.2020
6767 Clouds 5 1006 75 10000 7.2 230 20:19 12.03.2020
6768 Rain 5 1006 80 10000 7.7 240 19:42 12.03.2020
6769 Clouds 5 1006 80 10000 4.1 240 19:20 12.03.2020
6770 Clouds 5 1005 70 10000 7.2 240 18:45 12.03.2020
6771 Clouds 5 1005 70 10000 7.2 240 18:45 12.03.2020
6772 Clouds 6 1005 61 10000 7.2 240 18:25 12.03.2020
6773 Clouds 6 1005 72 10000 7.2 250 17:57 12.03.2020
6774 Clouds 6 1005 72 10000 7.2 250 17:39 12.03.2020
6775 Rain 8 1006 61 10000 9.3 240 17:20 12.03.2020
6776 Clouds 8 1006 70 10000 9.8 260 16:58 12.03.2020
6777 Clouds 9 1006 70 10000 9.8 260 16:38 12.03.2020
6778 Clouds 9 1007 61 10000 11.3 240 16:19 12.03.2020
6779 Clouds 9 1007 61 10000 11.8 240 15:45 12.03.2020
6780 Clouds 9 1007 53 10000 11.3 250 15:27 12.03.2020
6781 Clouds 9 1006 49 10000 11.8 260 14:43 12.03.2020
6782 Clouds 9 1007 70 10000 11.3 250 14:24 12.03.2020
6783 Clouds 9 1007 66 10000 11.3 250 13:57 12.03.2020
6784 Clouds 8 1006 61 10000 13.4 270 13:37 12.03.2020
6785 Clouds 9 1006 49 10000 14.4 270 1